<?xml version="1.0" encoding="UTF-8" standalone="no" ?>
<gpx xmlns="http://www.topografix.com/GPX/1/1" xmlns:xsi="http://www.w3.org/2001/XMLSchema-instance" xsi:schemaLocation="http://www.topografix.com/GPX/1/1 http://www.topografix.com/GPX/1/1/gpx.xsd" version="1.1" creator="VisuGPX - https://www.visugpx.com">
  <metadata>
    <name>130504ROBGazoVins</name>
    <desc><![CDATA[Belle prestation de nos jeunes... et de nos vieux aussi!]]></desc>
  </metadata>
  <trk>
    <name><![CDATA[130504ROBGazoVins]]></name>
    <cmt><![CDATA[HR decrease: 120/80/40 - 115/75/40]]></cmt>
    <trkseg>
      <trkpt lat="43.40403" lon="6.06552">
        <ele>235.19999694824</ele>
        <time>2013-05-04T12:07:28Z</time>
      </trkpt>
      <trkpt lat="43.40403" lon="6.06552">
        <ele>235.19999694824</ele>
        <time>2013-05-04T12:07:49Z</time>
      </trkpt>
      <trkpt lat="43.40403" lon="6.0655">
        <ele>235.19999694824</ele>
        <time>2013-05-04T12:07:53Z</time>
      </trkpt>
      <trkpt lat="43.40404" lon="6.06545">
        <ele>235.19999694824</ele>
        <time>2013-05-04T12:07:55Z</time>
      </trkpt>
      <trkpt lat="43.40405" lon="6.0653">
        <ele>235.19999694824</ele>
        <time>2013-05-04T12:08:00Z</time>
      </trkpt>
      <trkpt lat="43.40408" lon="6.06514">
        <ele>235.19999694824</ele>
        <time>2013-05-04T12:08:06Z</time>
      </trkpt>
      <trkpt lat="43.40411" lon="6.06498">
        <ele>235.19999694824</ele>
        <time>2013-05-04T12:08:13Z</time>
      </trkpt>
      <trkpt lat="43.40414" lon="6.06486">
        <ele>235.19999694824</ele>
        <time>2013-05-04T12:08:18Z</time>
      </trkpt>
      <trkpt lat="43.40422" lon="6.06482">
        <ele>235.19999694824</ele>
        <time>2013-05-04T12:08:26Z</time>
      </trkpt>
      <trkpt lat="43.40427" lon="6.06478">
        <ele>235.19999694824</ele>
        <time>2013-05-04T12:08:34Z</time>
      </trkpt>
      <trkpt lat="43.40428" lon="6.06479">
        <ele>235.19999694824</ele>
        <time>2013-05-04T12:08:38Z</time>
      </trkpt>
      <trkpt lat="43.40428" lon="6.06479">
        <ele>235.19999694824</ele>
        <time>2013-05-04T12:08:39Z</time>
      </trkpt>
      <trkpt lat="43.40428" lon="6.06479">
        <ele>235.19999694824</ele>
        <time>2013-05-04T12:08:43Z</time>
      </trkpt>
      <trkpt lat="43.4043" lon="6.06481">
        <ele>235.19999694824</ele>
        <time>2013-05-04T12:08:46Z</time>
      </trkpt>
      <trkpt lat="43.40432" lon="6.06482">
        <ele>235.19999694824</ele>
        <time>2013-05-04T12:08:48Z</time>
      </trkpt>
      <trkpt lat="43.40437" lon="6.06486">
        <ele>235.19999694824</ele>
        <time>2013-05-04T12:08:51Z</time>
      </trkpt>
      <trkpt lat="43.40439" lon="6.06486">
        <ele>235.19999694824</ele>
        <time>2013-05-04T12:08:52Z</time>
      </trkpt>
      <trkpt lat="43.40444" lon="6.06488">
        <ele>235.19999694824</ele>
        <time>2013-05-04T12:08:54Z</time>
      </trkpt>
      <trkpt lat="43.40448" lon="6.06488">
        <ele>235.19999694824</ele>
        <time>2013-05-04T12:08:56Z</time>
      </trkpt>
      <trkpt lat="43.40453" lon="6.06489">
        <ele>235.19999694824</ele>
        <time>2013-05-04T12:08:58Z</time>
      </trkpt>
      <trkpt lat="43.40457" lon="6.06491">
        <ele>235.19999694824</ele>
        <time>2013-05-04T12:09:00Z</time>
      </trkpt>
      <trkpt lat="43.40464" lon="6.06494">
        <ele>235.19999694824</ele>
        <time>2013-05-04T12:09:03Z</time>
      </trkpt>
      <trkpt lat="43.40474" lon="6.06499">
        <ele>235.19999694824</ele>
        <time>2013-05-04T12:09:09Z</time>
      </trkpt>
      <trkpt lat="43.40479" lon="6.06499">
        <ele>234.80000305176</ele>
        <time>2013-05-04T12:09:11Z</time>
      </trkpt>
      <trkpt lat="43.40482" lon="6.065">
        <ele>234</ele>
        <time>2013-05-04T12:09:13Z</time>
      </trkpt>
      <trkpt lat="43.40486" lon="6.06502">
        <ele>233</ele>
        <time>2013-05-04T12:09:15Z</time>
      </trkpt>
      <trkpt lat="43.40488" lon="6.06502">
        <ele>233</ele>
        <time>2013-05-04T12:09:17Z</time>
      </trkpt>
      <trkpt lat="43.40492" lon="6.06503">
        <ele>233</ele>
        <time>2013-05-04T12:09:20Z</time>
      </trkpt>
      <trkpt lat="43.40496" lon="6.06505">
        <ele>233</ele>
        <time>2013-05-04T12:09:22Z</time>
      </trkpt>
      <trkpt lat="43.40504" lon="6.06505">
        <ele>233</ele>
        <time>2013-05-04T12:09:26Z</time>
      </trkpt>
      <trkpt lat="43.40516" lon="6.06511">
        <ele>233</ele>
        <time>2013-05-04T12:09:31Z</time>
      </trkpt>
      <trkpt lat="43.4052" lon="6.06512">
        <ele>233</ele>
        <time>2013-05-04T12:09:32Z</time>
      </trkpt>
      <trkpt lat="43.40541" lon="6.06518">
        <ele>233</ele>
        <time>2013-05-04T12:09:37Z</time>
      </trkpt>
      <trkpt lat="43.40549" lon="6.06521">
        <ele>232.60000610352</ele>
        <time>2013-05-04T12:09:39Z</time>
      </trkpt>
      <trkpt lat="43.40554" lon="6.06522">
        <ele>232.19999694824</ele>
        <time>2013-05-04T12:09:40Z</time>
      </trkpt>
      <trkpt lat="43.40559" lon="6.06523">
        <ele>231.80000305176</ele>
        <time>2013-05-04T12:09:41Z</time>
      </trkpt>
      <trkpt lat="43.40564" lon="6.06525">
        <ele>231.39999389648</ele>
        <time>2013-05-04T12:09:42Z</time>
      </trkpt>
      <trkpt lat="43.40569" lon="6.06526">
        <ele>231</ele>
        <time>2013-05-04T12:09:43Z</time>
      </trkpt>
      <trkpt lat="43.4059" lon="6.0653">
        <ele>231</ele>
        <time>2013-05-04T12:09:47Z</time>
      </trkpt>
      <trkpt lat="43.40601" lon="6.06532">
        <ele>231</ele>
        <time>2013-05-04T12:09:49Z</time>
      </trkpt>
      <trkpt lat="43.4061" lon="6.06534">
        <ele>230</ele>
        <time>2013-05-04T12:09:51Z</time>
      </trkpt>
      <trkpt lat="43.40612" lon="6.06535">
        <ele>229.60000610352</ele>
        <time>2013-05-04T12:09:52Z</time>
      </trkpt>
      <trkpt lat="43.40615" lon="6.06535">
        <ele>229.19999694824</ele>
        <time>2013-05-04T12:09:53Z</time>
      </trkpt>
      <trkpt lat="43.40617" lon="6.06535">
        <ele>228.60000610352</ele>
        <time>2013-05-04T12:09:54Z</time>
      </trkpt>
      <trkpt lat="43.40623" lon="6.06528">
        <ele>228.60000610352</ele>
        <time>2013-05-04T12:09:57Z</time>
      </trkpt>
      <trkpt lat="43.40626" lon="6.06519">
        <ele>228.60000610352</ele>
        <time>2013-05-04T12:09:59Z</time>
      </trkpt>
      <trkpt lat="43.40628" lon="6.06514">
        <ele>228.19999694824</ele>
        <time>2013-05-04T12:10:00Z</time>
      </trkpt>
      <trkpt lat="43.40639" lon="6.06494">
        <ele>226.60000610352</ele>
        <time>2013-05-04T12:10:04Z</time>
      </trkpt>
      <trkpt lat="43.40647" lon="6.06484">
        <ele>226.60000610352</ele>
        <time>2013-05-04T12:10:06Z</time>
      </trkpt>
      <trkpt lat="43.40657" lon="6.06473">
        <ele>226.60000610352</ele>
        <time>2013-05-04T12:10:08Z</time>
      </trkpt>
      <trkpt lat="43.40668" lon="6.06461">
        <ele>226.19999694824</ele>
        <time>2013-05-04T12:10:10Z</time>
      </trkpt>
      <trkpt lat="43.40673" lon="6.06455">
        <ele>225.60000610352</ele>
        <time>2013-05-04T12:10:11Z</time>
      </trkpt>
      <trkpt lat="43.40678" lon="6.06449">
        <ele>225.19999694824</ele>
        <time>2013-05-04T12:10:12Z</time>
      </trkpt>
      <trkpt lat="43.40684" lon="6.06443">
        <ele>224.60000610352</ele>
        <time>2013-05-04T12:10:13Z</time>
      </trkpt>
      <trkpt lat="43.4069" lon="6.06438">
        <ele>224.19999694824</ele>
        <time>2013-05-04T12:10:14Z</time>
      </trkpt>
      <trkpt lat="43.40705" lon="6.06431">
        <ele>223.80000305176</ele>
        <time>2013-05-04T12:10:16Z</time>
      </trkpt>
      <trkpt lat="43.40714" lon="6.0643">
        <ele>223.19999694824</ele>
        <time>2013-05-04T12:10:17Z</time>
      </trkpt>
      <trkpt lat="43.40721" lon="6.06429">
        <ele>222.80000305176</ele>
        <time>2013-05-04T12:10:18Z</time>
      </trkpt>
      <trkpt lat="43.40727" lon="6.06429">
        <ele>222.39999389648</ele>
        <time>2013-05-04T12:10:19Z</time>
      </trkpt>
      <trkpt lat="43.40733" lon="6.06429">
        <ele>221.80000305176</ele>
        <time>2013-05-04T12:10:20Z</time>
      </trkpt>
      <trkpt lat="43.40742" lon="6.06428">
        <ele>220.60000610352</ele>
        <time>2013-05-04T12:10:22Z</time>
      </trkpt>
      <trkpt lat="43.4075" lon="6.06426">
        <ele>219.80000305176</ele>
        <time>2013-05-04T12:10:24Z</time>
      </trkpt>
      <trkpt lat="43.40757" lon="6.06424">
        <ele>219.80000305176</ele>
        <time>2013-05-04T12:10:26Z</time>
      </trkpt>
      <trkpt lat="43.40779" lon="6.06417">
        <ele>219.80000305176</ele>
        <time>2013-05-04T12:10:32Z</time>
      </trkpt>
      <trkpt lat="43.40799" lon="6.06411">
        <ele>219.80000305176</ele>
        <time>2013-05-04T12:10:37Z</time>
      </trkpt>
      <trkpt lat="43.40815" lon="6.06421">
        <ele>219.80000305176</ele>
        <time>2013-05-04T12:10:41Z</time>
      </trkpt>
      <trkpt lat="43.40828" lon="6.06422">
        <ele>219.80000305176</ele>
        <time>2013-05-04T12:10:44Z</time>
      </trkpt>
      <trkpt lat="43.40832" lon="6.06421">
        <ele>219.80000305176</ele>
        <time>2013-05-04T12:10:45Z</time>
      </trkpt>
      <trkpt lat="43.40847" lon="6.06414">
        <ele>219.80000305176</ele>
        <time>2013-05-04T12:10:49Z</time>
      </trkpt>
      <trkpt lat="43.40874" lon="6.06392">
        <ele>219.80000305176</ele>
        <time>2013-05-04T12:10:56Z</time>
      </trkpt>
      <trkpt lat="43.40877" lon="6.06388">
        <ele>219.80000305176</ele>
        <time>2013-05-04T12:10:57Z</time>
      </trkpt>
      <trkpt lat="43.40886" lon="6.06376">
        <ele>219.80000305176</ele>
        <time>2013-05-04T12:11:00Z</time>
      </trkpt>
      <trkpt lat="43.40893" lon="6.06368">
        <ele>219.80000305176</ele>
        <time>2013-05-04T12:11:02Z</time>
      </trkpt>
      <trkpt lat="43.40899" lon="6.0636">
        <ele>219.80000305176</ele>
        <time>2013-05-04T12:11:04Z</time>
      </trkpt>
      <trkpt lat="43.40913" lon="6.06342">
        <ele>219.80000305176</ele>
        <time>2013-05-04T12:11:09Z</time>
      </trkpt>
      <trkpt lat="43.40941" lon="6.06308">
        <ele>219.80000305176</ele>
        <time>2013-05-04T12:11:19Z</time>
      </trkpt>
      <trkpt lat="43.40954" lon="6.063">
        <ele>219.80000305176</ele>
        <time>2013-05-04T12:11:24Z</time>
      </trkpt>
      <trkpt lat="43.40956" lon="6.06302">
        <ele>219.80000305176</ele>
        <time>2013-05-04T12:11:25Z</time>
      </trkpt>
      <trkpt lat="43.40959" lon="6.06309">
        <ele>219.80000305176</ele>
        <time>2013-05-04T12:11:28Z</time>
      </trkpt>
      <trkpt lat="43.40962" lon="6.06311">
        <ele>219.80000305176</ele>
        <time>2013-05-04T12:11:30Z</time>
      </trkpt>
      <trkpt lat="43.40965" lon="6.06309">
        <ele>219.80000305176</ele>
        <time>2013-05-04T12:11:35Z</time>
      </trkpt>
      <trkpt lat="43.40967" lon="6.06309">
        <ele>219.80000305176</ele>
        <time>2013-05-04T12:11:37Z</time>
      </trkpt>
      <trkpt lat="43.40971" lon="6.0631">
        <ele>219.80000305176</ele>
        <time>2013-05-04T12:11:40Z</time>
      </trkpt>
      <trkpt lat="43.40973" lon="6.0631">
        <ele>219.80000305176</ele>
        <time>2013-05-04T12:11:41Z</time>
      </trkpt>
      <trkpt lat="43.40976" lon="6.06307">
        <ele>219.80000305176</ele>
        <time>2013-05-04T12:11:43Z</time>
      </trkpt>
      <trkpt lat="43.40977" lon="6.06305">
        <ele>219.80000305176</ele>
        <time>2013-05-04T12:11:44Z</time>
      </trkpt>
      <trkpt lat="43.40978" lon="6.06295">
        <ele>219.80000305176</ele>
        <time>2013-05-04T12:11:48Z</time>
      </trkpt>
      <trkpt lat="43.40983" lon="6.06285">
        <ele>219.80000305176</ele>
        <time>2013-05-04T12:11:52Z</time>
      </trkpt>
      <trkpt lat="43.40985" lon="6.06284">
        <ele>219.80000305176</ele>
        <time>2013-05-04T12:11:53Z</time>
      </trkpt>
      <trkpt lat="43.40988" lon="6.06282">
        <ele>219.80000305176</ele>
        <time>2013-05-04T12:11:54Z</time>
      </trkpt>
      <trkpt lat="43.40997" lon="6.06278">
        <ele>219.80000305176</ele>
        <time>2013-05-04T12:11:57Z</time>
      </trkpt>
      <trkpt lat="43.41019" lon="6.06273">
        <ele>219.80000305176</ele>
        <time>2013-05-04T12:12:04Z</time>
      </trkpt>
      <trkpt lat="43.41068" lon="6.06257">
        <ele>219.80000305176</ele>
        <time>2013-05-04T12:12:18Z</time>
      </trkpt>
      <trkpt lat="43.41088" lon="6.06249">
        <ele>219.80000305176</ele>
        <time>2013-05-04T12:12:24Z</time>
      </trkpt>
      <trkpt lat="43.41136" lon="6.06238">
        <ele>219.80000305176</ele>
        <time>2013-05-04T12:12:38Z</time>
      </trkpt>
      <trkpt lat="43.41159" lon="6.0623">
        <ele>219.80000305176</ele>
        <time>2013-05-04T12:12:45Z</time>
      </trkpt>
      <trkpt lat="43.4117" lon="6.06223">
        <ele>220.19999694824</ele>
        <time>2013-05-04T12:12:49Z</time>
      </trkpt>
      <trkpt lat="43.41176" lon="6.06219">
        <ele>221.39999389648</ele>
        <time>2013-05-04T12:12:51Z</time>
      </trkpt>
      <trkpt lat="43.41179" lon="6.06217">
        <ele>221.80000305176</ele>
        <time>2013-05-04T12:12:52Z</time>
      </trkpt>
      <trkpt lat="43.41193" lon="6.06211">
        <ele>221.80000305176</ele>
        <time>2013-05-04T12:12:57Z</time>
      </trkpt>
      <trkpt lat="43.41195" lon="6.06208">
        <ele>221.80000305176</ele>
        <time>2013-05-04T12:12:58Z</time>
      </trkpt>
      <trkpt lat="43.41195" lon="6.06202">
        <ele>221.80000305176</ele>
        <time>2013-05-04T12:13:00Z</time>
      </trkpt>
      <trkpt lat="43.41199" lon="6.06195">
        <ele>221.80000305176</ele>
        <time>2013-05-04T12:13:04Z</time>
      </trkpt>
      <trkpt lat="43.41199" lon="6.06196">
        <ele>221.80000305176</ele>
        <time>2013-05-04T12:13:09Z</time>
      </trkpt>
      <trkpt lat="43.41203" lon="6.06192">
        <ele>221.80000305176</ele>
        <time>2013-05-04T12:13:13Z</time>
      </trkpt>
      <trkpt lat="43.41205" lon="6.06189">
        <ele>221.80000305176</ele>
        <time>2013-05-04T12:13:14Z</time>
      </trkpt>
      <trkpt lat="43.41206" lon="6.06181">
        <ele>221.80000305176</ele>
        <time>2013-05-04T12:13:17Z</time>
      </trkpt>
      <trkpt lat="43.41205" lon="6.06179">
        <ele>221.80000305176</ele>
        <time>2013-05-04T12:13:18Z</time>
      </trkpt>
      <trkpt lat="43.41203" lon="6.06164">
        <ele>221.80000305176</ele>
        <time>2013-05-04T12:13:23Z</time>
      </trkpt>
      <trkpt lat="43.41201" lon="6.06145">
        <ele>221.80000305176</ele>
        <time>2013-05-04T12:13:28Z</time>
      </trkpt>
      <trkpt lat="43.41202" lon="6.06125">
        <ele>221.80000305176</ele>
        <time>2013-05-04T12:13:33Z</time>
      </trkpt>
      <trkpt lat="43.41208" lon="6.06117">
        <ele>221.80000305176</ele>
        <time>2013-05-04T12:13:36Z</time>
      </trkpt>
      <trkpt lat="43.41229" lon="6.06102">
        <ele>221.80000305176</ele>
        <time>2013-05-04T12:13:44Z</time>
      </trkpt>
      <trkpt lat="43.41241" lon="6.06096">
        <ele>223.60000610352</ele>
        <time>2013-05-04T12:13:49Z</time>
      </trkpt>
      <trkpt lat="43.41244" lon="6.06094">
        <ele>224</ele>
        <time>2013-05-04T12:13:50Z</time>
      </trkpt>
      <trkpt lat="43.41255" lon="6.06087">
        <ele>224</ele>
        <time>2013-05-04T12:13:54Z</time>
      </trkpt>
      <trkpt lat="43.4127" lon="6.06078">
        <ele>224</ele>
        <time>2013-05-04T12:13:59Z</time>
      </trkpt>
      <trkpt lat="43.41286" lon="6.06069">
        <ele>224</ele>
        <time>2013-05-04T12:14:04Z</time>
      </trkpt>
      <trkpt lat="43.41291" lon="6.06063">
        <ele>224</ele>
        <time>2013-05-04T12:14:06Z</time>
      </trkpt>
      <trkpt lat="43.41308" lon="6.06063">
        <ele>224</ele>
        <time>2013-05-04T12:14:11Z</time>
      </trkpt>
      <trkpt lat="43.41311" lon="6.06065">
        <ele>224.39999389648</ele>
        <time>2013-05-04T12:14:12Z</time>
      </trkpt>
      <trkpt lat="43.41319" lon="6.06073">
        <ele>225.60000610352</ele>
        <time>2013-05-04T12:14:15Z</time>
      </trkpt>
      <trkpt lat="43.41324" lon="6.06079">
        <ele>226</ele>
        <time>2013-05-04T12:14:17Z</time>
      </trkpt>
      <trkpt lat="43.41347" lon="6.06105">
        <ele>226</ele>
        <time>2013-05-04T12:14:26Z</time>
      </trkpt>
      <trkpt lat="43.41358" lon="6.06116">
        <ele>226.39999389648</ele>
        <time>2013-05-04T12:14:31Z</time>
      </trkpt>
      <trkpt lat="43.41362" lon="6.0612">
        <ele>227.19999694824</ele>
        <time>2013-05-04T12:14:33Z</time>
      </trkpt>
      <trkpt lat="43.41365" lon="6.06123">
        <ele>228</ele>
        <time>2013-05-04T12:14:35Z</time>
      </trkpt>
      <trkpt lat="43.41374" lon="6.06132">
        <ele>228</ele>
        <time>2013-05-04T12:14:40Z</time>
      </trkpt>
      <trkpt lat="43.414" lon="6.06155">
        <ele>230</ele>
        <time>2013-05-04T12:14:53Z</time>
      </trkpt>
      <trkpt lat="43.41404" lon="6.06159">
        <ele>230</ele>
        <time>2013-05-04T12:14:55Z</time>
      </trkpt>
      <trkpt lat="43.41419" lon="6.06169">
        <ele>230</ele>
        <time>2013-05-04T12:15:02Z</time>
      </trkpt>
      <trkpt lat="43.41432" lon="6.06174">
        <ele>231.39999389648</ele>
        <time>2013-05-04T12:15:08Z</time>
      </trkpt>
      <trkpt lat="43.41451" lon="6.06179">
        <ele>232.19999694824</ele>
        <time>2013-05-04T12:15:16Z</time>
      </trkpt>
      <trkpt lat="43.41471" lon="6.06183">
        <ele>232.19999694824</ele>
        <time>2013-05-04T12:15:24Z</time>
      </trkpt>
      <trkpt lat="43.41487" lon="6.06189">
        <ele>232.19999694824</ele>
        <time>2013-05-04T12:15:31Z</time>
      </trkpt>
      <trkpt lat="43.41506" lon="6.06188">
        <ele>232.19999694824</ele>
        <time>2013-05-04T12:15:38Z</time>
      </trkpt>
      <trkpt lat="43.41523" lon="6.06185">
        <ele>232.19999694824</ele>
        <time>2013-05-04T12:15:44Z</time>
      </trkpt>
      <trkpt lat="43.41532" lon="6.06181">
        <ele>232.60000610352</ele>
        <time>2013-05-04T12:15:48Z</time>
      </trkpt>
      <trkpt lat="43.41542" lon="6.06181">
        <ele>234.19999694824</ele>
        <time>2013-05-04T12:15:52Z</time>
      </trkpt>
      <trkpt lat="43.41548" lon="6.06178">
        <ele>234.19999694824</ele>
        <time>2013-05-04T12:15:55Z</time>
      </trkpt>
      <trkpt lat="43.41558" lon="6.06172">
        <ele>234.19999694824</ele>
        <time>2013-05-04T12:16:01Z</time>
      </trkpt>
      <trkpt lat="43.41561" lon="6.06172">
        <ele>234.19999694824</ele>
        <time>2013-05-04T12:16:02Z</time>
      </trkpt>
      <trkpt lat="43.41569" lon="6.06176">
        <ele>234.19999694824</ele>
        <time>2013-05-04T12:16:06Z</time>
      </trkpt>
      <trkpt lat="43.41576" lon="6.06177">
        <ele>236.39999389648</ele>
        <time>2013-05-04T12:16:11Z</time>
      </trkpt>
      <trkpt lat="43.4158" lon="6.06182">
        <ele>236.39999389648</ele>
        <time>2013-05-04T12:16:14Z</time>
      </trkpt>
      <trkpt lat="43.41581" lon="6.06184">
        <ele>236.39999389648</ele>
        <time>2013-05-04T12:16:15Z</time>
      </trkpt>
      <trkpt lat="43.41584" lon="6.06192">
        <ele>236.39999389648</ele>
        <time>2013-05-04T12:16:18Z</time>
      </trkpt>
      <trkpt lat="43.41587" lon="6.06198">
        <ele>236.39999389648</ele>
        <time>2013-05-04T12:16:21Z</time>
      </trkpt>
      <trkpt lat="43.41589" lon="6.062">
        <ele>236.39999389648</ele>
        <time>2013-05-04T12:16:22Z</time>
      </trkpt>
      <trkpt lat="43.41596" lon="6.06201">
        <ele>236.39999389648</ele>
        <time>2013-05-04T12:16:26Z</time>
      </trkpt>
      <trkpt lat="43.41609" lon="6.06208">
        <ele>236.39999389648</ele>
        <time>2013-05-04T12:16:32Z</time>
      </trkpt>
      <trkpt lat="43.41619" lon="6.0622">
        <ele>236.39999389648</ele>
        <time>2013-05-04T12:16:39Z</time>
      </trkpt>
      <trkpt lat="43.4163" lon="6.06232">
        <ele>236.39999389648</ele>
        <time>2013-05-04T12:16:46Z</time>
      </trkpt>
      <trkpt lat="43.41634" lon="6.06235">
        <ele>237.19999694824</ele>
        <time>2013-05-04T12:16:48Z</time>
      </trkpt>
      <trkpt lat="43.41641" lon="6.06239">
        <ele>238.39999389648</ele>
        <time>2013-05-04T12:16:51Z</time>
      </trkpt>
      <trkpt lat="43.41657" lon="6.06245">
        <ele>238.39999389648</ele>
        <time>2013-05-04T12:16:59Z</time>
      </trkpt>
      <trkpt lat="43.41676" lon="6.0625">
        <ele>238.39999389648</ele>
        <time>2013-05-04T12:17:07Z</time>
      </trkpt>
      <trkpt lat="43.41695" lon="6.06251">
        <ele>238.39999389648</ele>
        <time>2013-05-04T12:17:15Z</time>
      </trkpt>
      <trkpt lat="43.41721" lon="6.0625">
        <ele>238.39999389648</ele>
        <time>2013-05-04T12:17:27Z</time>
      </trkpt>
      <trkpt lat="43.41732" lon="6.06251">
        <ele>238.39999389648</ele>
        <time>2013-05-04T12:17:33Z</time>
      </trkpt>
      <trkpt lat="43.41748" lon="6.06253">
        <ele>239.19999694824</ele>
        <time>2013-05-04T12:17:41Z</time>
      </trkpt>
      <trkpt lat="43.41753" lon="6.06255">
        <ele>240.39999389648</ele>
        <time>2013-05-04T12:17:44Z</time>
      </trkpt>
      <trkpt lat="43.41759" lon="6.06257">
        <ele>240.39999389648</ele>
        <time>2013-05-04T12:17:47Z</time>
      </trkpt>
      <trkpt lat="43.4177" lon="6.06261">
        <ele>240.39999389648</ele>
        <time>2013-05-04T12:17:54Z</time>
      </trkpt>
      <trkpt lat="43.41775" lon="6.06264">
        <ele>240.39999389648</ele>
        <time>2013-05-04T12:17:59Z</time>
      </trkpt>
      <trkpt lat="43.41779" lon="6.06266">
        <ele>241.19999694824</ele>
        <time>2013-05-04T12:18:01Z</time>
      </trkpt>
      <trkpt lat="43.41782" lon="6.06269">
        <ele>242</ele>
        <time>2013-05-04T12:18:03Z</time>
      </trkpt>
      <trkpt lat="43.4179" lon="6.06276">
        <ele>242.39999389648</ele>
        <time>2013-05-04T12:18:08Z</time>
      </trkpt>
      <trkpt lat="43.41802" lon="6.06286">
        <ele>242.39999389648</ele>
        <time>2013-05-04T12:18:15Z</time>
      </trkpt>
      <trkpt lat="43.41814" lon="6.06291">
        <ele>242.80000305176</ele>
        <time>2013-05-04T12:18:21Z</time>
      </trkpt>
      <trkpt lat="43.4182" lon="6.06291">
        <ele>244</ele>
        <time>2013-05-04T12:18:24Z</time>
      </trkpt>
      <trkpt lat="43.41846" lon="6.0629">
        <ele>244.39999389648</ele>
        <time>2013-05-04T12:18:37Z</time>
      </trkpt>
      <trkpt lat="43.41859" lon="6.06291">
        <ele>245.19999694824</ele>
        <time>2013-05-04T12:18:43Z</time>
      </trkpt>
      <trkpt lat="43.41882" lon="6.06293">
        <ele>246.39999389648</ele>
        <time>2013-05-04T12:18:55Z</time>
      </trkpt>
      <trkpt lat="43.41889" lon="6.06293">
        <ele>247.39999389648</ele>
        <time>2013-05-04T12:18:59Z</time>
      </trkpt>
      <trkpt lat="43.4191" lon="6.06292">
        <ele>248.60000610352</ele>
        <time>2013-05-04T12:19:10Z</time>
      </trkpt>
      <trkpt lat="43.4192" lon="6.06292">
        <ele>250.19999694824</ele>
        <time>2013-05-04T12:19:16Z</time>
      </trkpt>
      <trkpt lat="43.41943" lon="6.06286">
        <ele>250.60000610352</ele>
        <time>2013-05-04T12:19:27Z</time>
      </trkpt>
      <trkpt lat="43.41959" lon="6.06279">
        <ele>250.60000610352</ele>
        <time>2013-05-04T12:19:35Z</time>
      </trkpt>
      <trkpt lat="43.4197" lon="6.06274">
        <ele>251</ele>
        <time>2013-05-04T12:19:41Z</time>
      </trkpt>
      <trkpt lat="43.41987" lon="6.06269">
        <ele>253.19999694824</ele>
        <time>2013-05-04T12:19:51Z</time>
      </trkpt>
      <trkpt lat="43.41993" lon="6.06267">
        <ele>254.80000305176</ele>
        <time>2013-05-04T12:19:55Z</time>
      </trkpt>
      <trkpt lat="43.42001" lon="6.06264">
        <ele>254.80000305176</ele>
        <time>2013-05-04T12:20:01Z</time>
      </trkpt>
      <trkpt lat="43.42006" lon="6.06262">
        <ele>255.80000305176</ele>
        <time>2013-05-04T12:20:04Z</time>
      </trkpt>
      <trkpt lat="43.42007" lon="6.06261">
        <ele>256.20001220703</ele>
        <time>2013-05-04T12:20:05Z</time>
      </trkpt>
      <trkpt lat="43.42012" lon="6.0626">
        <ele>257</ele>
        <time>2013-05-04T12:20:08Z</time>
      </trkpt>
      <trkpt lat="43.42025" lon="6.06256">
        <ele>258</ele>
        <time>2013-05-04T12:20:16Z</time>
      </trkpt>
      <trkpt lat="43.4203" lon="6.06255">
        <ele>259.20001220703</ele>
        <time>2013-05-04T12:20:19Z</time>
      </trkpt>
      <trkpt lat="43.42036" lon="6.06253">
        <ele>259.20001220703</ele>
        <time>2013-05-04T12:20:23Z</time>
      </trkpt>
      <trkpt lat="43.42048" lon="6.0625">
        <ele>261.39999389648</ele>
        <time>2013-05-04T12:20:30Z</time>
      </trkpt>
      <trkpt lat="43.4207" lon="6.06243">
        <ele>263.39999389648</ele>
        <time>2013-05-04T12:20:44Z</time>
      </trkpt>
      <trkpt lat="43.42079" lon="6.06241">
        <ele>264.60000610352</ele>
        <time>2013-05-04T12:20:50Z</time>
      </trkpt>
      <trkpt lat="43.42091" lon="6.06236">
        <ele>265.39999389648</ele>
        <time>2013-05-04T12:20:58Z</time>
      </trkpt>
      <trkpt lat="43.42097" lon="6.06235">
        <ele>266</ele>
        <time>2013-05-04T12:21:02Z</time>
      </trkpt>
      <trkpt lat="43.42124" lon="6.06225">
        <ele>268</ele>
        <time>2013-05-04T12:21:19Z</time>
      </trkpt>
      <trkpt lat="43.42136" lon="6.06221">
        <ele>269.79998779297</ele>
        <time>2013-05-04T12:21:26Z</time>
      </trkpt>
      <trkpt lat="43.42145" lon="6.0622">
        <ele>269.79998779297</ele>
        <time>2013-05-04T12:21:32Z</time>
      </trkpt>
      <trkpt lat="43.42149" lon="6.06224">
        <ele>269.79998779297</ele>
        <time>2013-05-04T12:21:35Z</time>
      </trkpt>
      <trkpt lat="43.42151" lon="6.06229">
        <ele>269.79998779297</ele>
        <time>2013-05-04T12:21:37Z</time>
      </trkpt>
      <trkpt lat="43.42153" lon="6.06239">
        <ele>269.79998779297</ele>
        <time>2013-05-04T12:21:40Z</time>
      </trkpt>
      <trkpt lat="43.42153" lon="6.0625">
        <ele>269.79998779297</ele>
        <time>2013-05-04T12:21:43Z</time>
      </trkpt>
      <trkpt lat="43.42153" lon="6.06263">
        <ele>269.79998779297</ele>
        <time>2013-05-04T12:21:46Z</time>
      </trkpt>
      <trkpt lat="43.42153" lon="6.06271">
        <ele>269.79998779297</ele>
        <time>2013-05-04T12:21:48Z</time>
      </trkpt>
      <trkpt lat="43.42153" lon="6.06282">
        <ele>269.79998779297</ele>
        <time>2013-05-04T12:21:50Z</time>
      </trkpt>
      <trkpt lat="43.42153" lon="6.06297">
        <ele>269.79998779297</ele>
        <time>2013-05-04T12:21:52Z</time>
      </trkpt>
      <trkpt lat="43.42154" lon="6.06313">
        <ele>268.39999389648</ele>
        <time>2013-05-04T12:21:54Z</time>
      </trkpt>
      <trkpt lat="43.42157" lon="6.0633">
        <ele>267.39999389648</ele>
        <time>2013-05-04T12:21:56Z</time>
      </trkpt>
      <trkpt lat="43.4216" lon="6.06343">
        <ele>267</ele>
        <time>2013-05-04T12:21:58Z</time>
      </trkpt>
      <trkpt lat="43.42162" lon="6.06349">
        <ele>266.60000610352</ele>
        <time>2013-05-04T12:21:59Z</time>
      </trkpt>
      <trkpt lat="43.42163" lon="6.06356">
        <ele>266</ele>
        <time>2013-05-04T12:22:00Z</time>
      </trkpt>
      <trkpt lat="43.42164" lon="6.06362">
        <ele>265.60000610352</ele>
        <time>2013-05-04T12:22:01Z</time>
      </trkpt>
      <trkpt lat="43.42174" lon="6.0642">
        <ele>265.20001220703</ele>
        <time>2013-05-04T12:22:10Z</time>
      </trkpt>
      <trkpt lat="43.42183" lon="6.06472">
        <ele>265.20001220703</ele>
        <time>2013-05-04T12:22:19Z</time>
      </trkpt>
      <trkpt lat="43.42187" lon="6.06493">
        <ele>265.20001220703</ele>
        <time>2013-05-04T12:22:23Z</time>
      </trkpt>
      <trkpt lat="43.42189" lon="6.06509">
        <ele>265.20001220703</ele>
        <time>2013-05-04T12:22:26Z</time>
      </trkpt>
      <trkpt lat="43.42193" lon="6.06511">
        <ele>265.20001220703</ele>
        <time>2013-05-04T12:22:27Z</time>
      </trkpt>
      <trkpt lat="43.42204" lon="6.06513">
        <ele>265.20001220703</ele>
        <time>2013-05-04T12:22:30Z</time>
      </trkpt>
      <trkpt lat="43.42211" lon="6.06512">
        <ele>265.20001220703</ele>
        <time>2013-05-04T12:22:33Z</time>
      </trkpt>
      <trkpt lat="43.42215" lon="6.06513">
        <ele>265.20001220703</ele>
        <time>2013-05-04T12:22:35Z</time>
      </trkpt>
      <trkpt lat="43.42221" lon="6.06514">
        <ele>265.20001220703</ele>
        <time>2013-05-04T12:22:37Z</time>
      </trkpt>
      <trkpt lat="43.42228" lon="6.06516">
        <ele>265.60000610352</ele>
        <time>2013-05-04T12:22:40Z</time>
      </trkpt>
      <trkpt lat="43.42232" lon="6.06517">
        <ele>266.60000610352</ele>
        <time>2013-05-04T12:22:42Z</time>
      </trkpt>
      <trkpt lat="43.42234" lon="6.06517">
        <ele>267</ele>
        <time>2013-05-04T12:22:43Z</time>
      </trkpt>
      <trkpt lat="43.42237" lon="6.06517">
        <ele>267.39999389648</ele>
        <time>2013-05-04T12:22:44Z</time>
      </trkpt>
      <trkpt lat="43.42247" lon="6.06517">
        <ele>267.39999389648</ele>
        <time>2013-05-04T12:22:48Z</time>
      </trkpt>
      <trkpt lat="43.42259" lon="6.06512">
        <ele>267.39999389648</ele>
        <time>2013-05-04T12:22:53Z</time>
      </trkpt>
      <trkpt lat="43.42265" lon="6.06509">
        <ele>267.79998779297</ele>
        <time>2013-05-04T12:22:56Z</time>
      </trkpt>
      <trkpt lat="43.42271" lon="6.06504">
        <ele>269</ele>
        <time>2013-05-04T12:22:59Z</time>
      </trkpt>
      <trkpt lat="43.42273" lon="6.06502">
        <ele>269.60000610352</ele>
        <time>2013-05-04T12:23:00Z</time>
      </trkpt>
      <trkpt lat="43.42281" lon="6.06492">
        <ele>269.60000610352</ele>
        <time>2013-05-04T12:23:05Z</time>
      </trkpt>
      <trkpt lat="43.42287" lon="6.06482">
        <ele>271.60000610352</ele>
        <time>2013-05-04T12:23:09Z</time>
      </trkpt>
      <trkpt lat="43.42302" lon="6.06467">
        <ele>271.60000610352</ele>
        <time>2013-05-04T12:23:16Z</time>
      </trkpt>
      <trkpt lat="43.42308" lon="6.06458">
        <ele>272.39999389648</ele>
        <time>2013-05-04T12:23:21Z</time>
      </trkpt>
      <trkpt lat="43.42315" lon="6.06454">
        <ele>273.60000610352</ele>
        <time>2013-05-04T12:23:24Z</time>
      </trkpt>
      <trkpt lat="43.42319" lon="6.06449">
        <ele>273.60000610352</ele>
        <time>2013-05-04T12:23:27Z</time>
      </trkpt>
      <trkpt lat="43.42338" lon="6.06433">
        <ele>273.60000610352</ele>
        <time>2013-05-04T12:23:35Z</time>
      </trkpt>
      <trkpt lat="43.4235" lon="6.06422">
        <ele>273.60000610352</ele>
        <time>2013-05-04T12:23:40Z</time>
      </trkpt>
      <trkpt lat="43.42353" lon="6.06417">
        <ele>273.60000610352</ele>
        <time>2013-05-04T12:23:42Z</time>
      </trkpt>
      <trkpt lat="43.42368" lon="6.06403">
        <ele>273.60000610352</ele>
        <time>2013-05-04T12:23:48Z</time>
      </trkpt>
      <trkpt lat="43.4237" lon="6.06402">
        <ele>273.60000610352</ele>
        <time>2013-05-04T12:23:49Z</time>
      </trkpt>
      <trkpt lat="43.42379" lon="6.06401">
        <ele>274</ele>
        <time>2013-05-04T12:23:53Z</time>
      </trkpt>
      <trkpt lat="43.42383" lon="6.06401">
        <ele>274.79998779297</ele>
        <time>2013-05-04T12:23:55Z</time>
      </trkpt>
      <trkpt lat="43.42387" lon="6.06402">
        <ele>275.60000610352</ele>
        <time>2013-05-04T12:23:57Z</time>
      </trkpt>
      <trkpt lat="43.4239" lon="6.06403">
        <ele>275.60000610352</ele>
        <time>2013-05-04T12:23:59Z</time>
      </trkpt>
      <trkpt lat="43.42393" lon="6.06405">
        <ele>275.60000610352</ele>
        <time>2013-05-04T12:24:01Z</time>
      </trkpt>
      <trkpt lat="43.42409" lon="6.06409">
        <ele>276.60000610352</ele>
        <time>2013-05-04T12:24:09Z</time>
      </trkpt>
      <trkpt lat="43.42412" lon="6.06409">
        <ele>277</ele>
        <time>2013-05-04T12:24:10Z</time>
      </trkpt>
      <trkpt lat="43.42431" lon="6.06398">
        <ele>277.79998779297</ele>
        <time>2013-05-04T12:24:17Z</time>
      </trkpt>
      <trkpt lat="43.42444" lon="6.06388">
        <ele>277.79998779297</ele>
        <time>2013-05-04T12:24:22Z</time>
      </trkpt>
      <trkpt lat="43.42464" lon="6.06382">
        <ele>277.79998779297</ele>
        <time>2013-05-04T12:24:29Z</time>
      </trkpt>
      <trkpt lat="43.4248" lon="6.06382">
        <ele>277.79998779297</ele>
        <time>2013-05-04T12:24:35Z</time>
      </trkpt>
      <trkpt lat="43.42493" lon="6.06376">
        <ele>277.79998779297</ele>
        <time>2013-05-04T12:24:41Z</time>
      </trkpt>
      <trkpt lat="43.42503" lon="6.0637">
        <ele>277.79998779297</ele>
        <time>2013-05-04T12:24:46Z</time>
      </trkpt>
      <trkpt lat="43.42509" lon="6.06367">
        <ele>278.20001220703</ele>
        <time>2013-05-04T12:24:49Z</time>
      </trkpt>
      <trkpt lat="43.42511" lon="6.06366">
        <ele>278.60000610352</ele>
        <time>2013-05-04T12:24:50Z</time>
      </trkpt>
      <trkpt lat="43.42514" lon="6.06366">
        <ele>279</ele>
        <time>2013-05-04T12:24:51Z</time>
      </trkpt>
      <trkpt lat="43.42517" lon="6.06365">
        <ele>279.79998779297</ele>
        <time>2013-05-04T12:24:53Z</time>
      </trkpt>
      <trkpt lat="43.42527" lon="6.06364">
        <ele>279.79998779297</ele>
        <time>2013-05-04T12:24:58Z</time>
      </trkpt>
      <trkpt lat="43.42538" lon="6.06374">
        <ele>279.79998779297</ele>
        <time>2013-05-04T12:25:03Z</time>
      </trkpt>
      <trkpt lat="43.42546" lon="6.06388">
        <ele>279.79998779297</ele>
        <time>2013-05-04T12:25:08Z</time>
      </trkpt>
      <trkpt lat="43.4255" lon="6.06394">
        <ele>279.79998779297</ele>
        <time>2013-05-04T12:25:10Z</time>
      </trkpt>
      <trkpt lat="43.42562" lon="6.06412">
        <ele>279.79998779297</ele>
        <time>2013-05-04T12:25:18Z</time>
      </trkpt>
      <trkpt lat="43.4257" lon="6.06421">
        <ele>279.79998779297</ele>
        <time>2013-05-04T12:25:24Z</time>
      </trkpt>
      <trkpt lat="43.42572" lon="6.06427">
        <ele>281</ele>
        <time>2013-05-04T12:25:27Z</time>
      </trkpt>
      <trkpt lat="43.42572" lon="6.06432">
        <ele>281.79998779297</ele>
        <time>2013-05-04T12:25:29Z</time>
      </trkpt>
      <trkpt lat="43.42572" lon="6.06439">
        <ele>281.79998779297</ele>
        <time>2013-05-04T12:25:32Z</time>
      </trkpt>
      <trkpt lat="43.42574" lon="6.06445">
        <ele>281.79998779297</ele>
        <time>2013-05-04T12:25:36Z</time>
      </trkpt>
      <trkpt lat="43.42581" lon="6.06454">
        <ele>282.60000610352</ele>
        <time>2013-05-04T12:25:42Z</time>
      </trkpt>
      <trkpt lat="43.42588" lon="6.06469">
        <ele>284</ele>
        <time>2013-05-04T12:25:50Z</time>
      </trkpt>
      <trkpt lat="43.42591" lon="6.06476">
        <ele>284</ele>
        <time>2013-05-04T12:25:54Z</time>
      </trkpt>
      <trkpt lat="43.42593" lon="6.0648">
        <ele>284.39999389648</ele>
        <time>2013-05-04T12:25:56Z</time>
      </trkpt>
      <trkpt lat="43.42595" lon="6.06487">
        <ele>285.60000610352</ele>
        <time>2013-05-04T12:25:59Z</time>
      </trkpt>
      <trkpt lat="43.42596" lon="6.06492">
        <ele>286</ele>
        <time>2013-05-04T12:26:02Z</time>
      </trkpt>
      <trkpt lat="43.42593" lon="6.06507">
        <ele>286</ele>
        <time>2013-05-04T12:26:09Z</time>
      </trkpt>
      <trkpt lat="43.42588" lon="6.06527">
        <ele>286.79998779297</ele>
        <time>2013-05-04T12:26:17Z</time>
      </trkpt>
      <trkpt lat="43.42585" lon="6.06532">
        <ele>287.60000610352</ele>
        <time>2013-05-04T12:26:19Z</time>
      </trkpt>
      <trkpt lat="43.42581" lon="6.06545">
        <ele>288</ele>
        <time>2013-05-04T12:26:25Z</time>
      </trkpt>
      <trkpt lat="43.42578" lon="6.06559">
        <ele>288</ele>
        <time>2013-05-04T12:26:31Z</time>
      </trkpt>
      <trkpt lat="43.42579" lon="6.06569">
        <ele>289.20001220703</ele>
        <time>2013-05-04T12:26:35Z</time>
      </trkpt>
      <trkpt lat="43.42578" lon="6.06572">
        <ele>289.60000610352</ele>
        <time>2013-05-04T12:26:36Z</time>
      </trkpt>
      <trkpt lat="43.42577" lon="6.06574">
        <ele>290.20001220703</ele>
        <time>2013-05-04T12:26:37Z</time>
      </trkpt>
      <trkpt lat="43.42574" lon="6.06587">
        <ele>290.20001220703</ele>
        <time>2013-05-04T12:26:41Z</time>
      </trkpt>
      <trkpt lat="43.42571" lon="6.066">
        <ele>290.20001220703</ele>
        <time>2013-05-04T12:26:45Z</time>
      </trkpt>
      <trkpt lat="43.42568" lon="6.06604">
        <ele>290.20001220703</ele>
        <time>2013-05-04T12:26:47Z</time>
      </trkpt>
      <trkpt lat="43.42559" lon="6.06609">
        <ele>290.20001220703</ele>
        <time>2013-05-04T12:26:52Z</time>
      </trkpt>
      <trkpt lat="43.42551" lon="6.06621">
        <ele>290.20001220703</ele>
        <time>2013-05-04T12:26:57Z</time>
      </trkpt>
      <trkpt lat="43.42548" lon="6.06628">
        <ele>290.20001220703</ele>
        <time>2013-05-04T12:27:00Z</time>
      </trkpt>
      <trkpt lat="43.42547" lon="6.06633">
        <ele>290.20001220703</ele>
        <time>2013-05-04T12:27:02Z</time>
      </trkpt>
      <trkpt lat="43.42541" lon="6.06648">
        <ele>290.20001220703</ele>
        <time>2013-05-04T12:27:07Z</time>
      </trkpt>
      <trkpt lat="43.42538" lon="6.06653">
        <ele>290.60000610352</ele>
        <time>2013-05-04T12:27:09Z</time>
      </trkpt>
      <trkpt lat="43.42536" lon="6.06659">
        <ele>292</ele>
        <time>2013-05-04T12:27:12Z</time>
      </trkpt>
      <trkpt lat="43.42535" lon="6.06661">
        <ele>292.39999389648</ele>
        <time>2013-05-04T12:27:13Z</time>
      </trkpt>
      <trkpt lat="43.42535" lon="6.06664">
        <ele>292.39999389648</ele>
        <time>2013-05-04T12:27:14Z</time>
      </trkpt>
      <trkpt lat="43.42533" lon="6.0667">
        <ele>292.39999389648</ele>
        <time>2013-05-04T12:27:18Z</time>
      </trkpt>
      <trkpt lat="43.42533" lon="6.0667">
        <ele>292.39999389648</ele>
        <time>2013-05-04T12:27:29Z</time>
      </trkpt>
      <trkpt lat="43.42532" lon="6.06671">
        <ele>292.39999389648</ele>
        <time>2013-05-04T12:27:36Z</time>
      </trkpt>
      <trkpt lat="43.42532" lon="6.06671">
        <ele>292.39999389648</ele>
        <time>2013-05-04T12:27:49Z</time>
      </trkpt>
      <trkpt lat="43.4253" lon="6.06678">
        <ele>292.39999389648</ele>
        <time>2013-05-04T12:27:54Z</time>
      </trkpt>
      <trkpt lat="43.4253" lon="6.06689">
        <ele>292.39999389648</ele>
        <time>2013-05-04T12:27:58Z</time>
      </trkpt>
      <trkpt lat="43.4253" lon="6.06693">
        <ele>292.39999389648</ele>
        <time>2013-05-04T12:27:59Z</time>
      </trkpt>
      <trkpt lat="43.42527" lon="6.06723">
        <ele>292</ele>
        <time>2013-05-04T12:28:04Z</time>
      </trkpt>
      <trkpt lat="43.42527" lon="6.06732">
        <ele>291.60000610352</ele>
        <time>2013-05-04T12:28:05Z</time>
      </trkpt>
      <trkpt lat="43.42526" lon="6.06742">
        <ele>291.20001220703</ele>
        <time>2013-05-04T12:28:06Z</time>
      </trkpt>
      <trkpt lat="43.42524" lon="6.06751">
        <ele>290.79998779297</ele>
        <time>2013-05-04T12:28:07Z</time>
      </trkpt>
      <trkpt lat="43.42522" lon="6.06761">
        <ele>290.20001220703</ele>
        <time>2013-05-04T12:28:08Z</time>
      </trkpt>
      <trkpt lat="43.42519" lon="6.06771">
        <ele>289.60000610352</ele>
        <time>2013-05-04T12:28:09Z</time>
      </trkpt>
      <trkpt lat="43.42516" lon="6.06781">
        <ele>289</ele>
        <time>2013-05-04T12:28:10Z</time>
      </trkpt>
      <trkpt lat="43.42513" lon="6.06792">
        <ele>288.60000610352</ele>
        <time>2013-05-04T12:28:11Z</time>
      </trkpt>
      <trkpt lat="43.4251" lon="6.06802">
        <ele>288</ele>
        <time>2013-05-04T12:28:12Z</time>
      </trkpt>
      <trkpt lat="43.42508" lon="6.06812">
        <ele>287.60000610352</ele>
        <time>2013-05-04T12:28:13Z</time>
      </trkpt>
      <trkpt lat="43.42506" lon="6.06822">
        <ele>287</ele>
        <time>2013-05-04T12:28:14Z</time>
      </trkpt>
      <trkpt lat="43.42504" lon="6.06835">
        <ele>286.60000610352</ele>
        <time>2013-05-04T12:28:15Z</time>
      </trkpt>
      <trkpt lat="43.42501" lon="6.06847">
        <ele>286</ele>
        <time>2013-05-04T12:28:16Z</time>
      </trkpt>
      <trkpt lat="43.425" lon="6.0686">
        <ele>285.39999389648</ele>
        <time>2013-05-04T12:28:17Z</time>
      </trkpt>
      <trkpt lat="43.42498" lon="6.06885">
        <ele>284</ele>
        <time>2013-05-04T12:28:19Z</time>
      </trkpt>
      <trkpt lat="43.42498" lon="6.06898">
        <ele>283.39999389648</ele>
        <time>2013-05-04T12:28:20Z</time>
      </trkpt>
      <trkpt lat="43.42499" lon="6.06911">
        <ele>282.60000610352</ele>
        <time>2013-05-04T12:28:21Z</time>
      </trkpt>
      <trkpt lat="43.425" lon="6.06923">
        <ele>282</ele>
        <time>2013-05-04T12:28:22Z</time>
      </trkpt>
      <trkpt lat="43.425" lon="6.06935">
        <ele>281.20001220703</ele>
        <time>2013-05-04T12:28:23Z</time>
      </trkpt>
      <trkpt lat="43.42502" lon="6.06945">
        <ele>280.60000610352</ele>
        <time>2013-05-04T12:28:24Z</time>
      </trkpt>
      <trkpt lat="43.42505" lon="6.06956">
        <ele>279.79998779297</ele>
        <time>2013-05-04T12:28:25Z</time>
      </trkpt>
      <trkpt lat="43.42507" lon="6.06965">
        <ele>279.20001220703</ele>
        <time>2013-05-04T12:28:26Z</time>
      </trkpt>
      <trkpt lat="43.42511" lon="6.06987">
        <ele>277.20001220703</ele>
        <time>2013-05-04T12:28:28Z</time>
      </trkpt>
      <trkpt lat="43.42513" lon="6.06998">
        <ele>276.60000610352</ele>
        <time>2013-05-04T12:28:29Z</time>
      </trkpt>
      <trkpt lat="43.42514" lon="6.0701">
        <ele>276.20001220703</ele>
        <time>2013-05-04T12:28:30Z</time>
      </trkpt>
      <trkpt lat="43.42515" lon="6.07021">
        <ele>275.79998779297</ele>
        <time>2013-05-04T12:28:31Z</time>
      </trkpt>
      <trkpt lat="43.42516" lon="6.07031">
        <ele>275.20001220703</ele>
        <time>2013-05-04T12:28:32Z</time>
      </trkpt>
      <trkpt lat="43.42516" lon="6.07041">
        <ele>274.79998779297</ele>
        <time>2013-05-04T12:28:33Z</time>
      </trkpt>
      <trkpt lat="43.42516" lon="6.07052">
        <ele>274.20001220703</ele>
        <time>2013-05-04T12:28:34Z</time>
      </trkpt>
      <trkpt lat="43.42517" lon="6.07062">
        <ele>273.79998779297</ele>
        <time>2013-05-04T12:28:35Z</time>
      </trkpt>
      <trkpt lat="43.42518" lon="6.07072">
        <ele>273.20001220703</ele>
        <time>2013-05-04T12:28:36Z</time>
      </trkpt>
      <trkpt lat="43.42519" lon="6.0708">
        <ele>272.79998779297</ele>
        <time>2013-05-04T12:28:37Z</time>
      </trkpt>
      <trkpt lat="43.42519" lon="6.07088">
        <ele>272.20001220703</ele>
        <time>2013-05-04T12:28:38Z</time>
      </trkpt>
      <trkpt lat="43.4252" lon="6.07094">
        <ele>271.60000610352</ele>
        <time>2013-05-04T12:28:39Z</time>
      </trkpt>
      <trkpt lat="43.42521" lon="6.071">
        <ele>271.20001220703</ele>
        <time>2013-05-04T12:28:40Z</time>
      </trkpt>
      <trkpt lat="43.42521" lon="6.07104">
        <ele>270.60000610352</ele>
        <time>2013-05-04T12:28:41Z</time>
      </trkpt>
      <trkpt lat="43.42522" lon="6.07106">
        <ele>270.20001220703</ele>
        <time>2013-05-04T12:28:42Z</time>
      </trkpt>
      <trkpt lat="43.42524" lon="6.07116">
        <ele>269.60000610352</ele>
        <time>2013-05-04T12:28:46Z</time>
      </trkpt>
      <trkpt lat="43.42525" lon="6.07119">
        <ele>269.20001220703</ele>
        <time>2013-05-04T12:28:47Z</time>
      </trkpt>
      <trkpt lat="43.42525" lon="6.07121">
        <ele>268.79998779297</ele>
        <time>2013-05-04T12:28:48Z</time>
      </trkpt>
      <trkpt lat="43.42525" lon="6.07123">
        <ele>268.39999389648</ele>
        <time>2013-05-04T12:28:49Z</time>
      </trkpt>
      <trkpt lat="43.42526" lon="6.07124">
        <ele>268</ele>
        <time>2013-05-04T12:28:50Z</time>
      </trkpt>
      <trkpt lat="43.42526" lon="6.07124">
        <ele>268</ele>
        <time>2013-05-04T12:28:53Z</time>
      </trkpt>
      <trkpt lat="43.42527" lon="6.07126">
        <ele>268</ele>
        <time>2013-05-04T12:29:01Z</time>
      </trkpt>
      <trkpt lat="43.42533" lon="6.07133">
        <ele>268</ele>
        <time>2013-05-04T12:29:05Z</time>
      </trkpt>
      <trkpt lat="43.42535" lon="6.07135">
        <ele>268</ele>
        <time>2013-05-04T12:29:06Z</time>
      </trkpt>
      <trkpt lat="43.42546" lon="6.07146">
        <ele>268</ele>
        <time>2013-05-04T12:29:12Z</time>
      </trkpt>
      <trkpt lat="43.42548" lon="6.07148">
        <ele>268</ele>
        <time>2013-05-04T12:29:13Z</time>
      </trkpt>
      <trkpt lat="43.4256" lon="6.0716">
        <ele>268</ele>
        <time>2013-05-04T12:29:19Z</time>
      </trkpt>
      <trkpt lat="43.42575" lon="6.07173">
        <ele>268</ele>
        <time>2013-05-04T12:29:27Z</time>
      </trkpt>
      <trkpt lat="43.42592" lon="6.07199">
        <ele>268</ele>
        <time>2013-05-04T12:29:35Z</time>
      </trkpt>
      <trkpt lat="43.42594" lon="6.07202">
        <ele>268</ele>
        <time>2013-05-04T12:29:36Z</time>
      </trkpt>
      <trkpt lat="43.42605" lon="6.07219">
        <ele>268</ele>
        <time>2013-05-04T12:29:41Z</time>
      </trkpt>
      <trkpt lat="43.4262" lon="6.07228">
        <ele>268</ele>
        <time>2013-05-04T12:29:46Z</time>
      </trkpt>
      <trkpt lat="43.42641" lon="6.07233">
        <ele>268</ele>
        <time>2013-05-04T12:29:53Z</time>
      </trkpt>
      <trkpt lat="43.42648" lon="6.07236">
        <ele>268.79998779297</ele>
        <time>2013-05-04T12:29:55Z</time>
      </trkpt>
      <trkpt lat="43.42654" lon="6.07239">
        <ele>269.60000610352</ele>
        <time>2013-05-04T12:29:57Z</time>
      </trkpt>
      <trkpt lat="43.42657" lon="6.07241">
        <ele>270</ele>
        <time>2013-05-04T12:29:58Z</time>
      </trkpt>
      <trkpt lat="43.4267" lon="6.07252">
        <ele>270</ele>
        <time>2013-05-04T12:30:03Z</time>
      </trkpt>
      <trkpt lat="43.42672" lon="6.07254">
        <ele>270</ele>
        <time>2013-05-04T12:30:04Z</time>
      </trkpt>
      <trkpt lat="43.42686" lon="6.07271">
        <ele>270</ele>
        <time>2013-05-04T12:30:11Z</time>
      </trkpt>
      <trkpt lat="43.42701" lon="6.07286">
        <ele>270</ele>
        <time>2013-05-04T12:30:17Z</time>
      </trkpt>
      <trkpt lat="43.42715" lon="6.07301">
        <ele>270</ele>
        <time>2013-05-04T12:30:23Z</time>
      </trkpt>
      <trkpt lat="43.42725" lon="6.07313">
        <ele>270.79998779297</ele>
        <time>2013-05-04T12:30:28Z</time>
      </trkpt>
      <trkpt lat="43.42732" lon="6.07317">
        <ele>272.20001220703</ele>
        <time>2013-05-04T12:30:31Z</time>
      </trkpt>
      <trkpt lat="43.42739" lon="6.07321">
        <ele>272.20001220703</ele>
        <time>2013-05-04T12:30:34Z</time>
      </trkpt>
      <trkpt lat="43.42752" lon="6.07331">
        <ele>272.20001220703</ele>
        <time>2013-05-04T12:30:40Z</time>
      </trkpt>
      <trkpt lat="43.42764" lon="6.07348">
        <ele>272.20001220703</ele>
        <time>2013-05-04T12:30:46Z</time>
      </trkpt>
      <trkpt lat="43.42767" lon="6.07353">
        <ele>272.60000610352</ele>
        <time>2013-05-04T12:30:48Z</time>
      </trkpt>
      <trkpt lat="43.4277" lon="6.07359">
        <ele>273.39999389648</ele>
        <time>2013-05-04T12:30:50Z</time>
      </trkpt>
      <trkpt lat="43.42773" lon="6.07365">
        <ele>274.20001220703</ele>
        <time>2013-05-04T12:30:52Z</time>
      </trkpt>
      <trkpt lat="43.42778" lon="6.0738">
        <ele>274.20001220703</ele>
        <time>2013-05-04T12:30:58Z</time>
      </trkpt>
      <trkpt lat="43.42786" lon="6.07402">
        <ele>276.20001220703</ele>
        <time>2013-05-04T12:31:07Z</time>
      </trkpt>
      <trkpt lat="43.42791" lon="6.07412">
        <ele>276.20001220703</ele>
        <time>2013-05-04T12:31:11Z</time>
      </trkpt>
      <trkpt lat="43.42797" lon="6.07425">
        <ele>278</ele>
        <time>2013-05-04T12:31:18Z</time>
      </trkpt>
      <trkpt lat="43.42798" lon="6.07426">
        <ele>278.39999389648</ele>
        <time>2013-05-04T12:31:19Z</time>
      </trkpt>
      <trkpt lat="43.42802" lon="6.0743">
        <ele>278.39999389648</ele>
        <time>2013-05-04T12:31:22Z</time>
      </trkpt>
      <trkpt lat="43.42804" lon="6.07432">
        <ele>278.39999389648</ele>
        <time>2013-05-04T12:31:23Z</time>
      </trkpt>
      <trkpt lat="43.42812" lon="6.07438">
        <ele>280.39999389648</ele>
        <time>2013-05-04T12:31:29Z</time>
      </trkpt>
      <trkpt lat="43.4282" lon="6.07447">
        <ele>280.39999389648</ele>
        <time>2013-05-04T12:31:34Z</time>
      </trkpt>
      <trkpt lat="43.42825" lon="6.07456">
        <ele>280.79998779297</ele>
        <time>2013-05-04T12:31:39Z</time>
      </trkpt>
      <trkpt lat="43.42827" lon="6.07458">
        <ele>281.60000610352</ele>
        <time>2013-05-04T12:31:41Z</time>
      </trkpt>
      <trkpt lat="43.42836" lon="6.07469">
        <ele>282.39999389648</ele>
        <time>2013-05-04T12:31:48Z</time>
      </trkpt>
      <trkpt lat="43.42846" lon="6.07482">
        <ele>284.60000610352</ele>
        <time>2013-05-04T12:31:57Z</time>
      </trkpt>
      <trkpt lat="43.42854" lon="6.07491">
        <ele>285</ele>
        <time>2013-05-04T12:32:04Z</time>
      </trkpt>
      <trkpt lat="43.42866" lon="6.07509">
        <ele>286.60000610352</ele>
        <time>2013-05-04T12:32:18Z</time>
      </trkpt>
      <trkpt lat="43.42869" lon="6.0752">
        <ele>288.60000610352</ele>
        <time>2013-05-04T12:32:24Z</time>
      </trkpt>
      <trkpt lat="43.42863" lon="6.07537">
        <ele>288.60000610352</ele>
        <time>2013-05-04T12:32:36Z</time>
      </trkpt>
      <trkpt lat="43.42862" lon="6.07545">
        <ele>290</ele>
        <time>2013-05-04T12:32:42Z</time>
      </trkpt>
      <trkpt lat="43.42862" lon="6.07547">
        <ele>290.79998779297</ele>
        <time>2013-05-04T12:32:44Z</time>
      </trkpt>
      <trkpt lat="43.42862" lon="6.0755">
        <ele>290.79998779297</ele>
        <time>2013-05-04T12:32:46Z</time>
      </trkpt>
      <trkpt lat="43.42862" lon="6.0756">
        <ele>290.79998779297</ele>
        <time>2013-05-04T12:32:54Z</time>
      </trkpt>
      <trkpt lat="43.42863" lon="6.0757">
        <ele>290.79998779297</ele>
        <time>2013-05-04T12:33:00Z</time>
      </trkpt>
      <trkpt lat="43.42863" lon="6.07572">
        <ele>291.20001220703</ele>
        <time>2013-05-04T12:33:01Z</time>
      </trkpt>
      <trkpt lat="43.42863" lon="6.07575">
        <ele>292</ele>
        <time>2013-05-04T12:33:03Z</time>
      </trkpt>
      <trkpt lat="43.42863" lon="6.07579">
        <ele>293</ele>
        <time>2013-05-04T12:33:05Z</time>
      </trkpt>
      <trkpt lat="43.42865" lon="6.07583">
        <ele>293</ele>
        <time>2013-05-04T12:33:07Z</time>
      </trkpt>
      <trkpt lat="43.42865" lon="6.07587">
        <ele>293.39999389648</ele>
        <time>2013-05-04T12:33:09Z</time>
      </trkpt>
      <trkpt lat="43.42865" lon="6.07588">
        <ele>293.79998779297</ele>
        <time>2013-05-04T12:33:10Z</time>
      </trkpt>
      <trkpt lat="43.42867" lon="6.07592">
        <ele>295</ele>
        <time>2013-05-04T12:33:13Z</time>
      </trkpt>
      <trkpt lat="43.42867" lon="6.07592">
        <ele>295</ele>
        <time>2013-05-04T12:33:16Z</time>
      </trkpt>
      <trkpt lat="43.42867" lon="6.07592">
        <ele>295</ele>
        <time>2013-05-04T12:33:28Z</time>
      </trkpt>
      <trkpt lat="43.42865" lon="6.07593">
        <ele>295</ele>
        <time>2013-05-04T12:33:33Z</time>
      </trkpt>
      <trkpt lat="43.42865" lon="6.07593">
        <ele>295</ele>
        <time>2013-05-04T12:33:46Z</time>
      </trkpt>
      <trkpt lat="43.42865" lon="6.07593">
        <ele>295</ele>
        <time>2013-05-04T12:33:52Z</time>
      </trkpt>
      <trkpt lat="43.42865" lon="6.07593">
        <ele>295</ele>
        <time>2013-05-04T12:33:54Z</time>
      </trkpt>
      <trkpt lat="43.42865" lon="6.07593">
        <ele>295</ele>
        <time>2013-05-04T12:33:57Z</time>
      </trkpt>
      <trkpt lat="43.42865" lon="6.07592">
        <ele>295</ele>
        <time>2013-05-04T12:34:04Z</time>
      </trkpt>
      <trkpt lat="43.42865" lon="6.07592">
        <ele>295</ele>
        <time>2013-05-04T12:34:07Z</time>
      </trkpt>
      <trkpt lat="43.42864" lon="6.07592">
        <ele>295</ele>
        <time>2013-05-04T12:34:15Z</time>
      </trkpt>
      <trkpt lat="43.42864" lon="6.07592">
        <ele>295</ele>
        <time>2013-05-04T12:34:23Z</time>
      </trkpt>
      <trkpt lat="43.42865" lon="6.07592">
        <ele>295.39999389648</ele>
        <time>2013-05-04T12:34:25Z</time>
      </trkpt>
      <trkpt lat="43.42865" lon="6.07593">
        <ele>295.79998779297</ele>
        <time>2013-05-04T12:34:26Z</time>
      </trkpt>
      <trkpt lat="43.42864" lon="6.07595">
        <ele>296.60000610352</ele>
        <time>2013-05-04T12:34:28Z</time>
      </trkpt>
      <trkpt lat="43.42865" lon="6.07597">
        <ele>297</ele>
        <time>2013-05-04T12:34:30Z</time>
      </trkpt>
      <trkpt lat="43.42868" lon="6.076">
        <ele>297</ele>
        <time>2013-05-04T12:34:32Z</time>
      </trkpt>
      <trkpt lat="43.4287" lon="6.07602">
        <ele>297</ele>
        <time>2013-05-04T12:34:34Z</time>
      </trkpt>
      <trkpt lat="43.4287" lon="6.07602">
        <ele>297</ele>
        <time>2013-05-04T12:34:41Z</time>
      </trkpt>
      <trkpt lat="43.4287" lon="6.07603">
        <ele>297</ele>
        <time>2013-05-04T12:34:46Z</time>
      </trkpt>
      <trkpt lat="43.4287" lon="6.07604">
        <ele>297.39999389648</ele>
        <time>2013-05-04T12:34:48Z</time>
      </trkpt>
      <trkpt lat="43.4287" lon="6.07605">
        <ele>298.20001220703</ele>
        <time>2013-05-04T12:34:50Z</time>
      </trkpt>
      <trkpt lat="43.4287" lon="6.07606">
        <ele>299.20001220703</ele>
        <time>2013-05-04T12:34:54Z</time>
      </trkpt>
      <trkpt lat="43.4287" lon="6.07606">
        <ele>299.20001220703</ele>
        <time>2013-05-04T12:35:04Z</time>
      </trkpt>
      <trkpt lat="43.4287" lon="6.07606">
        <ele>299.20001220703</ele>
        <time>2013-05-04T12:35:11Z</time>
      </trkpt>
      <trkpt lat="43.4287" lon="6.07606">
        <ele>299.20001220703</ele>
        <time>2013-05-04T12:35:20Z</time>
      </trkpt>
      <trkpt lat="43.42871" lon="6.07607">
        <ele>299.20001220703</ele>
        <time>2013-05-04T12:35:26Z</time>
      </trkpt>
      <trkpt lat="43.42871" lon="6.07608">
        <ele>299.20001220703</ele>
        <time>2013-05-04T12:35:30Z</time>
      </trkpt>
      <trkpt lat="43.42871" lon="6.07608">
        <ele>299.20001220703</ele>
        <time>2013-05-04T12:35:37Z</time>
      </trkpt>
      <trkpt lat="43.42871" lon="6.07609">
        <ele>299.20001220703</ele>
        <time>2013-05-04T12:35:38Z</time>
      </trkpt>
      <trkpt lat="43.42871" lon="6.07613">
        <ele>299.20001220703</ele>
        <time>2013-05-04T12:35:41Z</time>
      </trkpt>
      <trkpt lat="43.42871" lon="6.07614">
        <ele>299.20001220703</ele>
        <time>2013-05-04T12:35:42Z</time>
      </trkpt>
      <trkpt lat="43.42872" lon="6.07622">
        <ele>299.60000610352</ele>
        <time>2013-05-04T12:35:46Z</time>
      </trkpt>
      <trkpt lat="43.42873" lon="6.07626">
        <ele>300.60000610352</ele>
        <time>2013-05-04T12:35:48Z</time>
      </trkpt>
      <trkpt lat="43.42875" lon="6.07628">
        <ele>301.39999389648</ele>
        <time>2013-05-04T12:35:50Z</time>
      </trkpt>
      <trkpt lat="43.42876" lon="6.07632">
        <ele>301.39999389648</ele>
        <time>2013-05-04T12:35:52Z</time>
      </trkpt>
      <trkpt lat="43.4288" lon="6.07652">
        <ele>305.60000610352</ele>
        <time>2013-05-04T12:36:04Z</time>
      </trkpt>
      <trkpt lat="43.42882" lon="6.07657">
        <ele>305.60000610352</ele>
        <time>2013-05-04T12:36:07Z</time>
      </trkpt>
      <trkpt lat="43.42884" lon="6.07675">
        <ele>307.60000610352</ele>
        <time>2013-05-04T12:36:20Z</time>
      </trkpt>
      <trkpt lat="43.42887" lon="6.07687">
        <ele>309.39999389648</ele>
        <time>2013-05-04T12:36:28Z</time>
      </trkpt>
      <trkpt lat="43.42888" lon="6.07691">
        <ele>309.79998779297</ele>
        <time>2013-05-04T12:36:31Z</time>
      </trkpt>
      <trkpt lat="43.42891" lon="6.077">
        <ele>310.20001220703</ele>
        <time>2013-05-04T12:36:39Z</time>
      </trkpt>
      <trkpt lat="43.42891" lon="6.07701">
        <ele>310.60000610352</ele>
        <time>2013-05-04T12:36:40Z</time>
      </trkpt>
      <trkpt lat="43.42891" lon="6.07702">
        <ele>311</ele>
        <time>2013-05-04T12:36:41Z</time>
      </trkpt>
      <trkpt lat="43.42892" lon="6.07702">
        <ele>311.39999389648</ele>
        <time>2013-05-04T12:36:42Z</time>
      </trkpt>
      <trkpt lat="43.42892" lon="6.07702">
        <ele>311.79998779297</ele>
        <time>2013-05-04T12:36:43Z</time>
      </trkpt>
      <trkpt lat="43.42892" lon="6.07702">
        <ele>311.79998779297</ele>
        <time>2013-05-04T12:36:58Z</time>
      </trkpt>
      <trkpt lat="43.42892" lon="6.07702">
        <ele>311.79998779297</ele>
        <time>2013-05-04T12:37:15Z</time>
      </trkpt>
      <trkpt lat="43.42892" lon="6.07703">
        <ele>311.79998779297</ele>
        <time>2013-05-04T12:37:21Z</time>
      </trkpt>
      <trkpt lat="43.42892" lon="6.07703">
        <ele>311.79998779297</ele>
        <time>2013-05-04T12:37:41Z</time>
      </trkpt>
      <trkpt lat="43.42892" lon="6.07703">
        <ele>311.79998779297</ele>
        <time>2013-05-04T12:38:23Z</time>
      </trkpt>
      <trkpt lat="43.42893" lon="6.07703">
        <ele>311.79998779297</ele>
        <time>2013-05-04T12:38:53Z</time>
      </trkpt>
      <trkpt lat="43.42893" lon="6.07703">
        <ele>311.79998779297</ele>
        <time>2013-05-04T12:39:06Z</time>
      </trkpt>
      <trkpt lat="43.42894" lon="6.07705">
        <ele>311.79998779297</ele>
        <time>2013-05-04T12:39:12Z</time>
      </trkpt>
      <trkpt lat="43.42894" lon="6.07706">
        <ele>311.79998779297</ele>
        <time>2013-05-04T12:39:13Z</time>
      </trkpt>
      <trkpt lat="43.42895" lon="6.07716">
        <ele>311.79998779297</ele>
        <time>2013-05-04T12:39:19Z</time>
      </trkpt>
      <trkpt lat="43.42896" lon="6.07717">
        <ele>311.79998779297</ele>
        <time>2013-05-04T12:39:20Z</time>
      </trkpt>
      <trkpt lat="43.42898" lon="6.07727">
        <ele>311.79998779297</ele>
        <time>2013-05-04T12:39:26Z</time>
      </trkpt>
      <trkpt lat="43.429" lon="6.07738">
        <ele>311.79998779297</ele>
        <time>2013-05-04T12:39:32Z</time>
      </trkpt>
      <trkpt lat="43.42901" lon="6.07742">
        <ele>311.79998779297</ele>
        <time>2013-05-04T12:39:34Z</time>
      </trkpt>
      <trkpt lat="43.42904" lon="6.07749">
        <ele>311.79998779297</ele>
        <time>2013-05-04T12:39:38Z</time>
      </trkpt>
      <trkpt lat="43.42905" lon="6.07755">
        <ele>311.79998779297</ele>
        <time>2013-05-04T12:39:41Z</time>
      </trkpt>
      <trkpt lat="43.42912" lon="6.07779">
        <ele>311.79998779297</ele>
        <time>2013-05-04T12:39:48Z</time>
      </trkpt>
      <trkpt lat="43.42918" lon="6.07808">
        <ele>311.79998779297</ele>
        <time>2013-05-04T12:39:53Z</time>
      </trkpt>
      <trkpt lat="43.42925" lon="6.07838">
        <ele>311.39999389648</ele>
        <time>2013-05-04T12:39:57Z</time>
      </trkpt>
      <trkpt lat="43.42927" lon="6.07846">
        <ele>311</ele>
        <time>2013-05-04T12:39:58Z</time>
      </trkpt>
      <trkpt lat="43.42929" lon="6.07853">
        <ele>310.39999389648</ele>
        <time>2013-05-04T12:39:59Z</time>
      </trkpt>
      <trkpt lat="43.42931" lon="6.0786">
        <ele>310</ele>
        <time>2013-05-04T12:40:00Z</time>
      </trkpt>
      <trkpt lat="43.42932" lon="6.07866">
        <ele>309.60000610352</ele>
        <time>2013-05-04T12:40:01Z</time>
      </trkpt>
      <trkpt lat="43.42934" lon="6.07877">
        <ele>309.60000610352</ele>
        <time>2013-05-04T12:40:03Z</time>
      </trkpt>
      <trkpt lat="43.42938" lon="6.07895">
        <ele>309.60000610352</ele>
        <time>2013-05-04T12:40:08Z</time>
      </trkpt>
      <trkpt lat="43.42942" lon="6.07907">
        <ele>309.60000610352</ele>
        <time>2013-05-04T12:40:12Z</time>
      </trkpt>
      <trkpt lat="43.42944" lon="6.07916">
        <ele>309.60000610352</ele>
        <time>2013-05-04T12:40:15Z</time>
      </trkpt>
      <trkpt lat="43.42947" lon="6.07931">
        <ele>309.60000610352</ele>
        <time>2013-05-04T12:40:20Z</time>
      </trkpt>
      <trkpt lat="43.42954" lon="6.07955">
        <ele>309.60000610352</ele>
        <time>2013-05-04T12:40:27Z</time>
      </trkpt>
      <trkpt lat="43.4296" lon="6.07974">
        <ele>309.60000610352</ele>
        <time>2013-05-04T12:40:32Z</time>
      </trkpt>
      <trkpt lat="43.42966" lon="6.07998">
        <ele>309.60000610352</ele>
        <time>2013-05-04T12:40:39Z</time>
      </trkpt>
      <trkpt lat="43.42974" lon="6.08025">
        <ele>310</ele>
        <time>2013-05-04T12:40:47Z</time>
      </trkpt>
      <trkpt lat="43.42978" lon="6.08038">
        <ele>311.60000610352</ele>
        <time>2013-05-04T12:40:51Z</time>
      </trkpt>
      <trkpt lat="43.4298" lon="6.08047">
        <ele>311.60000610352</ele>
        <time>2013-05-04T12:40:54Z</time>
      </trkpt>
      <trkpt lat="43.42989" lon="6.08072">
        <ele>312</ele>
        <time>2013-05-04T12:41:06Z</time>
      </trkpt>
      <trkpt lat="43.42989" lon="6.08075">
        <ele>313</ele>
        <time>2013-05-04T12:41:08Z</time>
      </trkpt>
      <trkpt lat="43.42989" lon="6.08079">
        <ele>313.79998779297</ele>
        <time>2013-05-04T12:41:10Z</time>
      </trkpt>
      <trkpt lat="43.42991" lon="6.08086">
        <ele>314.60000610352</ele>
        <time>2013-05-04T12:41:14Z</time>
      </trkpt>
      <trkpt lat="43.42993" lon="6.08097">
        <ele>316.39999389648</ele>
        <time>2013-05-04T12:41:20Z</time>
      </trkpt>
      <trkpt lat="43.42995" lon="6.081">
        <ele>317.20001220703</ele>
        <time>2013-05-04T12:41:22Z</time>
      </trkpt>
      <trkpt lat="43.42999" lon="6.08113">
        <ele>319.39999389648</ele>
        <time>2013-05-04T12:41:30Z</time>
      </trkpt>
      <trkpt lat="43.43002" lon="6.0812">
        <ele>320.20001220703</ele>
        <time>2013-05-04T12:41:35Z</time>
      </trkpt>
      <trkpt lat="43.43003" lon="6.08127">
        <ele>322.39999389648</ele>
        <time>2013-05-04T12:41:40Z</time>
      </trkpt>
      <trkpt lat="43.43005" lon="6.08128">
        <ele>322.39999389648</ele>
        <time>2013-05-04T12:41:42Z</time>
      </trkpt>
      <trkpt lat="43.43008" lon="6.08132">
        <ele>322.39999389648</ele>
        <time>2013-05-04T12:41:47Z</time>
      </trkpt>
      <trkpt lat="43.4301" lon="6.08139">
        <ele>324.60000610352</ele>
        <time>2013-05-04T12:41:53Z</time>
      </trkpt>
      <trkpt lat="43.43017" lon="6.08152">
        <ele>326.79998779297</ele>
        <time>2013-05-04T12:42:05Z</time>
      </trkpt>
      <trkpt lat="43.4302" lon="6.08163">
        <ele>326.79998779297</ele>
        <time>2013-05-04T12:42:13Z</time>
      </trkpt>
      <trkpt lat="43.43021" lon="6.08167">
        <ele>327.20001220703</ele>
        <time>2013-05-04T12:42:16Z</time>
      </trkpt>
      <trkpt lat="43.43023" lon="6.08171">
        <ele>328.39999389648</ele>
        <time>2013-05-04T12:42:19Z</time>
      </trkpt>
      <trkpt lat="43.43024" lon="6.08175">
        <ele>328.79998779297</ele>
        <time>2013-05-04T12:42:23Z</time>
      </trkpt>
      <trkpt lat="43.43026" lon="6.08183">
        <ele>328.79998779297</ele>
        <time>2013-05-04T12:42:32Z</time>
      </trkpt>
      <trkpt lat="43.43027" lon="6.08184">
        <ele>328.79998779297</ele>
        <time>2013-05-04T12:42:34Z</time>
      </trkpt>
      <trkpt lat="43.43028" lon="6.08187">
        <ele>328.79998779297</ele>
        <time>2013-05-04T12:42:38Z</time>
      </trkpt>
      <trkpt lat="43.43028" lon="6.08187">
        <ele>328.79998779297</ele>
        <time>2013-05-04T12:42:43Z</time>
      </trkpt>
      <trkpt lat="43.43028" lon="6.08187">
        <ele>328.79998779297</ele>
        <time>2013-05-04T12:42:56Z</time>
      </trkpt>
      <trkpt lat="43.43028" lon="6.08187">
        <ele>330.79998779297</ele>
        <time>2013-05-04T12:46:16Z</time>
      </trkpt>
      <trkpt lat="43.43029" lon="6.08187">
        <ele>330.79998779297</ele>
        <time>2013-05-04T12:46:46Z</time>
      </trkpt>
      <trkpt lat="43.43029" lon="6.08187">
        <ele>330.79998779297</ele>
        <time>2013-05-04T12:47:13Z</time>
      </trkpt>
      <trkpt lat="43.43029" lon="6.08187">
        <ele>330.79998779297</ele>
        <time>2013-05-04T12:47:50Z</time>
      </trkpt>
      <trkpt lat="43.43028" lon="6.08187">
        <ele>330.79998779297</ele>
        <time>2013-05-04T12:48:48Z</time>
      </trkpt>
      <trkpt lat="43.43028" lon="6.08187">
        <ele>330.79998779297</ele>
        <time>2013-05-04T12:49:10Z</time>
      </trkpt>
      <trkpt lat="43.43028" lon="6.08187">
        <ele>330.79998779297</ele>
        <time>2013-05-04T12:49:41Z</time>
      </trkpt>
      <trkpt lat="43.43028" lon="6.08187">
        <ele>330.79998779297</ele>
        <time>2013-05-04T12:49:57Z</time>
      </trkpt>
      <trkpt lat="43.43028" lon="6.08187">
        <ele>330.79998779297</ele>
        <time>2013-05-04T12:50:06Z</time>
      </trkpt>
      <trkpt lat="43.43028" lon="6.08187">
        <ele>330.79998779297</ele>
        <time>2013-05-04T12:50:17Z</time>
      </trkpt>
      <trkpt lat="43.43028" lon="6.08187">
        <ele>330.79998779297</ele>
        <time>2013-05-04T12:50:30Z</time>
      </trkpt>
      <trkpt lat="43.43028" lon="6.08188">
        <ele>330.79998779297</ele>
        <time>2013-05-04T12:50:39Z</time>
      </trkpt>
      <trkpt lat="43.43028" lon="6.08192">
        <ele>330.79998779297</ele>
        <time>2013-05-04T12:50:42Z</time>
      </trkpt>
      <trkpt lat="43.43029" lon="6.08196">
        <ele>330.79998779297</ele>
        <time>2013-05-04T12:50:44Z</time>
      </trkpt>
      <trkpt lat="43.43032" lon="6.08206">
        <ele>330.79998779297</ele>
        <time>2013-05-04T12:50:49Z</time>
      </trkpt>
      <trkpt lat="43.43034" lon="6.0821">
        <ele>330.79998779297</ele>
        <time>2013-05-04T12:50:51Z</time>
      </trkpt>
      <trkpt lat="43.43034" lon="6.08213">
        <ele>330.79998779297</ele>
        <time>2013-05-04T12:50:52Z</time>
      </trkpt>
      <trkpt lat="43.43038" lon="6.08228">
        <ele>329.39999389648</ele>
        <time>2013-05-04T12:50:57Z</time>
      </trkpt>
      <trkpt lat="43.4304" lon="6.08235">
        <ele>328.60000610352</ele>
        <time>2013-05-04T12:50:59Z</time>
      </trkpt>
      <trkpt lat="43.43044" lon="6.08249">
        <ele>328.20001220703</ele>
        <time>2013-05-04T12:51:03Z</time>
      </trkpt>
      <trkpt lat="43.43045" lon="6.08253">
        <ele>327.60000610352</ele>
        <time>2013-05-04T12:51:04Z</time>
      </trkpt>
      <trkpt lat="43.43047" lon="6.08256">
        <ele>327.20001220703</ele>
        <time>2013-05-04T12:51:05Z</time>
      </trkpt>
      <trkpt lat="43.43047" lon="6.0826">
        <ele>326.79998779297</ele>
        <time>2013-05-04T12:51:06Z</time>
      </trkpt>
      <trkpt lat="43.43048" lon="6.08268">
        <ele>326</ele>
        <time>2013-05-04T12:51:08Z</time>
      </trkpt>
      <trkpt lat="43.43049" lon="6.08273">
        <ele>325</ele>
        <time>2013-05-04T12:51:09Z</time>
      </trkpt>
      <trkpt lat="43.43049" lon="6.08278">
        <ele>324.60000610352</ele>
        <time>2013-05-04T12:51:10Z</time>
      </trkpt>
      <trkpt lat="43.4305" lon="6.08283">
        <ele>324</ele>
        <time>2013-05-04T12:51:11Z</time>
      </trkpt>
      <trkpt lat="43.43052" lon="6.0829">
        <ele>323.60000610352</ele>
        <time>2013-05-04T12:51:12Z</time>
      </trkpt>
      <trkpt lat="43.43054" lon="6.08297">
        <ele>323</ele>
        <time>2013-05-04T12:51:13Z</time>
      </trkpt>
      <trkpt lat="43.43058" lon="6.08307">
        <ele>322.20001220703</ele>
        <time>2013-05-04T12:51:14Z</time>
      </trkpt>
      <trkpt lat="43.4306" lon="6.08316">
        <ele>321.39999389648</ele>
        <time>2013-05-04T12:51:15Z</time>
      </trkpt>
      <trkpt lat="43.43064" lon="6.08326">
        <ele>320.20001220703</ele>
        <time>2013-05-04T12:51:16Z</time>
      </trkpt>
      <trkpt lat="43.43068" lon="6.08336">
        <ele>319</ele>
        <time>2013-05-04T12:51:17Z</time>
      </trkpt>
      <trkpt lat="43.43072" lon="6.08345">
        <ele>318</ele>
        <time>2013-05-04T12:51:18Z</time>
      </trkpt>
      <trkpt lat="43.43076" lon="6.08353">
        <ele>316.79998779297</ele>
        <time>2013-05-04T12:51:19Z</time>
      </trkpt>
      <trkpt lat="43.43079" lon="6.0836">
        <ele>315.60000610352</ele>
        <time>2013-05-04T12:51:20Z</time>
      </trkpt>
      <trkpt lat="43.43084" lon="6.08365">
        <ele>315.60000610352</ele>
        <time>2013-05-04T12:51:21Z</time>
      </trkpt>
      <trkpt lat="43.43086" lon="6.08371">
        <ele>315.60000610352</ele>
        <time>2013-05-04T12:51:22Z</time>
      </trkpt>
      <trkpt lat="43.4309" lon="6.08383">
        <ele>315.60000610352</ele>
        <time>2013-05-04T12:51:24Z</time>
      </trkpt>
      <trkpt lat="43.43092" lon="6.08395">
        <ele>315.60000610352</ele>
        <time>2013-05-04T12:51:26Z</time>
      </trkpt>
      <trkpt lat="43.43094" lon="6.08419">
        <ele>315.60000610352</ele>
        <time>2013-05-04T12:51:29Z</time>
      </trkpt>
      <trkpt lat="43.43095" lon="6.08425">
        <ele>315.60000610352</ele>
        <time>2013-05-04T12:51:30Z</time>
      </trkpt>
      <trkpt lat="43.43096" lon="6.08437">
        <ele>315.60000610352</ele>
        <time>2013-05-04T12:51:34Z</time>
      </trkpt>
      <trkpt lat="43.43096" lon="6.08439">
        <ele>315.60000610352</ele>
        <time>2013-05-04T12:51:35Z</time>
      </trkpt>
      <trkpt lat="43.43096" lon="6.08445">
        <ele>315.60000610352</ele>
        <time>2013-05-04T12:51:39Z</time>
      </trkpt>
      <trkpt lat="43.431" lon="6.0846">
        <ele>315.60000610352</ele>
        <time>2013-05-04T12:51:46Z</time>
      </trkpt>
      <trkpt lat="43.43105" lon="6.08475">
        <ele>315.60000610352</ele>
        <time>2013-05-04T12:51:52Z</time>
      </trkpt>
      <trkpt lat="43.43109" lon="6.08488">
        <ele>315.60000610352</ele>
        <time>2013-05-04T12:51:57Z</time>
      </trkpt>
      <trkpt lat="43.4311" lon="6.0849">
        <ele>316</ele>
        <time>2013-05-04T12:51:58Z</time>
      </trkpt>
      <trkpt lat="43.43111" lon="6.08493">
        <ele>316.39999389648</ele>
        <time>2013-05-04T12:51:59Z</time>
      </trkpt>
      <trkpt lat="43.43115" lon="6.08504">
        <ele>317.60000610352</ele>
        <time>2013-05-04T12:52:04Z</time>
      </trkpt>
      <trkpt lat="43.4312" lon="6.08516">
        <ele>319.79998779297</ele>
        <time>2013-05-04T12:52:10Z</time>
      </trkpt>
      <trkpt lat="43.43125" lon="6.08524">
        <ele>320.20001220703</ele>
        <time>2013-05-04T12:52:14Z</time>
      </trkpt>
      <trkpt lat="43.43131" lon="6.08532">
        <ele>321.79998779297</ele>
        <time>2013-05-04T12:52:20Z</time>
      </trkpt>
      <trkpt lat="43.43135" lon="6.08538">
        <ele>322.20001220703</ele>
        <time>2013-05-04T12:52:25Z</time>
      </trkpt>
      <trkpt lat="43.43137" lon="6.08543">
        <ele>323.39999389648</ele>
        <time>2013-05-04T12:52:28Z</time>
      </trkpt>
      <trkpt lat="43.43139" lon="6.08549">
        <ele>323.79998779297</ele>
        <time>2013-05-04T12:52:32Z</time>
      </trkpt>
      <trkpt lat="43.43145" lon="6.08558">
        <ele>323.79998779297</ele>
        <time>2013-05-04T12:52:38Z</time>
      </trkpt>
      <trkpt lat="43.4315" lon="6.08569">
        <ele>323.79998779297</ele>
        <time>2013-05-04T12:52:45Z</time>
      </trkpt>
      <trkpt lat="43.43154" lon="6.08576">
        <ele>323.79998779297</ele>
        <time>2013-05-04T12:52:50Z</time>
      </trkpt>
      <trkpt lat="43.43158" lon="6.08581">
        <ele>323.79998779297</ele>
        <time>2013-05-04T12:52:54Z</time>
      </trkpt>
      <trkpt lat="43.4316" lon="6.08583">
        <ele>323.79998779297</ele>
        <time>2013-05-04T12:52:56Z</time>
      </trkpt>
      <trkpt lat="43.43162" lon="6.08587">
        <ele>323.79998779297</ele>
        <time>2013-05-04T12:53:01Z</time>
      </trkpt>
      <trkpt lat="43.43162" lon="6.08588">
        <ele>323.79998779297</ele>
        <time>2013-05-04T12:53:08Z</time>
      </trkpt>
      <trkpt lat="43.43163" lon="6.08589">
        <ele>323.79998779297</ele>
        <time>2013-05-04T12:53:09Z</time>
      </trkpt>
      <trkpt lat="43.43163" lon="6.08594">
        <ele>323.79998779297</ele>
        <time>2013-05-04T12:53:11Z</time>
      </trkpt>
      <trkpt lat="43.43166" lon="6.08604">
        <ele>323.79998779297</ele>
        <time>2013-05-04T12:53:14Z</time>
      </trkpt>
      <trkpt lat="43.4317" lon="6.08615">
        <ele>323.79998779297</ele>
        <time>2013-05-04T12:53:17Z</time>
      </trkpt>
      <trkpt lat="43.43173" lon="6.08626">
        <ele>323.79998779297</ele>
        <time>2013-05-04T12:53:20Z</time>
      </trkpt>
      <trkpt lat="43.43174" lon="6.08629">
        <ele>323.79998779297</ele>
        <time>2013-05-04T12:53:21Z</time>
      </trkpt>
      <trkpt lat="43.43176" lon="6.08636">
        <ele>323.79998779297</ele>
        <time>2013-05-04T12:53:23Z</time>
      </trkpt>
      <trkpt lat="43.43176" lon="6.0864">
        <ele>323.79998779297</ele>
        <time>2013-05-04T12:53:24Z</time>
      </trkpt>
      <trkpt lat="43.43179" lon="6.08651">
        <ele>323.79998779297</ele>
        <time>2013-05-04T12:53:27Z</time>
      </trkpt>
      <trkpt lat="43.43182" lon="6.08668">
        <ele>323.79998779297</ele>
        <time>2013-05-04T12:53:31Z</time>
      </trkpt>
      <trkpt lat="43.4319" lon="6.087">
        <ele>323.79998779297</ele>
        <time>2013-05-04T12:53:39Z</time>
      </trkpt>
      <trkpt lat="43.43195" lon="6.08714">
        <ele>323.79998779297</ele>
        <time>2013-05-04T12:53:44Z</time>
      </trkpt>
      <trkpt lat="43.43198" lon="6.08727">
        <ele>323.79998779297</ele>
        <time>2013-05-04T12:53:49Z</time>
      </trkpt>
      <trkpt lat="43.432" lon="6.08734">
        <ele>323.79998779297</ele>
        <time>2013-05-04T12:53:52Z</time>
      </trkpt>
      <trkpt lat="43.43204" lon="6.08749">
        <ele>324.39999389648</ele>
        <time>2013-05-04T12:53:59Z</time>
      </trkpt>
      <trkpt lat="43.43206" lon="6.08756">
        <ele>326</ele>
        <time>2013-05-04T12:54:02Z</time>
      </trkpt>
      <trkpt lat="43.43211" lon="6.08776">
        <ele>328.20001220703</ele>
        <time>2013-05-04T12:54:12Z</time>
      </trkpt>
      <trkpt lat="43.43214" lon="6.08789">
        <ele>328.20001220703</ele>
        <time>2013-05-04T12:54:19Z</time>
      </trkpt>
      <trkpt lat="43.4322" lon="6.08811">
        <ele>330.39999389648</ele>
        <time>2013-05-04T12:54:31Z</time>
      </trkpt>
      <trkpt lat="43.43222" lon="6.08818">
        <ele>331.20001220703</ele>
        <time>2013-05-04T12:54:35Z</time>
      </trkpt>
      <trkpt lat="43.43222" lon="6.0882">
        <ele>331.60000610352</ele>
        <time>2013-05-04T12:54:36Z</time>
      </trkpt>
      <trkpt lat="43.43223" lon="6.08823">
        <ele>332.39999389648</ele>
        <time>2013-05-04T12:54:38Z</time>
      </trkpt>
      <trkpt lat="43.43223" lon="6.08827">
        <ele>332.39999389648</ele>
        <time>2013-05-04T12:54:40Z</time>
      </trkpt>
      <trkpt lat="43.43225" lon="6.08835">
        <ele>333</ele>
        <time>2013-05-04T12:54:47Z</time>
      </trkpt>
      <trkpt lat="43.43225" lon="6.08835">
        <ele>334.60000610352</ele>
        <time>2013-05-04T12:54:51Z</time>
      </trkpt>
      <trkpt lat="43.43229" lon="6.08853">
        <ele>334.60000610352</ele>
        <time>2013-05-04T12:55:04Z</time>
      </trkpt>
      <trkpt lat="43.43232" lon="6.08865">
        <ele>334.60000610352</ele>
        <time>2013-05-04T12:55:10Z</time>
      </trkpt>
      <trkpt lat="43.43234" lon="6.08878">
        <ele>334.60000610352</ele>
        <time>2013-05-04T12:55:16Z</time>
      </trkpt>
      <trkpt lat="43.43238" lon="6.08897">
        <ele>334.60000610352</ele>
        <time>2013-05-04T12:55:24Z</time>
      </trkpt>
      <trkpt lat="43.4324" lon="6.08907">
        <ele>334.60000610352</ele>
        <time>2013-05-04T12:55:28Z</time>
      </trkpt>
      <trkpt lat="43.43242" lon="6.08919">
        <ele>334.60000610352</ele>
        <time>2013-05-04T12:55:32Z</time>
      </trkpt>
      <trkpt lat="43.43245" lon="6.08935">
        <ele>334.60000610352</ele>
        <time>2013-05-04T12:55:38Z</time>
      </trkpt>
      <trkpt lat="43.43246" lon="6.08941">
        <ele>334.60000610352</ele>
        <time>2013-05-04T12:55:40Z</time>
      </trkpt>
      <trkpt lat="43.43249" lon="6.08953">
        <ele>334.60000610352</ele>
        <time>2013-05-04T12:55:44Z</time>
      </trkpt>
      <trkpt lat="43.4325" lon="6.08958">
        <ele>334.60000610352</ele>
        <time>2013-05-04T12:55:46Z</time>
      </trkpt>
      <trkpt lat="43.43253" lon="6.08967">
        <ele>334.60000610352</ele>
        <time>2013-05-04T12:55:49Z</time>
      </trkpt>
      <trkpt lat="43.43253" lon="6.08968">
        <ele>334.60000610352</ele>
        <time>2013-05-04T12:55:52Z</time>
      </trkpt>
      <trkpt lat="43.43253" lon="6.08968">
        <ele>334.60000610352</ele>
        <time>2013-05-04T12:56:16Z</time>
      </trkpt>
      <trkpt lat="43.43253" lon="6.08968">
        <ele>334.60000610352</ele>
        <time>2013-05-04T12:56:26Z</time>
      </trkpt>
      <trkpt lat="43.43253" lon="6.08968">
        <ele>334.60000610352</ele>
        <time>2013-05-04T12:56:28Z</time>
      </trkpt>
      <trkpt lat="43.43254" lon="6.08978">
        <ele>334.60000610352</ele>
        <time>2013-05-04T12:56:31Z</time>
      </trkpt>
      <trkpt lat="43.43254" lon="6.08982">
        <ele>334.60000610352</ele>
        <time>2013-05-04T12:56:32Z</time>
      </trkpt>
      <trkpt lat="43.43257" lon="6.09007">
        <ele>334.60000610352</ele>
        <time>2013-05-04T12:56:38Z</time>
      </trkpt>
      <trkpt lat="43.4326" lon="6.09033">
        <ele>334</ele>
        <time>2013-05-04T12:56:44Z</time>
      </trkpt>
      <trkpt lat="43.4326" lon="6.09036">
        <ele>333.60000610352</ele>
        <time>2013-05-04T12:56:45Z</time>
      </trkpt>
      <trkpt lat="43.4326" lon="6.09038">
        <ele>333.20001220703</ele>
        <time>2013-05-04T12:56:46Z</time>
      </trkpt>
      <trkpt lat="43.4326" lon="6.0904">
        <ele>332.79998779297</ele>
        <time>2013-05-04T12:56:47Z</time>
      </trkpt>
      <trkpt lat="43.43259" lon="6.09042">
        <ele>332.20001220703</ele>
        <time>2013-05-04T12:56:48Z</time>
      </trkpt>
      <trkpt lat="43.43258" lon="6.09045">
        <ele>331.79998779297</ele>
        <time>2013-05-04T12:56:50Z</time>
      </trkpt>
      <trkpt lat="43.43258" lon="6.09047">
        <ele>331.39999389648</ele>
        <time>2013-05-04T12:56:51Z</time>
      </trkpt>
      <trkpt lat="43.43255" lon="6.0906">
        <ele>329.79998779297</ele>
        <time>2013-05-04T12:56:54Z</time>
      </trkpt>
      <trkpt lat="43.43254" lon="6.09065">
        <ele>329.39999389648</ele>
        <time>2013-05-04T12:56:55Z</time>
      </trkpt>
      <trkpt lat="43.4325" lon="6.09069">
        <ele>328.79998779297</ele>
        <time>2013-05-04T12:56:56Z</time>
      </trkpt>
      <trkpt lat="43.43246" lon="6.09074">
        <ele>328.20001220703</ele>
        <time>2013-05-04T12:56:57Z</time>
      </trkpt>
      <trkpt lat="43.43241" lon="6.09078">
        <ele>327.39999389648</ele>
        <time>2013-05-04T12:56:58Z</time>
      </trkpt>
      <trkpt lat="43.43235" lon="6.09083">
        <ele>326.79998779297</ele>
        <time>2013-05-04T12:56:59Z</time>
      </trkpt>
      <trkpt lat="43.43229" lon="6.09088">
        <ele>326</ele>
        <time>2013-05-04T12:57:00Z</time>
      </trkpt>
      <trkpt lat="43.43225" lon="6.09094">
        <ele>325.20001220703</ele>
        <time>2013-05-04T12:57:01Z</time>
      </trkpt>
      <trkpt lat="43.43221" lon="6.091">
        <ele>324.60000610352</ele>
        <time>2013-05-04T12:57:02Z</time>
      </trkpt>
      <trkpt lat="43.43217" lon="6.09107">
        <ele>323.79998779297</ele>
        <time>2013-05-04T12:57:03Z</time>
      </trkpt>
      <trkpt lat="43.43216" lon="6.09113">
        <ele>323</ele>
        <time>2013-05-04T12:57:04Z</time>
      </trkpt>
      <trkpt lat="43.43215" lon="6.09118">
        <ele>323</ele>
        <time>2013-05-04T12:57:05Z</time>
      </trkpt>
      <trkpt lat="43.43219" lon="6.0913">
        <ele>323</ele>
        <time>2013-05-04T12:57:08Z</time>
      </trkpt>
      <trkpt lat="43.43224" lon="6.09136">
        <ele>323</ele>
        <time>2013-05-04T12:57:10Z</time>
      </trkpt>
      <trkpt lat="43.43235" lon="6.09146">
        <ele>323</ele>
        <time>2013-05-04T12:57:14Z</time>
      </trkpt>
      <trkpt lat="43.43246" lon="6.09153">
        <ele>323</ele>
        <time>2013-05-04T12:57:17Z</time>
      </trkpt>
      <trkpt lat="43.43264" lon="6.09155">
        <ele>323</ele>
        <time>2013-05-04T12:57:23Z</time>
      </trkpt>
      <trkpt lat="43.43282" lon="6.09156">
        <ele>323</ele>
        <time>2013-05-04T12:57:30Z</time>
      </trkpt>
      <trkpt lat="43.43291" lon="6.0916">
        <ele>322.60000610352</ele>
        <time>2013-05-04T12:57:33Z</time>
      </trkpt>
      <trkpt lat="43.43293" lon="6.09162">
        <ele>322.20001220703</ele>
        <time>2013-05-04T12:57:34Z</time>
      </trkpt>
      <trkpt lat="43.43296" lon="6.09164">
        <ele>321.79998779297</ele>
        <time>2013-05-04T12:57:35Z</time>
      </trkpt>
      <trkpt lat="43.43303" lon="6.09172">
        <ele>321</ele>
        <time>2013-05-04T12:57:37Z</time>
      </trkpt>
      <trkpt lat="43.43309" lon="6.09187">
        <ele>320.60000610352</ele>
        <time>2013-05-04T12:57:40Z</time>
      </trkpt>
      <trkpt lat="43.43311" lon="6.09191">
        <ele>320</ele>
        <time>2013-05-04T12:57:41Z</time>
      </trkpt>
      <trkpt lat="43.43311" lon="6.09196">
        <ele>319.60000610352</ele>
        <time>2013-05-04T12:57:42Z</time>
      </trkpt>
      <trkpt lat="43.43312" lon="6.09198">
        <ele>319</ele>
        <time>2013-05-04T12:57:43Z</time>
      </trkpt>
      <trkpt lat="43.43313" lon="6.09198">
        <ele>318.60000610352</ele>
        <time>2013-05-04T12:57:44Z</time>
      </trkpt>
      <trkpt lat="43.43314" lon="6.09198">
        <ele>318.20001220703</ele>
        <time>2013-05-04T12:57:49Z</time>
      </trkpt>
      <trkpt lat="43.43314" lon="6.09198">
        <ele>316.39999389648</ele>
        <time>2013-05-04T12:58:10Z</time>
      </trkpt>
      <trkpt lat="43.43314" lon="6.09198">
        <ele>316.39999389648</ele>
        <time>2013-05-04T12:58:26Z</time>
      </trkpt>
      <trkpt lat="43.43315" lon="6.09198">
        <ele>316.39999389648</ele>
        <time>2013-05-04T12:58:31Z</time>
      </trkpt>
      <trkpt lat="43.43315" lon="6.09198">
        <ele>316.39999389648</ele>
        <time>2013-05-04T12:58:42Z</time>
      </trkpt>
      <trkpt lat="43.43315" lon="6.09198">
        <ele>316.39999389648</ele>
        <time>2013-05-04T12:58:59Z</time>
      </trkpt>
      <trkpt lat="43.43314" lon="6.09197">
        <ele>316.39999389648</ele>
        <time>2013-05-04T12:59:02Z</time>
      </trkpt>
      <trkpt lat="43.43314" lon="6.09197">
        <ele>316.39999389648</ele>
        <time>2013-05-04T12:59:09Z</time>
      </trkpt>
      <trkpt lat="43.43316" lon="6.092">
        <ele>316.39999389648</ele>
        <time>2013-05-04T12:59:16Z</time>
      </trkpt>
      <trkpt lat="43.43317" lon="6.09214">
        <ele>316.39999389648</ele>
        <time>2013-05-04T12:59:20Z</time>
      </trkpt>
      <trkpt lat="43.43319" lon="6.09243">
        <ele>315.60000610352</ele>
        <time>2013-05-04T12:59:24Z</time>
      </trkpt>
      <trkpt lat="43.43317" lon="6.09249">
        <ele>315.20001220703</ele>
        <time>2013-05-04T12:59:25Z</time>
      </trkpt>
      <trkpt lat="43.43315" lon="6.09252">
        <ele>314.60000610352</ele>
        <time>2013-05-04T12:59:26Z</time>
      </trkpt>
      <trkpt lat="43.43312" lon="6.09253">
        <ele>314.20001220703</ele>
        <time>2013-05-04T12:59:27Z</time>
      </trkpt>
      <trkpt lat="43.43302" lon="6.09255">
        <ele>313.79998779297</ele>
        <time>2013-05-04T12:59:30Z</time>
      </trkpt>
      <trkpt lat="43.43299" lon="6.09255">
        <ele>313.39999389648</ele>
        <time>2013-05-04T12:59:31Z</time>
      </trkpt>
      <trkpt lat="43.43295" lon="6.09256">
        <ele>313</ele>
        <time>2013-05-04T12:59:32Z</time>
      </trkpt>
      <trkpt lat="43.43291" lon="6.09259">
        <ele>312.39999389648</ele>
        <time>2013-05-04T12:59:33Z</time>
      </trkpt>
      <trkpt lat="43.43287" lon="6.09261">
        <ele>312</ele>
        <time>2013-05-04T12:59:34Z</time>
      </trkpt>
      <trkpt lat="43.43284" lon="6.09263">
        <ele>311.60000610352</ele>
        <time>2013-05-04T12:59:35Z</time>
      </trkpt>
      <trkpt lat="43.43281" lon="6.09265">
        <ele>311.20001220703</ele>
        <time>2013-05-04T12:59:36Z</time>
      </trkpt>
      <trkpt lat="43.43276" lon="6.09269">
        <ele>310.20001220703</ele>
        <time>2013-05-04T12:59:38Z</time>
      </trkpt>
      <trkpt lat="43.43273" lon="6.09272">
        <ele>309.60000610352</ele>
        <time>2013-05-04T12:59:39Z</time>
      </trkpt>
      <trkpt lat="43.43271" lon="6.09276">
        <ele>309</ele>
        <time>2013-05-04T12:59:40Z</time>
      </trkpt>
      <trkpt lat="43.43269" lon="6.0928">
        <ele>308.60000610352</ele>
        <time>2013-05-04T12:59:41Z</time>
      </trkpt>
      <trkpt lat="43.43266" lon="6.09286">
        <ele>308</ele>
        <time>2013-05-04T12:59:42Z</time>
      </trkpt>
      <trkpt lat="43.43264" lon="6.09302">
        <ele>307</ele>
        <time>2013-05-04T12:59:44Z</time>
      </trkpt>
      <trkpt lat="43.43264" lon="6.09313">
        <ele>306.39999389648</ele>
        <time>2013-05-04T12:59:45Z</time>
      </trkpt>
      <trkpt lat="43.43262" lon="6.09321">
        <ele>306</ele>
        <time>2013-05-04T12:59:46Z</time>
      </trkpt>
      <trkpt lat="43.4326" lon="6.09328">
        <ele>305.20001220703</ele>
        <time>2013-05-04T12:59:47Z</time>
      </trkpt>
      <trkpt lat="43.43258" lon="6.09333">
        <ele>304.79998779297</ele>
        <time>2013-05-04T12:59:48Z</time>
      </trkpt>
      <trkpt lat="43.43256" lon="6.09339">
        <ele>304.39999389648</ele>
        <time>2013-05-04T12:59:49Z</time>
      </trkpt>
      <trkpt lat="43.43254" lon="6.09346">
        <ele>304</ele>
        <time>2013-05-04T12:59:50Z</time>
      </trkpt>
      <trkpt lat="43.43254" lon="6.09352">
        <ele>303.39999389648</ele>
        <time>2013-05-04T12:59:51Z</time>
      </trkpt>
      <trkpt lat="43.43253" lon="6.09358">
        <ele>303</ele>
        <time>2013-05-04T12:59:52Z</time>
      </trkpt>
      <trkpt lat="43.43252" lon="6.0937">
        <ele>302.20001220703</ele>
        <time>2013-05-04T12:59:54Z</time>
      </trkpt>
      <trkpt lat="43.43253" lon="6.09374">
        <ele>301.79998779297</ele>
        <time>2013-05-04T12:59:55Z</time>
      </trkpt>
      <trkpt lat="43.43253" lon="6.09378">
        <ele>301.39999389648</ele>
        <time>2013-05-04T12:59:56Z</time>
      </trkpt>
      <trkpt lat="43.43254" lon="6.0938">
        <ele>300.79998779297</ele>
        <time>2013-05-04T12:59:57Z</time>
      </trkpt>
      <trkpt lat="43.43259" lon="6.09381">
        <ele>299.79998779297</ele>
        <time>2013-05-04T12:59:59Z</time>
      </trkpt>
      <trkpt lat="43.43261" lon="6.09379">
        <ele>299.39999389648</ele>
        <time>2013-05-04T13:00:00Z</time>
      </trkpt>
      <trkpt lat="43.43263" lon="6.09376">
        <ele>298.79998779297</ele>
        <time>2013-05-04T13:00:01Z</time>
      </trkpt>
      <trkpt lat="43.4327" lon="6.09371">
        <ele>298.39999389648</ele>
        <time>2013-05-04T13:00:03Z</time>
      </trkpt>
      <trkpt lat="43.43278" lon="6.09368">
        <ele>297.60000610352</ele>
        <time>2013-05-04T13:00:05Z</time>
      </trkpt>
      <trkpt lat="43.43285" lon="6.09365">
        <ele>296.60000610352</ele>
        <time>2013-05-04T13:00:07Z</time>
      </trkpt>
      <trkpt lat="43.4329" lon="6.09363">
        <ele>296.20001220703</ele>
        <time>2013-05-04T13:00:08Z</time>
      </trkpt>
      <trkpt lat="43.43294" lon="6.09362">
        <ele>295.79998779297</ele>
        <time>2013-05-04T13:00:09Z</time>
      </trkpt>
      <trkpt lat="43.43299" lon="6.09361">
        <ele>295.20001220703</ele>
        <time>2013-05-04T13:00:10Z</time>
      </trkpt>
      <trkpt lat="43.43305" lon="6.0936">
        <ele>294.79998779297</ele>
        <time>2013-05-04T13:00:11Z</time>
      </trkpt>
      <trkpt lat="43.43309" lon="6.09359">
        <ele>293.79998779297</ele>
        <time>2013-05-04T13:00:12Z</time>
      </trkpt>
      <trkpt lat="43.43324" lon="6.09355">
        <ele>292.39999389648</ele>
        <time>2013-05-04T13:00:15Z</time>
      </trkpt>
      <trkpt lat="43.43333" lon="6.09352">
        <ele>291.20001220703</ele>
        <time>2013-05-04T13:00:17Z</time>
      </trkpt>
      <trkpt lat="43.43337" lon="6.09353">
        <ele>290.79998779297</ele>
        <time>2013-05-04T13:00:18Z</time>
      </trkpt>
      <trkpt lat="43.4334" lon="6.09352">
        <ele>290.20001220703</ele>
        <time>2013-05-04T13:00:19Z</time>
      </trkpt>
      <trkpt lat="43.43343" lon="6.09351">
        <ele>289.60000610352</ele>
        <time>2013-05-04T13:00:20Z</time>
      </trkpt>
      <trkpt lat="43.43346" lon="6.09349">
        <ele>289</ele>
        <time>2013-05-04T13:00:21Z</time>
      </trkpt>
      <trkpt lat="43.43351" lon="6.09348">
        <ele>288.60000610352</ele>
        <time>2013-05-04T13:00:22Z</time>
      </trkpt>
      <trkpt lat="43.43355" lon="6.09347">
        <ele>288</ele>
        <time>2013-05-04T13:00:23Z</time>
      </trkpt>
      <trkpt lat="43.43359" lon="6.09346">
        <ele>287.39999389648</ele>
        <time>2013-05-04T13:00:24Z</time>
      </trkpt>
      <trkpt lat="43.43362" lon="6.09344">
        <ele>286.79998779297</ele>
        <time>2013-05-04T13:00:25Z</time>
      </trkpt>
      <trkpt lat="43.43373" lon="6.09338">
        <ele>285.20001220703</ele>
        <time>2013-05-04T13:00:28Z</time>
      </trkpt>
      <trkpt lat="43.43378" lon="6.09339">
        <ele>284.79998779297</ele>
        <time>2013-05-04T13:00:29Z</time>
      </trkpt>
      <trkpt lat="43.43388" lon="6.09341">
        <ele>284</ele>
        <time>2013-05-04T13:00:31Z</time>
      </trkpt>
      <trkpt lat="43.43398" lon="6.09346">
        <ele>282.79998779297</ele>
        <time>2013-05-04T13:00:33Z</time>
      </trkpt>
      <trkpt lat="43.43403" lon="6.09349">
        <ele>282.20001220703</ele>
        <time>2013-05-04T13:00:34Z</time>
      </trkpt>
      <trkpt lat="43.43408" lon="6.0935">
        <ele>281.60000610352</ele>
        <time>2013-05-04T13:00:35Z</time>
      </trkpt>
      <trkpt lat="43.43412" lon="6.0935">
        <ele>280.20001220703</ele>
        <time>2013-05-04T13:00:36Z</time>
      </trkpt>
      <trkpt lat="43.43416" lon="6.09351">
        <ele>279.60000610352</ele>
        <time>2013-05-04T13:00:37Z</time>
      </trkpt>
      <trkpt lat="43.43421" lon="6.09354">
        <ele>279</ele>
        <time>2013-05-04T13:00:38Z</time>
      </trkpt>
      <trkpt lat="43.43431" lon="6.09363">
        <ele>277.60000610352</ele>
        <time>2013-05-04T13:00:40Z</time>
      </trkpt>
      <trkpt lat="43.43438" lon="6.09373">
        <ele>276.20001220703</ele>
        <time>2013-05-04T13:00:42Z</time>
      </trkpt>
      <trkpt lat="43.43441" lon="6.09377">
        <ele>275.79998779297</ele>
        <time>2013-05-04T13:00:43Z</time>
      </trkpt>
      <trkpt lat="43.43444" lon="6.09379">
        <ele>275.20001220703</ele>
        <time>2013-05-04T13:00:44Z</time>
      </trkpt>
      <trkpt lat="43.43447" lon="6.09382">
        <ele>274.79998779297</ele>
        <time>2013-05-04T13:00:45Z</time>
      </trkpt>
      <trkpt lat="43.43449" lon="6.09386">
        <ele>274.20001220703</ele>
        <time>2013-05-04T13:00:46Z</time>
      </trkpt>
      <trkpt lat="43.43452" lon="6.09388">
        <ele>273.60000610352</ele>
        <time>2013-05-04T13:00:47Z</time>
      </trkpt>
      <trkpt lat="43.43454" lon="6.09389">
        <ele>273</ele>
        <time>2013-05-04T13:00:48Z</time>
      </trkpt>
      <trkpt lat="43.43456" lon="6.09388">
        <ele>272.39999389648</ele>
        <time>2013-05-04T13:00:49Z</time>
      </trkpt>
      <trkpt lat="43.43462" lon="6.09385">
        <ele>271.20001220703</ele>
        <time>2013-05-04T13:00:51Z</time>
      </trkpt>
      <trkpt lat="43.43466" lon="6.09384">
        <ele>270.60000610352</ele>
        <time>2013-05-04T13:00:52Z</time>
      </trkpt>
      <trkpt lat="43.43471" lon="6.09385">
        <ele>270.20001220703</ele>
        <time>2013-05-04T13:00:53Z</time>
      </trkpt>
      <trkpt lat="43.43478" lon="6.09386">
        <ele>269.60000610352</ele>
        <time>2013-05-04T13:00:54Z</time>
      </trkpt>
      <trkpt lat="43.43484" lon="6.09386">
        <ele>268.79998779297</ele>
        <time>2013-05-04T13:00:55Z</time>
      </trkpt>
      <trkpt lat="43.43492" lon="6.09387">
        <ele>268.20001220703</ele>
        <time>2013-05-04T13:00:56Z</time>
      </trkpt>
      <trkpt lat="43.43499" lon="6.09387">
        <ele>267.60000610352</ele>
        <time>2013-05-04T13:00:57Z</time>
      </trkpt>
      <trkpt lat="43.43507" lon="6.09387">
        <ele>266.79998779297</ele>
        <time>2013-05-04T13:00:58Z</time>
      </trkpt>
      <trkpt lat="43.43516" lon="6.09386">
        <ele>266</ele>
        <time>2013-05-04T13:00:59Z</time>
      </trkpt>
      <trkpt lat="43.43526" lon="6.09386">
        <ele>265.39999389648</ele>
        <time>2013-05-04T13:01:00Z</time>
      </trkpt>
      <trkpt lat="43.43534" lon="6.09386">
        <ele>264.20001220703</ele>
        <time>2013-05-04T13:01:01Z</time>
      </trkpt>
      <trkpt lat="43.43544" lon="6.09387">
        <ele>263.60000610352</ele>
        <time>2013-05-04T13:01:02Z</time>
      </trkpt>
      <trkpt lat="43.43553" lon="6.09389">
        <ele>262.79998779297</ele>
        <time>2013-05-04T13:01:03Z</time>
      </trkpt>
      <trkpt lat="43.43562" lon="6.0939">
        <ele>262.20001220703</ele>
        <time>2013-05-04T13:01:04Z</time>
      </trkpt>
      <trkpt lat="43.43581" lon="6.09389">
        <ele>262.20001220703</ele>
        <time>2013-05-04T13:01:06Z</time>
      </trkpt>
      <trkpt lat="43.4359" lon="6.09388">
        <ele>261.79998779297</ele>
        <time>2013-05-04T13:01:07Z</time>
      </trkpt>
      <trkpt lat="43.43599" lon="6.09388">
        <ele>261.20001220703</ele>
        <time>2013-05-04T13:01:08Z</time>
      </trkpt>
      <trkpt lat="43.43606" lon="6.09387">
        <ele>260.79998779297</ele>
        <time>2013-05-04T13:01:09Z</time>
      </trkpt>
      <trkpt lat="43.43614" lon="6.09386">
        <ele>260.39999389648</ele>
        <time>2013-05-04T13:01:10Z</time>
      </trkpt>
      <trkpt lat="43.4362" lon="6.09385">
        <ele>259.79998779297</ele>
        <time>2013-05-04T13:01:11Z</time>
      </trkpt>
      <trkpt lat="43.43625" lon="6.09386">
        <ele>259.39999389648</ele>
        <time>2013-05-04T13:01:12Z</time>
      </trkpt>
      <trkpt lat="43.43629" lon="6.09386">
        <ele>259</ele>
        <time>2013-05-04T13:01:13Z</time>
      </trkpt>
      <trkpt lat="43.43631" lon="6.09385">
        <ele>258.39999389648</ele>
        <time>2013-05-04T13:01:14Z</time>
      </trkpt>
      <trkpt lat="43.43633" lon="6.09385">
        <ele>258</ele>
        <time>2013-05-04T13:01:15Z</time>
      </trkpt>
      <trkpt lat="43.43633" lon="6.09384">
        <ele>257.60000610352</ele>
        <time>2013-05-04T13:01:16Z</time>
      </trkpt>
      <trkpt lat="43.43633" lon="6.09384">
        <ele>257.60000610352</ele>
        <time>2013-05-04T13:01:20Z</time>
      </trkpt>
      <trkpt lat="43.43635" lon="6.09383">
        <ele>257.60000610352</ele>
        <time>2013-05-04T13:01:31Z</time>
      </trkpt>
      <trkpt lat="43.43639" lon="6.09367">
        <ele>257.60000610352</ele>
        <time>2013-05-04T13:01:36Z</time>
      </trkpt>
      <trkpt lat="43.43642" lon="6.09332">
        <ele>257.60000610352</ele>
        <time>2013-05-04T13:01:43Z</time>
      </trkpt>
      <trkpt lat="43.43644" lon="6.09309">
        <ele>257.20001220703</ele>
        <time>2013-05-04T13:01:47Z</time>
      </trkpt>
      <trkpt lat="43.43645" lon="6.09298">
        <ele>256.39999389648</ele>
        <time>2013-05-04T13:01:49Z</time>
      </trkpt>
      <trkpt lat="43.43646" lon="6.09291">
        <ele>255.39999389648</ele>
        <time>2013-05-04T13:01:50Z</time>
      </trkpt>
      <trkpt lat="43.4365" lon="6.09262">
        <ele>255.39999389648</ele>
        <time>2013-05-04T13:01:54Z</time>
      </trkpt>
      <trkpt lat="43.43654" lon="6.0924">
        <ele>255.39999389648</ele>
        <time>2013-05-04T13:01:57Z</time>
      </trkpt>
      <trkpt lat="43.43669" lon="6.092">
        <ele>255.39999389648</ele>
        <time>2013-05-04T13:02:03Z</time>
      </trkpt>
      <trkpt lat="43.43677" lon="6.09176">
        <ele>254.60000610352</ele>
        <time>2013-05-04T13:02:06Z</time>
      </trkpt>
      <trkpt lat="43.43679" lon="6.09167">
        <ele>254.19999694824</ele>
        <time>2013-05-04T13:02:07Z</time>
      </trkpt>
      <trkpt lat="43.43684" lon="6.09149">
        <ele>253.39999389648</ele>
        <time>2013-05-04T13:02:09Z</time>
      </trkpt>
      <trkpt lat="43.43694" lon="6.09102">
        <ele>253</ele>
        <time>2013-05-04T13:02:14Z</time>
      </trkpt>
      <trkpt lat="43.43696" lon="6.09093">
        <ele>252.19999694824</ele>
        <time>2013-05-04T13:02:15Z</time>
      </trkpt>
      <trkpt lat="43.43698" lon="6.09084">
        <ele>251.80000305176</ele>
        <time>2013-05-04T13:02:16Z</time>
      </trkpt>
      <trkpt lat="43.437" lon="6.09076">
        <ele>251.39999389648</ele>
        <time>2013-05-04T13:02:17Z</time>
      </trkpt>
      <trkpt lat="43.43712" lon="6.09015">
        <ele>251.39999389648</ele>
        <time>2013-05-04T13:02:24Z</time>
      </trkpt>
      <trkpt lat="43.43715" lon="6.08991">
        <ele>251.39999389648</ele>
        <time>2013-05-04T13:02:27Z</time>
      </trkpt>
      <trkpt lat="43.43716" lon="6.08974">
        <ele>251</ele>
        <time>2013-05-04T13:02:29Z</time>
      </trkpt>
      <trkpt lat="43.43716" lon="6.08967">
        <ele>250.60000610352</ele>
        <time>2013-05-04T13:02:30Z</time>
      </trkpt>
      <trkpt lat="43.43715" lon="6.08959">
        <ele>250.19999694824</ele>
        <time>2013-05-04T13:02:31Z</time>
      </trkpt>
      <trkpt lat="43.43714" lon="6.08936">
        <ele>249.39999389648</ele>
        <time>2013-05-04T13:02:34Z</time>
      </trkpt>
      <trkpt lat="43.43712" lon="6.0893">
        <ele>249.39999389648</ele>
        <time>2013-05-04T13:02:35Z</time>
      </trkpt>
      <trkpt lat="43.43707" lon="6.08914">
        <ele>249.39999389648</ele>
        <time>2013-05-04T13:02:39Z</time>
      </trkpt>
      <trkpt lat="43.43711" lon="6.08914">
        <ele>249.39999389648</ele>
        <time>2013-05-04T13:02:42Z</time>
      </trkpt>
      <trkpt lat="43.43714" lon="6.08921">
        <ele>249.39999389648</ele>
        <time>2013-05-04T13:02:44Z</time>
      </trkpt>
      <trkpt lat="43.43718" lon="6.08931">
        <ele>249.39999389648</ele>
        <time>2013-05-04T13:02:46Z</time>
      </trkpt>
      <trkpt lat="43.4372" lon="6.08935">
        <ele>249</ele>
        <time>2013-05-04T13:02:47Z</time>
      </trkpt>
      <trkpt lat="43.43727" lon="6.08943">
        <ele>248.19999694824</ele>
        <time>2013-05-04T13:02:49Z</time>
      </trkpt>
      <trkpt lat="43.43734" lon="6.08953">
        <ele>247.39999389648</ele>
        <time>2013-05-04T13:02:51Z</time>
      </trkpt>
      <trkpt lat="43.43742" lon="6.08964">
        <ele>247.39999389648</ele>
        <time>2013-05-04T13:02:53Z</time>
      </trkpt>
      <trkpt lat="43.43749" lon="6.08974">
        <ele>247.39999389648</ele>
        <time>2013-05-04T13:02:55Z</time>
      </trkpt>
      <trkpt lat="43.43758" lon="6.08983">
        <ele>247</ele>
        <time>2013-05-04T13:02:57Z</time>
      </trkpt>
      <trkpt lat="43.43763" lon="6.08987">
        <ele>246.60000610352</ele>
        <time>2013-05-04T13:02:58Z</time>
      </trkpt>
      <trkpt lat="43.43767" lon="6.0899">
        <ele>246</ele>
        <time>2013-05-04T13:02:59Z</time>
      </trkpt>
      <trkpt lat="43.43777" lon="6.08997">
        <ele>245.19999694824</ele>
        <time>2013-05-04T13:03:01Z</time>
      </trkpt>
      <trkpt lat="43.43803" lon="6.09018">
        <ele>245.19999694824</ele>
        <time>2013-05-04T13:03:07Z</time>
      </trkpt>
      <trkpt lat="43.43826" lon="6.09037">
        <ele>245.19999694824</ele>
        <time>2013-05-04T13:03:13Z</time>
      </trkpt>
      <trkpt lat="43.4384" lon="6.09055">
        <ele>245.19999694824</ele>
        <time>2013-05-04T13:03:18Z</time>
      </trkpt>
      <trkpt lat="43.43844" lon="6.09065">
        <ele>245.19999694824</ele>
        <time>2013-05-04T13:03:20Z</time>
      </trkpt>
      <trkpt lat="43.43848" lon="6.09076">
        <ele>244.80000305176</ele>
        <time>2013-05-04T13:03:22Z</time>
      </trkpt>
      <trkpt lat="43.43856" lon="6.09097">
        <ele>243.19999694824</ele>
        <time>2013-05-04T13:03:26Z</time>
      </trkpt>
      <trkpt lat="43.43866" lon="6.09117">
        <ele>243.19999694824</ele>
        <time>2013-05-04T13:03:30Z</time>
      </trkpt>
      <trkpt lat="43.43874" lon="6.09132">
        <ele>243.19999694824</ele>
        <time>2013-05-04T13:03:33Z</time>
      </trkpt>
      <trkpt lat="43.43879" lon="6.09141">
        <ele>243.19999694824</ele>
        <time>2013-05-04T13:03:35Z</time>
      </trkpt>
      <trkpt lat="43.4389" lon="6.09159">
        <ele>243.19999694824</ele>
        <time>2013-05-04T13:03:39Z</time>
      </trkpt>
      <trkpt lat="43.439" lon="6.09169">
        <ele>243.19999694824</ele>
        <time>2013-05-04T13:03:42Z</time>
      </trkpt>
      <trkpt lat="43.43906" lon="6.09175">
        <ele>243.19999694824</ele>
        <time>2013-05-04T13:03:44Z</time>
      </trkpt>
      <trkpt lat="43.43912" lon="6.09186">
        <ele>242.39999389648</ele>
        <time>2013-05-04T13:03:47Z</time>
      </trkpt>
      <trkpt lat="43.43917" lon="6.09195">
        <ele>241.39999389648</ele>
        <time>2013-05-04T13:03:49Z</time>
      </trkpt>
      <trkpt lat="43.4392" lon="6.092">
        <ele>241</ele>
        <time>2013-05-04T13:03:50Z</time>
      </trkpt>
      <trkpt lat="43.43927" lon="6.09214">
        <ele>241</ele>
        <time>2013-05-04T13:03:53Z</time>
      </trkpt>
      <trkpt lat="43.4394" lon="6.09244">
        <ele>241</ele>
        <time>2013-05-04T13:03:59Z</time>
      </trkpt>
      <trkpt lat="43.43951" lon="6.0927">
        <ele>240.60000610352</ele>
        <time>2013-05-04T13:04:04Z</time>
      </trkpt>
      <trkpt lat="43.43953" lon="6.09276">
        <ele>240.19999694824</ele>
        <time>2013-05-04T13:04:05Z</time>
      </trkpt>
      <trkpt lat="43.43968" lon="6.09303">
        <ele>239</ele>
        <time>2013-05-04T13:04:10Z</time>
      </trkpt>
      <trkpt lat="43.43973" lon="6.09312">
        <ele>239</ele>
        <time>2013-05-04T13:04:12Z</time>
      </trkpt>
      <trkpt lat="43.43992" lon="6.09352">
        <ele>238.60000610352</ele>
        <time>2013-05-04T13:04:20Z</time>
      </trkpt>
      <trkpt lat="43.43994" lon="6.09356">
        <ele>238.19999694824</ele>
        <time>2013-05-04T13:04:21Z</time>
      </trkpt>
      <trkpt lat="43.43996" lon="6.09361">
        <ele>237.80000305176</ele>
        <time>2013-05-04T13:04:22Z</time>
      </trkpt>
      <trkpt lat="43.43998" lon="6.09365">
        <ele>237.39999389648</ele>
        <time>2013-05-04T13:04:23Z</time>
      </trkpt>
      <trkpt lat="43.44" lon="6.0937">
        <ele>237</ele>
        <time>2013-05-04T13:04:24Z</time>
      </trkpt>
      <trkpt lat="43.44011" lon="6.09395">
        <ele>237</ele>
        <time>2013-05-04T13:04:29Z</time>
      </trkpt>
      <trkpt lat="43.4402" lon="6.09423">
        <ele>237</ele>
        <time>2013-05-04T13:04:34Z</time>
      </trkpt>
      <trkpt lat="43.44027" lon="6.09441">
        <ele>237</ele>
        <time>2013-05-04T13:04:37Z</time>
      </trkpt>
      <trkpt lat="43.44033" lon="6.0946">
        <ele>237</ele>
        <time>2013-05-04T13:04:40Z</time>
      </trkpt>
      <trkpt lat="43.44037" lon="6.09472">
        <ele>236.19999694824</ele>
        <time>2013-05-04T13:04:42Z</time>
      </trkpt>
      <trkpt lat="43.4404" lon="6.09484">
        <ele>235</ele>
        <time>2013-05-04T13:04:44Z</time>
      </trkpt>
      <trkpt lat="43.44044" lon="6.09496">
        <ele>235</ele>
        <time>2013-05-04T13:04:46Z</time>
      </trkpt>
      <trkpt lat="43.44049" lon="6.09513">
        <ele>235</ele>
        <time>2013-05-04T13:04:49Z</time>
      </trkpt>
      <trkpt lat="43.44059" lon="6.09544">
        <ele>235</ele>
        <time>2013-05-04T13:04:55Z</time>
      </trkpt>
      <trkpt lat="43.44061" lon="6.09549">
        <ele>235</ele>
        <time>2013-05-04T13:04:56Z</time>
      </trkpt>
      <trkpt lat="43.44072" lon="6.09578">
        <ele>235</ele>
        <time>2013-05-04T13:05:02Z</time>
      </trkpt>
      <trkpt lat="43.44082" lon="6.09606">
        <ele>235</ele>
        <time>2013-05-04T13:05:08Z</time>
      </trkpt>
      <trkpt lat="43.44095" lon="6.09626">
        <ele>235</ele>
        <time>2013-05-04T13:05:13Z</time>
      </trkpt>
      <trkpt lat="43.44109" lon="6.09642">
        <ele>235</ele>
        <time>2013-05-04T13:05:18Z</time>
      </trkpt>
      <trkpt lat="43.44133" lon="6.0966">
        <ele>235</ele>
        <time>2013-05-04T13:05:25Z</time>
      </trkpt>
      <trkpt lat="43.44144" lon="6.0968">
        <ele>235</ele>
        <time>2013-05-04T13:05:29Z</time>
      </trkpt>
      <trkpt lat="43.44146" lon="6.09686">
        <ele>235</ele>
        <time>2013-05-04T13:05:30Z</time>
      </trkpt>
      <trkpt lat="43.44151" lon="6.09711">
        <ele>235</ele>
        <time>2013-05-04T13:05:34Z</time>
      </trkpt>
      <trkpt lat="43.44152" lon="6.09717">
        <ele>235</ele>
        <time>2013-05-04T13:05:35Z</time>
      </trkpt>
      <trkpt lat="43.44164" lon="6.09759">
        <ele>233.39999389648</ele>
        <time>2013-05-04T13:05:43Z</time>
      </trkpt>
      <trkpt lat="43.44166" lon="6.09764">
        <ele>233</ele>
        <time>2013-05-04T13:05:44Z</time>
      </trkpt>
      <trkpt lat="43.44172" lon="6.0978">
        <ele>233</ele>
        <time>2013-05-04T13:05:47Z</time>
      </trkpt>
      <trkpt lat="43.44173" lon="6.09791">
        <ele>233</ele>
        <time>2013-05-04T13:05:49Z</time>
      </trkpt>
      <trkpt lat="43.44178" lon="6.09801">
        <ele>233</ele>
        <time>2013-05-04T13:05:51Z</time>
      </trkpt>
      <trkpt lat="43.44188" lon="6.0982">
        <ele>232.39999389648</ele>
        <time>2013-05-04T13:05:55Z</time>
      </trkpt>
      <trkpt lat="43.44192" lon="6.09832">
        <ele>231</ele>
        <time>2013-05-04T13:05:57Z</time>
      </trkpt>
      <trkpt lat="43.44199" lon="6.09852">
        <ele>229.39999389648</ele>
        <time>2013-05-04T13:06:00Z</time>
      </trkpt>
      <trkpt lat="43.4421" lon="6.09869">
        <ele>228.19999694824</ele>
        <time>2013-05-04T13:06:03Z</time>
      </trkpt>
      <trkpt lat="43.44222" lon="6.09885">
        <ele>227.80000305176</ele>
        <time>2013-05-04T13:06:06Z</time>
      </trkpt>
      <trkpt lat="43.44226" lon="6.09891">
        <ele>227.39999389648</ele>
        <time>2013-05-04T13:06:07Z</time>
      </trkpt>
      <trkpt lat="43.4423" lon="6.09897">
        <ele>227</ele>
        <time>2013-05-04T13:06:08Z</time>
      </trkpt>
      <trkpt lat="43.44234" lon="6.09903">
        <ele>226.39999389648</ele>
        <time>2013-05-04T13:06:09Z</time>
      </trkpt>
      <trkpt lat="43.44238" lon="6.0991">
        <ele>226</ele>
        <time>2013-05-04T13:06:10Z</time>
      </trkpt>
      <trkpt lat="43.44244" lon="6.09925">
        <ele>226</ele>
        <time>2013-05-04T13:06:12Z</time>
      </trkpt>
      <trkpt lat="43.44249" lon="6.09938">
        <ele>226</ele>
        <time>2013-05-04T13:06:14Z</time>
      </trkpt>
      <trkpt lat="43.44251" lon="6.09943">
        <ele>225.60000610352</ele>
        <time>2013-05-04T13:06:15Z</time>
      </trkpt>
      <trkpt lat="43.44254" lon="6.09946">
        <ele>225.19999694824</ele>
        <time>2013-05-04T13:06:16Z</time>
      </trkpt>
      <trkpt lat="43.44255" lon="6.09949">
        <ele>224.80000305176</ele>
        <time>2013-05-04T13:06:17Z</time>
      </trkpt>
      <trkpt lat="43.44257" lon="6.09952">
        <ele>224.39999389648</ele>
        <time>2013-05-04T13:06:18Z</time>
      </trkpt>
      <trkpt lat="43.44263" lon="6.09967">
        <ele>223</ele>
        <time>2013-05-04T13:06:22Z</time>
      </trkpt>
      <trkpt lat="43.44264" lon="6.0997">
        <ele>222.60000610352</ele>
        <time>2013-05-04T13:06:23Z</time>
      </trkpt>
      <trkpt lat="43.44267" lon="6.09976">
        <ele>221.80000305176</ele>
        <time>2013-05-04T13:06:25Z</time>
      </trkpt>
      <trkpt lat="43.44268" lon="6.09981">
        <ele>221.80000305176</ele>
        <time>2013-05-04T13:06:27Z</time>
      </trkpt>
      <trkpt lat="43.4427" lon="6.09985">
        <ele>221.80000305176</ele>
        <time>2013-05-04T13:06:30Z</time>
      </trkpt>
      <trkpt lat="43.44275" lon="6.09989">
        <ele>221.80000305176</ele>
        <time>2013-05-04T13:06:33Z</time>
      </trkpt>
      <trkpt lat="43.44288" lon="6.10004">
        <ele>221.80000305176</ele>
        <time>2013-05-04T13:06:39Z</time>
      </trkpt>
      <trkpt lat="43.44293" lon="6.10016">
        <ele>221.80000305176</ele>
        <time>2013-05-04T13:06:43Z</time>
      </trkpt>
      <trkpt lat="43.44296" lon="6.10028">
        <ele>221.80000305176</ele>
        <time>2013-05-04T13:06:47Z</time>
      </trkpt>
      <trkpt lat="43.44299" lon="6.10035">
        <ele>221.80000305176</ele>
        <time>2013-05-04T13:06:49Z</time>
      </trkpt>
      <trkpt lat="43.44307" lon="6.10051">
        <ele>221.80000305176</ele>
        <time>2013-05-04T13:06:54Z</time>
      </trkpt>
      <trkpt lat="43.44306" lon="6.10062">
        <ele>221.80000305176</ele>
        <time>2013-05-04T13:06:57Z</time>
      </trkpt>
      <trkpt lat="43.44302" lon="6.1007">
        <ele>222.19999694824</ele>
        <time>2013-05-04T13:07:00Z</time>
      </trkpt>
      <trkpt lat="43.443" lon="6.10076">
        <ele>223</ele>
        <time>2013-05-04T13:07:02Z</time>
      </trkpt>
      <trkpt lat="43.44299" lon="6.10081">
        <ele>223.80000305176</ele>
        <time>2013-05-04T13:07:04Z</time>
      </trkpt>
      <trkpt lat="43.44299" lon="6.1009">
        <ele>223.80000305176</ele>
        <time>2013-05-04T13:07:07Z</time>
      </trkpt>
      <trkpt lat="43.44299" lon="6.10096">
        <ele>223.80000305176</ele>
        <time>2013-05-04T13:07:09Z</time>
      </trkpt>
      <trkpt lat="43.44294" lon="6.10113">
        <ele>225.19999694824</ele>
        <time>2013-05-04T13:07:16Z</time>
      </trkpt>
      <trkpt lat="43.44292" lon="6.10119">
        <ele>226</ele>
        <time>2013-05-04T13:07:18Z</time>
      </trkpt>
      <trkpt lat="43.44292" lon="6.10128">
        <ele>226</ele>
        <time>2013-05-04T13:07:21Z</time>
      </trkpt>
      <trkpt lat="43.44294" lon="6.10133">
        <ele>226</ele>
        <time>2013-05-04T13:07:23Z</time>
      </trkpt>
      <trkpt lat="43.44294" lon="6.10141">
        <ele>226</ele>
        <time>2013-05-04T13:07:26Z</time>
      </trkpt>
      <trkpt lat="43.44291" lon="6.10162">
        <ele>226.39999389648</ele>
        <time>2013-05-04T13:07:34Z</time>
      </trkpt>
      <trkpt lat="43.44291" lon="6.10167">
        <ele>227.60000610352</ele>
        <time>2013-05-04T13:07:36Z</time>
      </trkpt>
      <trkpt lat="43.44287" lon="6.10178">
        <ele>228</ele>
        <time>2013-05-04T13:07:40Z</time>
      </trkpt>
      <trkpt lat="43.44289" lon="6.10191">
        <ele>228</ele>
        <time>2013-05-04T13:07:46Z</time>
      </trkpt>
      <trkpt lat="43.44288" lon="6.10197">
        <ele>228</ele>
        <time>2013-05-04T13:07:49Z</time>
      </trkpt>
      <trkpt lat="43.44289" lon="6.10222">
        <ele>228</ele>
        <time>2013-05-04T13:07:58Z</time>
      </trkpt>
      <trkpt lat="43.44289" lon="6.10231">
        <ele>228</ele>
        <time>2013-05-04T13:08:02Z</time>
      </trkpt>
      <trkpt lat="43.44289" lon="6.10242">
        <ele>228</ele>
        <time>2013-05-04T13:08:07Z</time>
      </trkpt>
      <trkpt lat="43.44287" lon="6.10246">
        <ele>228</ele>
        <time>2013-05-04T13:08:09Z</time>
      </trkpt>
      <trkpt lat="43.44284" lon="6.10257">
        <ele>228</ele>
        <time>2013-05-04T13:08:14Z</time>
      </trkpt>
      <trkpt lat="43.44282" lon="6.10261">
        <ele>228</ele>
        <time>2013-05-04T13:08:16Z</time>
      </trkpt>
      <trkpt lat="43.44272" lon="6.10274">
        <ele>228</ele>
        <time>2013-05-04T13:08:21Z</time>
      </trkpt>
      <trkpt lat="43.44267" lon="6.10288">
        <ele>228</ele>
        <time>2013-05-04T13:08:25Z</time>
      </trkpt>
      <trkpt lat="43.44263" lon="6.10301">
        <ele>228</ele>
        <time>2013-05-04T13:08:30Z</time>
      </trkpt>
      <trkpt lat="43.44258" lon="6.1031">
        <ele>228</ele>
        <time>2013-05-04T13:08:35Z</time>
      </trkpt>
      <trkpt lat="43.44253" lon="6.10319">
        <ele>228</ele>
        <time>2013-05-04T13:08:40Z</time>
      </trkpt>
      <trkpt lat="43.4425" lon="6.10322">
        <ele>228.39999389648</ele>
        <time>2013-05-04T13:08:43Z</time>
      </trkpt>
      <trkpt lat="43.4425" lon="6.10322">
        <ele>228.80000305176</ele>
        <time>2013-05-04T13:08:44Z</time>
      </trkpt>
      <trkpt lat="43.4425" lon="6.10322">
        <ele>230.19999694824</ele>
        <time>2013-05-04T13:09:08Z</time>
      </trkpt>
      <trkpt lat="43.4425" lon="6.10322">
        <ele>230.19999694824</ele>
        <time>2013-05-04T13:09:26Z</time>
      </trkpt>
      <trkpt lat="43.4425" lon="6.10322">
        <ele>230.19999694824</ele>
        <time>2013-05-04T13:09:29Z</time>
      </trkpt>
      <trkpt lat="43.44245" lon="6.10322">
        <ele>230.19999694824</ele>
        <time>2013-05-04T13:09:32Z</time>
      </trkpt>
      <trkpt lat="43.44237" lon="6.10312">
        <ele>230.19999694824</ele>
        <time>2013-05-04T13:09:37Z</time>
      </trkpt>
      <trkpt lat="43.44234" lon="6.1031">
        <ele>230.19999694824</ele>
        <time>2013-05-04T13:09:38Z</time>
      </trkpt>
      <trkpt lat="43.44225" lon="6.10296">
        <ele>230.19999694824</ele>
        <time>2013-05-04T13:09:42Z</time>
      </trkpt>
      <trkpt lat="43.44213" lon="6.10287">
        <ele>230.19999694824</ele>
        <time>2013-05-04T13:09:46Z</time>
      </trkpt>
      <trkpt lat="43.44201" lon="6.1028">
        <ele>230.19999694824</ele>
        <time>2013-05-04T13:09:51Z</time>
      </trkpt>
      <trkpt lat="43.4419" lon="6.10276">
        <ele>229.80000305176</ele>
        <time>2013-05-04T13:09:55Z</time>
      </trkpt>
      <trkpt lat="43.44187" lon="6.10276">
        <ele>229.39999389648</ele>
        <time>2013-05-04T13:09:56Z</time>
      </trkpt>
      <trkpt lat="43.44185" lon="6.10275">
        <ele>229</ele>
        <time>2013-05-04T13:09:57Z</time>
      </trkpt>
      <trkpt lat="43.44183" lon="6.10276">
        <ele>228.60000610352</ele>
        <time>2013-05-04T13:09:58Z</time>
      </trkpt>
      <trkpt lat="43.44181" lon="6.10277">
        <ele>228.19999694824</ele>
        <time>2013-05-04T13:09:59Z</time>
      </trkpt>
      <trkpt lat="43.44176" lon="6.10279">
        <ele>228.19999694824</ele>
        <time>2013-05-04T13:10:01Z</time>
      </trkpt>
      <trkpt lat="43.44175" lon="6.10281">
        <ele>228.19999694824</ele>
        <time>2013-05-04T13:10:02Z</time>
      </trkpt>
      <trkpt lat="43.44173" lon="6.1029">
        <ele>228.19999694824</ele>
        <time>2013-05-04T13:10:05Z</time>
      </trkpt>
      <trkpt lat="43.44174" lon="6.10294">
        <ele>228.19999694824</ele>
        <time>2013-05-04T13:10:07Z</time>
      </trkpt>
      <trkpt lat="43.44174" lon="6.10295">
        <ele>228.19999694824</ele>
        <time>2013-05-04T13:10:09Z</time>
      </trkpt>
      <trkpt lat="43.44174" lon="6.10295">
        <ele>228.19999694824</ele>
        <time>2013-05-04T13:10:12Z</time>
      </trkpt>
      <trkpt lat="43.44173" lon="6.10296">
        <ele>228.19999694824</ele>
        <time>2013-05-04T13:10:15Z</time>
      </trkpt>
      <trkpt lat="43.44172" lon="6.10298">
        <ele>228.19999694824</ele>
        <time>2013-05-04T13:10:21Z</time>
      </trkpt>
      <trkpt lat="43.44172" lon="6.10298">
        <ele>228.19999694824</ele>
        <time>2013-05-04T13:10:31Z</time>
      </trkpt>
      <trkpt lat="43.44171" lon="6.10304">
        <ele>228.19999694824</ele>
        <time>2013-05-04T13:10:37Z</time>
      </trkpt>
      <trkpt lat="43.44172" lon="6.10305">
        <ele>228.19999694824</ele>
        <time>2013-05-04T13:10:39Z</time>
      </trkpt>
      <trkpt lat="43.44172" lon="6.10305">
        <ele>228.19999694824</ele>
        <time>2013-05-04T13:10:41Z</time>
      </trkpt>
      <trkpt lat="43.4417" lon="6.10303">
        <ele>228.19999694824</ele>
        <time>2013-05-04T13:10:46Z</time>
      </trkpt>
      <trkpt lat="43.44171" lon="6.10303">
        <ele>228.19999694824</ele>
        <time>2013-05-04T13:10:47Z</time>
      </trkpt>
      <trkpt lat="43.44171" lon="6.10303">
        <ele>228.19999694824</ele>
        <time>2013-05-04T13:10:49Z</time>
      </trkpt>
      <trkpt lat="43.44172" lon="6.10303">
        <ele>228.19999694824</ele>
        <time>2013-05-04T13:10:55Z</time>
      </trkpt>
      <trkpt lat="43.44172" lon="6.10303">
        <ele>228.19999694824</ele>
        <time>2013-05-04T13:11:00Z</time>
      </trkpt>
      <trkpt lat="43.44172" lon="6.10305">
        <ele>228.19999694824</ele>
        <time>2013-05-04T13:11:05Z</time>
      </trkpt>
      <trkpt lat="43.4417" lon="6.1031">
        <ele>228.60000610352</ele>
        <time>2013-05-04T13:11:10Z</time>
      </trkpt>
      <trkpt lat="43.4417" lon="6.1031">
        <ele>229.39999389648</ele>
        <time>2013-05-04T13:11:12Z</time>
      </trkpt>
      <trkpt lat="43.4417" lon="6.10311">
        <ele>230.19999694824</ele>
        <time>2013-05-04T13:11:14Z</time>
      </trkpt>
      <trkpt lat="43.4417" lon="6.10311">
        <ele>230.19999694824</ele>
        <time>2013-05-04T13:11:17Z</time>
      </trkpt>
      <trkpt lat="43.44167" lon="6.10313">
        <ele>230.19999694824</ele>
        <time>2013-05-04T13:11:24Z</time>
      </trkpt>
      <trkpt lat="43.44168" lon="6.10314">
        <ele>230.19999694824</ele>
        <time>2013-05-04T13:11:27Z</time>
      </trkpt>
      <trkpt lat="43.44168" lon="6.10314">
        <ele>230.19999694824</ele>
        <time>2013-05-04T13:11:45Z</time>
      </trkpt>
      <trkpt lat="43.44168" lon="6.10314">
        <ele>230.19999694824</ele>
        <time>2013-05-04T13:11:54Z</time>
      </trkpt>
      <trkpt lat="43.44168" lon="6.10315">
        <ele>230.19999694824</ele>
        <time>2013-05-04T13:12:00Z</time>
      </trkpt>
      <trkpt lat="43.44168" lon="6.10315">
        <ele>230.19999694824</ele>
        <time>2013-05-04T13:12:03Z</time>
      </trkpt>
      <trkpt lat="43.44166" lon="6.10326">
        <ele>230.19999694824</ele>
        <time>2013-05-04T13:12:08Z</time>
      </trkpt>
      <trkpt lat="43.44165" lon="6.10329">
        <ele>230.19999694824</ele>
        <time>2013-05-04T13:12:10Z</time>
      </trkpt>
      <trkpt lat="43.44162" lon="6.10334">
        <ele>230.19999694824</ele>
        <time>2013-05-04T13:12:13Z</time>
      </trkpt>
      <trkpt lat="43.4416" lon="6.10338">
        <ele>230.19999694824</ele>
        <time>2013-05-04T13:12:16Z</time>
      </trkpt>
      <trkpt lat="43.44158" lon="6.10343">
        <ele>230.19999694824</ele>
        <time>2013-05-04T13:12:21Z</time>
      </trkpt>
      <trkpt lat="43.44158" lon="6.10345">
        <ele>230.19999694824</ele>
        <time>2013-05-04T13:12:26Z</time>
      </trkpt>
      <trkpt lat="43.44158" lon="6.10345">
        <ele>230.19999694824</ele>
        <time>2013-05-04T13:12:36Z</time>
      </trkpt>
      <trkpt lat="43.44158" lon="6.10345">
        <ele>230.19999694824</ele>
        <time>2013-05-04T13:12:49Z</time>
      </trkpt>
      <trkpt lat="43.44159" lon="6.10347">
        <ele>230.19999694824</ele>
        <time>2013-05-04T13:12:57Z</time>
      </trkpt>
      <trkpt lat="43.44159" lon="6.10347">
        <ele>230.19999694824</ele>
        <time>2013-05-04T13:13:20Z</time>
      </trkpt>
      <trkpt lat="43.44159" lon="6.10347">
        <ele>230.19999694824</ele>
        <time>2013-05-04T13:13:34Z</time>
      </trkpt>
      <trkpt lat="43.44159" lon="6.1035">
        <ele>230.19999694824</ele>
        <time>2013-05-04T13:13:38Z</time>
      </trkpt>
      <trkpt lat="43.44159" lon="6.10352">
        <ele>230.19999694824</ele>
        <time>2013-05-04T13:13:39Z</time>
      </trkpt>
      <trkpt lat="43.4416" lon="6.10356">
        <ele>230.19999694824</ele>
        <time>2013-05-04T13:13:41Z</time>
      </trkpt>
      <trkpt lat="43.4416" lon="6.10363">
        <ele>230.19999694824</ele>
        <time>2013-05-04T13:13:44Z</time>
      </trkpt>
      <trkpt lat="43.4416" lon="6.1037">
        <ele>230.19999694824</ele>
        <time>2013-05-04T13:13:47Z</time>
      </trkpt>
      <trkpt lat="43.44161" lon="6.10376">
        <ele>230.19999694824</ele>
        <time>2013-05-04T13:13:50Z</time>
      </trkpt>
      <trkpt lat="43.44156" lon="6.10407">
        <ele>231</ele>
        <time>2013-05-04T13:14:04Z</time>
      </trkpt>
      <trkpt lat="43.44155" lon="6.10414">
        <ele>232.19999694824</ele>
        <time>2013-05-04T13:14:07Z</time>
      </trkpt>
      <trkpt lat="43.44149" lon="6.10446">
        <ele>232.19999694824</ele>
        <time>2013-05-04T13:14:22Z</time>
      </trkpt>
      <trkpt lat="43.44148" lon="6.10453">
        <ele>232.19999694824</ele>
        <time>2013-05-04T13:14:25Z</time>
      </trkpt>
      <trkpt lat="43.44146" lon="6.10474">
        <ele>232.19999694824</ele>
        <time>2013-05-04T13:14:34Z</time>
      </trkpt>
      <trkpt lat="43.44146" lon="6.10486">
        <ele>232.19999694824</ele>
        <time>2013-05-04T13:14:39Z</time>
      </trkpt>
      <trkpt lat="43.44139" lon="6.10505">
        <ele>232.60000610352</ele>
        <time>2013-05-04T13:14:48Z</time>
      </trkpt>
      <trkpt lat="43.44139" lon="6.10506">
        <ele>233</ele>
        <time>2013-05-04T13:14:49Z</time>
      </trkpt>
      <trkpt lat="43.44138" lon="6.10508">
        <ele>233.39999389648</ele>
        <time>2013-05-04T13:14:50Z</time>
      </trkpt>
      <trkpt lat="43.44135" lon="6.10509">
        <ele>234.19999694824</ele>
        <time>2013-05-04T13:14:52Z</time>
      </trkpt>
      <trkpt lat="43.4413" lon="6.10514">
        <ele>234.19999694824</ele>
        <time>2013-05-04T13:14:57Z</time>
      </trkpt>
      <trkpt lat="43.44128" lon="6.1052">
        <ele>234.19999694824</ele>
        <time>2013-05-04T13:14:59Z</time>
      </trkpt>
      <trkpt lat="43.44121" lon="6.10541">
        <ele>234.19999694824</ele>
        <time>2013-05-04T13:15:06Z</time>
      </trkpt>
      <trkpt lat="43.44113" lon="6.10557">
        <ele>234.19999694824</ele>
        <time>2013-05-04T13:15:12Z</time>
      </trkpt>
      <trkpt lat="43.4411" lon="6.10573">
        <ele>234.19999694824</ele>
        <time>2013-05-04T13:15:18Z</time>
      </trkpt>
      <trkpt lat="43.44107" lon="6.10583">
        <ele>234.19999694824</ele>
        <time>2013-05-04T13:15:23Z</time>
      </trkpt>
      <trkpt lat="43.44102" lon="6.10593">
        <ele>234.19999694824</ele>
        <time>2013-05-04T13:15:27Z</time>
      </trkpt>
      <trkpt lat="43.44098" lon="6.10601">
        <ele>234.19999694824</ele>
        <time>2013-05-04T13:15:29Z</time>
      </trkpt>
      <trkpt lat="43.44086" lon="6.10618">
        <ele>234.19999694824</ele>
        <time>2013-05-04T13:15:35Z</time>
      </trkpt>
      <trkpt lat="43.44078" lon="6.10632">
        <ele>234.19999694824</ele>
        <time>2013-05-04T13:15:41Z</time>
      </trkpt>
      <trkpt lat="43.44072" lon="6.10645">
        <ele>234.19999694824</ele>
        <time>2013-05-04T13:15:47Z</time>
      </trkpt>
      <trkpt lat="43.44071" lon="6.10651">
        <ele>234.19999694824</ele>
        <time>2013-05-04T13:15:49Z</time>
      </trkpt>
      <trkpt lat="43.4407" lon="6.10657">
        <ele>234.19999694824</ele>
        <time>2013-05-04T13:15:51Z</time>
      </trkpt>
      <trkpt lat="43.44068" lon="6.10675">
        <ele>234.60000610352</ele>
        <time>2013-05-04T13:15:57Z</time>
      </trkpt>
      <trkpt lat="43.44068" lon="6.10699">
        <ele>236.39999389648</ele>
        <time>2013-05-04T13:16:05Z</time>
      </trkpt>
      <trkpt lat="43.44072" lon="6.10718">
        <ele>236.39999389648</ele>
        <time>2013-05-04T13:16:11Z</time>
      </trkpt>
      <trkpt lat="43.44076" lon="6.10728">
        <ele>236.39999389648</ele>
        <time>2013-05-04T13:16:15Z</time>
      </trkpt>
      <trkpt lat="43.44075" lon="6.10743">
        <ele>236.39999389648</ele>
        <time>2013-05-04T13:16:20Z</time>
      </trkpt>
      <trkpt lat="43.44074" lon="6.1076">
        <ele>236.39999389648</ele>
        <time>2013-05-04T13:16:26Z</time>
      </trkpt>
      <trkpt lat="43.44071" lon="6.10772">
        <ele>236.39999389648</ele>
        <time>2013-05-04T13:16:31Z</time>
      </trkpt>
      <trkpt lat="43.44069" lon="6.10783">
        <ele>238.39999389648</ele>
        <time>2013-05-04T13:16:38Z</time>
      </trkpt>
      <trkpt lat="43.44067" lon="6.10789">
        <ele>238.39999389648</ele>
        <time>2013-05-04T13:16:40Z</time>
      </trkpt>
      <trkpt lat="43.44065" lon="6.10793">
        <ele>238.39999389648</ele>
        <time>2013-05-04T13:16:42Z</time>
      </trkpt>
      <trkpt lat="43.44064" lon="6.10801">
        <ele>238.39999389648</ele>
        <time>2013-05-04T13:16:46Z</time>
      </trkpt>
      <trkpt lat="43.44061" lon="6.1081">
        <ele>238.39999389648</ele>
        <time>2013-05-04T13:16:50Z</time>
      </trkpt>
      <trkpt lat="43.44058" lon="6.10819">
        <ele>238.39999389648</ele>
        <time>2013-05-04T13:16:54Z</time>
      </trkpt>
      <trkpt lat="43.44057" lon="6.10823">
        <ele>238.39999389648</ele>
        <time>2013-05-04T13:16:56Z</time>
      </trkpt>
      <trkpt lat="43.44059" lon="6.1083">
        <ele>238.39999389648</ele>
        <time>2013-05-04T13:17:00Z</time>
      </trkpt>
      <trkpt lat="43.44059" lon="6.10832">
        <ele>238.39999389648</ele>
        <time>2013-05-04T13:17:01Z</time>
      </trkpt>
      <trkpt lat="43.44056" lon="6.10843">
        <ele>240</ele>
        <time>2013-05-04T13:17:08Z</time>
      </trkpt>
      <trkpt lat="43.44056" lon="6.10843">
        <ele>240.39999389648</ele>
        <time>2013-05-04T13:17:23Z</time>
      </trkpt>
      <trkpt lat="43.44056" lon="6.10843">
        <ele>240.39999389648</ele>
        <time>2013-05-04T13:18:05Z</time>
      </trkpt>
      <trkpt lat="43.44056" lon="6.10843">
        <ele>240.39999389648</ele>
        <time>2013-05-04T13:18:14Z</time>
      </trkpt>
      <trkpt lat="43.44056" lon="6.10842">
        <ele>240.39999389648</ele>
        <time>2013-05-04T13:18:17Z</time>
      </trkpt>
      <trkpt lat="43.44056" lon="6.10839">
        <ele>240.39999389648</ele>
        <time>2013-05-04T13:18:21Z</time>
      </trkpt>
      <trkpt lat="43.44056" lon="6.10839">
        <ele>240.39999389648</ele>
        <time>2013-05-04T13:18:44Z</time>
      </trkpt>
      <trkpt lat="43.44056" lon="6.10839">
        <ele>240.39999389648</ele>
        <time>2013-05-04T13:19:11Z</time>
      </trkpt>
      <trkpt lat="43.44056" lon="6.10839">
        <ele>240.39999389648</ele>
        <time>2013-05-04T13:19:27Z</time>
      </trkpt>
      <trkpt lat="43.44058" lon="6.10842">
        <ele>240.39999389648</ele>
        <time>2013-05-04T13:19:36Z</time>
      </trkpt>
      <trkpt lat="43.44058" lon="6.10846">
        <ele>240.39999389648</ele>
        <time>2013-05-04T13:19:42Z</time>
      </trkpt>
      <trkpt lat="43.44057" lon="6.10847">
        <ele>240.39999389648</ele>
        <time>2013-05-04T13:19:53Z</time>
      </trkpt>
      <trkpt lat="43.44056" lon="6.10856">
        <ele>240.39999389648</ele>
        <time>2013-05-04T13:19:58Z</time>
      </trkpt>
      <trkpt lat="43.44055" lon="6.10865">
        <ele>240.39999389648</ele>
        <time>2013-05-04T13:20:02Z</time>
      </trkpt>
      <trkpt lat="43.44054" lon="6.10872">
        <ele>240.39999389648</ele>
        <time>2013-05-04T13:20:05Z</time>
      </trkpt>
      <trkpt lat="43.4405" lon="6.10885">
        <ele>240.39999389648</ele>
        <time>2013-05-04T13:20:11Z</time>
      </trkpt>
      <trkpt lat="43.44045" lon="6.10895">
        <ele>240.39999389648</ele>
        <time>2013-05-04T13:20:16Z</time>
      </trkpt>
      <trkpt lat="43.44035" lon="6.10911">
        <ele>240.39999389648</ele>
        <time>2013-05-04T13:20:24Z</time>
      </trkpt>
      <trkpt lat="43.44029" lon="6.10922">
        <ele>240.39999389648</ele>
        <time>2013-05-04T13:20:29Z</time>
      </trkpt>
      <trkpt lat="43.44019" lon="6.10936">
        <ele>242.39999389648</ele>
        <time>2013-05-04T13:20:36Z</time>
      </trkpt>
      <trkpt lat="43.44016" lon="6.10944">
        <ele>242.39999389648</ele>
        <time>2013-05-04T13:20:40Z</time>
      </trkpt>
      <trkpt lat="43.44009" lon="6.10959">
        <ele>243.39999389648</ele>
        <time>2013-05-04T13:20:47Z</time>
      </trkpt>
      <trkpt lat="43.44007" lon="6.10966">
        <ele>244.80000305176</ele>
        <time>2013-05-04T13:20:50Z</time>
      </trkpt>
      <trkpt lat="43.44004" lon="6.1097">
        <ele>244.80000305176</ele>
        <time>2013-05-04T13:20:52Z</time>
      </trkpt>
      <trkpt lat="43.43997" lon="6.10979">
        <ele>244.80000305176</ele>
        <time>2013-05-04T13:20:59Z</time>
      </trkpt>
      <trkpt lat="43.43995" lon="6.10982">
        <ele>244.80000305176</ele>
        <time>2013-05-04T13:21:01Z</time>
      </trkpt>
      <trkpt lat="43.43992" lon="6.10989">
        <ele>244.80000305176</ele>
        <time>2013-05-04T13:21:06Z</time>
      </trkpt>
      <trkpt lat="43.43988" lon="6.11006">
        <ele>246.80000305176</ele>
        <time>2013-05-04T13:21:14Z</time>
      </trkpt>
      <trkpt lat="43.43985" lon="6.11013">
        <ele>246.80000305176</ele>
        <time>2013-05-04T13:21:18Z</time>
      </trkpt>
      <trkpt lat="43.43983" lon="6.11015">
        <ele>246.80000305176</ele>
        <time>2013-05-04T13:21:20Z</time>
      </trkpt>
      <trkpt lat="43.43973" lon="6.11026">
        <ele>246.80000305176</ele>
        <time>2013-05-04T13:21:29Z</time>
      </trkpt>
      <trkpt lat="43.43965" lon="6.11036">
        <ele>249</ele>
        <time>2013-05-04T13:21:36Z</time>
      </trkpt>
      <trkpt lat="43.43958" lon="6.11042">
        <ele>249</ele>
        <time>2013-05-04T13:21:41Z</time>
      </trkpt>
      <trkpt lat="43.43951" lon="6.11048">
        <ele>249</ele>
        <time>2013-05-04T13:21:46Z</time>
      </trkpt>
      <trkpt lat="43.4395" lon="6.1105">
        <ele>249.39999389648</ele>
        <time>2013-05-04T13:21:48Z</time>
      </trkpt>
      <trkpt lat="43.43948" lon="6.11052">
        <ele>250.19999694824</ele>
        <time>2013-05-04T13:21:50Z</time>
      </trkpt>
      <trkpt lat="43.43947" lon="6.11055">
        <ele>251</ele>
        <time>2013-05-04T13:21:52Z</time>
      </trkpt>
      <trkpt lat="43.43941" lon="6.1106">
        <ele>251</ele>
        <time>2013-05-04T13:21:57Z</time>
      </trkpt>
      <trkpt lat="43.4394" lon="6.11063">
        <ele>251.80000305176</ele>
        <time>2013-05-04T13:22:00Z</time>
      </trkpt>
      <trkpt lat="43.43937" lon="6.11065">
        <ele>252.60000610352</ele>
        <time>2013-05-04T13:22:02Z</time>
      </trkpt>
      <trkpt lat="43.43935" lon="6.11066">
        <ele>253</ele>
        <time>2013-05-04T13:22:03Z</time>
      </trkpt>
      <trkpt lat="43.43933" lon="6.11067">
        <ele>253</ele>
        <time>2013-05-04T13:22:05Z</time>
      </trkpt>
      <trkpt lat="43.43932" lon="6.11072">
        <ele>253</ele>
        <time>2013-05-04T13:22:08Z</time>
      </trkpt>
      <trkpt lat="43.4393" lon="6.11073">
        <ele>253.39999389648</ele>
        <time>2013-05-04T13:22:11Z</time>
      </trkpt>
      <trkpt lat="43.43929" lon="6.11074">
        <ele>253.80000305176</ele>
        <time>2013-05-04T13:22:12Z</time>
      </trkpt>
      <trkpt lat="43.43929" lon="6.11074">
        <ele>255</ele>
        <time>2013-05-04T13:22:26Z</time>
      </trkpt>
      <trkpt lat="43.43929" lon="6.11074">
        <ele>255</ele>
        <time>2013-05-04T13:22:45Z</time>
      </trkpt>
      <trkpt lat="43.43928" lon="6.11076">
        <ele>255</ele>
        <time>2013-05-04T13:22:50Z</time>
      </trkpt>
      <trkpt lat="43.43927" lon="6.1108">
        <ele>255</ele>
        <time>2013-05-04T13:22:55Z</time>
      </trkpt>
      <trkpt lat="43.43923" lon="6.1109">
        <ele>255</ele>
        <time>2013-05-04T13:23:01Z</time>
      </trkpt>
      <trkpt lat="43.43921" lon="6.111">
        <ele>255</ele>
        <time>2013-05-04T13:23:06Z</time>
      </trkpt>
      <trkpt lat="43.4392" lon="6.11103">
        <ele>255</ele>
        <time>2013-05-04T13:23:08Z</time>
      </trkpt>
      <trkpt lat="43.43919" lon="6.11109">
        <ele>255.80000305176</ele>
        <time>2013-05-04T13:23:11Z</time>
      </trkpt>
      <trkpt lat="43.43915" lon="6.11124">
        <ele>257</ele>
        <time>2013-05-04T13:23:18Z</time>
      </trkpt>
      <trkpt lat="43.43914" lon="6.1113">
        <ele>258.20001220703</ele>
        <time>2013-05-04T13:23:21Z</time>
      </trkpt>
      <trkpt lat="43.43911" lon="6.11136">
        <ele>259.20001220703</ele>
        <time>2013-05-04T13:23:25Z</time>
      </trkpt>
      <trkpt lat="43.43905" lon="6.11144">
        <ele>259.20001220703</ele>
        <time>2013-05-04T13:23:31Z</time>
      </trkpt>
      <trkpt lat="43.43901" lon="6.11155">
        <ele>259.20001220703</ele>
        <time>2013-05-04T13:23:37Z</time>
      </trkpt>
      <trkpt lat="43.439" lon="6.11162">
        <ele>260.39999389648</ele>
        <time>2013-05-04T13:23:41Z</time>
      </trkpt>
      <trkpt lat="43.43897" lon="6.11171">
        <ele>261.20001220703</ele>
        <time>2013-05-04T13:23:45Z</time>
      </trkpt>
      <trkpt lat="43.43895" lon="6.11178">
        <ele>261.20001220703</ele>
        <time>2013-05-04T13:23:49Z</time>
      </trkpt>
      <trkpt lat="43.43893" lon="6.11189">
        <ele>261.20001220703</ele>
        <time>2013-05-04T13:23:55Z</time>
      </trkpt>
      <trkpt lat="43.4389" lon="6.11197">
        <ele>261.20001220703</ele>
        <time>2013-05-04T13:24:00Z</time>
      </trkpt>
      <trkpt lat="43.43888" lon="6.11203">
        <ele>261.20001220703</ele>
        <time>2013-05-04T13:24:04Z</time>
      </trkpt>
      <trkpt lat="43.43889" lon="6.11206">
        <ele>261.20001220703</ele>
        <time>2013-05-04T13:24:05Z</time>
      </trkpt>
      <trkpt lat="43.43887" lon="6.11215">
        <ele>261.20001220703</ele>
        <time>2013-05-04T13:24:09Z</time>
      </trkpt>
      <trkpt lat="43.43885" lon="6.11225">
        <ele>261.20001220703</ele>
        <time>2013-05-04T13:24:12Z</time>
      </trkpt>
      <trkpt lat="43.43882" lon="6.11236">
        <ele>261.20001220703</ele>
        <time>2013-05-04T13:24:15Z</time>
      </trkpt>
      <trkpt lat="43.43879" lon="6.11249">
        <ele>261.20001220703</ele>
        <time>2013-05-04T13:24:18Z</time>
      </trkpt>
      <trkpt lat="43.43874" lon="6.11262">
        <ele>261.20001220703</ele>
        <time>2013-05-04T13:24:21Z</time>
      </trkpt>
      <trkpt lat="43.43871" lon="6.11272">
        <ele>260.79998779297</ele>
        <time>2013-05-04T13:24:23Z</time>
      </trkpt>
      <trkpt lat="43.4387" lon="6.11276">
        <ele>260.39999389648</ele>
        <time>2013-05-04T13:24:24Z</time>
      </trkpt>
      <trkpt lat="43.43869" lon="6.1128">
        <ele>260</ele>
        <time>2013-05-04T13:24:25Z</time>
      </trkpt>
      <trkpt lat="43.43867" lon="6.11285">
        <ele>259.20001220703</ele>
        <time>2013-05-04T13:24:26Z</time>
      </trkpt>
      <trkpt lat="43.43864" lon="6.11295">
        <ele>258.60000610352</ele>
        <time>2013-05-04T13:24:28Z</time>
      </trkpt>
      <trkpt lat="43.43863" lon="6.11302">
        <ele>258.20001220703</ele>
        <time>2013-05-04T13:24:29Z</time>
      </trkpt>
      <trkpt lat="43.4386" lon="6.11306">
        <ele>257.79998779297</ele>
        <time>2013-05-04T13:24:30Z</time>
      </trkpt>
      <trkpt lat="43.43857" lon="6.11309">
        <ele>257.20001220703</ele>
        <time>2013-05-04T13:24:31Z</time>
      </trkpt>
      <trkpt lat="43.43853" lon="6.11308">
        <ele>256.79998779297</ele>
        <time>2013-05-04T13:24:32Z</time>
      </trkpt>
      <trkpt lat="43.4385" lon="6.11306">
        <ele>256.79998779297</ele>
        <time>2013-05-04T13:24:33Z</time>
      </trkpt>
      <trkpt lat="43.43847" lon="6.11306">
        <ele>256.39999389648</ele>
        <time>2013-05-04T13:24:34Z</time>
      </trkpt>
      <trkpt lat="43.43845" lon="6.11306">
        <ele>256</ele>
        <time>2013-05-04T13:24:35Z</time>
      </trkpt>
      <trkpt lat="43.43843" lon="6.11306">
        <ele>255.60000610352</ele>
        <time>2013-05-04T13:24:36Z</time>
      </trkpt>
      <trkpt lat="43.43842" lon="6.11307">
        <ele>255.19999694824</ele>
        <time>2013-05-04T13:24:37Z</time>
      </trkpt>
      <trkpt lat="43.4384" lon="6.11307">
        <ele>254.80000305176</ele>
        <time>2013-05-04T13:24:38Z</time>
      </trkpt>
      <trkpt lat="43.4384" lon="6.11307">
        <ele>254.80000305176</ele>
        <time>2013-05-04T13:24:42Z</time>
      </trkpt>
      <trkpt lat="43.43839" lon="6.11307">
        <ele>254.80000305176</ele>
        <time>2013-05-04T13:24:47Z</time>
      </trkpt>
      <trkpt lat="43.43828" lon="6.1131">
        <ele>254.80000305176</ele>
        <time>2013-05-04T13:24:51Z</time>
      </trkpt>
      <trkpt lat="43.43821" lon="6.11313">
        <ele>254.80000305176</ele>
        <time>2013-05-04T13:24:54Z</time>
      </trkpt>
      <trkpt lat="43.43811" lon="6.11319">
        <ele>254.80000305176</ele>
        <time>2013-05-04T13:24:58Z</time>
      </trkpt>
      <trkpt lat="43.43806" lon="6.11323">
        <ele>254.80000305176</ele>
        <time>2013-05-04T13:25:00Z</time>
      </trkpt>
      <trkpt lat="43.43803" lon="6.11329">
        <ele>254</ele>
        <time>2013-05-04T13:25:02Z</time>
      </trkpt>
      <trkpt lat="43.43801" lon="6.11333">
        <ele>253</ele>
        <time>2013-05-04T13:25:04Z</time>
      </trkpt>
      <trkpt lat="43.438" lon="6.11335">
        <ele>252.60000610352</ele>
        <time>2013-05-04T13:25:05Z</time>
      </trkpt>
      <trkpt lat="43.43793" lon="6.1134">
        <ele>252.60000610352</ele>
        <time>2013-05-04T13:25:09Z</time>
      </trkpt>
      <trkpt lat="43.43788" lon="6.11344">
        <ele>252.60000610352</ele>
        <time>2013-05-04T13:25:12Z</time>
      </trkpt>
      <trkpt lat="43.43786" lon="6.11347">
        <ele>252.60000610352</ele>
        <time>2013-05-04T13:25:14Z</time>
      </trkpt>
      <trkpt lat="43.43787" lon="6.1135">
        <ele>252.60000610352</ele>
        <time>2013-05-04T13:25:16Z</time>
      </trkpt>
      <trkpt lat="43.43793" lon="6.11348">
        <ele>253.19999694824</ele>
        <time>2013-05-04T13:25:20Z</time>
      </trkpt>
      <trkpt lat="43.43795" lon="6.11348">
        <ele>253.60000610352</ele>
        <time>2013-05-04T13:25:21Z</time>
      </trkpt>
      <trkpt lat="43.43803" lon="6.11342">
        <ele>254.80000305176</ele>
        <time>2013-05-04T13:25:26Z</time>
      </trkpt>
      <trkpt lat="43.43811" lon="6.11341">
        <ele>254.80000305176</ele>
        <time>2013-05-04T13:25:31Z</time>
      </trkpt>
      <trkpt lat="43.43822" lon="6.11344">
        <ele>254.80000305176</ele>
        <time>2013-05-04T13:25:38Z</time>
      </trkpt>
      <trkpt lat="43.43826" lon="6.11347">
        <ele>255.39999389648</ele>
        <time>2013-05-04T13:25:41Z</time>
      </trkpt>
      <trkpt lat="43.43831" lon="6.11352">
        <ele>257</ele>
        <time>2013-05-04T13:25:45Z</time>
      </trkpt>
      <trkpt lat="43.4384" lon="6.11362">
        <ele>257</ele>
        <time>2013-05-04T13:25:51Z</time>
      </trkpt>
      <trkpt lat="43.43846" lon="6.11374">
        <ele>257</ele>
        <time>2013-05-04T13:25:57Z</time>
      </trkpt>
      <trkpt lat="43.43846" lon="6.11389">
        <ele>257</ele>
        <time>2013-05-04T13:26:04Z</time>
      </trkpt>
      <trkpt lat="43.43847" lon="6.11397">
        <ele>257</ele>
        <time>2013-05-04T13:26:10Z</time>
      </trkpt>
      <trkpt lat="43.43847" lon="6.11397">
        <ele>257</ele>
        <time>2013-05-04T13:26:33Z</time>
      </trkpt>
      <trkpt lat="43.43847" lon="6.11397">
        <ele>257</ele>
        <time>2013-05-04T13:27:30Z</time>
      </trkpt>
      <trkpt lat="43.43847" lon="6.11397">
        <ele>257</ele>
        <time>2013-05-04T13:27:57Z</time>
      </trkpt>
      <trkpt lat="43.43847" lon="6.11397">
        <ele>257</ele>
        <time>2013-05-04T13:28:20Z</time>
      </trkpt>
      <trkpt lat="43.43845" lon="6.11405">
        <ele>257</ele>
        <time>2013-05-04T13:28:27Z</time>
      </trkpt>
      <trkpt lat="43.43845" lon="6.11409">
        <ele>257.39999389648</ele>
        <time>2013-05-04T13:28:29Z</time>
      </trkpt>
      <trkpt lat="43.43843" lon="6.11412">
        <ele>258.39999389648</ele>
        <time>2013-05-04T13:28:31Z</time>
      </trkpt>
      <trkpt lat="43.43841" lon="6.11414">
        <ele>259.20001220703</ele>
        <time>2013-05-04T13:28:33Z</time>
      </trkpt>
      <trkpt lat="43.43837" lon="6.11416">
        <ele>259.20001220703</ele>
        <time>2013-05-04T13:28:36Z</time>
      </trkpt>
      <trkpt lat="43.43833" lon="6.11416">
        <ele>259.20001220703</ele>
        <time>2013-05-04T13:28:39Z</time>
      </trkpt>
      <trkpt lat="43.43827" lon="6.11415">
        <ele>260.39999389648</ele>
        <time>2013-05-04T13:28:43Z</time>
      </trkpt>
      <trkpt lat="43.43824" lon="6.11417">
        <ele>261.20001220703</ele>
        <time>2013-05-04T13:28:46Z</time>
      </trkpt>
      <trkpt lat="43.4382" lon="6.11422">
        <ele>261.60000610352</ele>
        <time>2013-05-04T13:28:50Z</time>
      </trkpt>
      <trkpt lat="43.43816" lon="6.11429">
        <ele>263.39999389648</ele>
        <time>2013-05-04T13:28:54Z</time>
      </trkpt>
      <trkpt lat="43.43814" lon="6.11432">
        <ele>263.39999389648</ele>
        <time>2013-05-04T13:28:56Z</time>
      </trkpt>
      <trkpt lat="43.43811" lon="6.11437">
        <ele>264.20001220703</ele>
        <time>2013-05-04T13:29:00Z</time>
      </trkpt>
      <trkpt lat="43.4381" lon="6.11438">
        <ele>264.60000610352</ele>
        <time>2013-05-04T13:29:01Z</time>
      </trkpt>
      <trkpt lat="43.43807" lon="6.1144">
        <ele>265.60000610352</ele>
        <time>2013-05-04T13:29:04Z</time>
      </trkpt>
      <trkpt lat="43.43802" lon="6.11443">
        <ele>265.60000610352</ele>
        <time>2013-05-04T13:29:09Z</time>
      </trkpt>
      <trkpt lat="43.43797" lon="6.11447">
        <ele>266</ele>
        <time>2013-05-04T13:29:15Z</time>
      </trkpt>
      <trkpt lat="43.43796" lon="6.11453">
        <ele>267.79998779297</ele>
        <time>2013-05-04T13:29:19Z</time>
      </trkpt>
      <trkpt lat="43.43796" lon="6.11454">
        <ele>267.79998779297</ele>
        <time>2013-05-04T13:29:20Z</time>
      </trkpt>
      <trkpt lat="43.43797" lon="6.11461">
        <ele>267.79998779297</ele>
        <time>2013-05-04T13:29:25Z</time>
      </trkpt>
      <trkpt lat="43.43798" lon="6.11472">
        <ele>268.60000610352</ele>
        <time>2013-05-04T13:29:32Z</time>
      </trkpt>
      <trkpt lat="43.43798" lon="6.11481">
        <ele>269.79998779297</ele>
        <time>2013-05-04T13:29:38Z</time>
      </trkpt>
      <trkpt lat="43.43798" lon="6.11485">
        <ele>270.20001220703</ele>
        <time>2013-05-04T13:29:41Z</time>
      </trkpt>
      <trkpt lat="43.43799" lon="6.11493">
        <ele>272</ele>
        <time>2013-05-04T13:29:46Z</time>
      </trkpt>
      <trkpt lat="43.43799" lon="6.11501">
        <ele>272.79998779297</ele>
        <time>2013-05-04T13:29:52Z</time>
      </trkpt>
      <trkpt lat="43.438" lon="6.11505">
        <ele>274</ele>
        <time>2013-05-04T13:29:55Z</time>
      </trkpt>
      <trkpt lat="43.43808" lon="6.11513">
        <ele>275.39999389648</ele>
        <time>2013-05-04T13:30:04Z</time>
      </trkpt>
      <trkpt lat="43.43815" lon="6.11511">
        <ele>276.20001220703</ele>
        <time>2013-05-04T13:30:11Z</time>
      </trkpt>
      <trkpt lat="43.43817" lon="6.11512">
        <ele>276.60000610352</ele>
        <time>2013-05-04T13:30:13Z</time>
      </trkpt>
      <trkpt lat="43.43818" lon="6.11515">
        <ele>277.39999389648</ele>
        <time>2013-05-04T13:30:15Z</time>
      </trkpt>
      <trkpt lat="43.43819" lon="6.11517">
        <ele>278.20001220703</ele>
        <time>2013-05-04T13:30:17Z</time>
      </trkpt>
      <trkpt lat="43.43821" lon="6.11521">
        <ele>278.20001220703</ele>
        <time>2013-05-04T13:30:22Z</time>
      </trkpt>
      <trkpt lat="43.43822" lon="6.11526">
        <ele>278.60000610352</ele>
        <time>2013-05-04T13:30:26Z</time>
      </trkpt>
      <trkpt lat="43.43822" lon="6.11526">
        <ele>279.39999389648</ele>
        <time>2013-05-04T13:30:28Z</time>
      </trkpt>
      <trkpt lat="43.43822" lon="6.11526">
        <ele>280.20001220703</ele>
        <time>2013-05-04T13:30:41Z</time>
      </trkpt>
      <trkpt lat="43.43822" lon="6.11526">
        <ele>280.20001220703</ele>
        <time>2013-05-04T13:30:54Z</time>
      </trkpt>
      <trkpt lat="43.43822" lon="6.11525">
        <ele>280.20001220703</ele>
        <time>2013-05-04T13:30:56Z</time>
      </trkpt>
      <trkpt lat="43.43822" lon="6.11525">
        <ele>280.20001220703</ele>
        <time>2013-05-04T13:31:12Z</time>
      </trkpt>
      <trkpt lat="43.43822" lon="6.11525">
        <ele>280.20001220703</ele>
        <time>2013-05-04T13:31:52Z</time>
      </trkpt>
      <trkpt lat="43.43822" lon="6.11525">
        <ele>280.20001220703</ele>
        <time>2013-05-04T13:32:10Z</time>
      </trkpt>
      <trkpt lat="43.43821" lon="6.11525">
        <ele>280.20001220703</ele>
        <time>2013-05-04T13:32:15Z</time>
      </trkpt>
      <trkpt lat="43.43821" lon="6.11525">
        <ele>280.20001220703</ele>
        <time>2013-05-04T13:32:28Z</time>
      </trkpt>
      <trkpt lat="43.43821" lon="6.11526">
        <ele>280.20001220703</ele>
        <time>2013-05-04T13:32:31Z</time>
      </trkpt>
      <trkpt lat="43.43822" lon="6.11528">
        <ele>280.20001220703</ele>
        <time>2013-05-04T13:32:33Z</time>
      </trkpt>
      <trkpt lat="43.43821" lon="6.11533">
        <ele>280.20001220703</ele>
        <time>2013-05-04T13:32:36Z</time>
      </trkpt>
      <trkpt lat="43.43819" lon="6.11537">
        <ele>280.20001220703</ele>
        <time>2013-05-04T13:32:38Z</time>
      </trkpt>
      <trkpt lat="43.43818" lon="6.11542">
        <ele>280.20001220703</ele>
        <time>2013-05-04T13:32:41Z</time>
      </trkpt>
      <trkpt lat="43.43818" lon="6.11548">
        <ele>280.20001220703</ele>
        <time>2013-05-04T13:32:44Z</time>
      </trkpt>
      <trkpt lat="43.43818" lon="6.1155">
        <ele>280.20001220703</ele>
        <time>2013-05-04T13:32:45Z</time>
      </trkpt>
      <trkpt lat="43.43817" lon="6.11555">
        <ele>281.20001220703</ele>
        <time>2013-05-04T13:32:48Z</time>
      </trkpt>
      <trkpt lat="43.43817" lon="6.11558">
        <ele>282</ele>
        <time>2013-05-04T13:32:50Z</time>
      </trkpt>
      <trkpt lat="43.43816" lon="6.11561">
        <ele>282.39999389648</ele>
        <time>2013-05-04T13:32:52Z</time>
      </trkpt>
      <trkpt lat="43.43816" lon="6.11562">
        <ele>282.39999389648</ele>
        <time>2013-05-04T13:32:59Z</time>
      </trkpt>
      <trkpt lat="43.43816" lon="6.11562">
        <ele>282.39999389648</ele>
        <time>2013-05-04T13:33:20Z</time>
      </trkpt>
      <trkpt lat="43.43816" lon="6.11562">
        <ele>282.39999389648</ele>
        <time>2013-05-04T13:33:39Z</time>
      </trkpt>
      <trkpt lat="43.43816" lon="6.11562">
        <ele>282.39999389648</ele>
        <time>2013-05-04T13:33:43Z</time>
      </trkpt>
      <trkpt lat="43.43816" lon="6.11565">
        <ele>282.39999389648</ele>
        <time>2013-05-04T13:33:51Z</time>
      </trkpt>
      <trkpt lat="43.43821" lon="6.11576">
        <ele>282.39999389648</ele>
        <time>2013-05-04T13:33:58Z</time>
      </trkpt>
      <trkpt lat="43.43826" lon="6.11583">
        <ele>282.39999389648</ele>
        <time>2013-05-04T13:34:01Z</time>
      </trkpt>
      <trkpt lat="43.43829" lon="6.11588">
        <ele>282.39999389648</ele>
        <time>2013-05-04T13:34:03Z</time>
      </trkpt>
      <trkpt lat="43.43839" lon="6.11599">
        <ele>282.39999389648</ele>
        <time>2013-05-04T13:34:09Z</time>
      </trkpt>
      <trkpt lat="43.43844" lon="6.11606">
        <ele>282.39999389648</ele>
        <time>2013-05-04T13:34:14Z</time>
      </trkpt>
      <trkpt lat="43.43844" lon="6.1161">
        <ele>282.39999389648</ele>
        <time>2013-05-04T13:34:16Z</time>
      </trkpt>
      <trkpt lat="43.43845" lon="6.11613">
        <ele>282.39999389648</ele>
        <time>2013-05-04T13:34:18Z</time>
      </trkpt>
      <trkpt lat="43.43845" lon="6.1162">
        <ele>282.39999389648</ele>
        <time>2013-05-04T13:34:22Z</time>
      </trkpt>
      <trkpt lat="43.43847" lon="6.11655">
        <ele>283.60000610352</ele>
        <time>2013-05-04T13:34:41Z</time>
      </trkpt>
      <trkpt lat="43.43847" lon="6.11659">
        <ele>284.39999389648</ele>
        <time>2013-05-04T13:34:43Z</time>
      </trkpt>
      <trkpt lat="43.4385" lon="6.1167">
        <ele>284.39999389648</ele>
        <time>2013-05-04T13:34:49Z</time>
      </trkpt>
      <trkpt lat="43.43853" lon="6.11675">
        <ele>285.39999389648</ele>
        <time>2013-05-04T13:34:53Z</time>
      </trkpt>
      <trkpt lat="43.43857" lon="6.11677">
        <ele>286.60000610352</ele>
        <time>2013-05-04T13:34:56Z</time>
      </trkpt>
      <trkpt lat="43.43861" lon="6.11676">
        <ele>286.60000610352</ele>
        <time>2013-05-04T13:34:59Z</time>
      </trkpt>
      <trkpt lat="43.43864" lon="6.11675">
        <ele>287</ele>
        <time>2013-05-04T13:35:02Z</time>
      </trkpt>
      <trkpt lat="43.43864" lon="6.11674">
        <ele>287.60000610352</ele>
        <time>2013-05-04T13:35:03Z</time>
      </trkpt>
      <trkpt lat="43.43866" lon="6.11671">
        <ele>288.39999389648</ele>
        <time>2013-05-04T13:35:05Z</time>
      </trkpt>
      <trkpt lat="43.43873" lon="6.1166">
        <ele>290</ele>
        <time>2013-05-04T13:35:11Z</time>
      </trkpt>
      <trkpt lat="43.43875" lon="6.11658">
        <ele>290.79998779297</ele>
        <time>2013-05-04T13:35:13Z</time>
      </trkpt>
      <trkpt lat="43.43879" lon="6.1165">
        <ele>292.79998779297</ele>
        <time>2013-05-04T13:35:19Z</time>
      </trkpt>
      <trkpt lat="43.43882" lon="6.11645">
        <ele>293.20001220703</ele>
        <time>2013-05-04T13:35:23Z</time>
      </trkpt>
      <trkpt lat="43.43883" lon="6.1164">
        <ele>294.39999389648</ele>
        <time>2013-05-04T13:35:26Z</time>
      </trkpt>
      <trkpt lat="43.43884" lon="6.11635">
        <ele>294.79998779297</ele>
        <time>2013-05-04T13:35:29Z</time>
      </trkpt>
      <trkpt lat="43.43887" lon="6.1163">
        <ele>294.79998779297</ele>
        <time>2013-05-04T13:35:34Z</time>
      </trkpt>
      <trkpt lat="43.43888" lon="6.11628">
        <ele>295.39999389648</ele>
        <time>2013-05-04T13:35:36Z</time>
      </trkpt>
      <trkpt lat="43.43889" lon="6.11627">
        <ele>295.79998779297</ele>
        <time>2013-05-04T13:35:37Z</time>
      </trkpt>
      <trkpt lat="43.43889" lon="6.11627">
        <ele>297</ele>
        <time>2013-05-04T13:35:51Z</time>
      </trkpt>
      <trkpt lat="43.43889" lon="6.11627">
        <ele>297</ele>
        <time>2013-05-04T13:36:16Z</time>
      </trkpt>
      <trkpt lat="43.43888" lon="6.11628">
        <ele>297</ele>
        <time>2013-05-04T13:36:19Z</time>
      </trkpt>
      <trkpt lat="43.43888" lon="6.11628">
        <ele>297</ele>
        <time>2013-05-04T13:36:38Z</time>
      </trkpt>
      <trkpt lat="43.43889" lon="6.11628">
        <ele>297</ele>
        <time>2013-05-04T13:36:57Z</time>
      </trkpt>
      <trkpt lat="43.43889" lon="6.11628">
        <ele>297</ele>
        <time>2013-05-04T13:37:17Z</time>
      </trkpt>
      <trkpt lat="43.43889" lon="6.11628">
        <ele>297</ele>
        <time>2013-05-04T13:37:30Z</time>
      </trkpt>
      <trkpt lat="43.43889" lon="6.11628">
        <ele>297</ele>
        <time>2013-05-04T13:37:39Z</time>
      </trkpt>
      <trkpt lat="43.4389" lon="6.11628">
        <ele>297</ele>
        <time>2013-05-04T13:37:42Z</time>
      </trkpt>
      <trkpt lat="43.43892" lon="6.11625">
        <ele>297</ele>
        <time>2013-05-04T13:37:45Z</time>
      </trkpt>
      <trkpt lat="43.43894" lon="6.11623">
        <ele>297</ele>
        <time>2013-05-04T13:37:47Z</time>
      </trkpt>
      <trkpt lat="43.43897" lon="6.11621">
        <ele>297</ele>
        <time>2013-05-04T13:37:49Z</time>
      </trkpt>
      <trkpt lat="43.43903" lon="6.11617">
        <ele>297.79998779297</ele>
        <time>2013-05-04T13:37:52Z</time>
      </trkpt>
      <trkpt lat="43.43905" lon="6.11616">
        <ele>298.20001220703</ele>
        <time>2013-05-04T13:37:53Z</time>
      </trkpt>
      <trkpt lat="43.43909" lon="6.11615">
        <ele>299</ele>
        <time>2013-05-04T13:37:55Z</time>
      </trkpt>
      <trkpt lat="43.43911" lon="6.11615">
        <ele>299</ele>
        <time>2013-05-04T13:37:56Z</time>
      </trkpt>
      <trkpt lat="43.43913" lon="6.11615">
        <ele>299.60000610352</ele>
        <time>2013-05-04T13:37:57Z</time>
      </trkpt>
      <trkpt lat="43.43915" lon="6.11614">
        <ele>300</ele>
        <time>2013-05-04T13:37:58Z</time>
      </trkpt>
      <trkpt lat="43.43919" lon="6.11613">
        <ele>300.79998779297</ele>
        <time>2013-05-04T13:38:00Z</time>
      </trkpt>
      <trkpt lat="43.43924" lon="6.11613">
        <ele>301.20001220703</ele>
        <time>2013-05-04T13:38:03Z</time>
      </trkpt>
      <trkpt lat="43.43928" lon="6.11612">
        <ele>301.79998779297</ele>
        <time>2013-05-04T13:38:05Z</time>
      </trkpt>
      <trkpt lat="43.43929" lon="6.11612">
        <ele>302.20001220703</ele>
        <time>2013-05-04T13:38:06Z</time>
      </trkpt>
      <trkpt lat="43.43931" lon="6.11611">
        <ele>303.39999389648</ele>
        <time>2013-05-04T13:38:09Z</time>
      </trkpt>
      <trkpt lat="43.43933" lon="6.11609">
        <ele>303.39999389648</ele>
        <time>2013-05-04T13:38:11Z</time>
      </trkpt>
      <trkpt lat="43.43933" lon="6.11608">
        <ele>303.39999389648</ele>
        <time>2013-05-04T13:38:12Z</time>
      </trkpt>
      <trkpt lat="43.43934" lon="6.11608">
        <ele>303.39999389648</ele>
        <time>2013-05-04T13:38:17Z</time>
      </trkpt>
      <trkpt lat="43.43934" lon="6.11608">
        <ele>303.39999389648</ele>
        <time>2013-05-04T13:38:39Z</time>
      </trkpt>
      <trkpt lat="43.43934" lon="6.11608">
        <ele>303.39999389648</ele>
        <time>2013-05-04T13:39:17Z</time>
      </trkpt>
      <trkpt lat="43.43934" lon="6.11608">
        <ele>303.39999389648</ele>
        <time>2013-05-04T13:39:49Z</time>
      </trkpt>
      <trkpt lat="43.43937" lon="6.11606">
        <ele>303.39999389648</ele>
        <time>2013-05-04T13:39:57Z</time>
      </trkpt>
      <trkpt lat="43.43938" lon="6.11605">
        <ele>303.39999389648</ele>
        <time>2013-05-04T13:39:58Z</time>
      </trkpt>
      <trkpt lat="43.43941" lon="6.11596">
        <ele>303.39999389648</ele>
        <time>2013-05-04T13:40:02Z</time>
      </trkpt>
      <trkpt lat="43.43949" lon="6.11577">
        <ele>303.39999389648</ele>
        <time>2013-05-04T13:40:08Z</time>
      </trkpt>
      <trkpt lat="43.43958" lon="6.1155">
        <ele>303.39999389648</ele>
        <time>2013-05-04T13:40:14Z</time>
      </trkpt>
      <trkpt lat="43.43963" lon="6.11541">
        <ele>303.39999389648</ele>
        <time>2013-05-04T13:40:16Z</time>
      </trkpt>
      <trkpt lat="43.43973" lon="6.11533">
        <ele>303</ele>
        <time>2013-05-04T13:40:19Z</time>
      </trkpt>
      <trkpt lat="43.4398" lon="6.11531">
        <ele>302.20001220703</ele>
        <time>2013-05-04T13:40:21Z</time>
      </trkpt>
      <trkpt lat="43.43987" lon="6.11527">
        <ele>301.39999389648</ele>
        <time>2013-05-04T13:40:23Z</time>
      </trkpt>
      <trkpt lat="43.43994" lon="6.11523">
        <ele>301.39999389648</ele>
        <time>2013-05-04T13:40:25Z</time>
      </trkpt>
      <trkpt lat="43.44017" lon="6.11512">
        <ele>301.39999389648</ele>
        <time>2013-05-04T13:40:31Z</time>
      </trkpt>
      <trkpt lat="43.44026" lon="6.11512">
        <ele>300.60000610352</ele>
        <time>2013-05-04T13:40:33Z</time>
      </trkpt>
      <trkpt lat="43.4403" lon="6.11512">
        <ele>300</ele>
        <time>2013-05-04T13:40:34Z</time>
      </trkpt>
      <trkpt lat="43.44036" lon="6.11512">
        <ele>299.20001220703</ele>
        <time>2013-05-04T13:40:36Z</time>
      </trkpt>
      <trkpt lat="43.44043" lon="6.11512">
        <ele>299.20001220703</ele>
        <time>2013-05-04T13:40:39Z</time>
      </trkpt>
      <trkpt lat="43.44046" lon="6.1152">
        <ele>299.20001220703</ele>
        <time>2013-05-04T13:40:42Z</time>
      </trkpt>
      <trkpt lat="43.44049" lon="6.11539">
        <ele>299.20001220703</ele>
        <time>2013-05-04T13:40:47Z</time>
      </trkpt>
      <trkpt lat="43.44048" lon="6.11548">
        <ele>298.20001220703</ele>
        <time>2013-05-04T13:40:49Z</time>
      </trkpt>
      <trkpt lat="43.44046" lon="6.11556">
        <ele>297.20001220703</ele>
        <time>2013-05-04T13:40:51Z</time>
      </trkpt>
      <trkpt lat="43.44045" lon="6.11563">
        <ele>296.79998779297</ele>
        <time>2013-05-04T13:40:53Z</time>
      </trkpt>
      <trkpt lat="43.44044" lon="6.11575">
        <ele>295.79998779297</ele>
        <time>2013-05-04T13:40:56Z</time>
      </trkpt>
      <trkpt lat="43.44044" lon="6.11586">
        <ele>294.60000610352</ele>
        <time>2013-05-04T13:40:59Z</time>
      </trkpt>
      <trkpt lat="43.44048" lon="6.11594">
        <ele>294.20001220703</ele>
        <time>2013-05-04T13:41:02Z</time>
      </trkpt>
      <trkpt lat="43.44053" lon="6.11595">
        <ele>293.20001220703</ele>
        <time>2013-05-04T13:41:04Z</time>
      </trkpt>
      <trkpt lat="43.44058" lon="6.11596">
        <ele>292.39999389648</ele>
        <time>2013-05-04T13:41:06Z</time>
      </trkpt>
      <trkpt lat="43.44062" lon="6.11598">
        <ele>292.39999389648</ele>
        <time>2013-05-04T13:41:08Z</time>
      </trkpt>
      <trkpt lat="43.44064" lon="6.11613">
        <ele>292.39999389648</ele>
        <time>2013-05-04T13:41:12Z</time>
      </trkpt>
      <trkpt lat="43.44061" lon="6.11626">
        <ele>291.20001220703</ele>
        <time>2013-05-04T13:41:15Z</time>
      </trkpt>
      <trkpt lat="43.44057" lon="6.11629">
        <ele>290.79998779297</ele>
        <time>2013-05-04T13:41:16Z</time>
      </trkpt>
      <trkpt lat="43.44054" lon="6.11633">
        <ele>290.20001220703</ele>
        <time>2013-05-04T13:41:17Z</time>
      </trkpt>
      <trkpt lat="43.44047" lon="6.11643">
        <ele>289.79998779297</ele>
        <time>2013-05-04T13:41:19Z</time>
      </trkpt>
      <trkpt lat="43.44044" lon="6.11648">
        <ele>288.79998779297</ele>
        <time>2013-05-04T13:41:20Z</time>
      </trkpt>
      <trkpt lat="43.44042" lon="6.11653">
        <ele>288.39999389648</ele>
        <time>2013-05-04T13:41:21Z</time>
      </trkpt>
      <trkpt lat="43.4404" lon="6.11659">
        <ele>288</ele>
        <time>2013-05-04T13:41:22Z</time>
      </trkpt>
      <trkpt lat="43.44036" lon="6.11682">
        <ele>288</ele>
        <time>2013-05-04T13:41:26Z</time>
      </trkpt>
      <trkpt lat="43.44033" lon="6.11699">
        <ele>287.39999389648</ele>
        <time>2013-05-04T13:41:29Z</time>
      </trkpt>
      <trkpt lat="43.44031" lon="6.11713">
        <ele>285.79998779297</ele>
        <time>2013-05-04T13:41:33Z</time>
      </trkpt>
      <trkpt lat="43.44029" lon="6.11731">
        <ele>285.79998779297</ele>
        <time>2013-05-04T13:41:37Z</time>
      </trkpt>
      <trkpt lat="43.44023" lon="6.11764">
        <ele>284.39999389648</ele>
        <time>2013-05-04T13:41:44Z</time>
      </trkpt>
      <trkpt lat="43.4402" lon="6.11774">
        <ele>283.60000610352</ele>
        <time>2013-05-04T13:41:46Z</time>
      </trkpt>
      <trkpt lat="43.44016" lon="6.11792">
        <ele>283.60000610352</ele>
        <time>2013-05-04T13:41:50Z</time>
      </trkpt>
      <trkpt lat="43.44004" lon="6.11831">
        <ele>282.79998779297</ele>
        <time>2013-05-04T13:41:58Z</time>
      </trkpt>
      <trkpt lat="43.43993" lon="6.11859">
        <ele>281.39999389648</ele>
        <time>2013-05-04T13:42:04Z</time>
      </trkpt>
      <trkpt lat="43.43985" lon="6.11888">
        <ele>281.39999389648</ele>
        <time>2013-05-04T13:42:10Z</time>
      </trkpt>
      <trkpt lat="43.43976" lon="6.11905">
        <ele>281</ele>
        <time>2013-05-04T13:42:14Z</time>
      </trkpt>
      <trkpt lat="43.43975" lon="6.1191">
        <ele>280.39999389648</ele>
        <time>2013-05-04T13:42:15Z</time>
      </trkpt>
      <trkpt lat="43.43973" lon="6.11916">
        <ele>280</ele>
        <time>2013-05-04T13:42:16Z</time>
      </trkpt>
      <trkpt lat="43.43972" lon="6.11923">
        <ele>279.60000610352</ele>
        <time>2013-05-04T13:42:17Z</time>
      </trkpt>
      <trkpt lat="43.43969" lon="6.11928">
        <ele>279.20001220703</ele>
        <time>2013-05-04T13:42:18Z</time>
      </trkpt>
      <trkpt lat="43.43962" lon="6.11936">
        <ele>278.79998779297</ele>
        <time>2013-05-04T13:42:20Z</time>
      </trkpt>
      <trkpt lat="43.43956" lon="6.11946">
        <ele>278</ele>
        <time>2013-05-04T13:42:22Z</time>
      </trkpt>
      <trkpt lat="43.43953" lon="6.11952">
        <ele>277.60000610352</ele>
        <time>2013-05-04T13:42:23Z</time>
      </trkpt>
      <trkpt lat="43.43951" lon="6.11957">
        <ele>277</ele>
        <time>2013-05-04T13:42:24Z</time>
      </trkpt>
      <trkpt lat="43.43951" lon="6.11962">
        <ele>276.39999389648</ele>
        <time>2013-05-04T13:42:25Z</time>
      </trkpt>
      <trkpt lat="43.43951" lon="6.11966">
        <ele>275.79998779297</ele>
        <time>2013-05-04T13:42:26Z</time>
      </trkpt>
      <trkpt lat="43.43953" lon="6.1197">
        <ele>275.20001220703</ele>
        <time>2013-05-04T13:42:27Z</time>
      </trkpt>
      <trkpt lat="43.43954" lon="6.11972">
        <ele>274.60000610352</ele>
        <time>2013-05-04T13:42:28Z</time>
      </trkpt>
      <trkpt lat="43.43955" lon="6.11974">
        <ele>274.60000610352</ele>
        <time>2013-05-04T13:42:29Z</time>
      </trkpt>
      <trkpt lat="43.43956" lon="6.11978">
        <ele>274.60000610352</ele>
        <time>2013-05-04T13:42:31Z</time>
      </trkpt>
      <trkpt lat="43.43957" lon="6.1198">
        <ele>274.60000610352</ele>
        <time>2013-05-04T13:42:32Z</time>
      </trkpt>
      <trkpt lat="43.43959" lon="6.11984">
        <ele>274.60000610352</ele>
        <time>2013-05-04T13:42:34Z</time>
      </trkpt>
      <trkpt lat="43.4396" lon="6.1199">
        <ele>274.60000610352</ele>
        <time>2013-05-04T13:42:37Z</time>
      </trkpt>
      <trkpt lat="43.43961" lon="6.11992">
        <ele>274.60000610352</ele>
        <time>2013-05-04T13:42:38Z</time>
      </trkpt>
      <trkpt lat="43.43962" lon="6.11998">
        <ele>274.60000610352</ele>
        <time>2013-05-04T13:42:41Z</time>
      </trkpt>
      <trkpt lat="43.43963" lon="6.12005">
        <ele>275.60000610352</ele>
        <time>2013-05-04T13:42:45Z</time>
      </trkpt>
      <trkpt lat="43.43967" lon="6.12014">
        <ele>276.79998779297</ele>
        <time>2013-05-04T13:42:51Z</time>
      </trkpt>
      <trkpt lat="43.4397" lon="6.12025">
        <ele>276.79998779297</ele>
        <time>2013-05-04T13:42:58Z</time>
      </trkpt>
      <trkpt lat="43.43976" lon="6.12037">
        <ele>276.79998779297</ele>
        <time>2013-05-04T13:43:05Z</time>
      </trkpt>
      <trkpt lat="43.43977" lon="6.12039">
        <ele>276.79998779297</ele>
        <time>2013-05-04T13:43:06Z</time>
      </trkpt>
      <trkpt lat="43.43978" lon="6.12044">
        <ele>276.79998779297</ele>
        <time>2013-05-04T13:43:10Z</time>
      </trkpt>
      <trkpt lat="43.43978" lon="6.12044">
        <ele>276.79998779297</ele>
        <time>2013-05-04T13:43:18Z</time>
      </trkpt>
      <trkpt lat="43.43978" lon="6.12044">
        <ele>276.79998779297</ele>
        <time>2013-05-04T13:43:30Z</time>
      </trkpt>
      <trkpt lat="43.43978" lon="6.12044">
        <ele>276.79998779297</ele>
        <time>2013-05-04T13:43:43Z</time>
      </trkpt>
      <trkpt lat="43.43978" lon="6.12046">
        <ele>276.79998779297</ele>
        <time>2013-05-04T13:43:49Z</time>
      </trkpt>
      <trkpt lat="43.43979" lon="6.12049">
        <ele>276.79998779297</ele>
        <time>2013-05-04T13:43:51Z</time>
      </trkpt>
      <trkpt lat="43.43982" lon="6.12066">
        <ele>276.79998779297</ele>
        <time>2013-05-04T13:43:58Z</time>
      </trkpt>
      <trkpt lat="43.43983" lon="6.12078">
        <ele>277.20001220703</ele>
        <time>2013-05-04T13:44:03Z</time>
      </trkpt>
      <trkpt lat="43.43983" lon="6.12085">
        <ele>278.39999389648</ele>
        <time>2013-05-04T13:44:06Z</time>
      </trkpt>
      <trkpt lat="43.43983" lon="6.12099">
        <ele>278.79998779297</ele>
        <time>2013-05-04T13:44:12Z</time>
      </trkpt>
      <trkpt lat="43.43979" lon="6.12123">
        <ele>281</ele>
        <time>2013-05-04T13:44:23Z</time>
      </trkpt>
      <trkpt lat="43.43978" lon="6.12128">
        <ele>281</ele>
        <time>2013-05-04T13:44:25Z</time>
      </trkpt>
      <trkpt lat="43.43978" lon="6.12141">
        <ele>281</ele>
        <time>2013-05-04T13:44:31Z</time>
      </trkpt>
      <trkpt lat="43.43977" lon="6.12156">
        <ele>281</ele>
        <time>2013-05-04T13:44:38Z</time>
      </trkpt>
      <trkpt lat="43.43976" lon="6.122">
        <ele>282.60000610352</ele>
        <time>2013-05-04T13:44:58Z</time>
      </trkpt>
      <trkpt lat="43.43975" lon="6.12206">
        <ele>283</ele>
        <time>2013-05-04T13:45:01Z</time>
      </trkpt>
      <trkpt lat="43.43974" lon="6.12233">
        <ele>283</ele>
        <time>2013-05-04T13:45:12Z</time>
      </trkpt>
      <trkpt lat="43.43973" lon="6.1224">
        <ele>283</ele>
        <time>2013-05-04T13:45:15Z</time>
      </trkpt>
      <trkpt lat="43.43972" lon="6.12248">
        <ele>283</ele>
        <time>2013-05-04T13:45:18Z</time>
      </trkpt>
      <trkpt lat="43.43969" lon="6.1227">
        <ele>283</ele>
        <time>2013-05-04T13:45:28Z</time>
      </trkpt>
      <trkpt lat="43.43967" lon="6.12274">
        <ele>283</ele>
        <time>2013-05-04T13:45:30Z</time>
      </trkpt>
      <trkpt lat="43.43965" lon="6.1229">
        <ele>285</ele>
        <time>2013-05-04T13:45:37Z</time>
      </trkpt>
      <trkpt lat="43.43964" lon="6.12301">
        <ele>285</ele>
        <time>2013-05-04T13:45:41Z</time>
      </trkpt>
      <trkpt lat="43.43963" lon="6.12316">
        <ele>285</ele>
        <time>2013-05-04T13:45:47Z</time>
      </trkpt>
      <trkpt lat="43.43964" lon="6.12322">
        <ele>285</ele>
        <time>2013-05-04T13:45:52Z</time>
      </trkpt>
      <trkpt lat="43.43964" lon="6.12323">
        <ele>285</ele>
        <time>2013-05-04T13:45:58Z</time>
      </trkpt>
      <trkpt lat="43.43964" lon="6.12323">
        <ele>285</ele>
        <time>2013-05-04T13:46:07Z</time>
      </trkpt>
      <trkpt lat="43.43964" lon="6.12323">
        <ele>285</ele>
        <time>2013-05-04T13:46:14Z</time>
      </trkpt>
      <trkpt lat="43.43964" lon="6.12325">
        <ele>285</ele>
        <time>2013-05-04T13:46:22Z</time>
      </trkpt>
      <trkpt lat="43.43963" lon="6.12328">
        <ele>285</ele>
        <time>2013-05-04T13:46:28Z</time>
      </trkpt>
      <trkpt lat="43.43963" lon="6.12339">
        <ele>285</ele>
        <time>2013-05-04T13:46:35Z</time>
      </trkpt>
      <trkpt lat="43.43962" lon="6.12346">
        <ele>285</ele>
        <time>2013-05-04T13:46:41Z</time>
      </trkpt>
      <trkpt lat="43.43965" lon="6.1236">
        <ele>285</ele>
        <time>2013-05-04T13:46:48Z</time>
      </trkpt>
      <trkpt lat="43.43969" lon="6.12367">
        <ele>285</ele>
        <time>2013-05-04T13:46:52Z</time>
      </trkpt>
      <trkpt lat="43.43976" lon="6.12382">
        <ele>285</ele>
        <time>2013-05-04T13:46:59Z</time>
      </trkpt>
      <trkpt lat="43.43978" lon="6.12385">
        <ele>285.39999389648</ele>
        <time>2013-05-04T13:47:01Z</time>
      </trkpt>
      <trkpt lat="43.43984" lon="6.12401">
        <ele>287.20001220703</ele>
        <time>2013-05-04T13:47:10Z</time>
      </trkpt>
      <trkpt lat="43.43986" lon="6.12403">
        <ele>287.20001220703</ele>
        <time>2013-05-04T13:47:12Z</time>
      </trkpt>
      <trkpt lat="43.43998" lon="6.12426">
        <ele>289.20001220703</ele>
        <time>2013-05-04T13:47:27Z</time>
      </trkpt>
      <trkpt lat="43.44004" lon="6.12449">
        <ele>289.20001220703</ele>
        <time>2013-05-04T13:47:39Z</time>
      </trkpt>
      <trkpt lat="43.44005" lon="6.12458">
        <ele>289.20001220703</ele>
        <time>2013-05-04T13:47:45Z</time>
      </trkpt>
      <trkpt lat="43.44008" lon="6.12468">
        <ele>289.20001220703</ele>
        <time>2013-05-04T13:47:51Z</time>
      </trkpt>
      <trkpt lat="43.44009" lon="6.12476">
        <ele>291.20001220703</ele>
        <time>2013-05-04T13:47:56Z</time>
      </trkpt>
      <trkpt lat="43.44014" lon="6.12489">
        <ele>291.20001220703</ele>
        <time>2013-05-04T13:48:03Z</time>
      </trkpt>
      <trkpt lat="43.44014" lon="6.1249">
        <ele>291.20001220703</ele>
        <time>2013-05-04T13:48:04Z</time>
      </trkpt>
      <trkpt lat="43.44014" lon="6.12497">
        <ele>291.20001220703</ele>
        <time>2013-05-04T13:48:09Z</time>
      </trkpt>
      <trkpt lat="43.44014" lon="6.12497">
        <ele>291.20001220703</ele>
        <time>2013-05-04T13:48:14Z</time>
      </trkpt>
      <trkpt lat="43.44014" lon="6.12497">
        <ele>291.20001220703</ele>
        <time>2013-05-04T13:48:40Z</time>
      </trkpt>
      <trkpt lat="43.44014" lon="6.12497">
        <ele>291.20001220703</ele>
        <time>2013-05-04T13:48:59Z</time>
      </trkpt>
      <trkpt lat="43.44014" lon="6.12497">
        <ele>291.20001220703</ele>
        <time>2013-05-04T13:49:13Z</time>
      </trkpt>
      <trkpt lat="43.44014" lon="6.12493">
        <ele>291.20001220703</ele>
        <time>2013-05-04T13:49:19Z</time>
      </trkpt>
      <trkpt lat="43.44013" lon="6.12481">
        <ele>291.20001220703</ele>
        <time>2013-05-04T13:49:25Z</time>
      </trkpt>
      <trkpt lat="43.44012" lon="6.12479">
        <ele>291.20001220703</ele>
        <time>2013-05-04T13:49:26Z</time>
      </trkpt>
      <trkpt lat="43.4401" lon="6.12475">
        <ele>291.20001220703</ele>
        <time>2013-05-04T13:49:30Z</time>
      </trkpt>
      <trkpt lat="43.44006" lon="6.12475">
        <ele>291.20001220703</ele>
        <time>2013-05-04T13:49:34Z</time>
      </trkpt>
      <trkpt lat="43.44011" lon="6.12485">
        <ele>291.20001220703</ele>
        <time>2013-05-04T13:49:41Z</time>
      </trkpt>
      <trkpt lat="43.44011" lon="6.12487">
        <ele>291.20001220703</ele>
        <time>2013-05-04T13:49:42Z</time>
      </trkpt>
      <trkpt lat="43.44013" lon="6.12502">
        <ele>291.20001220703</ele>
        <time>2013-05-04T13:49:50Z</time>
      </trkpt>
      <trkpt lat="43.44011" lon="6.12514">
        <ele>291.20001220703</ele>
        <time>2013-05-04T13:49:57Z</time>
      </trkpt>
      <trkpt lat="43.44011" lon="6.12525">
        <ele>292</ele>
        <time>2013-05-04T13:50:03Z</time>
      </trkpt>
      <trkpt lat="43.44011" lon="6.1253">
        <ele>292.79998779297</ele>
        <time>2013-05-04T13:50:05Z</time>
      </trkpt>
      <trkpt lat="43.44011" lon="6.12532">
        <ele>293.20001220703</ele>
        <time>2013-05-04T13:50:06Z</time>
      </trkpt>
      <trkpt lat="43.4401" lon="6.12542">
        <ele>293.20001220703</ele>
        <time>2013-05-04T13:50:11Z</time>
      </trkpt>
      <trkpt lat="43.44007" lon="6.12552">
        <ele>293.20001220703</ele>
        <time>2013-05-04T13:50:18Z</time>
      </trkpt>
      <trkpt lat="43.44006" lon="6.12558">
        <ele>294</ele>
        <time>2013-05-04T13:50:22Z</time>
      </trkpt>
      <trkpt lat="43.44005" lon="6.12566">
        <ele>295.20001220703</ele>
        <time>2013-05-04T13:50:26Z</time>
      </trkpt>
      <trkpt lat="43.44005" lon="6.12575">
        <ele>295.20001220703</ele>
        <time>2013-05-04T13:50:30Z</time>
      </trkpt>
      <trkpt lat="43.43998" lon="6.12592">
        <ele>296.79998779297</ele>
        <time>2013-05-04T13:50:41Z</time>
      </trkpt>
      <trkpt lat="43.43998" lon="6.12594">
        <ele>297.20001220703</ele>
        <time>2013-05-04T13:50:42Z</time>
      </trkpt>
      <trkpt lat="43.43989" lon="6.12628">
        <ele>299.39999389648</ele>
        <time>2013-05-04T13:51:00Z</time>
      </trkpt>
      <trkpt lat="43.43987" lon="6.1264">
        <ele>301.60000610352</ele>
        <time>2013-05-04T13:51:06Z</time>
      </trkpt>
      <trkpt lat="43.43983" lon="6.12656">
        <ele>301.60000610352</ele>
        <time>2013-05-04T13:51:15Z</time>
      </trkpt>
      <trkpt lat="43.43981" lon="6.12667">
        <ele>301.60000610352</ele>
        <time>2013-05-04T13:51:22Z</time>
      </trkpt>
      <trkpt lat="43.4398" lon="6.12668">
        <ele>301.60000610352</ele>
        <time>2013-05-04T13:51:23Z</time>
      </trkpt>
      <trkpt lat="43.43974" lon="6.12678">
        <ele>303.79998779297</ele>
        <time>2013-05-04T13:51:30Z</time>
      </trkpt>
      <trkpt lat="43.43971" lon="6.12683">
        <ele>303.79998779297</ele>
        <time>2013-05-04T13:51:34Z</time>
      </trkpt>
      <trkpt lat="43.43964" lon="6.12689">
        <ele>303.79998779297</ele>
        <time>2013-05-04T13:51:41Z</time>
      </trkpt>
      <trkpt lat="43.43956" lon="6.12693">
        <ele>303.79998779297</ele>
        <time>2013-05-04T13:51:45Z</time>
      </trkpt>
      <trkpt lat="43.43951" lon="6.12695">
        <ele>303.79998779297</ele>
        <time>2013-05-04T13:51:47Z</time>
      </trkpt>
      <trkpt lat="43.43941" lon="6.127">
        <ele>303.79998779297</ele>
        <time>2013-05-04T13:51:50Z</time>
      </trkpt>
      <trkpt lat="43.43935" lon="6.12705">
        <ele>303.79998779297</ele>
        <time>2013-05-04T13:51:52Z</time>
      </trkpt>
      <trkpt lat="43.43924" lon="6.12713">
        <ele>303.79998779297</ele>
        <time>2013-05-04T13:51:56Z</time>
      </trkpt>
      <trkpt lat="43.43922" lon="6.12715">
        <ele>303.79998779297</ele>
        <time>2013-05-04T13:51:58Z</time>
      </trkpt>
      <trkpt lat="43.43921" lon="6.12719">
        <ele>303.79998779297</ele>
        <time>2013-05-04T13:52:00Z</time>
      </trkpt>
      <trkpt lat="43.4392" lon="6.12727">
        <ele>303.79998779297</ele>
        <time>2013-05-04T13:52:03Z</time>
      </trkpt>
      <trkpt lat="43.43919" lon="6.12733">
        <ele>303.79998779297</ele>
        <time>2013-05-04T13:52:05Z</time>
      </trkpt>
      <trkpt lat="43.43916" lon="6.12741">
        <ele>302.79998779297</ele>
        <time>2013-05-04T13:52:07Z</time>
      </trkpt>
      <trkpt lat="43.43914" lon="6.12745">
        <ele>302.39999389648</ele>
        <time>2013-05-04T13:52:08Z</time>
      </trkpt>
      <trkpt lat="43.43911" lon="6.12749">
        <ele>302</ele>
        <time>2013-05-04T13:52:09Z</time>
      </trkpt>
      <trkpt lat="43.43908" lon="6.12751">
        <ele>301.39999389648</ele>
        <time>2013-05-04T13:52:10Z</time>
      </trkpt>
      <trkpt lat="43.43901" lon="6.12758">
        <ele>301</ele>
        <time>2013-05-04T13:52:12Z</time>
      </trkpt>
      <trkpt lat="43.43897" lon="6.12763">
        <ele>300.60000610352</ele>
        <time>2013-05-04T13:52:13Z</time>
      </trkpt>
      <trkpt lat="43.43894" lon="6.12768">
        <ele>300.20001220703</ele>
        <time>2013-05-04T13:52:14Z</time>
      </trkpt>
      <trkpt lat="43.4389" lon="6.12773">
        <ele>299.60000610352</ele>
        <time>2013-05-04T13:52:15Z</time>
      </trkpt>
      <trkpt lat="43.43885" lon="6.12779">
        <ele>299</ele>
        <time>2013-05-04T13:52:16Z</time>
      </trkpt>
      <trkpt lat="43.4388" lon="6.12784">
        <ele>298.39999389648</ele>
        <time>2013-05-04T13:52:17Z</time>
      </trkpt>
      <trkpt lat="43.43876" lon="6.1279">
        <ele>297.60000610352</ele>
        <time>2013-05-04T13:52:18Z</time>
      </trkpt>
      <trkpt lat="43.43872" lon="6.12796">
        <ele>296.79998779297</ele>
        <time>2013-05-04T13:52:19Z</time>
      </trkpt>
      <trkpt lat="43.43868" lon="6.12803">
        <ele>296</ele>
        <time>2013-05-04T13:52:20Z</time>
      </trkpt>
      <trkpt lat="43.43865" lon="6.12812">
        <ele>295.20001220703</ele>
        <time>2013-05-04T13:52:21Z</time>
      </trkpt>
      <trkpt lat="43.43862" lon="6.1282">
        <ele>294.60000610352</ele>
        <time>2013-05-04T13:52:22Z</time>
      </trkpt>
      <trkpt lat="43.43859" lon="6.12829">
        <ele>293.79998779297</ele>
        <time>2013-05-04T13:52:23Z</time>
      </trkpt>
      <trkpt lat="43.43857" lon="6.12839">
        <ele>293.20001220703</ele>
        <time>2013-05-04T13:52:24Z</time>
      </trkpt>
      <trkpt lat="43.43856" lon="6.12848">
        <ele>292.60000610352</ele>
        <time>2013-05-04T13:52:25Z</time>
      </trkpt>
      <trkpt lat="43.43856" lon="6.12857">
        <ele>292.20001220703</ele>
        <time>2013-05-04T13:52:26Z</time>
      </trkpt>
      <trkpt lat="43.43855" lon="6.12866">
        <ele>291</ele>
        <time>2013-05-04T13:52:27Z</time>
      </trkpt>
      <trkpt lat="43.43854" lon="6.12891">
        <ele>290.60000610352</ele>
        <time>2013-05-04T13:52:30Z</time>
      </trkpt>
      <trkpt lat="43.43854" lon="6.12898">
        <ele>290.20001220703</ele>
        <time>2013-05-04T13:52:31Z</time>
      </trkpt>
      <trkpt lat="43.43853" lon="6.12915">
        <ele>289</ele>
        <time>2013-05-04T13:52:34Z</time>
      </trkpt>
      <trkpt lat="43.43853" lon="6.12924">
        <ele>289</ele>
        <time>2013-05-04T13:52:36Z</time>
      </trkpt>
      <trkpt lat="43.43851" lon="6.12932">
        <ele>288.60000610352</ele>
        <time>2013-05-04T13:52:38Z</time>
      </trkpt>
      <trkpt lat="43.4385" lon="6.12935">
        <ele>288</ele>
        <time>2013-05-04T13:52:39Z</time>
      </trkpt>
      <trkpt lat="43.4385" lon="6.12939">
        <ele>287.60000610352</ele>
        <time>2013-05-04T13:52:40Z</time>
      </trkpt>
      <trkpt lat="43.43849" lon="6.12943">
        <ele>287</ele>
        <time>2013-05-04T13:52:41Z</time>
      </trkpt>
      <trkpt lat="43.43847" lon="6.12955">
        <ele>286</ele>
        <time>2013-05-04T13:52:43Z</time>
      </trkpt>
      <trkpt lat="43.43847" lon="6.12968">
        <ele>285</ele>
        <time>2013-05-04T13:52:45Z</time>
      </trkpt>
      <trkpt lat="43.43847" lon="6.12975">
        <ele>284.60000610352</ele>
        <time>2013-05-04T13:52:46Z</time>
      </trkpt>
      <trkpt lat="43.43849" lon="6.12985">
        <ele>283.60000610352</ele>
        <time>2013-05-04T13:52:48Z</time>
      </trkpt>
      <trkpt lat="43.43851" lon="6.12992">
        <ele>283.20001220703</ele>
        <time>2013-05-04T13:52:49Z</time>
      </trkpt>
      <trkpt lat="43.43855" lon="6.13017">
        <ele>280.39999389648</ele>
        <time>2013-05-04T13:52:53Z</time>
      </trkpt>
      <trkpt lat="43.43856" lon="6.13028">
        <ele>279.20001220703</ele>
        <time>2013-05-04T13:52:55Z</time>
      </trkpt>
      <trkpt lat="43.43857" lon="6.13035">
        <ele>278.79998779297</ele>
        <time>2013-05-04T13:52:56Z</time>
      </trkpt>
      <trkpt lat="43.43856" lon="6.13048">
        <ele>277.79998779297</ele>
        <time>2013-05-04T13:52:58Z</time>
      </trkpt>
      <trkpt lat="43.43856" lon="6.13069">
        <ele>276.39999389648</ele>
        <time>2013-05-04T13:53:01Z</time>
      </trkpt>
      <trkpt lat="43.43856" lon="6.13078">
        <ele>275.79998779297</ele>
        <time>2013-05-04T13:53:02Z</time>
      </trkpt>
      <trkpt lat="43.43855" lon="6.13086">
        <ele>275.39999389648</ele>
        <time>2013-05-04T13:53:03Z</time>
      </trkpt>
      <trkpt lat="43.43855" lon="6.13108">
        <ele>273.39999389648</ele>
        <time>2013-05-04T13:53:06Z</time>
      </trkpt>
      <trkpt lat="43.43856" lon="6.13114">
        <ele>272.79998779297</ele>
        <time>2013-05-04T13:53:07Z</time>
      </trkpt>
      <trkpt lat="43.43856" lon="6.1312">
        <ele>272</ele>
        <time>2013-05-04T13:53:08Z</time>
      </trkpt>
      <trkpt lat="43.43856" lon="6.13127">
        <ele>271.39999389648</ele>
        <time>2013-05-04T13:53:09Z</time>
      </trkpt>
      <trkpt lat="43.43857" lon="6.13142">
        <ele>270</ele>
        <time>2013-05-04T13:53:11Z</time>
      </trkpt>
      <trkpt lat="43.43858" lon="6.13151">
        <ele>269.39999389648</ele>
        <time>2013-05-04T13:53:12Z</time>
      </trkpt>
      <trkpt lat="43.43859" lon="6.13159">
        <ele>269</ele>
        <time>2013-05-04T13:53:13Z</time>
      </trkpt>
      <trkpt lat="43.43859" lon="6.13167">
        <ele>268.39999389648</ele>
        <time>2013-05-04T13:53:14Z</time>
      </trkpt>
      <trkpt lat="43.43859" lon="6.13175">
        <ele>267.79998779297</ele>
        <time>2013-05-04T13:53:15Z</time>
      </trkpt>
      <trkpt lat="43.4386" lon="6.13182">
        <ele>266.60000610352</ele>
        <time>2013-05-04T13:53:16Z</time>
      </trkpt>
      <trkpt lat="43.43861" lon="6.13187">
        <ele>266</ele>
        <time>2013-05-04T13:53:17Z</time>
      </trkpt>
      <trkpt lat="43.43861" lon="6.13192">
        <ele>265.39999389648</ele>
        <time>2013-05-04T13:53:18Z</time>
      </trkpt>
      <trkpt lat="43.43862" lon="6.13196">
        <ele>264.60000610352</ele>
        <time>2013-05-04T13:53:19Z</time>
      </trkpt>
      <trkpt lat="43.43863" lon="6.13198">
        <ele>264</ele>
        <time>2013-05-04T13:53:20Z</time>
      </trkpt>
      <trkpt lat="43.43863" lon="6.132">
        <ele>263.39999389648</ele>
        <time>2013-05-04T13:53:21Z</time>
      </trkpt>
      <trkpt lat="43.43863" lon="6.132">
        <ele>262.60000610352</ele>
        <time>2013-05-04T13:53:22Z</time>
      </trkpt>
      <trkpt lat="43.43863" lon="6.132">
        <ele>262.60000610352</ele>
        <time>2013-05-04T13:53:32Z</time>
      </trkpt>
      <trkpt lat="43.43862" lon="6.13202">
        <ele>262.60000610352</ele>
        <time>2013-05-04T13:53:34Z</time>
      </trkpt>
      <trkpt lat="43.43862" lon="6.13204">
        <ele>262.60000610352</ele>
        <time>2013-05-04T13:53:35Z</time>
      </trkpt>
      <trkpt lat="43.43863" lon="6.13213">
        <ele>262.60000610352</ele>
        <time>2013-05-04T13:53:38Z</time>
      </trkpt>
      <trkpt lat="43.43863" lon="6.13216">
        <ele>262.20001220703</ele>
        <time>2013-05-04T13:53:39Z</time>
      </trkpt>
      <trkpt lat="43.43863" lon="6.13218">
        <ele>261.79998779297</ele>
        <time>2013-05-04T13:53:40Z</time>
      </trkpt>
      <trkpt lat="43.43862" lon="6.13221">
        <ele>261</ele>
        <time>2013-05-04T13:53:41Z</time>
      </trkpt>
      <trkpt lat="43.43862" lon="6.13225">
        <ele>260.60000610352</ele>
        <time>2013-05-04T13:53:42Z</time>
      </trkpt>
      <trkpt lat="43.43862" lon="6.1323">
        <ele>260.60000610352</ele>
        <time>2013-05-04T13:53:43Z</time>
      </trkpt>
      <trkpt lat="43.4386" lon="6.13241">
        <ele>260.60000610352</ele>
        <time>2013-05-04T13:53:45Z</time>
      </trkpt>
      <trkpt lat="43.43858" lon="6.13259">
        <ele>260.60000610352</ele>
        <time>2013-05-04T13:53:48Z</time>
      </trkpt>
      <trkpt lat="43.43856" lon="6.13282">
        <ele>260.20001220703</ele>
        <time>2013-05-04T13:53:51Z</time>
      </trkpt>
      <trkpt lat="43.43856" lon="6.1329">
        <ele>259.60000610352</ele>
        <time>2013-05-04T13:53:52Z</time>
      </trkpt>
      <trkpt lat="43.43856" lon="6.13299">
        <ele>259.20001220703</ele>
        <time>2013-05-04T13:53:53Z</time>
      </trkpt>
      <trkpt lat="43.43857" lon="6.13308">
        <ele>258.79998779297</ele>
        <time>2013-05-04T13:53:54Z</time>
      </trkpt>
      <trkpt lat="43.43857" lon="6.13318">
        <ele>258.39999389648</ele>
        <time>2013-05-04T13:53:55Z</time>
      </trkpt>
      <trkpt lat="43.43856" lon="6.13347">
        <ele>257.79998779297</ele>
        <time>2013-05-04T13:53:58Z</time>
      </trkpt>
      <trkpt lat="43.43855" lon="6.13356">
        <ele>257.39999389648</ele>
        <time>2013-05-04T13:53:59Z</time>
      </trkpt>
      <trkpt lat="43.43854" lon="6.13365">
        <ele>257</ele>
        <time>2013-05-04T13:54:00Z</time>
      </trkpt>
      <trkpt lat="43.43852" lon="6.13374">
        <ele>256.39999389648</ele>
        <time>2013-05-04T13:54:01Z</time>
      </trkpt>
      <trkpt lat="43.4385" lon="6.13384">
        <ele>256</ele>
        <time>2013-05-04T13:54:02Z</time>
      </trkpt>
      <trkpt lat="43.43848" lon="6.13393">
        <ele>255.60000610352</ele>
        <time>2013-05-04T13:54:03Z</time>
      </trkpt>
      <trkpt lat="43.43839" lon="6.1342">
        <ele>254</ele>
        <time>2013-05-04T13:54:06Z</time>
      </trkpt>
      <trkpt lat="43.43836" lon="6.13429">
        <ele>254</ele>
        <time>2013-05-04T13:54:07Z</time>
      </trkpt>
      <trkpt lat="43.43835" lon="6.13438">
        <ele>254</ele>
        <time>2013-05-04T13:54:08Z</time>
      </trkpt>
      <trkpt lat="43.43835" lon="6.13482">
        <ele>251.80000305176</ele>
        <time>2013-05-04T13:54:13Z</time>
      </trkpt>
      <trkpt lat="43.43834" lon="6.135">
        <ele>251.80000305176</ele>
        <time>2013-05-04T13:54:15Z</time>
      </trkpt>
      <trkpt lat="43.43827" lon="6.13541">
        <ele>249.39999389648</ele>
        <time>2013-05-04T13:54:19Z</time>
      </trkpt>
      <trkpt lat="43.43824" lon="6.13551">
        <ele>248.80000305176</ele>
        <time>2013-05-04T13:54:20Z</time>
      </trkpt>
      <trkpt lat="43.43822" lon="6.13561">
        <ele>248.19999694824</ele>
        <time>2013-05-04T13:54:21Z</time>
      </trkpt>
      <trkpt lat="43.43819" lon="6.13569">
        <ele>247.39999389648</ele>
        <time>2013-05-04T13:54:22Z</time>
      </trkpt>
      <trkpt lat="43.43814" lon="6.13577">
        <ele>246.80000305176</ele>
        <time>2013-05-04T13:54:23Z</time>
      </trkpt>
      <trkpt lat="43.4381" lon="6.13584">
        <ele>246.80000305176</ele>
        <time>2013-05-04T13:54:24Z</time>
      </trkpt>
      <trkpt lat="43.438" lon="6.13598">
        <ele>246.39999389648</ele>
        <time>2013-05-04T13:54:26Z</time>
      </trkpt>
      <trkpt lat="43.43796" lon="6.13606">
        <ele>246</ele>
        <time>2013-05-04T13:54:27Z</time>
      </trkpt>
      <trkpt lat="43.43792" lon="6.13622">
        <ele>245</ele>
        <time>2013-05-04T13:54:29Z</time>
      </trkpt>
      <trkpt lat="43.43789" lon="6.13639">
        <ele>244.60000610352</ele>
        <time>2013-05-04T13:54:31Z</time>
      </trkpt>
      <trkpt lat="43.43787" lon="6.13647">
        <ele>244.60000610352</ele>
        <time>2013-05-04T13:54:32Z</time>
      </trkpt>
      <trkpt lat="43.43783" lon="6.13663">
        <ele>244.60000610352</ele>
        <time>2013-05-04T13:54:34Z</time>
      </trkpt>
      <trkpt lat="43.43776" lon="6.13686">
        <ele>244.19999694824</ele>
        <time>2013-05-04T13:54:37Z</time>
      </trkpt>
      <trkpt lat="43.43774" lon="6.13694">
        <ele>243.80000305176</ele>
        <time>2013-05-04T13:54:38Z</time>
      </trkpt>
      <trkpt lat="43.43765" lon="6.13716">
        <ele>242.39999389648</ele>
        <time>2013-05-04T13:54:41Z</time>
      </trkpt>
      <trkpt lat="43.43758" lon="6.1373">
        <ele>242</ele>
        <time>2013-05-04T13:54:43Z</time>
      </trkpt>
      <trkpt lat="43.43755" lon="6.13738">
        <ele>241.60000610352</ele>
        <time>2013-05-04T13:54:44Z</time>
      </trkpt>
      <trkpt lat="43.43751" lon="6.13746">
        <ele>241.19999694824</ele>
        <time>2013-05-04T13:54:45Z</time>
      </trkpt>
      <trkpt lat="43.43741" lon="6.13761">
        <ele>240.39999389648</ele>
        <time>2013-05-04T13:54:47Z</time>
      </trkpt>
      <trkpt lat="43.43736" lon="6.13767">
        <ele>239.80000305176</ele>
        <time>2013-05-04T13:54:48Z</time>
      </trkpt>
      <trkpt lat="43.43731" lon="6.13774">
        <ele>239.39999389648</ele>
        <time>2013-05-04T13:54:49Z</time>
      </trkpt>
      <trkpt lat="43.43727" lon="6.1378">
        <ele>239</ele>
        <time>2013-05-04T13:54:50Z</time>
      </trkpt>
      <trkpt lat="43.43723" lon="6.13786">
        <ele>238.60000610352</ele>
        <time>2013-05-04T13:54:51Z</time>
      </trkpt>
      <trkpt lat="43.4372" lon="6.13791">
        <ele>238</ele>
        <time>2013-05-04T13:54:52Z</time>
      </trkpt>
      <trkpt lat="43.43715" lon="6.138">
        <ele>238</ele>
        <time>2013-05-04T13:54:54Z</time>
      </trkpt>
      <trkpt lat="43.43707" lon="6.13818">
        <ele>238</ele>
        <time>2013-05-04T13:54:58Z</time>
      </trkpt>
      <trkpt lat="43.43701" lon="6.13825">
        <ele>238</ele>
        <time>2013-05-04T13:55:00Z</time>
      </trkpt>
      <trkpt lat="43.43689" lon="6.1384">
        <ele>238</ele>
        <time>2013-05-04T13:55:05Z</time>
      </trkpt>
      <trkpt lat="43.43675" lon="6.13863">
        <ele>238</ele>
        <time>2013-05-04T13:55:11Z</time>
      </trkpt>
      <trkpt lat="43.43672" lon="6.13868">
        <ele>238</ele>
        <time>2013-05-04T13:55:12Z</time>
      </trkpt>
      <trkpt lat="43.43663" lon="6.1388">
        <ele>238</ele>
        <time>2013-05-04T13:55:15Z</time>
      </trkpt>
      <trkpt lat="43.43652" lon="6.13893">
        <ele>238</ele>
        <time>2013-05-04T13:55:18Z</time>
      </trkpt>
      <trkpt lat="43.43636" lon="6.13917">
        <ele>237.60000610352</ele>
        <time>2013-05-04T13:55:22Z</time>
      </trkpt>
      <trkpt lat="43.43632" lon="6.13924">
        <ele>237</ele>
        <time>2013-05-04T13:55:23Z</time>
      </trkpt>
      <trkpt lat="43.43627" lon="6.13931">
        <ele>236.60000610352</ele>
        <time>2013-05-04T13:55:24Z</time>
      </trkpt>
      <trkpt lat="43.43623" lon="6.13939">
        <ele>236</ele>
        <time>2013-05-04T13:55:25Z</time>
      </trkpt>
      <trkpt lat="43.43617" lon="6.13947">
        <ele>235.60000610352</ele>
        <time>2013-05-04T13:55:26Z</time>
      </trkpt>
      <trkpt lat="43.43612" lon="6.13955">
        <ele>235</ele>
        <time>2013-05-04T13:55:27Z</time>
      </trkpt>
      <trkpt lat="43.43607" lon="6.13964">
        <ele>234.39999389648</ele>
        <time>2013-05-04T13:55:28Z</time>
      </trkpt>
      <trkpt lat="43.43603" lon="6.13973">
        <ele>233.80000305176</ele>
        <time>2013-05-04T13:55:29Z</time>
      </trkpt>
      <trkpt lat="43.43599" lon="6.13982">
        <ele>233.19999694824</ele>
        <time>2013-05-04T13:55:30Z</time>
      </trkpt>
      <trkpt lat="43.43594" lon="6.13992">
        <ele>232.60000610352</ele>
        <time>2013-05-04T13:55:31Z</time>
      </trkpt>
      <trkpt lat="43.4359" lon="6.13999">
        <ele>232</ele>
        <time>2013-05-04T13:55:32Z</time>
      </trkpt>
      <trkpt lat="43.43586" lon="6.14005">
        <ele>231.60000610352</ele>
        <time>2013-05-04T13:55:33Z</time>
      </trkpt>
      <trkpt lat="43.43583" lon="6.1401">
        <ele>230.80000305176</ele>
        <time>2013-05-04T13:55:34Z</time>
      </trkpt>
      <trkpt lat="43.43581" lon="6.14015">
        <ele>230.19999694824</ele>
        <time>2013-05-04T13:55:35Z</time>
      </trkpt>
      <trkpt lat="43.43578" lon="6.14018">
        <ele>229.60000610352</ele>
        <time>2013-05-04T13:55:36Z</time>
      </trkpt>
      <trkpt lat="43.43578" lon="6.1402">
        <ele>229</ele>
        <time>2013-05-04T13:55:37Z</time>
      </trkpt>
      <trkpt lat="43.43577" lon="6.14022">
        <ele>228.19999694824</ele>
        <time>2013-05-04T13:55:38Z</time>
      </trkpt>
      <trkpt lat="43.43575" lon="6.14024">
        <ele>228.19999694824</ele>
        <time>2013-05-04T13:55:39Z</time>
      </trkpt>
      <trkpt lat="43.43573" lon="6.1403">
        <ele>228.19999694824</ele>
        <time>2013-05-04T13:55:41Z</time>
      </trkpt>
      <trkpt lat="43.43563" lon="6.14047">
        <ele>227.80000305176</ele>
        <time>2013-05-04T13:55:46Z</time>
      </trkpt>
      <trkpt lat="43.43558" lon="6.14054">
        <ele>227</ele>
        <time>2013-05-04T13:55:48Z</time>
      </trkpt>
      <trkpt lat="43.43554" lon="6.1406">
        <ele>226.19999694824</ele>
        <time>2013-05-04T13:55:50Z</time>
      </trkpt>
      <trkpt lat="43.43546" lon="6.1407">
        <ele>226.19999694824</ele>
        <time>2013-05-04T13:55:54Z</time>
      </trkpt>
      <trkpt lat="43.43536" lon="6.14084">
        <ele>226.19999694824</ele>
        <time>2013-05-04T13:55:59Z</time>
      </trkpt>
      <trkpt lat="43.43526" lon="6.14106">
        <ele>226.19999694824</ele>
        <time>2013-05-04T13:56:05Z</time>
      </trkpt>
      <trkpt lat="43.43515" lon="6.14118">
        <ele>226.19999694824</ele>
        <time>2013-05-04T13:56:09Z</time>
      </trkpt>
      <trkpt lat="43.43509" lon="6.14127">
        <ele>225.19999694824</ele>
        <time>2013-05-04T13:56:11Z</time>
      </trkpt>
      <trkpt lat="43.43501" lon="6.14135">
        <ele>224.19999694824</ele>
        <time>2013-05-04T13:56:13Z</time>
      </trkpt>
      <trkpt lat="43.43497" lon="6.14139">
        <ele>223.60000610352</ele>
        <time>2013-05-04T13:56:14Z</time>
      </trkpt>
      <trkpt lat="43.43493" lon="6.14142">
        <ele>222.80000305176</ele>
        <time>2013-05-04T13:56:15Z</time>
      </trkpt>
      <trkpt lat="43.43489" lon="6.14144">
        <ele>222.19999694824</ele>
        <time>2013-05-04T13:56:16Z</time>
      </trkpt>
      <trkpt lat="43.43484" lon="6.14146">
        <ele>221.60000610352</ele>
        <time>2013-05-04T13:56:17Z</time>
      </trkpt>
      <trkpt lat="43.43481" lon="6.14151">
        <ele>220.80000305176</ele>
        <time>2013-05-04T13:56:18Z</time>
      </trkpt>
      <trkpt lat="43.4348" lon="6.14156">
        <ele>220</ele>
        <time>2013-05-04T13:56:19Z</time>
      </trkpt>
      <trkpt lat="43.43481" lon="6.14175">
        <ele>218.19999694824</ele>
        <time>2013-05-04T13:56:22Z</time>
      </trkpt>
      <trkpt lat="43.43481" lon="6.14181">
        <ele>217.60000610352</ele>
        <time>2013-05-04T13:56:23Z</time>
      </trkpt>
      <trkpt lat="43.43481" lon="6.14186">
        <ele>217</ele>
        <time>2013-05-04T13:56:24Z</time>
      </trkpt>
      <trkpt lat="43.4348" lon="6.14189">
        <ele>216.39999389648</ele>
        <time>2013-05-04T13:56:25Z</time>
      </trkpt>
      <trkpt lat="43.4348" lon="6.14191">
        <ele>216.39999389648</ele>
        <time>2013-05-04T13:56:26Z</time>
      </trkpt>
      <trkpt lat="43.4348" lon="6.14195">
        <ele>215.80000305176</ele>
        <time>2013-05-04T13:56:27Z</time>
      </trkpt>
      <trkpt lat="43.43479" lon="6.14198">
        <ele>215.39999389648</ele>
        <time>2013-05-04T13:56:28Z</time>
      </trkpt>
      <trkpt lat="43.43479" lon="6.14202">
        <ele>215</ele>
        <time>2013-05-04T13:56:29Z</time>
      </trkpt>
      <trkpt lat="43.43477" lon="6.14204">
        <ele>214.60000610352</ele>
        <time>2013-05-04T13:56:30Z</time>
      </trkpt>
      <trkpt lat="43.43475" lon="6.14204">
        <ele>214.19999694824</ele>
        <time>2013-05-04T13:56:31Z</time>
      </trkpt>
      <trkpt lat="43.43466" lon="6.14208">
        <ele>213.60000610352</ele>
        <time>2013-05-04T13:56:35Z</time>
      </trkpt>
      <trkpt lat="43.43464" lon="6.14209">
        <ele>213.19999694824</ele>
        <time>2013-05-04T13:56:36Z</time>
      </trkpt>
      <trkpt lat="43.4346" lon="6.1421">
        <ele>212.80000305176</ele>
        <time>2013-05-04T13:56:37Z</time>
      </trkpt>
      <trkpt lat="43.43457" lon="6.14211">
        <ele>212.39999389648</ele>
        <time>2013-05-04T13:56:38Z</time>
      </trkpt>
      <trkpt lat="43.43453" lon="6.14212">
        <ele>212</ele>
        <time>2013-05-04T13:56:39Z</time>
      </trkpt>
      <trkpt lat="43.43449" lon="6.14213">
        <ele>212</ele>
        <time>2013-05-04T13:56:40Z</time>
      </trkpt>
      <trkpt lat="43.43443" lon="6.14212">
        <ele>212</ele>
        <time>2013-05-04T13:56:41Z</time>
      </trkpt>
      <trkpt lat="43.43422" lon="6.14207">
        <ele>212</ele>
        <time>2013-05-04T13:56:45Z</time>
      </trkpt>
      <trkpt lat="43.4342" lon="6.14206">
        <ele>211.39999389648</ele>
        <time>2013-05-04T13:56:46Z</time>
      </trkpt>
      <trkpt lat="43.43418" lon="6.14206">
        <ele>211</ele>
        <time>2013-05-04T13:56:47Z</time>
      </trkpt>
      <trkpt lat="43.43417" lon="6.14207">
        <ele>210.60000610352</ele>
        <time>2013-05-04T13:56:48Z</time>
      </trkpt>
      <trkpt lat="43.43417" lon="6.14207">
        <ele>209.60000610352</ele>
        <time>2013-05-04T13:56:50Z</time>
      </trkpt>
      <trkpt lat="43.43415" lon="6.14209">
        <ele>209.60000610352</ele>
        <time>2013-05-04T13:56:55Z</time>
      </trkpt>
      <trkpt lat="43.43411" lon="6.1421">
        <ele>209.60000610352</ele>
        <time>2013-05-04T13:56:59Z</time>
      </trkpt>
      <trkpt lat="43.43409" lon="6.1421">
        <ele>209.60000610352</ele>
        <time>2013-05-04T13:57:00Z</time>
      </trkpt>
      <trkpt lat="43.43392" lon="6.14207">
        <ele>209.60000610352</ele>
        <time>2013-05-04T13:57:06Z</time>
      </trkpt>
      <trkpt lat="43.43378" lon="6.14205">
        <ele>209.60000610352</ele>
        <time>2013-05-04T13:57:11Z</time>
      </trkpt>
      <trkpt lat="43.43365" lon="6.14204">
        <ele>209.60000610352</ele>
        <time>2013-05-04T13:57:16Z</time>
      </trkpt>
      <trkpt lat="43.43355" lon="6.14206">
        <ele>208.80000305176</ele>
        <time>2013-05-04T13:57:19Z</time>
      </trkpt>
      <trkpt lat="43.43353" lon="6.14208">
        <ele>208.19999694824</ele>
        <time>2013-05-04T13:57:20Z</time>
      </trkpt>
      <trkpt lat="43.4335" lon="6.14209">
        <ele>207.80000305176</ele>
        <time>2013-05-04T13:57:21Z</time>
      </trkpt>
      <trkpt lat="43.43348" lon="6.14212">
        <ele>207.39999389648</ele>
        <time>2013-05-04T13:57:22Z</time>
      </trkpt>
      <trkpt lat="43.43346" lon="6.14231">
        <ele>207.39999389648</ele>
        <time>2013-05-04T13:57:26Z</time>
      </trkpt>
      <trkpt lat="43.43344" lon="6.14247">
        <ele>207</ele>
        <time>2013-05-04T13:57:29Z</time>
      </trkpt>
      <trkpt lat="43.43343" lon="6.14251">
        <ele>206.60000610352</ele>
        <time>2013-05-04T13:57:30Z</time>
      </trkpt>
      <trkpt lat="43.43341" lon="6.14255">
        <ele>206.19999694824</ele>
        <time>2013-05-04T13:57:31Z</time>
      </trkpt>
      <trkpt lat="43.43338" lon="6.14268">
        <ele>205.39999389648</ele>
        <time>2013-05-04T13:57:34Z</time>
      </trkpt>
      <trkpt lat="43.43333" lon="6.14277">
        <ele>204.80000305176</ele>
        <time>2013-05-04T13:57:36Z</time>
      </trkpt>
      <trkpt lat="43.43328" lon="6.1428">
        <ele>204.39999389648</ele>
        <time>2013-05-04T13:57:37Z</time>
      </trkpt>
      <trkpt lat="43.43324" lon="6.14281">
        <ele>204</ele>
        <time>2013-05-04T13:57:38Z</time>
      </trkpt>
      <trkpt lat="43.43318" lon="6.14281">
        <ele>203.39999389648</ele>
        <time>2013-05-04T13:57:39Z</time>
      </trkpt>
      <trkpt lat="43.43312" lon="6.14279">
        <ele>202.80000305176</ele>
        <time>2013-05-04T13:57:40Z</time>
      </trkpt>
      <trkpt lat="43.43307" lon="6.14273">
        <ele>202.19999694824</ele>
        <time>2013-05-04T13:57:41Z</time>
      </trkpt>
      <trkpt lat="43.43301" lon="6.14267">
        <ele>201.60000610352</ele>
        <time>2013-05-04T13:57:42Z</time>
      </trkpt>
      <trkpt lat="43.43296" lon="6.14261">
        <ele>200.80000305176</ele>
        <time>2013-05-04T13:57:43Z</time>
      </trkpt>
      <trkpt lat="43.43289" lon="6.14256">
        <ele>200</ele>
        <time>2013-05-04T13:57:44Z</time>
      </trkpt>
      <trkpt lat="43.43281" lon="6.14252">
        <ele>199</ele>
        <time>2013-05-04T13:57:45Z</time>
      </trkpt>
      <trkpt lat="43.43273" lon="6.14247">
        <ele>198.19999694824</ele>
        <time>2013-05-04T13:57:46Z</time>
      </trkpt>
      <trkpt lat="43.43266" lon="6.14243">
        <ele>197.39999389648</ele>
        <time>2013-05-04T13:57:47Z</time>
      </trkpt>
      <trkpt lat="43.43258" lon="6.14239">
        <ele>195.80000305176</ele>
        <time>2013-05-04T13:57:48Z</time>
      </trkpt>
      <trkpt lat="43.4325" lon="6.14235">
        <ele>194.80000305176</ele>
        <time>2013-05-04T13:57:49Z</time>
      </trkpt>
      <trkpt lat="43.43244" lon="6.14232">
        <ele>194</ele>
        <time>2013-05-04T13:57:50Z</time>
      </trkpt>
      <trkpt lat="43.43238" lon="6.14229">
        <ele>193.19999694824</ele>
        <time>2013-05-04T13:57:51Z</time>
      </trkpt>
      <trkpt lat="43.43234" lon="6.14228">
        <ele>192.39999389648</ele>
        <time>2013-05-04T13:57:52Z</time>
      </trkpt>
      <trkpt lat="43.43231" lon="6.14227">
        <ele>191.60000610352</ele>
        <time>2013-05-04T13:57:53Z</time>
      </trkpt>
      <trkpt lat="43.43229" lon="6.14226">
        <ele>190.80000305176</ele>
        <time>2013-05-04T13:57:54Z</time>
      </trkpt>
      <trkpt lat="43.43228" lon="6.14224">
        <ele>190.19999694824</ele>
        <time>2013-05-04T13:57:55Z</time>
      </trkpt>
      <trkpt lat="43.43219" lon="6.1422">
        <ele>190.19999694824</ele>
        <time>2013-05-04T13:58:01Z</time>
      </trkpt>
      <trkpt lat="43.43206" lon="6.14216">
        <ele>190.19999694824</ele>
        <time>2013-05-04T13:58:06Z</time>
      </trkpt>
      <trkpt lat="43.43195" lon="6.14215">
        <ele>190.19999694824</ele>
        <time>2013-05-04T13:58:11Z</time>
      </trkpt>
      <trkpt lat="43.43193" lon="6.14216">
        <ele>190.19999694824</ele>
        <time>2013-05-04T13:58:12Z</time>
      </trkpt>
      <trkpt lat="43.43185" lon="6.14227">
        <ele>190.19999694824</ele>
        <time>2013-05-04T13:58:17Z</time>
      </trkpt>
      <trkpt lat="43.43181" lon="6.14239">
        <ele>189.80000305176</ele>
        <time>2013-05-04T13:58:21Z</time>
      </trkpt>
      <trkpt lat="43.43179" lon="6.14248">
        <ele>189</ele>
        <time>2013-05-04T13:58:23Z</time>
      </trkpt>
      <trkpt lat="43.43177" lon="6.14251">
        <ele>188.39999389648</ele>
        <time>2013-05-04T13:58:24Z</time>
      </trkpt>
      <trkpt lat="43.43172" lon="6.14255">
        <ele>188</ele>
        <time>2013-05-04T13:58:26Z</time>
      </trkpt>
      <trkpt lat="43.43166" lon="6.14253">
        <ele>188</ele>
        <time>2013-05-04T13:58:29Z</time>
      </trkpt>
      <trkpt lat="43.43164" lon="6.14252">
        <ele>188</ele>
        <time>2013-05-04T13:58:30Z</time>
      </trkpt>
      <trkpt lat="43.43159" lon="6.14247">
        <ele>188</ele>
        <time>2013-05-04T13:58:34Z</time>
      </trkpt>
      <trkpt lat="43.43159" lon="6.14247">
        <ele>188</ele>
        <time>2013-05-04T13:58:36Z</time>
      </trkpt>
      <trkpt lat="43.43159" lon="6.14246">
        <ele>188</ele>
        <time>2013-05-04T13:58:42Z</time>
      </trkpt>
      <trkpt lat="43.43159" lon="6.14246">
        <ele>188</ele>
        <time>2013-05-04T13:58:59Z</time>
      </trkpt>
      <trkpt lat="43.43159" lon="6.14246">
        <ele>188</ele>
        <time>2013-05-04T13:59:17Z</time>
      </trkpt>
      <trkpt lat="43.43158" lon="6.14246">
        <ele>188</ele>
        <time>2013-05-04T13:59:24Z</time>
      </trkpt>
      <trkpt lat="43.43155" lon="6.14246">
        <ele>188</ele>
        <time>2013-05-04T13:59:26Z</time>
      </trkpt>
      <trkpt lat="43.43147" lon="6.14242">
        <ele>188</ele>
        <time>2013-05-04T13:59:30Z</time>
      </trkpt>
      <trkpt lat="43.43145" lon="6.14241">
        <ele>188</ele>
        <time>2013-05-04T13:59:31Z</time>
      </trkpt>
      <trkpt lat="43.43134" lon="6.14236">
        <ele>188</ele>
        <time>2013-05-04T13:59:34Z</time>
      </trkpt>
      <trkpt lat="43.4313" lon="6.14232">
        <ele>188</ele>
        <time>2013-05-04T13:59:35Z</time>
      </trkpt>
      <trkpt lat="43.43128" lon="6.14218">
        <ele>188</ele>
        <time>2013-05-04T13:59:38Z</time>
      </trkpt>
      <trkpt lat="43.43127" lon="6.14199">
        <ele>188</ele>
        <time>2013-05-04T13:59:43Z</time>
      </trkpt>
      <trkpt lat="43.43123" lon="6.14188">
        <ele>188</ele>
        <time>2013-05-04T13:59:47Z</time>
      </trkpt>
      <trkpt lat="43.43122" lon="6.1418">
        <ele>188</ele>
        <time>2013-05-04T13:59:49Z</time>
      </trkpt>
      <trkpt lat="43.43121" lon="6.14178">
        <ele>188.60000610352</ele>
        <time>2013-05-04T13:59:50Z</time>
      </trkpt>
      <trkpt lat="43.43121" lon="6.1417">
        <ele>189.80000305176</ele>
        <time>2013-05-04T13:59:52Z</time>
      </trkpt>
      <trkpt lat="43.43119" lon="6.14161">
        <ele>190.19999694824</ele>
        <time>2013-05-04T13:59:55Z</time>
      </trkpt>
      <trkpt lat="43.43119" lon="6.14152">
        <ele>190.19999694824</ele>
        <time>2013-05-04T13:59:59Z</time>
      </trkpt>
      <trkpt lat="43.43119" lon="6.1415">
        <ele>190.19999694824</ele>
        <time>2013-05-04T14:00:00Z</time>
      </trkpt>
      <trkpt lat="43.43118" lon="6.14147">
        <ele>190.19999694824</ele>
        <time>2013-05-04T14:00:01Z</time>
      </trkpt>
      <trkpt lat="43.43117" lon="6.14143">
        <ele>190.80000305176</ele>
        <time>2013-05-04T14:00:03Z</time>
      </trkpt>
      <trkpt lat="43.43117" lon="6.14139">
        <ele>191.60000610352</ele>
        <time>2013-05-04T14:00:05Z</time>
      </trkpt>
      <trkpt lat="43.43117" lon="6.14131">
        <ele>192.60000610352</ele>
        <time>2013-05-04T14:00:09Z</time>
      </trkpt>
      <trkpt lat="43.43118" lon="6.14122">
        <ele>192.60000610352</ele>
        <time>2013-05-04T14:00:13Z</time>
      </trkpt>
      <trkpt lat="43.43121" lon="6.14108">
        <ele>192.60000610352</ele>
        <time>2013-05-04T14:00:19Z</time>
      </trkpt>
      <trkpt lat="43.43119" lon="6.14099">
        <ele>192.60000610352</ele>
        <time>2013-05-04T14:00:22Z</time>
      </trkpt>
      <trkpt lat="43.43117" lon="6.14091">
        <ele>192.60000610352</ele>
        <time>2013-05-04T14:00:25Z</time>
      </trkpt>
      <trkpt lat="43.43114" lon="6.1408">
        <ele>192.60000610352</ele>
        <time>2013-05-04T14:00:30Z</time>
      </trkpt>
      <trkpt lat="43.43115" lon="6.14059">
        <ele>193.39999389648</ele>
        <time>2013-05-04T14:00:37Z</time>
      </trkpt>
      <trkpt lat="43.43115" lon="6.14056">
        <ele>193.80000305176</ele>
        <time>2013-05-04T14:00:38Z</time>
      </trkpt>
      <trkpt lat="43.43114" lon="6.14053">
        <ele>194.19999694824</ele>
        <time>2013-05-04T14:00:39Z</time>
      </trkpt>
      <trkpt lat="43.43113" lon="6.14049">
        <ele>194.60000610352</ele>
        <time>2013-05-04T14:00:40Z</time>
      </trkpt>
      <trkpt lat="43.43111" lon="6.14039">
        <ele>194.60000610352</ele>
        <time>2013-05-04T14:00:43Z</time>
      </trkpt>
      <trkpt lat="43.4311" lon="6.14024">
        <ele>194.60000610352</ele>
        <time>2013-05-04T14:00:49Z</time>
      </trkpt>
      <trkpt lat="43.43108" lon="6.14009">
        <ele>194.60000610352</ele>
        <time>2013-05-04T14:00:55Z</time>
      </trkpt>
      <trkpt lat="43.43105" lon="6.13992">
        <ele>194.60000610352</ele>
        <time>2013-05-04T14:01:01Z</time>
      </trkpt>
      <trkpt lat="43.43101" lon="6.13975">
        <ele>194.60000610352</ele>
        <time>2013-05-04T14:01:07Z</time>
      </trkpt>
      <trkpt lat="43.43093" lon="6.13948">
        <ele>194.60000610352</ele>
        <time>2013-05-04T14:01:16Z</time>
      </trkpt>
      <trkpt lat="43.43089" lon="6.13934">
        <ele>194.60000610352</ele>
        <time>2013-05-04T14:01:19Z</time>
      </trkpt>
      <trkpt lat="43.43082" lon="6.13911">
        <ele>194.60000610352</ele>
        <time>2013-05-04T14:01:24Z</time>
      </trkpt>
      <trkpt lat="43.4308" lon="6.13874">
        <ele>194.60000610352</ele>
        <time>2013-05-04T14:01:31Z</time>
      </trkpt>
      <trkpt lat="43.43078" lon="6.13862">
        <ele>194.60000610352</ele>
        <time>2013-05-04T14:01:33Z</time>
      </trkpt>
      <trkpt lat="43.43072" lon="6.1383">
        <ele>193.39999389648</ele>
        <time>2013-05-04T14:01:38Z</time>
      </trkpt>
      <trkpt lat="43.4307" lon="6.13824">
        <ele>193</ele>
        <time>2013-05-04T14:01:39Z</time>
      </trkpt>
      <trkpt lat="43.43068" lon="6.13817">
        <ele>192.39999389648</ele>
        <time>2013-05-04T14:01:40Z</time>
      </trkpt>
      <trkpt lat="43.43067" lon="6.13811">
        <ele>192.39999389648</ele>
        <time>2013-05-04T14:01:41Z</time>
      </trkpt>
      <trkpt lat="43.43066" lon="6.13804">
        <ele>192.39999389648</ele>
        <time>2013-05-04T14:01:42Z</time>
      </trkpt>
      <trkpt lat="43.43059" lon="6.13769">
        <ele>192.39999389648</ele>
        <time>2013-05-04T14:01:47Z</time>
      </trkpt>
      <trkpt lat="43.43056" lon="6.13762">
        <ele>192</ele>
        <time>2013-05-04T14:01:48Z</time>
      </trkpt>
      <trkpt lat="43.43054" lon="6.13756">
        <ele>191.60000610352</ele>
        <time>2013-05-04T14:01:49Z</time>
      </trkpt>
      <trkpt lat="43.4305" lon="6.13745">
        <ele>190.80000305176</ele>
        <time>2013-05-04T14:01:51Z</time>
      </trkpt>
      <trkpt lat="43.43047" lon="6.13739">
        <ele>190.39999389648</ele>
        <time>2013-05-04T14:01:52Z</time>
      </trkpt>
      <trkpt lat="43.43045" lon="6.13733">
        <ele>190.39999389648</ele>
        <time>2013-05-04T14:01:53Z</time>
      </trkpt>
      <trkpt lat="43.43039" lon="6.13723">
        <ele>190.39999389648</ele>
        <time>2013-05-04T14:01:55Z</time>
      </trkpt>
      <trkpt lat="43.43032" lon="6.13711">
        <ele>190.39999389648</ele>
        <time>2013-05-04T14:01:58Z</time>
      </trkpt>
      <trkpt lat="43.43027" lon="6.137">
        <ele>190.39999389648</ele>
        <time>2013-05-04T14:02:01Z</time>
      </trkpt>
      <trkpt lat="43.43025" lon="6.13694">
        <ele>190.39999389648</ele>
        <time>2013-05-04T14:02:03Z</time>
      </trkpt>
      <trkpt lat="43.43017" lon="6.1368">
        <ele>190.39999389648</ele>
        <time>2013-05-04T14:02:07Z</time>
      </trkpt>
      <trkpt lat="43.43013" lon="6.13673">
        <ele>190.39999389648</ele>
        <time>2013-05-04T14:02:09Z</time>
      </trkpt>
      <trkpt lat="43.43006" lon="6.13656">
        <ele>190.39999389648</ele>
        <time>2013-05-04T14:02:14Z</time>
      </trkpt>
      <trkpt lat="43.43001" lon="6.13628">
        <ele>190.39999389648</ele>
        <time>2013-05-04T14:02:20Z</time>
      </trkpt>
      <trkpt lat="43.42997" lon="6.13598">
        <ele>190.39999389648</ele>
        <time>2013-05-04T14:02:27Z</time>
      </trkpt>
      <trkpt lat="43.42992" lon="6.13575">
        <ele>190.39999389648</ele>
        <time>2013-05-04T14:02:32Z</time>
      </trkpt>
      <trkpt lat="43.42987" lon="6.13549">
        <ele>190.39999389648</ele>
        <time>2013-05-04T14:02:38Z</time>
      </trkpt>
      <trkpt lat="43.42986" lon="6.13522">
        <ele>190.39999389648</ele>
        <time>2013-05-04T14:02:45Z</time>
      </trkpt>
      <trkpt lat="43.42985" lon="6.13476">
        <ele>190.39999389648</ele>
        <time>2013-05-04T14:02:56Z</time>
      </trkpt>
      <trkpt lat="43.42984" lon="6.13452">
        <ele>190.39999389648</ele>
        <time>2013-05-04T14:03:02Z</time>
      </trkpt>
      <trkpt lat="43.42979" lon="6.13393">
        <ele>192.39999389648</ele>
        <time>2013-05-04T14:03:22Z</time>
      </trkpt>
      <trkpt lat="43.42979" lon="6.13365">
        <ele>192.39999389648</ele>
        <time>2013-05-04T14:03:34Z</time>
      </trkpt>
      <trkpt lat="43.42978" lon="6.13361">
        <ele>192.80000305176</ele>
        <time>2013-05-04T14:03:36Z</time>
      </trkpt>
      <trkpt lat="43.42976" lon="6.13355">
        <ele>194.39999389648</ele>
        <time>2013-05-04T14:03:40Z</time>
      </trkpt>
      <trkpt lat="43.42974" lon="6.13347">
        <ele>194.39999389648</ele>
        <time>2013-05-04T14:03:44Z</time>
      </trkpt>
      <trkpt lat="43.42971" lon="6.13334">
        <ele>195.19999694824</ele>
        <time>2013-05-04T14:03:51Z</time>
      </trkpt>
      <trkpt lat="43.42967" lon="6.13319">
        <ele>196.60000610352</ele>
        <time>2013-05-04T14:04:00Z</time>
      </trkpt>
      <trkpt lat="43.42965" lon="6.13307">
        <ele>196.60000610352</ele>
        <time>2013-05-04T14:04:07Z</time>
      </trkpt>
      <trkpt lat="43.42964" lon="6.13305">
        <ele>196.60000610352</ele>
        <time>2013-05-04T14:04:08Z</time>
      </trkpt>
      <trkpt lat="43.42965" lon="6.13287">
        <ele>198.80000305176</ele>
        <time>2013-05-04T14:04:19Z</time>
      </trkpt>
      <trkpt lat="43.42964" lon="6.13278">
        <ele>198.80000305176</ele>
        <time>2013-05-04T14:04:24Z</time>
      </trkpt>
      <trkpt lat="43.42961" lon="6.13267">
        <ele>199.19999694824</ele>
        <time>2013-05-04T14:04:30Z</time>
      </trkpt>
      <trkpt lat="43.42954" lon="6.1326">
        <ele>200.80000305176</ele>
        <time>2013-05-04T14:04:37Z</time>
      </trkpt>
      <trkpt lat="43.4295" lon="6.13251">
        <ele>200.80000305176</ele>
        <time>2013-05-04T14:04:43Z</time>
      </trkpt>
      <trkpt lat="43.42942" lon="6.13237">
        <ele>202.80000305176</ele>
        <time>2013-05-04T14:04:54Z</time>
      </trkpt>
      <trkpt lat="43.42937" lon="6.13226">
        <ele>204</ele>
        <time>2013-05-04T14:05:02Z</time>
      </trkpt>
      <trkpt lat="43.42935" lon="6.13219">
        <ele>205</ele>
        <time>2013-05-04T14:05:07Z</time>
      </trkpt>
      <trkpt lat="43.42933" lon="6.13214">
        <ele>205.39999389648</ele>
        <time>2013-05-04T14:05:12Z</time>
      </trkpt>
      <trkpt lat="43.42933" lon="6.13212">
        <ele>205.80000305176</ele>
        <time>2013-05-04T14:05:13Z</time>
      </trkpt>
      <trkpt lat="43.42933" lon="6.13211">
        <ele>206.19999694824</ele>
        <time>2013-05-04T14:05:14Z</time>
      </trkpt>
      <trkpt lat="43.42933" lon="6.1321">
        <ele>206.60000610352</ele>
        <time>2013-05-04T14:05:15Z</time>
      </trkpt>
      <trkpt lat="43.42933" lon="6.1321">
        <ele>207</ele>
        <time>2013-05-04T14:05:16Z</time>
      </trkpt>
      <trkpt lat="43.42931" lon="6.13208">
        <ele>207</ele>
        <time>2013-05-04T14:05:18Z</time>
      </trkpt>
      <trkpt lat="43.42928" lon="6.13206">
        <ele>207</ele>
        <time>2013-05-04T14:05:21Z</time>
      </trkpt>
      <trkpt lat="43.42927" lon="6.13205">
        <ele>207</ele>
        <time>2013-05-04T14:05:24Z</time>
      </trkpt>
      <trkpt lat="43.42927" lon="6.13205">
        <ele>207</ele>
        <time>2013-05-04T14:05:30Z</time>
      </trkpt>
      <trkpt lat="43.42927" lon="6.13205">
        <ele>207</ele>
        <time>2013-05-04T14:05:49Z</time>
      </trkpt>
      <trkpt lat="43.42927" lon="6.13205">
        <ele>207</ele>
        <time>2013-05-04T14:07:50Z</time>
      </trkpt>
      <trkpt lat="43.42927" lon="6.13205">
        <ele>207</ele>
        <time>2013-05-04T14:07:58Z</time>
      </trkpt>
      <trkpt lat="43.42926" lon="6.13205">
        <ele>207.39999389648</ele>
        <time>2013-05-04T14:08:00Z</time>
      </trkpt>
      <trkpt lat="43.42926" lon="6.13205">
        <ele>209</ele>
        <time>2013-05-04T14:08:23Z</time>
      </trkpt>
      <trkpt lat="43.42926" lon="6.13205">
        <ele>209</ele>
        <time>2013-05-04T14:08:54Z</time>
      </trkpt>
      <trkpt lat="43.42926" lon="6.13205">
        <ele>209</ele>
        <time>2013-05-04T14:09:13Z</time>
      </trkpt>
      <trkpt lat="43.42926" lon="6.13205">
        <ele>209</ele>
        <time>2013-05-04T14:09:34Z</time>
      </trkpt>
      <trkpt lat="43.42926" lon="6.13205">
        <ele>209</ele>
        <time>2013-05-04T14:10:08Z</time>
      </trkpt>
      <trkpt lat="43.42926" lon="6.13205">
        <ele>209</ele>
        <time>2013-05-04T14:10:24Z</time>
      </trkpt>
      <trkpt lat="43.42926" lon="6.13205">
        <ele>209</ele>
        <time>2013-05-04T14:10:27Z</time>
      </trkpt>
      <trkpt lat="43.42926" lon="6.13205">
        <ele>209</ele>
        <time>2013-05-04T14:10:58Z</time>
      </trkpt>
      <trkpt lat="43.42926" lon="6.13204">
        <ele>209</ele>
        <time>2013-05-04T14:12:51Z</time>
      </trkpt>
      <trkpt lat="43.42927" lon="6.13204">
        <ele>209</ele>
        <time>2013-05-04T14:13:08Z</time>
      </trkpt>
      <trkpt lat="43.42927" lon="6.13204">
        <ele>209</ele>
        <time>2013-05-04T14:13:17Z</time>
      </trkpt>
      <trkpt lat="43.42922" lon="6.13201">
        <ele>209</ele>
        <time>2013-05-04T14:13:21Z</time>
      </trkpt>
      <trkpt lat="43.42921" lon="6.132">
        <ele>209</ele>
        <time>2013-05-04T14:13:22Z</time>
      </trkpt>
      <trkpt lat="43.42915" lon="6.13195">
        <ele>209</ele>
        <time>2013-05-04T14:13:27Z</time>
      </trkpt>
      <trkpt lat="43.42914" lon="6.13193">
        <ele>209</ele>
        <time>2013-05-04T14:13:28Z</time>
      </trkpt>
      <trkpt lat="43.42912" lon="6.13192">
        <ele>209.60000610352</ele>
        <time>2013-05-04T14:13:30Z</time>
      </trkpt>
      <trkpt lat="43.42906" lon="6.13189">
        <ele>211.19999694824</ele>
        <time>2013-05-04T14:13:36Z</time>
      </trkpt>
      <trkpt lat="43.42897" lon="6.1319">
        <ele>212.80000305176</ele>
        <time>2013-05-04T14:13:43Z</time>
      </trkpt>
      <trkpt lat="43.42896" lon="6.13191">
        <ele>213.19999694824</ele>
        <time>2013-05-04T14:13:45Z</time>
      </trkpt>
      <trkpt lat="43.42889" lon="6.13192">
        <ele>213.60000610352</ele>
        <time>2013-05-04T14:13:51Z</time>
      </trkpt>
      <trkpt lat="43.42888" lon="6.13193">
        <ele>214.19999694824</ele>
        <time>2013-05-04T14:13:52Z</time>
      </trkpt>
      <trkpt lat="43.42883" lon="6.13201">
        <ele>215.39999389648</ele>
        <time>2013-05-04T14:14:00Z</time>
      </trkpt>
      <trkpt lat="43.42877" lon="6.1321">
        <ele>215.39999389648</ele>
        <time>2013-05-04T14:14:08Z</time>
      </trkpt>
      <trkpt lat="43.42872" lon="6.13215">
        <ele>215.80000305176</ele>
        <time>2013-05-04T14:14:14Z</time>
      </trkpt>
      <trkpt lat="43.42862" lon="6.1322">
        <ele>217.39999389648</ele>
        <time>2013-05-04T14:14:23Z</time>
      </trkpt>
      <trkpt lat="43.42858" lon="6.13223">
        <ele>219</ele>
        <time>2013-05-04T14:14:28Z</time>
      </trkpt>
      <trkpt lat="43.42854" lon="6.13225">
        <ele>219.39999389648</ele>
        <time>2013-05-04T14:14:32Z</time>
      </trkpt>
      <trkpt lat="43.42847" lon="6.13229">
        <ele>220.19999694824</ele>
        <time>2013-05-04T14:14:40Z</time>
      </trkpt>
      <trkpt lat="43.4284" lon="6.13235">
        <ele>221.39999389648</ele>
        <time>2013-05-04T14:14:47Z</time>
      </trkpt>
      <trkpt lat="43.42832" lon="6.13234">
        <ele>221.39999389648</ele>
        <time>2013-05-04T14:14:54Z</time>
      </trkpt>
      <trkpt lat="43.4283" lon="6.13233">
        <ele>221.39999389648</ele>
        <time>2013-05-04T14:14:57Z</time>
      </trkpt>
      <trkpt lat="43.42823" lon="6.13234">
        <ele>221.80000305176</ele>
        <time>2013-05-04T14:15:03Z</time>
      </trkpt>
      <trkpt lat="43.42822" lon="6.13235">
        <ele>223</ele>
        <time>2013-05-04T14:15:05Z</time>
      </trkpt>
      <trkpt lat="43.42822" lon="6.13235">
        <ele>223.39999389648</ele>
        <time>2013-05-04T14:15:06Z</time>
      </trkpt>
      <trkpt lat="43.42818" lon="6.13239">
        <ele>223.39999389648</ele>
        <time>2013-05-04T14:15:10Z</time>
      </trkpt>
      <trkpt lat="43.42815" lon="6.13243">
        <ele>223.39999389648</ele>
        <time>2013-05-04T14:15:15Z</time>
      </trkpt>
      <trkpt lat="43.42813" lon="6.13247">
        <ele>224.80000305176</ele>
        <time>2013-05-04T14:15:18Z</time>
      </trkpt>
      <trkpt lat="43.42808" lon="6.13257">
        <ele>226</ele>
        <time>2013-05-04T14:15:29Z</time>
      </trkpt>
      <trkpt lat="43.42807" lon="6.13259">
        <ele>226.80000305176</ele>
        <time>2013-05-04T14:15:31Z</time>
      </trkpt>
      <trkpt lat="43.42807" lon="6.13261">
        <ele>227.60000610352</ele>
        <time>2013-05-04T14:15:33Z</time>
      </trkpt>
      <trkpt lat="43.42806" lon="6.13264">
        <ele>227.60000610352</ele>
        <time>2013-05-04T14:15:39Z</time>
      </trkpt>
      <trkpt lat="43.42806" lon="6.13264">
        <ele>227.60000610352</ele>
        <time>2013-05-04T14:15:45Z</time>
      </trkpt>
      <trkpt lat="43.42806" lon="6.13264">
        <ele>227.60000610352</ele>
        <time>2013-05-04T14:15:50Z</time>
      </trkpt>
      <trkpt lat="43.42806" lon="6.13264">
        <ele>227.60000610352</ele>
        <time>2013-05-04T14:16:09Z</time>
      </trkpt>
      <trkpt lat="43.42806" lon="6.13264">
        <ele>227.60000610352</ele>
        <time>2013-05-04T14:16:15Z</time>
      </trkpt>
      <trkpt lat="43.42806" lon="6.13264">
        <ele>227.60000610352</ele>
        <time>2013-05-04T14:16:20Z</time>
      </trkpt>
      <trkpt lat="43.42805" lon="6.13264">
        <ele>227.60000610352</ele>
        <time>2013-05-04T14:16:28Z</time>
      </trkpt>
      <trkpt lat="43.42805" lon="6.13264">
        <ele>227.60000610352</ele>
        <time>2013-05-04T14:16:38Z</time>
      </trkpt>
      <trkpt lat="43.42805" lon="6.13264">
        <ele>227.60000610352</ele>
        <time>2013-05-04T14:16:56Z</time>
      </trkpt>
      <trkpt lat="43.42805" lon="6.13265">
        <ele>227.60000610352</ele>
        <time>2013-05-04T14:17:03Z</time>
      </trkpt>
      <trkpt lat="43.42805" lon="6.13265">
        <ele>227.60000610352</ele>
        <time>2013-05-04T14:17:16Z</time>
      </trkpt>
      <trkpt lat="43.42805" lon="6.13265">
        <ele>229.60000610352</ele>
        <time>2013-05-04T14:17:29Z</time>
      </trkpt>
      <trkpt lat="43.42805" lon="6.13266">
        <ele>229.60000610352</ele>
        <time>2013-05-04T14:17:32Z</time>
      </trkpt>
      <trkpt lat="43.42804" lon="6.13268">
        <ele>229.60000610352</ele>
        <time>2013-05-04T14:17:33Z</time>
      </trkpt>
      <trkpt lat="43.42804" lon="6.1327">
        <ele>229.60000610352</ele>
        <time>2013-05-04T14:17:34Z</time>
      </trkpt>
      <trkpt lat="43.42805" lon="6.13273">
        <ele>229.60000610352</ele>
        <time>2013-05-04T14:17:36Z</time>
      </trkpt>
      <trkpt lat="43.42805" lon="6.13279">
        <ele>229.60000610352</ele>
        <time>2013-05-04T14:17:38Z</time>
      </trkpt>
      <trkpt lat="43.42805" lon="6.13283">
        <ele>229.60000610352</ele>
        <time>2013-05-04T14:17:40Z</time>
      </trkpt>
      <trkpt lat="43.42806" lon="6.13285">
        <ele>229.60000610352</ele>
        <time>2013-05-04T14:17:41Z</time>
      </trkpt>
      <trkpt lat="43.42805" lon="6.1329">
        <ele>229.60000610352</ele>
        <time>2013-05-04T14:17:43Z</time>
      </trkpt>
      <trkpt lat="43.42805" lon="6.1329">
        <ele>230.19999694824</ele>
        <time>2013-05-04T14:17:45Z</time>
      </trkpt>
      <trkpt lat="43.42805" lon="6.1329">
        <ele>231.80000305176</ele>
        <time>2013-05-04T14:18:00Z</time>
      </trkpt>
      <trkpt lat="43.42805" lon="6.1329">
        <ele>231.80000305176</ele>
        <time>2013-05-04T14:18:12Z</time>
      </trkpt>
      <trkpt lat="43.42805" lon="6.13289">
        <ele>231.80000305176</ele>
        <time>2013-05-04T14:18:25Z</time>
      </trkpt>
      <trkpt lat="43.42805" lon="6.13289">
        <ele>231.80000305176</ele>
        <time>2013-05-04T14:18:30Z</time>
      </trkpt>
      <trkpt lat="43.42806" lon="6.13289">
        <ele>231.80000305176</ele>
        <time>2013-05-04T14:18:31Z</time>
      </trkpt>
      <trkpt lat="43.42809" lon="6.13292">
        <ele>231.80000305176</ele>
        <time>2013-05-04T14:18:36Z</time>
      </trkpt>
      <trkpt lat="43.42809" lon="6.13293">
        <ele>231.80000305176</ele>
        <time>2013-05-04T14:18:37Z</time>
      </trkpt>
      <trkpt lat="43.42809" lon="6.13293">
        <ele>231.80000305176</ele>
        <time>2013-05-04T14:18:40Z</time>
      </trkpt>
      <trkpt lat="43.42808" lon="6.13293">
        <ele>231.80000305176</ele>
        <time>2013-05-04T14:18:45Z</time>
      </trkpt>
      <trkpt lat="43.42808" lon="6.13293">
        <ele>231.80000305176</ele>
        <time>2013-05-04T14:19:07Z</time>
      </trkpt>
      <trkpt lat="43.42808" lon="6.13293">
        <ele>231.80000305176</ele>
        <time>2013-05-04T14:19:20Z</time>
      </trkpt>
      <trkpt lat="43.42808" lon="6.13293">
        <ele>231.80000305176</ele>
        <time>2013-05-04T14:19:24Z</time>
      </trkpt>
      <trkpt lat="43.42808" lon="6.13293">
        <ele>231.80000305176</ele>
        <time>2013-05-04T14:19:45Z</time>
      </trkpt>
      <trkpt lat="43.42808" lon="6.13293">
        <ele>231.80000305176</ele>
        <time>2013-05-04T14:20:01Z</time>
      </trkpt>
      <trkpt lat="43.42807" lon="6.13295">
        <ele>231.80000305176</ele>
        <time>2013-05-04T14:20:06Z</time>
      </trkpt>
      <trkpt lat="43.42804" lon="6.13307">
        <ele>231.80000305176</ele>
        <time>2013-05-04T14:20:14Z</time>
      </trkpt>
      <trkpt lat="43.42803" lon="6.13309">
        <ele>232.19999694824</ele>
        <time>2013-05-04T14:20:16Z</time>
      </trkpt>
      <trkpt lat="43.42804" lon="6.13311">
        <ele>232.60000610352</ele>
        <time>2013-05-04T14:20:17Z</time>
      </trkpt>
      <trkpt lat="43.42804" lon="6.13315">
        <ele>233.60000610352</ele>
        <time>2013-05-04T14:20:19Z</time>
      </trkpt>
      <trkpt lat="43.42806" lon="6.13319">
        <ele>234</ele>
        <time>2013-05-04T14:20:21Z</time>
      </trkpt>
      <trkpt lat="43.42807" lon="6.13322">
        <ele>234</ele>
        <time>2013-05-04T14:20:23Z</time>
      </trkpt>
      <trkpt lat="43.42808" lon="6.13323">
        <ele>234.39999389648</ele>
        <time>2013-05-04T14:20:24Z</time>
      </trkpt>
      <trkpt lat="43.4281" lon="6.13325">
        <ele>235.19999694824</ele>
        <time>2013-05-04T14:20:26Z</time>
      </trkpt>
      <trkpt lat="43.42814" lon="6.1333">
        <ele>236</ele>
        <time>2013-05-04T14:20:30Z</time>
      </trkpt>
      <trkpt lat="43.4282" lon="6.13336">
        <ele>236</ele>
        <time>2013-05-04T14:20:36Z</time>
      </trkpt>
      <trkpt lat="43.42828" lon="6.13343">
        <ele>236</ele>
        <time>2013-05-04T14:20:43Z</time>
      </trkpt>
      <trkpt lat="43.4283" lon="6.13348">
        <ele>236</ele>
        <time>2013-05-04T14:20:47Z</time>
      </trkpt>
      <trkpt lat="43.42824" lon="6.13359">
        <ele>236.80000305176</ele>
        <time>2013-05-04T14:20:54Z</time>
      </trkpt>
      <trkpt lat="43.4282" lon="6.13363">
        <ele>238</ele>
        <time>2013-05-04T14:20:58Z</time>
      </trkpt>
      <trkpt lat="43.42818" lon="6.13366">
        <ele>238</ele>
        <time>2013-05-04T14:21:01Z</time>
      </trkpt>
      <trkpt lat="43.42815" lon="6.1337">
        <ele>239.60000610352</ele>
        <time>2013-05-04T14:21:05Z</time>
      </trkpt>
      <trkpt lat="43.42814" lon="6.13372">
        <ele>240</ele>
        <time>2013-05-04T14:21:06Z</time>
      </trkpt>
      <trkpt lat="43.42813" lon="6.1338">
        <ele>240</ele>
        <time>2013-05-04T14:21:11Z</time>
      </trkpt>
      <trkpt lat="43.42812" lon="6.13382">
        <ele>240.80000305176</ele>
        <time>2013-05-04T14:21:13Z</time>
      </trkpt>
      <trkpt lat="43.4281" lon="6.13384">
        <ele>242</ele>
        <time>2013-05-04T14:21:15Z</time>
      </trkpt>
      <trkpt lat="43.42809" lon="6.13388">
        <ele>242</ele>
        <time>2013-05-04T14:21:17Z</time>
      </trkpt>
      <trkpt lat="43.42809" lon="6.13389">
        <ele>242</ele>
        <time>2013-05-04T14:21:18Z</time>
      </trkpt>
      <trkpt lat="43.42806" lon="6.13394">
        <ele>242</ele>
        <time>2013-05-04T14:21:24Z</time>
      </trkpt>
      <trkpt lat="43.42806" lon="6.13394">
        <ele>242</ele>
        <time>2013-05-04T14:21:42Z</time>
      </trkpt>
      <trkpt lat="43.42806" lon="6.13394">
        <ele>242</ele>
        <time>2013-05-04T14:22:44Z</time>
      </trkpt>
      <trkpt lat="43.42806" lon="6.13394">
        <ele>242</ele>
        <time>2013-05-04T14:22:56Z</time>
      </trkpt>
      <trkpt lat="43.42805" lon="6.13397">
        <ele>242</ele>
        <time>2013-05-04T14:23:02Z</time>
      </trkpt>
      <trkpt lat="43.42804" lon="6.134">
        <ele>242</ele>
        <time>2013-05-04T14:23:04Z</time>
      </trkpt>
      <trkpt lat="43.42801" lon="6.13408">
        <ele>242.80000305176</ele>
        <time>2013-05-04T14:23:08Z</time>
      </trkpt>
      <trkpt lat="43.42801" lon="6.13409">
        <ele>243.19999694824</ele>
        <time>2013-05-04T14:23:09Z</time>
      </trkpt>
      <trkpt lat="43.42802" lon="6.13414">
        <ele>244</ele>
        <time>2013-05-04T14:23:11Z</time>
      </trkpt>
      <trkpt lat="43.42804" lon="6.1342">
        <ele>244</ele>
        <time>2013-05-04T14:23:14Z</time>
      </trkpt>
      <trkpt lat="43.42807" lon="6.13431">
        <ele>245</ele>
        <time>2013-05-04T14:23:22Z</time>
      </trkpt>
      <trkpt lat="43.42807" lon="6.13433">
        <ele>245.39999389648</ele>
        <time>2013-05-04T14:23:23Z</time>
      </trkpt>
      <trkpt lat="43.42807" lon="6.13436">
        <ele>246.19999694824</ele>
        <time>2013-05-04T14:23:25Z</time>
      </trkpt>
      <trkpt lat="43.42806" lon="6.13443">
        <ele>246.19999694824</ele>
        <time>2013-05-04T14:23:29Z</time>
      </trkpt>
      <trkpt lat="43.42805" lon="6.1345">
        <ele>246.19999694824</ele>
        <time>2013-05-04T14:23:33Z</time>
      </trkpt>
      <trkpt lat="43.42805" lon="6.13455">
        <ele>246.19999694824</ele>
        <time>2013-05-04T14:23:36Z</time>
      </trkpt>
      <trkpt lat="43.42807" lon="6.13465">
        <ele>246.60000610352</ele>
        <time>2013-05-04T14:23:40Z</time>
      </trkpt>
      <trkpt lat="43.42807" lon="6.13473">
        <ele>248.39999389648</ele>
        <time>2013-05-04T14:23:43Z</time>
      </trkpt>
      <trkpt lat="43.42809" lon="6.1348">
        <ele>249.19999694824</ele>
        <time>2013-05-04T14:23:46Z</time>
      </trkpt>
      <trkpt lat="43.4281" lon="6.13482">
        <ele>249.60000610352</ele>
        <time>2013-05-04T14:23:47Z</time>
      </trkpt>
      <trkpt lat="43.4281" lon="6.13491">
        <ele>250.39999389648</ele>
        <time>2013-05-04T14:23:52Z</time>
      </trkpt>
      <trkpt lat="43.42812" lon="6.13499">
        <ele>250.80000305176</ele>
        <time>2013-05-04T14:23:57Z</time>
      </trkpt>
      <trkpt lat="43.42813" lon="6.13506">
        <ele>252.60000610352</ele>
        <time>2013-05-04T14:24:01Z</time>
      </trkpt>
      <trkpt lat="43.42815" lon="6.13515">
        <ele>253</ele>
        <time>2013-05-04T14:24:06Z</time>
      </trkpt>
      <trkpt lat="43.42815" lon="6.1352">
        <ele>254.60000610352</ele>
        <time>2013-05-04T14:24:10Z</time>
      </trkpt>
      <trkpt lat="43.42814" lon="6.13527">
        <ele>254.60000610352</ele>
        <time>2013-05-04T14:24:14Z</time>
      </trkpt>
      <trkpt lat="43.42813" lon="6.13533">
        <ele>256.60000610352</ele>
        <time>2013-05-04T14:24:19Z</time>
      </trkpt>
      <trkpt lat="43.4281" lon="6.13541">
        <ele>256.60000610352</ele>
        <time>2013-05-04T14:24:26Z</time>
      </trkpt>
      <trkpt lat="43.42808" lon="6.13544">
        <ele>256.60000610352</ele>
        <time>2013-05-04T14:24:31Z</time>
      </trkpt>
      <trkpt lat="43.42807" lon="6.13547">
        <ele>258.39999389648</ele>
        <time>2013-05-04T14:24:34Z</time>
      </trkpt>
      <trkpt lat="43.42807" lon="6.1355">
        <ele>258.79998779297</ele>
        <time>2013-05-04T14:24:36Z</time>
      </trkpt>
      <trkpt lat="43.42805" lon="6.13554">
        <ele>258.79998779297</ele>
        <time>2013-05-04T14:24:39Z</time>
      </trkpt>
      <trkpt lat="43.42805" lon="6.13554">
        <ele>258.79998779297</ele>
        <time>2013-05-04T14:24:44Z</time>
      </trkpt>
      <trkpt lat="43.42805" lon="6.13554">
        <ele>258.79998779297</ele>
        <time>2013-05-04T14:24:55Z</time>
      </trkpt>
      <trkpt lat="43.42805" lon="6.13554">
        <ele>258.79998779297</ele>
        <time>2013-05-04T14:25:00Z</time>
      </trkpt>
      <trkpt lat="43.42805" lon="6.13556">
        <ele>258.79998779297</ele>
        <time>2013-05-04T14:25:04Z</time>
      </trkpt>
      <trkpt lat="43.42805" lon="6.13556">
        <ele>258.79998779297</ele>
        <time>2013-05-04T14:25:17Z</time>
      </trkpt>
      <trkpt lat="43.42805" lon="6.13556">
        <ele>258.79998779297</ele>
        <time>2013-05-04T14:25:41Z</time>
      </trkpt>
      <trkpt lat="43.42805" lon="6.13556">
        <ele>258.79998779297</ele>
        <time>2013-05-04T14:25:47Z</time>
      </trkpt>
      <trkpt lat="43.42805" lon="6.13556">
        <ele>258.79998779297</ele>
        <time>2013-05-04T14:26:15Z</time>
      </trkpt>
      <trkpt lat="43.42805" lon="6.13556">
        <ele>258.79998779297</ele>
        <time>2013-05-04T14:26:54Z</time>
      </trkpt>
      <trkpt lat="43.42805" lon="6.13556">
        <ele>258.79998779297</ele>
        <time>2013-05-04T14:27:05Z</time>
      </trkpt>
      <trkpt lat="43.42805" lon="6.13556">
        <ele>258.79998779297</ele>
        <time>2013-05-04T14:27:17Z</time>
      </trkpt>
      <trkpt lat="43.42805" lon="6.13557">
        <ele>258.79998779297</ele>
        <time>2013-05-04T14:27:19Z</time>
      </trkpt>
      <trkpt lat="43.42803" lon="6.13562">
        <ele>258.79998779297</ele>
        <time>2013-05-04T14:27:23Z</time>
      </trkpt>
      <trkpt lat="43.42802" lon="6.13571">
        <ele>258.79998779297</ele>
        <time>2013-05-04T14:27:29Z</time>
      </trkpt>
      <trkpt lat="43.42798" lon="6.13584">
        <ele>258.79998779297</ele>
        <time>2013-05-04T14:27:36Z</time>
      </trkpt>
      <trkpt lat="43.42797" lon="6.13594">
        <ele>258.79998779297</ele>
        <time>2013-05-04T14:27:42Z</time>
      </trkpt>
      <trkpt lat="43.42796" lon="6.13596">
        <ele>258.79998779297</ele>
        <time>2013-05-04T14:27:43Z</time>
      </trkpt>
      <trkpt lat="43.42794" lon="6.13597">
        <ele>259.20001220703</ele>
        <time>2013-05-04T14:27:45Z</time>
      </trkpt>
      <trkpt lat="43.42789" lon="6.13598">
        <ele>260.79998779297</ele>
        <time>2013-05-04T14:27:49Z</time>
      </trkpt>
      <trkpt lat="43.42785" lon="6.13592">
        <ele>261.20001220703</ele>
        <time>2013-05-04T14:27:55Z</time>
      </trkpt>
      <trkpt lat="43.42785" lon="6.13588">
        <ele>262.39999389648</ele>
        <time>2013-05-04T14:27:58Z</time>
      </trkpt>
      <trkpt lat="43.42784" lon="6.13588">
        <ele>262.79998779297</ele>
        <time>2013-05-04T14:27:59Z</time>
      </trkpt>
      <trkpt lat="43.42783" lon="6.13581">
        <ele>262.79998779297</ele>
        <time>2013-05-04T14:28:04Z</time>
      </trkpt>
      <trkpt lat="43.42785" lon="6.13566">
        <ele>264.79998779297</ele>
        <time>2013-05-04T14:28:13Z</time>
      </trkpt>
      <trkpt lat="43.42782" lon="6.13557">
        <ele>264.79998779297</ele>
        <time>2013-05-04T14:28:19Z</time>
      </trkpt>
      <trkpt lat="43.42779" lon="6.1355">
        <ele>266</ele>
        <time>2013-05-04T14:28:24Z</time>
      </trkpt>
      <trkpt lat="43.42779" lon="6.13549">
        <ele>266.39999389648</ele>
        <time>2013-05-04T14:28:25Z</time>
      </trkpt>
      <trkpt lat="43.42774" lon="6.13543">
        <ele>266.79998779297</ele>
        <time>2013-05-04T14:28:31Z</time>
      </trkpt>
      <trkpt lat="43.42769" lon="6.13535">
        <ele>268.20001220703</ele>
        <time>2013-05-04T14:28:39Z</time>
      </trkpt>
      <trkpt lat="43.42767" lon="6.13533">
        <ele>269</ele>
        <time>2013-05-04T14:28:41Z</time>
      </trkpt>
      <trkpt lat="43.42758" lon="6.13526">
        <ele>269</ele>
        <time>2013-05-04T14:28:50Z</time>
      </trkpt>
      <trkpt lat="43.42754" lon="6.13522">
        <ele>269.79998779297</ele>
        <time>2013-05-04T14:28:54Z</time>
      </trkpt>
      <trkpt lat="43.42753" lon="6.13522">
        <ele>270.20001220703</ele>
        <time>2013-05-04T14:28:55Z</time>
      </trkpt>
      <trkpt lat="43.42752" lon="6.13519">
        <ele>271</ele>
        <time>2013-05-04T14:28:57Z</time>
      </trkpt>
      <trkpt lat="43.42742" lon="6.13507">
        <ele>271.39999389648</ele>
        <time>2013-05-04T14:29:09Z</time>
      </trkpt>
      <trkpt lat="43.4274" lon="6.13506">
        <ele>272.20001220703</ele>
        <time>2013-05-04T14:29:11Z</time>
      </trkpt>
      <trkpt lat="43.42739" lon="6.13503">
        <ele>273.20001220703</ele>
        <time>2013-05-04T14:29:13Z</time>
      </trkpt>
      <trkpt lat="43.42736" lon="6.13497">
        <ele>273.20001220703</ele>
        <time>2013-05-04T14:29:18Z</time>
      </trkpt>
      <trkpt lat="43.42728" lon="6.13481">
        <ele>273.20001220703</ele>
        <time>2013-05-04T14:29:31Z</time>
      </trkpt>
      <trkpt lat="43.42726" lon="6.13473">
        <ele>273.60000610352</ele>
        <time>2013-05-04T14:29:37Z</time>
      </trkpt>
      <trkpt lat="43.42724" lon="6.13469">
        <ele>274.79998779297</ele>
        <time>2013-05-04T14:29:40Z</time>
      </trkpt>
      <trkpt lat="43.42715" lon="6.13461">
        <ele>275.20001220703</ele>
        <time>2013-05-04T14:29:50Z</time>
      </trkpt>
      <trkpt lat="43.42709" lon="6.13456">
        <ele>277.20001220703</ele>
        <time>2013-05-04T14:29:56Z</time>
      </trkpt>
      <trkpt lat="43.42705" lon="6.13448">
        <ele>277.20001220703</ele>
        <time>2013-05-04T14:30:03Z</time>
      </trkpt>
      <trkpt lat="43.42699" lon="6.13439">
        <ele>278</ele>
        <time>2013-05-04T14:30:11Z</time>
      </trkpt>
      <trkpt lat="43.42696" lon="6.13435">
        <ele>279.20001220703</ele>
        <time>2013-05-04T14:30:14Z</time>
      </trkpt>
      <trkpt lat="43.42695" lon="6.13433">
        <ele>279.20001220703</ele>
        <time>2013-05-04T14:30:16Z</time>
      </trkpt>
      <trkpt lat="43.42694" lon="6.13433">
        <ele>279.20001220703</ele>
        <time>2013-05-04T14:30:17Z</time>
      </trkpt>
      <trkpt lat="43.42688" lon="6.13428">
        <ele>279.20001220703</ele>
        <time>2013-05-04T14:30:24Z</time>
      </trkpt>
      <trkpt lat="43.42686" lon="6.13428">
        <ele>279.60000610352</ele>
        <time>2013-05-04T14:30:26Z</time>
      </trkpt>
      <trkpt lat="43.42684" lon="6.13429">
        <ele>280.60000610352</ele>
        <time>2013-05-04T14:30:28Z</time>
      </trkpt>
      <trkpt lat="43.4268" lon="6.13431">
        <ele>281.39999389648</ele>
        <time>2013-05-04T14:30:33Z</time>
      </trkpt>
      <trkpt lat="43.42677" lon="6.13449">
        <ele>282.60000610352</ele>
        <time>2013-05-04T14:30:45Z</time>
      </trkpt>
      <trkpt lat="43.42677" lon="6.13451">
        <ele>283.39999389648</ele>
        <time>2013-05-04T14:30:47Z</time>
      </trkpt>
      <trkpt lat="43.42677" lon="6.13462">
        <ele>283.39999389648</ele>
        <time>2013-05-04T14:30:55Z</time>
      </trkpt>
      <trkpt lat="43.42676" lon="6.13468">
        <ele>283.39999389648</ele>
        <time>2013-05-04T14:31:00Z</time>
      </trkpt>
      <trkpt lat="43.42677" lon="6.13473">
        <ele>283.39999389648</ele>
        <time>2013-05-04T14:31:03Z</time>
      </trkpt>
      <trkpt lat="43.42675" lon="6.13479">
        <ele>284.20001220703</ele>
        <time>2013-05-04T14:31:08Z</time>
      </trkpt>
      <trkpt lat="43.42674" lon="6.13482">
        <ele>285.39999389648</ele>
        <time>2013-05-04T14:31:10Z</time>
      </trkpt>
      <trkpt lat="43.42672" lon="6.13491">
        <ele>285.39999389648</ele>
        <time>2013-05-04T14:31:16Z</time>
      </trkpt>
      <trkpt lat="43.42667" lon="6.13498">
        <ele>285.39999389648</ele>
        <time>2013-05-04T14:31:23Z</time>
      </trkpt>
      <trkpt lat="43.42665" lon="6.13503">
        <ele>285.79998779297</ele>
        <time>2013-05-04T14:31:28Z</time>
      </trkpt>
      <trkpt lat="43.42665" lon="6.13504">
        <ele>286.20001220703</ele>
        <time>2013-05-04T14:31:29Z</time>
      </trkpt>
      <trkpt lat="43.42664" lon="6.13504">
        <ele>286.60000610352</ele>
        <time>2013-05-04T14:31:30Z</time>
      </trkpt>
      <trkpt lat="43.42664" lon="6.13504">
        <ele>287</ele>
        <time>2013-05-04T14:31:31Z</time>
      </trkpt>
      <trkpt lat="43.42664" lon="6.13504">
        <ele>287.39999389648</ele>
        <time>2013-05-04T14:31:32Z</time>
      </trkpt>
      <trkpt lat="43.42664" lon="6.13504">
        <ele>287.39999389648</ele>
        <time>2013-05-04T14:31:49Z</time>
      </trkpt>
      <trkpt lat="43.42664" lon="6.13504">
        <ele>287.39999389648</ele>
        <time>2013-05-04T14:32:23Z</time>
      </trkpt>
      <trkpt lat="43.42664" lon="6.13504">
        <ele>287.39999389648</ele>
        <time>2013-05-04T14:32:35Z</time>
      </trkpt>
      <trkpt lat="43.42664" lon="6.13504">
        <ele>287.39999389648</ele>
        <time>2013-05-04T14:33:16Z</time>
      </trkpt>
      <trkpt lat="43.42664" lon="6.13504">
        <ele>287.39999389648</ele>
        <time>2013-05-04T14:33:26Z</time>
      </trkpt>
      <trkpt lat="43.42664" lon="6.13505">
        <ele>287.39999389648</ele>
        <time>2013-05-04T14:33:34Z</time>
      </trkpt>
      <trkpt lat="43.42664" lon="6.13505">
        <ele>287.39999389648</ele>
        <time>2013-05-04T14:33:41Z</time>
      </trkpt>
      <trkpt lat="43.42664" lon="6.13505">
        <ele>287.39999389648</ele>
        <time>2013-05-04T14:33:49Z</time>
      </trkpt>
      <trkpt lat="43.42664" lon="6.13505">
        <ele>287.39999389648</ele>
        <time>2013-05-04T14:33:57Z</time>
      </trkpt>
      <trkpt lat="43.42662" lon="6.13506">
        <ele>287.39999389648</ele>
        <time>2013-05-04T14:33:59Z</time>
      </trkpt>
      <trkpt lat="43.42659" lon="6.13509">
        <ele>287.39999389648</ele>
        <time>2013-05-04T14:34:02Z</time>
      </trkpt>
      <trkpt lat="43.42658" lon="6.13511">
        <ele>287.39999389648</ele>
        <time>2013-05-04T14:34:03Z</time>
      </trkpt>
      <trkpt lat="43.42655" lon="6.13516">
        <ele>287.79998779297</ele>
        <time>2013-05-04T14:34:07Z</time>
      </trkpt>
      <trkpt lat="43.42654" lon="6.13521">
        <ele>289.39999389648</ele>
        <time>2013-05-04T14:34:11Z</time>
      </trkpt>
      <trkpt lat="43.4265" lon="6.13534">
        <ele>289.39999389648</ele>
        <time>2013-05-04T14:34:17Z</time>
      </trkpt>
      <trkpt lat="43.42647" lon="6.13542">
        <ele>289.39999389648</ele>
        <time>2013-05-04T14:34:22Z</time>
      </trkpt>
      <trkpt lat="43.42646" lon="6.13544">
        <ele>289.39999389648</ele>
        <time>2013-05-04T14:34:23Z</time>
      </trkpt>
      <trkpt lat="43.42644" lon="6.13559">
        <ele>289.39999389648</ele>
        <time>2013-05-04T14:34:29Z</time>
      </trkpt>
      <trkpt lat="43.42643" lon="6.13562">
        <ele>289.39999389648</ele>
        <time>2013-05-04T14:34:31Z</time>
      </trkpt>
      <trkpt lat="43.42643" lon="6.13564">
        <ele>289.79998779297</ele>
        <time>2013-05-04T14:34:32Z</time>
      </trkpt>
      <trkpt lat="43.42643" lon="6.13567">
        <ele>290.79998779297</ele>
        <time>2013-05-04T14:34:34Z</time>
      </trkpt>
      <trkpt lat="43.42643" lon="6.13574">
        <ele>291.79998779297</ele>
        <time>2013-05-04T14:34:38Z</time>
      </trkpt>
      <trkpt lat="43.42643" lon="6.13583">
        <ele>291.79998779297</ele>
        <time>2013-05-04T14:34:44Z</time>
      </trkpt>
      <trkpt lat="43.42643" lon="6.13597">
        <ele>293.39999389648</ele>
        <time>2013-05-04T14:34:53Z</time>
      </trkpt>
      <trkpt lat="43.42643" lon="6.13603">
        <ele>293.79998779297</ele>
        <time>2013-05-04T14:34:56Z</time>
      </trkpt>
      <trkpt lat="43.42643" lon="6.13616">
        <ele>293.79998779297</ele>
        <time>2013-05-04T14:35:03Z</time>
      </trkpt>
      <trkpt lat="43.42642" lon="6.13628">
        <ele>293.79998779297</ele>
        <time>2013-05-04T14:35:11Z</time>
      </trkpt>
      <trkpt lat="43.42643" lon="6.13635">
        <ele>294.20001220703</ele>
        <time>2013-05-04T14:35:16Z</time>
      </trkpt>
      <trkpt lat="43.42643" lon="6.13639">
        <ele>295.20001220703</ele>
        <time>2013-05-04T14:35:18Z</time>
      </trkpt>
      <trkpt lat="43.42644" lon="6.13652">
        <ele>296</ele>
        <time>2013-05-04T14:35:23Z</time>
      </trkpt>
      <trkpt lat="43.42643" lon="6.13671">
        <ele>296</ele>
        <time>2013-05-04T14:35:32Z</time>
      </trkpt>
      <trkpt lat="43.42643" lon="6.13694">
        <ele>296</ele>
        <time>2013-05-04T14:35:41Z</time>
      </trkpt>
      <trkpt lat="43.42642" lon="6.13711">
        <ele>296</ele>
        <time>2013-05-04T14:35:47Z</time>
      </trkpt>
      <trkpt lat="43.42642" lon="6.13731">
        <ele>296</ele>
        <time>2013-05-04T14:35:53Z</time>
      </trkpt>
      <trkpt lat="43.42642" lon="6.13737">
        <ele>296</ele>
        <time>2013-05-04T14:35:55Z</time>
      </trkpt>
      <trkpt lat="43.42642" lon="6.13749">
        <ele>296</ele>
        <time>2013-05-04T14:35:59Z</time>
      </trkpt>
      <trkpt lat="43.42642" lon="6.13754">
        <ele>296</ele>
        <time>2013-05-04T14:36:01Z</time>
      </trkpt>
      <trkpt lat="43.42641" lon="6.1377">
        <ele>296.79998779297</ele>
        <time>2013-05-04T14:36:08Z</time>
      </trkpt>
      <trkpt lat="43.42642" lon="6.13774">
        <ele>298</ele>
        <time>2013-05-04T14:36:11Z</time>
      </trkpt>
      <trkpt lat="43.42642" lon="6.13778">
        <ele>298</ele>
        <time>2013-05-04T14:36:15Z</time>
      </trkpt>
      <trkpt lat="43.42642" lon="6.1378">
        <ele>298</ele>
        <time>2013-05-04T14:36:16Z</time>
      </trkpt>
      <trkpt lat="43.42643" lon="6.13789">
        <ele>298</ele>
        <time>2013-05-04T14:36:21Z</time>
      </trkpt>
      <trkpt lat="43.42644" lon="6.13792">
        <ele>298</ele>
        <time>2013-05-04T14:36:23Z</time>
      </trkpt>
      <trkpt lat="43.42645" lon="6.13806">
        <ele>298</ele>
        <time>2013-05-04T14:36:28Z</time>
      </trkpt>
      <trkpt lat="43.42649" lon="6.13831">
        <ele>298</ele>
        <time>2013-05-04T14:36:34Z</time>
      </trkpt>
      <trkpt lat="43.42648" lon="6.13852">
        <ele>297.60000610352</ele>
        <time>2013-05-04T14:36:38Z</time>
      </trkpt>
      <trkpt lat="43.42646" lon="6.13863">
        <ele>296.60000610352</ele>
        <time>2013-05-04T14:36:40Z</time>
      </trkpt>
      <trkpt lat="43.42641" lon="6.13873">
        <ele>295.79998779297</ele>
        <time>2013-05-04T14:36:42Z</time>
      </trkpt>
      <trkpt lat="43.42638" lon="6.13879">
        <ele>295.79998779297</ele>
        <time>2013-05-04T14:36:43Z</time>
      </trkpt>
      <trkpt lat="43.42635" lon="6.13884">
        <ele>295.79998779297</ele>
        <time>2013-05-04T14:36:44Z</time>
      </trkpt>
      <trkpt lat="43.42629" lon="6.13896">
        <ele>295.39999389648</ele>
        <time>2013-05-04T14:36:46Z</time>
      </trkpt>
      <trkpt lat="43.42624" lon="6.13907">
        <ele>294.60000610352</ele>
        <time>2013-05-04T14:36:48Z</time>
      </trkpt>
      <trkpt lat="43.42622" lon="6.13912">
        <ele>294</ele>
        <time>2013-05-04T14:36:49Z</time>
      </trkpt>
      <trkpt lat="43.42619" lon="6.13918">
        <ele>293.60000610352</ele>
        <time>2013-05-04T14:36:50Z</time>
      </trkpt>
      <trkpt lat="43.42616" lon="6.13931">
        <ele>293.60000610352</ele>
        <time>2013-05-04T14:36:52Z</time>
      </trkpt>
      <trkpt lat="43.42612" lon="6.13951">
        <ele>292.79998779297</ele>
        <time>2013-05-04T14:36:55Z</time>
      </trkpt>
      <trkpt lat="43.42612" lon="6.13958">
        <ele>292.39999389648</ele>
        <time>2013-05-04T14:36:56Z</time>
      </trkpt>
      <trkpt lat="43.42612" lon="6.13964">
        <ele>292</ele>
        <time>2013-05-04T14:36:57Z</time>
      </trkpt>
      <trkpt lat="43.4261" lon="6.13971">
        <ele>291.60000610352</ele>
        <time>2013-05-04T14:36:58Z</time>
      </trkpt>
      <trkpt lat="43.42595" lon="6.14005">
        <ele>290.60000610352</ele>
        <time>2013-05-04T14:37:04Z</time>
      </trkpt>
      <trkpt lat="43.42594" lon="6.14009">
        <ele>290.20001220703</ele>
        <time>2013-05-04T14:37:05Z</time>
      </trkpt>
      <trkpt lat="43.42595" lon="6.14019">
        <ele>289.20001220703</ele>
        <time>2013-05-04T14:37:07Z</time>
      </trkpt>
      <trkpt lat="43.42592" lon="6.14045">
        <ele>289.20001220703</ele>
        <time>2013-05-04T14:37:12Z</time>
      </trkpt>
      <trkpt lat="43.42577" lon="6.14081">
        <ele>288.79998779297</ele>
        <time>2013-05-04T14:37:20Z</time>
      </trkpt>
      <trkpt lat="43.42572" lon="6.14099">
        <ele>287</ele>
        <time>2013-05-04T14:37:24Z</time>
      </trkpt>
      <trkpt lat="43.42567" lon="6.14116">
        <ele>287</ele>
        <time>2013-05-04T14:37:28Z</time>
      </trkpt>
      <trkpt lat="43.42564" lon="6.14138">
        <ele>287</ele>
        <time>2013-05-04T14:37:33Z</time>
      </trkpt>
      <trkpt lat="43.42565" lon="6.14164">
        <ele>287</ele>
        <time>2013-05-04T14:37:38Z</time>
      </trkpt>
      <trkpt lat="43.42569" lon="6.14199">
        <ele>287</ele>
        <time>2013-05-04T14:37:44Z</time>
      </trkpt>
      <trkpt lat="43.42572" lon="6.14208">
        <ele>287</ele>
        <time>2013-05-04T14:37:47Z</time>
      </trkpt>
      <trkpt lat="43.42572" lon="6.14209">
        <ele>287</ele>
        <time>2013-05-04T14:37:48Z</time>
      </trkpt>
      <trkpt lat="43.42575" lon="6.1421">
        <ele>287</ele>
        <time>2013-05-04T14:37:53Z</time>
      </trkpt>
      <trkpt lat="43.42575" lon="6.1421">
        <ele>285</ele>
        <time>2013-05-04T14:38:16Z</time>
      </trkpt>
      <trkpt lat="43.42575" lon="6.14209">
        <ele>285</ele>
        <time>2013-05-04T14:38:50Z</time>
      </trkpt>
      <trkpt lat="43.42575" lon="6.14209">
        <ele>285</ele>
        <time>2013-05-04T14:39:03Z</time>
      </trkpt>
      <trkpt lat="43.42576" lon="6.1421">
        <ele>285</ele>
        <time>2013-05-04T14:39:12Z</time>
      </trkpt>
      <trkpt lat="43.42576" lon="6.1421">
        <ele>285</ele>
        <time>2013-05-04T14:39:40Z</time>
      </trkpt>
      <trkpt lat="43.42576" lon="6.1421">
        <ele>285</ele>
        <time>2013-05-04T14:39:53Z</time>
      </trkpt>
      <trkpt lat="43.42576" lon="6.1421">
        <ele>285</ele>
        <time>2013-05-04T14:40:17Z</time>
      </trkpt>
      <trkpt lat="43.42576" lon="6.1421">
        <ele>285</ele>
        <time>2013-05-04T14:40:29Z</time>
      </trkpt>
      <trkpt lat="43.42576" lon="6.1421">
        <ele>285</ele>
        <time>2013-05-04T14:40:55Z</time>
      </trkpt>
      <trkpt lat="43.42579" lon="6.14211">
        <ele>285</ele>
        <time>2013-05-04T14:40:57Z</time>
      </trkpt>
      <trkpt lat="43.42584" lon="6.14213">
        <ele>285</ele>
        <time>2013-05-04T14:41:00Z</time>
      </trkpt>
      <trkpt lat="43.42587" lon="6.14214">
        <ele>284</ele>
        <time>2013-05-04T14:41:02Z</time>
      </trkpt>
      <trkpt lat="43.42589" lon="6.14214">
        <ele>283.60000610352</ele>
        <time>2013-05-04T14:41:03Z</time>
      </trkpt>
      <trkpt lat="43.42591" lon="6.14214">
        <ele>283</ele>
        <time>2013-05-04T14:41:04Z</time>
      </trkpt>
      <trkpt lat="43.42595" lon="6.14213">
        <ele>282</ele>
        <time>2013-05-04T14:41:06Z</time>
      </trkpt>
      <trkpt lat="43.42601" lon="6.1421">
        <ele>280.39999389648</ele>
        <time>2013-05-04T14:41:09Z</time>
      </trkpt>
      <trkpt lat="43.42605" lon="6.14208">
        <ele>279.60000610352</ele>
        <time>2013-05-04T14:41:11Z</time>
      </trkpt>
      <trkpt lat="43.42609" lon="6.14209">
        <ele>278.20001220703</ele>
        <time>2013-05-04T14:41:14Z</time>
      </trkpt>
      <trkpt lat="43.42611" lon="6.14209">
        <ele>277.79998779297</ele>
        <time>2013-05-04T14:41:15Z</time>
      </trkpt>
      <trkpt lat="43.42612" lon="6.1421">
        <ele>277.20001220703</ele>
        <time>2013-05-04T14:41:16Z</time>
      </trkpt>
      <trkpt lat="43.42613" lon="6.1421">
        <ele>276.79998779297</ele>
        <time>2013-05-04T14:41:17Z</time>
      </trkpt>
      <trkpt lat="43.42616" lon="6.14208">
        <ele>275.79998779297</ele>
        <time>2013-05-04T14:41:19Z</time>
      </trkpt>
      <trkpt lat="43.42618" lon="6.14206">
        <ele>275.39999389648</ele>
        <time>2013-05-04T14:41:21Z</time>
      </trkpt>
      <trkpt lat="43.42619" lon="6.14206">
        <ele>275</ele>
        <time>2013-05-04T14:41:22Z</time>
      </trkpt>
      <trkpt lat="43.42619" lon="6.14206">
        <ele>273.79998779297</ele>
        <time>2013-05-04T14:41:35Z</time>
      </trkpt>
      <trkpt lat="43.4262" lon="6.14206">
        <ele>273.79998779297</ele>
        <time>2013-05-04T14:41:43Z</time>
      </trkpt>
      <trkpt lat="43.42621" lon="6.14205">
        <ele>273.79998779297</ele>
        <time>2013-05-04T14:41:44Z</time>
      </trkpt>
      <trkpt lat="43.42625" lon="6.14203">
        <ele>273.20001220703</ele>
        <time>2013-05-04T14:41:46Z</time>
      </trkpt>
      <trkpt lat="43.42628" lon="6.142">
        <ele>272.39999389648</ele>
        <time>2013-05-04T14:41:48Z</time>
      </trkpt>
      <trkpt lat="43.42632" lon="6.14198">
        <ele>272</ele>
        <time>2013-05-04T14:41:49Z</time>
      </trkpt>
      <trkpt lat="43.42635" lon="6.14196">
        <ele>271.39999389648</ele>
        <time>2013-05-04T14:41:50Z</time>
      </trkpt>
      <trkpt lat="43.42645" lon="6.14188">
        <ele>269.39999389648</ele>
        <time>2013-05-04T14:41:53Z</time>
      </trkpt>
      <trkpt lat="43.42646" lon="6.14187">
        <ele>269</ele>
        <time>2013-05-04T14:41:54Z</time>
      </trkpt>
      <trkpt lat="43.42648" lon="6.14186">
        <ele>268.60000610352</ele>
        <time>2013-05-04T14:41:55Z</time>
      </trkpt>
      <trkpt lat="43.4265" lon="6.14186">
        <ele>268</ele>
        <time>2013-05-04T14:41:56Z</time>
      </trkpt>
      <trkpt lat="43.42653" lon="6.14185">
        <ele>267.60000610352</ele>
        <time>2013-05-04T14:41:57Z</time>
      </trkpt>
      <trkpt lat="43.42667" lon="6.14176">
        <ele>266.20001220703</ele>
        <time>2013-05-04T14:42:00Z</time>
      </trkpt>
      <trkpt lat="43.42672" lon="6.14175">
        <ele>265.79998779297</ele>
        <time>2013-05-04T14:42:01Z</time>
      </trkpt>
      <trkpt lat="43.4268" lon="6.14172">
        <ele>264.79998779297</ele>
        <time>2013-05-04T14:42:03Z</time>
      </trkpt>
      <trkpt lat="43.42693" lon="6.14169">
        <ele>264.39999389648</ele>
        <time>2013-05-04T14:42:06Z</time>
      </trkpt>
      <trkpt lat="43.42702" lon="6.14172">
        <ele>263.39999389648</ele>
        <time>2013-05-04T14:42:08Z</time>
      </trkpt>
      <trkpt lat="43.42712" lon="6.14174">
        <ele>262.39999389648</ele>
        <time>2013-05-04T14:42:10Z</time>
      </trkpt>
      <trkpt lat="43.42715" lon="6.14173">
        <ele>262.39999389648</ele>
        <time>2013-05-04T14:42:11Z</time>
      </trkpt>
      <trkpt lat="43.42728" lon="6.14168">
        <ele>261.20001220703</ele>
        <time>2013-05-04T14:42:15Z</time>
      </trkpt>
      <trkpt lat="43.42735" lon="6.14169">
        <ele>260.39999389648</ele>
        <time>2013-05-04T14:42:17Z</time>
      </trkpt>
      <trkpt lat="43.42741" lon="6.14175">
        <ele>260.39999389648</ele>
        <time>2013-05-04T14:42:19Z</time>
      </trkpt>
      <trkpt lat="43.42742" lon="6.14179">
        <ele>259.79998779297</ele>
        <time>2013-05-04T14:42:20Z</time>
      </trkpt>
      <trkpt lat="43.42745" lon="6.14181">
        <ele>259.39999389648</ele>
        <time>2013-05-04T14:42:21Z</time>
      </trkpt>
      <trkpt lat="43.42751" lon="6.14189">
        <ele>258.60000610352</ele>
        <time>2013-05-04T14:42:23Z</time>
      </trkpt>
      <trkpt lat="43.42757" lon="6.14196">
        <ele>257.60000610352</ele>
        <time>2013-05-04T14:42:25Z</time>
      </trkpt>
      <trkpt lat="43.4276" lon="6.14198">
        <ele>257.20001220703</ele>
        <time>2013-05-04T14:42:26Z</time>
      </trkpt>
      <trkpt lat="43.42764" lon="6.14201">
        <ele>256.60000610352</ele>
        <time>2013-05-04T14:42:27Z</time>
      </trkpt>
      <trkpt lat="43.42768" lon="6.14203">
        <ele>256.20001220703</ele>
        <time>2013-05-04T14:42:28Z</time>
      </trkpt>
      <trkpt lat="43.42774" lon="6.14204">
        <ele>255.80000305176</ele>
        <time>2013-05-04T14:42:29Z</time>
      </trkpt>
      <trkpt lat="43.42782" lon="6.14204">
        <ele>255.19999694824</ele>
        <time>2013-05-04T14:42:31Z</time>
      </trkpt>
      <trkpt lat="43.42787" lon="6.14203">
        <ele>254.80000305176</ele>
        <time>2013-05-04T14:42:32Z</time>
      </trkpt>
      <trkpt lat="43.42796" lon="6.14202">
        <ele>254</ele>
        <time>2013-05-04T14:42:34Z</time>
      </trkpt>
      <trkpt lat="43.42801" lon="6.14202">
        <ele>253.60000610352</ele>
        <time>2013-05-04T14:42:35Z</time>
      </trkpt>
      <trkpt lat="43.4281" lon="6.14199">
        <ele>253.60000610352</ele>
        <time>2013-05-04T14:42:37Z</time>
      </trkpt>
      <trkpt lat="43.42815" lon="6.14196">
        <ele>253</ele>
        <time>2013-05-04T14:42:39Z</time>
      </trkpt>
      <trkpt lat="43.42825" lon="6.14194">
        <ele>251.19999694824</ele>
        <time>2013-05-04T14:42:42Z</time>
      </trkpt>
      <trkpt lat="43.42828" lon="6.14194">
        <ele>250.80000305176</ele>
        <time>2013-05-04T14:42:43Z</time>
      </trkpt>
      <trkpt lat="43.42834" lon="6.14194">
        <ele>249.80000305176</ele>
        <time>2013-05-04T14:42:45Z</time>
      </trkpt>
      <trkpt lat="43.42837" lon="6.14194">
        <ele>249.39999389648</ele>
        <time>2013-05-04T14:42:46Z</time>
      </trkpt>
      <trkpt lat="43.42842" lon="6.14194">
        <ele>248.80000305176</ele>
        <time>2013-05-04T14:42:47Z</time>
      </trkpt>
      <trkpt lat="43.42846" lon="6.14194">
        <ele>248.19999694824</ele>
        <time>2013-05-04T14:42:48Z</time>
      </trkpt>
      <trkpt lat="43.4285" lon="6.14194">
        <ele>247.60000610352</ele>
        <time>2013-05-04T14:42:49Z</time>
      </trkpt>
      <trkpt lat="43.42857" lon="6.14195">
        <ele>246.39999389648</ele>
        <time>2013-05-04T14:42:51Z</time>
      </trkpt>
      <trkpt lat="43.42861" lon="6.14193">
        <ele>245.80000305176</ele>
        <time>2013-05-04T14:42:52Z</time>
      </trkpt>
      <trkpt lat="43.42865" lon="6.14192">
        <ele>245.19999694824</ele>
        <time>2013-05-04T14:42:53Z</time>
      </trkpt>
      <trkpt lat="43.42868" lon="6.14191">
        <ele>244.60000610352</ele>
        <time>2013-05-04T14:42:54Z</time>
      </trkpt>
      <trkpt lat="43.42893" lon="6.1418">
        <ele>241.19999694824</ele>
        <time>2013-05-04T14:43:00Z</time>
      </trkpt>
      <trkpt lat="43.42897" lon="6.14177">
        <ele>240.80000305176</ele>
        <time>2013-05-04T14:43:01Z</time>
      </trkpt>
      <trkpt lat="43.429" lon="6.14176">
        <ele>240.39999389648</ele>
        <time>2013-05-04T14:43:02Z</time>
      </trkpt>
      <trkpt lat="43.42902" lon="6.14175">
        <ele>239.80000305176</ele>
        <time>2013-05-04T14:43:03Z</time>
      </trkpt>
      <trkpt lat="43.42905" lon="6.14175">
        <ele>239.39999389648</ele>
        <time>2013-05-04T14:43:04Z</time>
      </trkpt>
      <trkpt lat="43.42915" lon="6.14171">
        <ele>239</ele>
        <time>2013-05-04T14:43:06Z</time>
      </trkpt>
      <trkpt lat="43.4292" lon="6.1417">
        <ele>238.39999389648</ele>
        <time>2013-05-04T14:43:07Z</time>
      </trkpt>
      <trkpt lat="43.42923" lon="6.14168">
        <ele>238</ele>
        <time>2013-05-04T14:43:08Z</time>
      </trkpt>
      <trkpt lat="43.42926" lon="6.14167">
        <ele>237.60000610352</ele>
        <time>2013-05-04T14:43:09Z</time>
      </trkpt>
      <trkpt lat="43.42927" lon="6.14166">
        <ele>237</ele>
        <time>2013-05-04T14:43:10Z</time>
      </trkpt>
      <trkpt lat="43.42927" lon="6.14165">
        <ele>237</ele>
        <time>2013-05-04T14:43:11Z</time>
      </trkpt>
      <trkpt lat="43.42927" lon="6.14165">
        <ele>237</ele>
        <time>2013-05-04T14:43:31Z</time>
      </trkpt>
      <trkpt lat="43.42927" lon="6.14165">
        <ele>237</ele>
        <time>2013-05-04T14:43:47Z</time>
      </trkpt>
      <trkpt lat="43.42928" lon="6.14164">
        <ele>237</ele>
        <time>2013-05-04T14:43:53Z</time>
      </trkpt>
      <trkpt lat="43.42933" lon="6.14161">
        <ele>237</ele>
        <time>2013-05-04T14:44:00Z</time>
      </trkpt>
      <trkpt lat="43.42949" lon="6.14152">
        <ele>236.60000610352</ele>
        <time>2013-05-04T14:44:05Z</time>
      </trkpt>
      <trkpt lat="43.42952" lon="6.14148">
        <ele>236.19999694824</ele>
        <time>2013-05-04T14:44:06Z</time>
      </trkpt>
      <trkpt lat="43.42958" lon="6.14142">
        <ele>235.39999389648</ele>
        <time>2013-05-04T14:44:08Z</time>
      </trkpt>
      <trkpt lat="43.42962" lon="6.14138">
        <ele>235</ele>
        <time>2013-05-04T14:44:09Z</time>
      </trkpt>
      <trkpt lat="43.42974" lon="6.14129">
        <ele>235</ele>
        <time>2013-05-04T14:44:12Z</time>
      </trkpt>
      <trkpt lat="43.42979" lon="6.14127">
        <ele>235</ele>
        <time>2013-05-04T14:44:14Z</time>
      </trkpt>
      <trkpt lat="43.42983" lon="6.14126">
        <ele>234.60000610352</ele>
        <time>2013-05-04T14:44:15Z</time>
      </trkpt>
      <trkpt lat="43.42986" lon="6.14122">
        <ele>233.80000305176</ele>
        <time>2013-05-04T14:44:17Z</time>
      </trkpt>
      <trkpt lat="43.42987" lon="6.1412">
        <ele>233.39999389648</ele>
        <time>2013-05-04T14:44:18Z</time>
      </trkpt>
      <trkpt lat="43.42988" lon="6.14118">
        <ele>232.80000305176</ele>
        <time>2013-05-04T14:44:19Z</time>
      </trkpt>
      <trkpt lat="43.42989" lon="6.1411">
        <ele>232.39999389648</ele>
        <time>2013-05-04T14:44:22Z</time>
      </trkpt>
      <trkpt lat="43.42989" lon="6.14108">
        <ele>232</ele>
        <time>2013-05-04T14:44:23Z</time>
      </trkpt>
      <trkpt lat="43.42989" lon="6.14104">
        <ele>231.19999694824</ele>
        <time>2013-05-04T14:44:25Z</time>
      </trkpt>
      <trkpt lat="43.42991" lon="6.14103">
        <ele>230.80000305176</ele>
        <time>2013-05-04T14:44:26Z</time>
      </trkpt>
      <trkpt lat="43.42993" lon="6.141">
        <ele>230.80000305176</ele>
        <time>2013-05-04T14:44:28Z</time>
      </trkpt>
      <trkpt lat="43.42999" lon="6.14097">
        <ele>230.39999389648</ele>
        <time>2013-05-04T14:44:31Z</time>
      </trkpt>
      <trkpt lat="43.43004" lon="6.14099">
        <ele>228.60000610352</ele>
        <time>2013-05-04T14:44:35Z</time>
      </trkpt>
      <trkpt lat="43.43006" lon="6.141">
        <ele>228.19999694824</ele>
        <time>2013-05-04T14:44:36Z</time>
      </trkpt>
      <trkpt lat="43.43011" lon="6.14103">
        <ele>227</ele>
        <time>2013-05-04T14:44:39Z</time>
      </trkpt>
      <trkpt lat="43.43012" lon="6.14104">
        <ele>226.39999389648</ele>
        <time>2013-05-04T14:44:40Z</time>
      </trkpt>
      <trkpt lat="43.43014" lon="6.14105">
        <ele>226</ele>
        <time>2013-05-04T14:44:42Z</time>
      </trkpt>
      <trkpt lat="43.43015" lon="6.14106">
        <ele>225.60000610352</ele>
        <time>2013-05-04T14:44:43Z</time>
      </trkpt>
      <trkpt lat="43.43018" lon="6.14107">
        <ele>224.39999389648</ele>
        <time>2013-05-04T14:44:45Z</time>
      </trkpt>
      <trkpt lat="43.43018" lon="6.14107">
        <ele>224</ele>
        <time>2013-05-04T14:44:46Z</time>
      </trkpt>
      <trkpt lat="43.43019" lon="6.14107">
        <ele>223.60000610352</ele>
        <time>2013-05-04T14:44:47Z</time>
      </trkpt>
      <trkpt lat="43.43019" lon="6.14107">
        <ele>222.39999389648</ele>
        <time>2013-05-04T14:44:50Z</time>
      </trkpt>
      <trkpt lat="43.43019" lon="6.14106">
        <ele>222.39999389648</ele>
        <time>2013-05-04T14:44:52Z</time>
      </trkpt>
      <trkpt lat="43.43022" lon="6.14103">
        <ele>222.39999389648</ele>
        <time>2013-05-04T14:44:58Z</time>
      </trkpt>
      <trkpt lat="43.43024" lon="6.14093">
        <ele>221.60000610352</ele>
        <time>2013-05-04T14:45:05Z</time>
      </trkpt>
      <trkpt lat="43.43024" lon="6.14093">
        <ele>221.19999694824</ele>
        <time>2013-05-04T14:45:06Z</time>
      </trkpt>
      <trkpt lat="43.43024" lon="6.14093">
        <ele>220.60000610352</ele>
        <time>2013-05-04T14:45:07Z</time>
      </trkpt>
      <trkpt lat="43.43026" lon="6.14088">
        <ele>220.19999694824</ele>
        <time>2013-05-04T14:45:10Z</time>
      </trkpt>
      <trkpt lat="43.43029" lon="6.14089">
        <ele>219.80000305176</ele>
        <time>2013-05-04T14:45:13Z</time>
      </trkpt>
      <trkpt lat="43.43029" lon="6.14089">
        <ele>219.39999389648</ele>
        <time>2013-05-04T14:45:14Z</time>
      </trkpt>
      <trkpt lat="43.4303" lon="6.1409">
        <ele>219</ele>
        <time>2013-05-04T14:45:15Z</time>
      </trkpt>
      <trkpt lat="43.43031" lon="6.14091">
        <ele>218.60000610352</ele>
        <time>2013-05-04T14:45:16Z</time>
      </trkpt>
      <trkpt lat="43.43032" lon="6.14092">
        <ele>218.19999694824</ele>
        <time>2013-05-04T14:45:17Z</time>
      </trkpt>
      <trkpt lat="43.43038" lon="6.14099">
        <ele>217.19999694824</ele>
        <time>2013-05-04T14:45:21Z</time>
      </trkpt>
      <trkpt lat="43.4304" lon="6.141">
        <ele>216.80000305176</ele>
        <time>2013-05-04T14:45:22Z</time>
      </trkpt>
      <trkpt lat="43.43041" lon="6.14102">
        <ele>216.39999389648</ele>
        <time>2013-05-04T14:45:23Z</time>
      </trkpt>
      <trkpt lat="43.43041" lon="6.14103">
        <ele>216</ele>
        <time>2013-05-04T14:45:24Z</time>
      </trkpt>
      <trkpt lat="43.43042" lon="6.14104">
        <ele>216</ele>
        <time>2013-05-04T14:45:26Z</time>
      </trkpt>
      <trkpt lat="43.43043" lon="6.14105">
        <ele>215.60000610352</ele>
        <time>2013-05-04T14:45:28Z</time>
      </trkpt>
      <trkpt lat="43.43043" lon="6.14105">
        <ele>214</ele>
        <time>2013-05-04T14:45:32Z</time>
      </trkpt>
      <trkpt lat="43.43051" lon="6.14116">
        <ele>213.39999389648</ele>
        <time>2013-05-04T14:45:43Z</time>
      </trkpt>
      <trkpt lat="43.43052" lon="6.14114">
        <ele>213</ele>
        <time>2013-05-04T14:45:44Z</time>
      </trkpt>
      <trkpt lat="43.43054" lon="6.14108">
        <ele>211.39999389648</ele>
        <time>2013-05-04T14:45:47Z</time>
      </trkpt>
      <trkpt lat="43.43055" lon="6.14105">
        <ele>211.39999389648</ele>
        <time>2013-05-04T14:45:48Z</time>
      </trkpt>
      <trkpt lat="43.43057" lon="6.14102">
        <ele>211</ele>
        <time>2013-05-04T14:45:50Z</time>
      </trkpt>
      <trkpt lat="43.43058" lon="6.141">
        <ele>210.60000610352</ele>
        <time>2013-05-04T14:45:51Z</time>
      </trkpt>
      <trkpt lat="43.43059" lon="6.14098">
        <ele>210.19999694824</ele>
        <time>2013-05-04T14:45:52Z</time>
      </trkpt>
      <trkpt lat="43.43059" lon="6.14094">
        <ele>209.19999694824</ele>
        <time>2013-05-04T14:45:54Z</time>
      </trkpt>
      <trkpt lat="43.43063" lon="6.14087">
        <ele>207.80000305176</ele>
        <time>2013-05-04T14:45:58Z</time>
      </trkpt>
      <trkpt lat="43.43063" lon="6.14087">
        <ele>207.39999389648</ele>
        <time>2013-05-04T14:45:59Z</time>
      </trkpt>
      <trkpt lat="43.43063" lon="6.14087">
        <ele>206.80000305176</ele>
        <time>2013-05-04T14:46:00Z</time>
      </trkpt>
      <trkpt lat="43.43063" lon="6.14085">
        <ele>206.80000305176</ele>
        <time>2013-05-04T14:46:02Z</time>
      </trkpt>
      <trkpt lat="43.43066" lon="6.14083">
        <ele>206.39999389648</ele>
        <time>2013-05-04T14:46:09Z</time>
      </trkpt>
      <trkpt lat="43.43069" lon="6.14084">
        <ele>206</ele>
        <time>2013-05-04T14:46:10Z</time>
      </trkpt>
      <trkpt lat="43.43072" lon="6.14087">
        <ele>204.80000305176</ele>
        <time>2013-05-04T14:46:13Z</time>
      </trkpt>
      <trkpt lat="43.43075" lon="6.14087">
        <ele>204.39999389648</ele>
        <time>2013-05-04T14:46:16Z</time>
      </trkpt>
      <trkpt lat="43.43079" lon="6.14088">
        <ele>202.60000610352</ele>
        <time>2013-05-04T14:46:20Z</time>
      </trkpt>
      <trkpt lat="43.4308" lon="6.14088">
        <ele>202.60000610352</ele>
        <time>2013-05-04T14:46:23Z</time>
      </trkpt>
      <trkpt lat="43.43083" lon="6.14089">
        <ele>202.60000610352</ele>
        <time>2013-05-04T14:46:29Z</time>
      </trkpt>
      <trkpt lat="43.43087" lon="6.14088">
        <ele>202.19999694824</ele>
        <time>2013-05-04T14:46:31Z</time>
      </trkpt>
      <trkpt lat="43.43089" lon="6.14088">
        <ele>201.80000305176</ele>
        <time>2013-05-04T14:46:32Z</time>
      </trkpt>
      <trkpt lat="43.43094" lon="6.1409">
        <ele>201</ele>
        <time>2013-05-04T14:46:34Z</time>
      </trkpt>
      <trkpt lat="43.43096" lon="6.14094">
        <ele>200.19999694824</ele>
        <time>2013-05-04T14:46:36Z</time>
      </trkpt>
      <trkpt lat="43.43097" lon="6.14096">
        <ele>199.80000305176</ele>
        <time>2013-05-04T14:46:37Z</time>
      </trkpt>
      <trkpt lat="43.43099" lon="6.14099">
        <ele>199.19999694824</ele>
        <time>2013-05-04T14:46:38Z</time>
      </trkpt>
      <trkpt lat="43.43099" lon="6.14101">
        <ele>198.80000305176</ele>
        <time>2013-05-04T14:46:39Z</time>
      </trkpt>
      <trkpt lat="43.43101" lon="6.14107">
        <ele>198.39999389648</ele>
        <time>2013-05-04T14:46:41Z</time>
      </trkpt>
      <trkpt lat="43.43104" lon="6.14117">
        <ele>198</ele>
        <time>2013-05-04T14:46:44Z</time>
      </trkpt>
      <trkpt lat="43.43107" lon="6.14125">
        <ele>197</ele>
        <time>2013-05-04T14:46:46Z</time>
      </trkpt>
      <trkpt lat="43.43108" lon="6.14129">
        <ele>196.60000610352</ele>
        <time>2013-05-04T14:46:47Z</time>
      </trkpt>
      <trkpt lat="43.4311" lon="6.14134">
        <ele>196</ele>
        <time>2013-05-04T14:46:48Z</time>
      </trkpt>
      <trkpt lat="43.43116" lon="6.14146">
        <ele>195.39999389648</ele>
        <time>2013-05-04T14:46:50Z</time>
      </trkpt>
      <trkpt lat="43.43121" lon="6.14159">
        <ele>194.39999389648</ele>
        <time>2013-05-04T14:46:52Z</time>
      </trkpt>
      <trkpt lat="43.43121" lon="6.14166">
        <ele>193.80000305176</ele>
        <time>2013-05-04T14:46:53Z</time>
      </trkpt>
      <trkpt lat="43.43122" lon="6.14173">
        <ele>193.19999694824</ele>
        <time>2013-05-04T14:46:54Z</time>
      </trkpt>
      <trkpt lat="43.43123" lon="6.1418">
        <ele>193.19999694824</ele>
        <time>2013-05-04T14:46:55Z</time>
      </trkpt>
      <trkpt lat="43.43124" lon="6.14187">
        <ele>192.80000305176</ele>
        <time>2013-05-04T14:46:56Z</time>
      </trkpt>
      <trkpt lat="43.43125" lon="6.14194">
        <ele>192.19999694824</ele>
        <time>2013-05-04T14:46:57Z</time>
      </trkpt>
      <trkpt lat="43.43125" lon="6.14202">
        <ele>191.80000305176</ele>
        <time>2013-05-04T14:46:58Z</time>
      </trkpt>
      <trkpt lat="43.43125" lon="6.14209">
        <ele>191.19999694824</ele>
        <time>2013-05-04T14:46:59Z</time>
      </trkpt>
      <trkpt lat="43.43125" lon="6.14216">
        <ele>190.80000305176</ele>
        <time>2013-05-04T14:47:00Z</time>
      </trkpt>
      <trkpt lat="43.43127" lon="6.1423">
        <ele>190.39999389648</ele>
        <time>2013-05-04T14:47:03Z</time>
      </trkpt>
      <trkpt lat="43.43129" lon="6.14232">
        <ele>189.80000305176</ele>
        <time>2013-05-04T14:47:04Z</time>
      </trkpt>
      <trkpt lat="43.43131" lon="6.14234">
        <ele>189.39999389648</ele>
        <time>2013-05-04T14:47:05Z</time>
      </trkpt>
      <trkpt lat="43.43132" lon="6.14235">
        <ele>189</ele>
        <time>2013-05-04T14:47:06Z</time>
      </trkpt>
      <trkpt lat="43.43134" lon="6.14236">
        <ele>188.39999389648</ele>
        <time>2013-05-04T14:47:07Z</time>
      </trkpt>
      <trkpt lat="43.43138" lon="6.14237">
        <ele>188.39999389648</ele>
        <time>2013-05-04T14:47:09Z</time>
      </trkpt>
      <trkpt lat="43.43139" lon="6.14238">
        <ele>188.39999389648</ele>
        <time>2013-05-04T14:47:13Z</time>
      </trkpt>
      <trkpt lat="43.43139" lon="6.14238">
        <ele>188.39999389648</ele>
        <time>2013-05-04T14:47:34Z</time>
      </trkpt>
      <trkpt lat="43.43139" lon="6.14238">
        <ele>188.39999389648</ele>
        <time>2013-05-04T14:48:04Z</time>
      </trkpt>
      <trkpt lat="43.43139" lon="6.14238">
        <ele>188.39999389648</ele>
        <time>2013-05-04T14:48:10Z</time>
      </trkpt>
      <trkpt lat="43.43139" lon="6.14238">
        <ele>188.39999389648</ele>
        <time>2013-05-04T14:48:26Z</time>
      </trkpt>
      <trkpt lat="43.43139" lon="6.14238">
        <ele>188.39999389648</ele>
        <time>2013-05-04T14:48:31Z</time>
      </trkpt>
      <trkpt lat="43.43139" lon="6.14238">
        <ele>188.39999389648</ele>
        <time>2013-05-04T14:48:37Z</time>
      </trkpt>
      <trkpt lat="43.43139" lon="6.14238">
        <ele>188.39999389648</ele>
        <time>2013-05-04T14:49:02Z</time>
      </trkpt>
      <trkpt lat="43.43139" lon="6.14239">
        <ele>188.39999389648</ele>
        <time>2013-05-04T14:49:18Z</time>
      </trkpt>
      <trkpt lat="43.43139" lon="6.14239">
        <ele>188.39999389648</ele>
        <time>2013-05-04T14:49:29Z</time>
      </trkpt>
      <trkpt lat="43.4314" lon="6.1424">
        <ele>188.39999389648</ele>
        <time>2013-05-04T14:49:30Z</time>
      </trkpt>
      <trkpt lat="43.43146" lon="6.14243">
        <ele>188.39999389648</ele>
        <time>2013-05-04T14:49:34Z</time>
      </trkpt>
      <trkpt lat="43.43159" lon="6.14248">
        <ele>188.39999389648</ele>
        <time>2013-05-04T14:49:40Z</time>
      </trkpt>
      <trkpt lat="43.43171" lon="6.14251">
        <ele>188.39999389648</ele>
        <time>2013-05-04T14:49:44Z</time>
      </trkpt>
      <trkpt lat="43.43179" lon="6.14239">
        <ele>188.39999389648</ele>
        <time>2013-05-04T14:49:47Z</time>
      </trkpt>
      <trkpt lat="43.43181" lon="6.14234">
        <ele>188.39999389648</ele>
        <time>2013-05-04T14:49:48Z</time>
      </trkpt>
      <trkpt lat="43.43189" lon="6.14223">
        <ele>188.39999389648</ele>
        <time>2013-05-04T14:49:52Z</time>
      </trkpt>
      <trkpt lat="43.43203" lon="6.14217">
        <ele>188.39999389648</ele>
        <time>2013-05-04T14:49:58Z</time>
      </trkpt>
      <trkpt lat="43.43205" lon="6.14217">
        <ele>188.39999389648</ele>
        <time>2013-05-04T14:49:59Z</time>
      </trkpt>
      <trkpt lat="43.4322" lon="6.14225">
        <ele>188.39999389648</ele>
        <time>2013-05-04T14:50:07Z</time>
      </trkpt>
      <trkpt lat="43.43221" lon="6.14226">
        <ele>188.39999389648</ele>
        <time>2013-05-04T14:50:12Z</time>
      </trkpt>
      <trkpt lat="43.43224" lon="6.14227">
        <ele>188.39999389648</ele>
        <time>2013-05-04T14:50:14Z</time>
      </trkpt>
      <trkpt lat="43.43227" lon="6.14224">
        <ele>188.39999389648</ele>
        <time>2013-05-04T14:50:16Z</time>
      </trkpt>
      <trkpt lat="43.43233" lon="6.14208">
        <ele>188.39999389648</ele>
        <time>2013-05-04T14:50:22Z</time>
      </trkpt>
      <trkpt lat="43.43238" lon="6.14197">
        <ele>188.39999389648</ele>
        <time>2013-05-04T14:50:26Z</time>
      </trkpt>
      <trkpt lat="43.43241" lon="6.14187">
        <ele>188.39999389648</ele>
        <time>2013-05-04T14:50:29Z</time>
      </trkpt>
      <trkpt lat="43.43252" lon="6.14158">
        <ele>188.39999389648</ele>
        <time>2013-05-04T14:50:37Z</time>
      </trkpt>
      <trkpt lat="43.43264" lon="6.14126">
        <ele>188.39999389648</ele>
        <time>2013-05-04T14:50:45Z</time>
      </trkpt>
      <trkpt lat="43.43272" lon="6.14087">
        <ele>188.39999389648</ele>
        <time>2013-05-04T14:50:54Z</time>
      </trkpt>
      <trkpt lat="43.43275" lon="6.14061">
        <ele>188.39999389648</ele>
        <time>2013-05-04T14:51:01Z</time>
      </trkpt>
      <trkpt lat="43.43276" lon="6.14048">
        <ele>188.39999389648</ele>
        <time>2013-05-04T14:51:06Z</time>
      </trkpt>
      <trkpt lat="43.43275" lon="6.14039">
        <ele>188.39999389648</ele>
        <time>2013-05-04T14:51:11Z</time>
      </trkpt>
      <trkpt lat="43.43272" lon="6.14005">
        <ele>188.39999389648</ele>
        <time>2013-05-04T14:51:18Z</time>
      </trkpt>
      <trkpt lat="43.43265" lon="6.13969">
        <ele>188.39999389648</ele>
        <time>2013-05-04T14:51:25Z</time>
      </trkpt>
      <trkpt lat="43.43252" lon="6.13932">
        <ele>188.39999389648</ele>
        <time>2013-05-04T14:51:33Z</time>
      </trkpt>
      <trkpt lat="43.43239" lon="6.13907">
        <ele>188.39999389648</ele>
        <time>2013-05-04T14:51:38Z</time>
      </trkpt>
      <trkpt lat="43.43218" lon="6.13869">
        <ele>188.39999389648</ele>
        <time>2013-05-04T14:51:46Z</time>
      </trkpt>
      <trkpt lat="43.432" lon="6.13836">
        <ele>188.39999389648</ele>
        <time>2013-05-04T14:51:53Z</time>
      </trkpt>
      <trkpt lat="43.43181" lon="6.13804">
        <ele>188.39999389648</ele>
        <time>2013-05-04T14:52:00Z</time>
      </trkpt>
      <trkpt lat="43.4317" lon="6.13784">
        <ele>188.39999389648</ele>
        <time>2013-05-04T14:52:04Z</time>
      </trkpt>
      <trkpt lat="43.43142" lon="6.13733">
        <ele>188.39999389648</ele>
        <time>2013-05-04T14:52:14Z</time>
      </trkpt>
      <trkpt lat="43.43122" lon="6.13698">
        <ele>188.39999389648</ele>
        <time>2013-05-04T14:52:21Z</time>
      </trkpt>
      <trkpt lat="43.43115" lon="6.13683">
        <ele>188.39999389648</ele>
        <time>2013-05-04T14:52:24Z</time>
      </trkpt>
      <trkpt lat="43.43107" lon="6.13666">
        <ele>188.39999389648</ele>
        <time>2013-05-04T14:52:27Z</time>
      </trkpt>
      <trkpt lat="43.4309" lon="6.13621">
        <ele>188.80000305176</ele>
        <time>2013-05-04T14:52:35Z</time>
      </trkpt>
      <trkpt lat="43.43077" lon="6.13571">
        <ele>190.39999389648</ele>
        <time>2013-05-04T14:52:43Z</time>
      </trkpt>
      <trkpt lat="43.43071" lon="6.13531">
        <ele>190.39999389648</ele>
        <time>2013-05-04T14:52:49Z</time>
      </trkpt>
      <trkpt lat="43.43073" lon="6.1351">
        <ele>190.39999389648</ele>
        <time>2013-05-04T14:52:52Z</time>
      </trkpt>
      <trkpt lat="43.43074" lon="6.13503">
        <ele>190.39999389648</ele>
        <time>2013-05-04T14:52:53Z</time>
      </trkpt>
      <trkpt lat="43.43077" lon="6.1349">
        <ele>190.39999389648</ele>
        <time>2013-05-04T14:52:55Z</time>
      </trkpt>
      <trkpt lat="43.43086" lon="6.13465">
        <ele>190.39999389648</ele>
        <time>2013-05-04T14:52:59Z</time>
      </trkpt>
      <trkpt lat="43.43108" lon="6.13405">
        <ele>190.39999389648</ele>
        <time>2013-05-04T14:53:09Z</time>
      </trkpt>
      <trkpt lat="43.43114" lon="6.1338">
        <ele>190.39999389648</ele>
        <time>2013-05-04T14:53:13Z</time>
      </trkpt>
      <trkpt lat="43.43119" lon="6.13353">
        <ele>190.39999389648</ele>
        <time>2013-05-04T14:53:17Z</time>
      </trkpt>
      <trkpt lat="43.43126" lon="6.13297">
        <ele>190.39999389648</ele>
        <time>2013-05-04T14:53:25Z</time>
      </trkpt>
      <trkpt lat="43.43123" lon="6.1324">
        <ele>190.39999389648</ele>
        <time>2013-05-04T14:53:33Z</time>
      </trkpt>
      <trkpt lat="43.43111" lon="6.13191">
        <ele>190.39999389648</ele>
        <time>2013-05-04T14:53:40Z</time>
      </trkpt>
      <trkpt lat="43.43098" lon="6.13136">
        <ele>190.39999389648</ele>
        <time>2013-05-04T14:53:48Z</time>
      </trkpt>
      <trkpt lat="43.43088" lon="6.13095">
        <ele>190.39999389648</ele>
        <time>2013-05-04T14:53:54Z</time>
      </trkpt>
      <trkpt lat="43.43068" lon="6.13021">
        <ele>190.39999389648</ele>
        <time>2013-05-04T14:54:05Z</time>
      </trkpt>
      <trkpt lat="43.43053" lon="6.12969">
        <ele>190.39999389648</ele>
        <time>2013-05-04T14:54:13Z</time>
      </trkpt>
      <trkpt lat="43.43044" lon="6.12923">
        <ele>190.39999389648</ele>
        <time>2013-05-04T14:54:20Z</time>
      </trkpt>
      <trkpt lat="43.43032" lon="6.12877">
        <ele>190.39999389648</ele>
        <time>2013-05-04T14:54:27Z</time>
      </trkpt>
      <trkpt lat="43.4302" lon="6.12824">
        <ele>190.39999389648</ele>
        <time>2013-05-04T14:54:35Z</time>
      </trkpt>
      <trkpt lat="43.43016" lon="6.12776">
        <ele>190.39999389648</ele>
        <time>2013-05-04T14:54:42Z</time>
      </trkpt>
      <trkpt lat="43.43017" lon="6.12704">
        <ele>190.39999389648</ele>
        <time>2013-05-04T14:54:52Z</time>
      </trkpt>
      <trkpt lat="43.43018" lon="6.12685">
        <ele>190.39999389648</ele>
        <time>2013-05-04T14:54:55Z</time>
      </trkpt>
      <trkpt lat="43.43018" lon="6.12668">
        <ele>190.39999389648</ele>
        <time>2013-05-04T14:54:58Z</time>
      </trkpt>
      <trkpt lat="43.43019" lon="6.12663">
        <ele>190.39999389648</ele>
        <time>2013-05-04T14:54:59Z</time>
      </trkpt>
      <trkpt lat="43.43019" lon="6.12638">
        <ele>190.39999389648</ele>
        <time>2013-05-04T14:55:05Z</time>
      </trkpt>
      <trkpt lat="43.43021" lon="6.12616">
        <ele>190.39999389648</ele>
        <time>2013-05-04T14:55:11Z</time>
      </trkpt>
      <trkpt lat="43.43021" lon="6.12612">
        <ele>190.39999389648</ele>
        <time>2013-05-04T14:55:12Z</time>
      </trkpt>
      <trkpt lat="43.43021" lon="6.12602">
        <ele>190.39999389648</ele>
        <time>2013-05-04T14:55:15Z</time>
      </trkpt>
      <trkpt lat="43.43021" lon="6.12592">
        <ele>190.39999389648</ele>
        <time>2013-05-04T14:55:18Z</time>
      </trkpt>
      <trkpt lat="43.43018" lon="6.12563">
        <ele>190.39999389648</ele>
        <time>2013-05-04T14:55:25Z</time>
      </trkpt>
      <trkpt lat="43.43011" lon="6.1253">
        <ele>190.39999389648</ele>
        <time>2013-05-04T14:55:33Z</time>
      </trkpt>
      <trkpt lat="43.43007" lon="6.12504">
        <ele>190.39999389648</ele>
        <time>2013-05-04T14:55:39Z</time>
      </trkpt>
      <trkpt lat="43.43007" lon="6.12496">
        <ele>191</ele>
        <time>2013-05-04T14:55:41Z</time>
      </trkpt>
      <trkpt lat="43.43005" lon="6.12486">
        <ele>191.80000305176</ele>
        <time>2013-05-04T14:55:43Z</time>
      </trkpt>
      <trkpt lat="43.43004" lon="6.12478">
        <ele>192.60000610352</ele>
        <time>2013-05-04T14:55:45Z</time>
      </trkpt>
      <trkpt lat="43.42997" lon="6.1245">
        <ele>192.60000610352</ele>
        <time>2013-05-04T14:55:53Z</time>
      </trkpt>
      <trkpt lat="43.42991" lon="6.12429">
        <ele>194.19999694824</ele>
        <time>2013-05-04T14:55:59Z</time>
      </trkpt>
      <trkpt lat="43.42986" lon="6.12413">
        <ele>194.60000610352</ele>
        <time>2013-05-04T14:56:03Z</time>
      </trkpt>
      <trkpt lat="43.42983" lon="6.12403">
        <ele>194.60000610352</ele>
        <time>2013-05-04T14:56:06Z</time>
      </trkpt>
      <trkpt lat="43.4298" lon="6.12392">
        <ele>194.60000610352</ele>
        <time>2013-05-04T14:56:11Z</time>
      </trkpt>
      <trkpt lat="43.42976" lon="6.12373">
        <ele>194.60000610352</ele>
        <time>2013-05-04T14:56:16Z</time>
      </trkpt>
      <trkpt lat="43.42971" lon="6.12349">
        <ele>194.60000610352</ele>
        <time>2013-05-04T14:56:21Z</time>
      </trkpt>
      <trkpt lat="43.4296" lon="6.12327">
        <ele>194.60000610352</ele>
        <time>2013-05-04T14:56:26Z</time>
      </trkpt>
      <trkpt lat="43.42943" lon="6.1232">
        <ele>194.60000610352</ele>
        <time>2013-05-04T14:56:30Z</time>
      </trkpt>
      <trkpt lat="43.42933" lon="6.1232">
        <ele>194.60000610352</ele>
        <time>2013-05-04T14:56:32Z</time>
      </trkpt>
      <trkpt lat="43.42917" lon="6.12322">
        <ele>194.60000610352</ele>
        <time>2013-05-04T14:56:35Z</time>
      </trkpt>
      <trkpt lat="43.42896" lon="6.12329">
        <ele>194.60000610352</ele>
        <time>2013-05-04T14:56:39Z</time>
      </trkpt>
      <trkpt lat="43.42887" lon="6.12334">
        <ele>194.60000610352</ele>
        <time>2013-05-04T14:56:41Z</time>
      </trkpt>
      <trkpt lat="43.42862" lon="6.12358">
        <ele>194.60000610352</ele>
        <time>2013-05-04T14:56:47Z</time>
      </trkpt>
      <trkpt lat="43.42844" lon="6.12384">
        <ele>194.60000610352</ele>
        <time>2013-05-04T14:56:52Z</time>
      </trkpt>
      <trkpt lat="43.42825" lon="6.12412">
        <ele>194.60000610352</ele>
        <time>2013-05-04T14:56:57Z</time>
      </trkpt>
      <trkpt lat="43.42799" lon="6.12447">
        <ele>194.60000610352</ele>
        <time>2013-05-04T14:57:03Z</time>
      </trkpt>
      <trkpt lat="43.42795" lon="6.12452">
        <ele>194.60000610352</ele>
        <time>2013-05-04T14:57:04Z</time>
      </trkpt>
      <trkpt lat="43.42779" lon="6.12462">
        <ele>194.60000610352</ele>
        <time>2013-05-04T14:57:07Z</time>
      </trkpt>
      <trkpt lat="43.42753" lon="6.12473">
        <ele>194.60000610352</ele>
        <time>2013-05-04T14:57:12Z</time>
      </trkpt>
      <trkpt lat="43.42748" lon="6.12474">
        <ele>194.60000610352</ele>
        <time>2013-05-04T14:57:13Z</time>
      </trkpt>
      <trkpt lat="43.42724" lon="6.12477">
        <ele>194.60000610352</ele>
        <time>2013-05-04T14:57:18Z</time>
      </trkpt>
      <trkpt lat="43.4272" lon="6.12477">
        <ele>194.60000610352</ele>
        <time>2013-05-04T14:57:19Z</time>
      </trkpt>
      <trkpt lat="43.42691" lon="6.12476">
        <ele>194.60000610352</ele>
        <time>2013-05-04T14:57:26Z</time>
      </trkpt>
      <trkpt lat="43.42681" lon="6.12474">
        <ele>194.60000610352</ele>
        <time>2013-05-04T14:57:30Z</time>
      </trkpt>
      <trkpt lat="43.4268" lon="6.12473">
        <ele>194.60000610352</ele>
        <time>2013-05-04T14:57:35Z</time>
      </trkpt>
      <trkpt lat="43.4268" lon="6.12473">
        <ele>194.60000610352</ele>
        <time>2013-05-04T14:57:42Z</time>
      </trkpt>
      <trkpt lat="43.42676" lon="6.12473">
        <ele>194.60000610352</ele>
        <time>2013-05-04T14:57:49Z</time>
      </trkpt>
      <trkpt lat="43.42663" lon="6.1247">
        <ele>194.60000610352</ele>
        <time>2013-05-04T14:57:54Z</time>
      </trkpt>
      <trkpt lat="43.42653" lon="6.12464">
        <ele>194.60000610352</ele>
        <time>2013-05-04T14:57:58Z</time>
      </trkpt>
      <trkpt lat="43.42648" lon="6.12462">
        <ele>194.60000610352</ele>
        <time>2013-05-04T14:58:00Z</time>
      </trkpt>
      <trkpt lat="43.42636" lon="6.1245">
        <ele>194.60000610352</ele>
        <time>2013-05-04T14:58:06Z</time>
      </trkpt>
      <trkpt lat="43.42625" lon="6.12436">
        <ele>194.60000610352</ele>
        <time>2013-05-04T14:58:11Z</time>
      </trkpt>
      <trkpt lat="43.42611" lon="6.12415">
        <ele>194.60000610352</ele>
        <time>2013-05-04T14:58:16Z</time>
      </trkpt>
      <trkpt lat="43.42607" lon="6.1241">
        <ele>194.60000610352</ele>
        <time>2013-05-04T14:58:17Z</time>
      </trkpt>
      <trkpt lat="43.42585" lon="6.12376">
        <ele>194.60000610352</ele>
        <time>2013-05-04T14:58:24Z</time>
      </trkpt>
      <trkpt lat="43.42569" lon="6.12349">
        <ele>194.60000610352</ele>
        <time>2013-05-04T14:58:29Z</time>
      </trkpt>
      <trkpt lat="43.42564" lon="6.12337">
        <ele>194.60000610352</ele>
        <time>2013-05-04T14:58:31Z</time>
      </trkpt>
      <trkpt lat="43.42547" lon="6.12301">
        <ele>194.60000610352</ele>
        <time>2013-05-04T14:58:37Z</time>
      </trkpt>
      <trkpt lat="43.42529" lon="6.1226">
        <ele>194.60000610352</ele>
        <time>2013-05-04T14:58:44Z</time>
      </trkpt>
      <trkpt lat="43.42511" lon="6.12219">
        <ele>194.60000610352</ele>
        <time>2013-05-04T14:58:51Z</time>
      </trkpt>
      <trkpt lat="43.42501" lon="6.12197">
        <ele>194.60000610352</ele>
        <time>2013-05-04T14:58:55Z</time>
      </trkpt>
      <trkpt lat="43.42484" lon="6.12163">
        <ele>194.60000610352</ele>
        <time>2013-05-04T14:59:01Z</time>
      </trkpt>
      <trkpt lat="43.42472" lon="6.12148">
        <ele>194.60000610352</ele>
        <time>2013-05-04T14:59:04Z</time>
      </trkpt>
      <trkpt lat="43.42447" lon="6.12113">
        <ele>194.60000610352</ele>
        <time>2013-05-04T14:59:11Z</time>
      </trkpt>
      <trkpt lat="43.42427" lon="6.12084">
        <ele>194.60000610352</ele>
        <time>2013-05-04T14:59:17Z</time>
      </trkpt>
      <trkpt lat="43.42409" lon="6.12042">
        <ele>194.60000610352</ele>
        <time>2013-05-04T14:59:25Z</time>
      </trkpt>
      <trkpt lat="43.42397" lon="6.12006">
        <ele>194.60000610352</ele>
        <time>2013-05-04T14:59:32Z</time>
      </trkpt>
      <trkpt lat="43.42384" lon="6.11955">
        <ele>194.60000610352</ele>
        <time>2013-05-04T14:59:41Z</time>
      </trkpt>
      <trkpt lat="43.42383" lon="6.11949">
        <ele>194.60000610352</ele>
        <time>2013-05-04T14:59:42Z</time>
      </trkpt>
      <trkpt lat="43.42374" lon="6.11916">
        <ele>194.60000610352</ele>
        <time>2013-05-04T14:59:48Z</time>
      </trkpt>
      <trkpt lat="43.42365" lon="6.11887">
        <ele>194.60000610352</ele>
        <time>2013-05-04T14:59:55Z</time>
      </trkpt>
      <trkpt lat="43.4236" lon="6.1187">
        <ele>194.60000610352</ele>
        <time>2013-05-04T15:00:01Z</time>
      </trkpt>
      <trkpt lat="43.42358" lon="6.11864">
        <ele>195</ele>
        <time>2013-05-04T15:00:03Z</time>
      </trkpt>
      <trkpt lat="43.42356" lon="6.1186">
        <ele>195.39999389648</ele>
        <time>2013-05-04T15:00:04Z</time>
      </trkpt>
      <trkpt lat="43.42355" lon="6.11857">
        <ele>195.80000305176</ele>
        <time>2013-05-04T15:00:05Z</time>
      </trkpt>
      <trkpt lat="43.42353" lon="6.1185">
        <ele>196.60000610352</ele>
        <time>2013-05-04T15:00:07Z</time>
      </trkpt>
      <trkpt lat="43.42351" lon="6.11839">
        <ele>196.60000610352</ele>
        <time>2013-05-04T15:00:10Z</time>
      </trkpt>
      <trkpt lat="43.42337" lon="6.11807">
        <ele>196.60000610352</ele>
        <time>2013-05-04T15:00:18Z</time>
      </trkpt>
      <trkpt lat="43.4232" lon="6.1178">
        <ele>196.60000610352</ele>
        <time>2013-05-04T15:00:25Z</time>
      </trkpt>
      <trkpt lat="43.42311" lon="6.11769">
        <ele>196.60000610352</ele>
        <time>2013-05-04T15:00:28Z</time>
      </trkpt>
      <trkpt lat="43.4231" lon="6.11765">
        <ele>196.60000610352</ele>
        <time>2013-05-04T15:00:30Z</time>
      </trkpt>
      <trkpt lat="43.42309" lon="6.11764">
        <ele>196.60000610352</ele>
        <time>2013-05-04T15:00:35Z</time>
      </trkpt>
      <trkpt lat="43.42309" lon="6.11763">
        <ele>196.60000610352</ele>
        <time>2013-05-04T15:00:42Z</time>
      </trkpt>
      <trkpt lat="43.42308" lon="6.11765">
        <ele>196.60000610352</ele>
        <time>2013-05-04T15:00:48Z</time>
      </trkpt>
      <trkpt lat="43.42308" lon="6.11765">
        <ele>196.60000610352</ele>
        <time>2013-05-04T15:01:01Z</time>
      </trkpt>
      <trkpt lat="43.42308" lon="6.11765">
        <ele>196.60000610352</ele>
        <time>2013-05-04T15:01:17Z</time>
      </trkpt>
      <trkpt lat="43.4231" lon="6.11765">
        <ele>196.60000610352</ele>
        <time>2013-05-04T15:01:21Z</time>
      </trkpt>
      <trkpt lat="43.4231" lon="6.11764">
        <ele>196.60000610352</ele>
        <time>2013-05-04T15:01:25Z</time>
      </trkpt>
      <trkpt lat="43.4231" lon="6.11764">
        <ele>196.60000610352</ele>
        <time>2013-05-04T15:01:49Z</time>
      </trkpt>
      <trkpt lat="43.4231" lon="6.11764">
        <ele>196.60000610352</ele>
        <time>2013-05-04T15:01:58Z</time>
      </trkpt>
      <trkpt lat="43.4231" lon="6.11764">
        <ele>196.60000610352</ele>
        <time>2013-05-04T15:02:04Z</time>
      </trkpt>
      <trkpt lat="43.4231" lon="6.11764">
        <ele>196.60000610352</ele>
        <time>2013-05-04T15:02:34Z</time>
      </trkpt>
      <trkpt lat="43.42311" lon="6.11764">
        <ele>196.60000610352</ele>
        <time>2013-05-04T15:02:47Z</time>
      </trkpt>
      <trkpt lat="43.42311" lon="6.11764">
        <ele>196.60000610352</ele>
        <time>2013-05-04T15:03:13Z</time>
      </trkpt>
      <trkpt lat="43.4231" lon="6.11765">
        <ele>196.60000610352</ele>
        <time>2013-05-04T15:03:28Z</time>
      </trkpt>
      <trkpt lat="43.4231" lon="6.11765">
        <ele>196.60000610352</ele>
        <time>2013-05-04T15:03:45Z</time>
      </trkpt>
      <trkpt lat="43.42311" lon="6.11765">
        <ele>196.60000610352</ele>
        <time>2013-05-04T15:04:15Z</time>
      </trkpt>
      <trkpt lat="43.42311" lon="6.11765">
        <ele>196.60000610352</ele>
        <time>2013-05-04T15:04:29Z</time>
      </trkpt>
      <trkpt lat="43.4231" lon="6.11765">
        <ele>196.60000610352</ele>
        <time>2013-05-04T15:04:46Z</time>
      </trkpt>
      <trkpt lat="43.4231" lon="6.11765">
        <ele>196.60000610352</ele>
        <time>2013-05-04T15:05:02Z</time>
      </trkpt>
      <trkpt lat="43.42311" lon="6.11765">
        <ele>196.60000610352</ele>
        <time>2013-05-04T15:05:30Z</time>
      </trkpt>
      <trkpt lat="43.42311" lon="6.11765">
        <ele>196.60000610352</ele>
        <time>2013-05-04T15:05:43Z</time>
      </trkpt>
      <trkpt lat="43.42311" lon="6.11765">
        <ele>196.60000610352</ele>
        <time>2013-05-04T15:05:59Z</time>
      </trkpt>
      <trkpt lat="43.4231" lon="6.11763">
        <ele>196.60000610352</ele>
        <time>2013-05-04T15:06:28Z</time>
      </trkpt>
      <trkpt lat="43.4231" lon="6.11763">
        <ele>196.60000610352</ele>
        <time>2013-05-04T15:06:35Z</time>
      </trkpt>
      <trkpt lat="43.4231" lon="6.11763">
        <ele>196.60000610352</ele>
        <time>2013-05-04T15:06:39Z</time>
      </trkpt>
      <trkpt lat="43.4231" lon="6.11763">
        <ele>196.60000610352</ele>
        <time>2013-05-04T15:06:49Z</time>
      </trkpt>
      <trkpt lat="43.4231" lon="6.11763">
        <ele>196.60000610352</ele>
        <time>2013-05-04T15:07:13Z</time>
      </trkpt>
      <trkpt lat="43.42306" lon="6.11759">
        <ele>196.60000610352</ele>
        <time>2013-05-04T15:07:17Z</time>
      </trkpt>
      <trkpt lat="43.42294" lon="6.11743">
        <ele>196.60000610352</ele>
        <time>2013-05-04T15:07:23Z</time>
      </trkpt>
      <trkpt lat="43.42276" lon="6.11722">
        <ele>196.60000610352</ele>
        <time>2013-05-04T15:07:30Z</time>
      </trkpt>
      <trkpt lat="43.42265" lon="6.11709">
        <ele>196.60000610352</ele>
        <time>2013-05-04T15:07:35Z</time>
      </trkpt>
      <trkpt lat="43.42252" lon="6.11692">
        <ele>196.60000610352</ele>
        <time>2013-05-04T15:07:41Z</time>
      </trkpt>
      <trkpt lat="43.42237" lon="6.11673">
        <ele>196.60000610352</ele>
        <time>2013-05-04T15:07:47Z</time>
      </trkpt>
      <trkpt lat="43.42223" lon="6.1165">
        <ele>196.60000610352</ele>
        <time>2013-05-04T15:07:53Z</time>
      </trkpt>
      <trkpt lat="43.42209" lon="6.11626">
        <ele>196.60000610352</ele>
        <time>2013-05-04T15:08:00Z</time>
      </trkpt>
      <trkpt lat="43.42195" lon="6.11602">
        <ele>196.60000610352</ele>
        <time>2013-05-04T15:08:06Z</time>
      </trkpt>
      <trkpt lat="43.42184" lon="6.11582">
        <ele>196.60000610352</ele>
        <time>2013-05-04T15:08:11Z</time>
      </trkpt>
      <trkpt lat="43.42174" lon="6.11566">
        <ele>196.60000610352</ele>
        <time>2013-05-04T15:08:15Z</time>
      </trkpt>
      <trkpt lat="43.42163" lon="6.11547">
        <ele>196.60000610352</ele>
        <time>2013-05-04T15:08:21Z</time>
      </trkpt>
      <trkpt lat="43.42149" lon="6.11523">
        <ele>196.60000610352</ele>
        <time>2013-05-04T15:08:28Z</time>
      </trkpt>
      <trkpt lat="43.42135" lon="6.11501">
        <ele>196.60000610352</ele>
        <time>2013-05-04T15:08:34Z</time>
      </trkpt>
      <trkpt lat="43.42117" lon="6.1147">
        <ele>196.60000610352</ele>
        <time>2013-05-04T15:08:42Z</time>
      </trkpt>
      <trkpt lat="43.42099" lon="6.11442">
        <ele>196.60000610352</ele>
        <time>2013-05-04T15:08:48Z</time>
      </trkpt>
      <trkpt lat="43.42088" lon="6.11419">
        <ele>196.60000610352</ele>
        <time>2013-05-04T15:08:53Z</time>
      </trkpt>
      <trkpt lat="43.42075" lon="6.11392">
        <ele>196.60000610352</ele>
        <time>2013-05-04T15:08:59Z</time>
      </trkpt>
      <trkpt lat="43.42071" lon="6.11385">
        <ele>196.60000610352</ele>
        <time>2013-05-04T15:09:01Z</time>
      </trkpt>
      <trkpt lat="43.42053" lon="6.11356">
        <ele>196.60000610352</ele>
        <time>2013-05-04T15:09:08Z</time>
      </trkpt>
      <trkpt lat="43.42031" lon="6.11316">
        <ele>196.60000610352</ele>
        <time>2013-05-04T15:09:16Z</time>
      </trkpt>
      <trkpt lat="43.42012" lon="6.11287">
        <ele>196.60000610352</ele>
        <time>2013-05-04T15:09:22Z</time>
      </trkpt>
      <trkpt lat="43.41999" lon="6.11268">
        <ele>196.19999694824</ele>
        <time>2013-05-04T15:09:26Z</time>
      </trkpt>
      <trkpt lat="43.41988" lon="6.11255">
        <ele>194.60000610352</ele>
        <time>2013-05-04T15:09:29Z</time>
      </trkpt>
      <trkpt lat="43.41978" lon="6.11241">
        <ele>194.60000610352</ele>
        <time>2013-05-04T15:09:32Z</time>
      </trkpt>
      <trkpt lat="43.41952" lon="6.11203">
        <ele>194.60000610352</ele>
        <time>2013-05-04T15:09:40Z</time>
      </trkpt>
      <trkpt lat="43.41935" lon="6.11168">
        <ele>194.60000610352</ele>
        <time>2013-05-04T15:09:47Z</time>
      </trkpt>
      <trkpt lat="43.41922" lon="6.1113">
        <ele>194.60000610352</ele>
        <time>2013-05-04T15:09:54Z</time>
      </trkpt>
      <trkpt lat="43.41918" lon="6.11092">
        <ele>194.60000610352</ele>
        <time>2013-05-04T15:10:01Z</time>
      </trkpt>
      <trkpt lat="43.41922" lon="6.11051">
        <ele>194.60000610352</ele>
        <time>2013-05-04T15:10:09Z</time>
      </trkpt>
      <trkpt lat="43.41925" lon="6.11014">
        <ele>195</ele>
        <time>2013-05-04T15:10:16Z</time>
      </trkpt>
      <trkpt lat="43.41925" lon="6.11">
        <ele>196.39999389648</ele>
        <time>2013-05-04T15:10:19Z</time>
      </trkpt>
      <trkpt lat="43.41926" lon="6.10997">
        <ele>196.80000305176</ele>
        <time>2013-05-04T15:10:20Z</time>
      </trkpt>
      <trkpt lat="43.41925" lon="6.10988">
        <ele>196.80000305176</ele>
        <time>2013-05-04T15:10:23Z</time>
      </trkpt>
      <trkpt lat="43.41921" lon="6.10968">
        <ele>196.80000305176</ele>
        <time>2013-05-04T15:10:30Z</time>
      </trkpt>
      <trkpt lat="43.41915" lon="6.1094">
        <ele>196.80000305176</ele>
        <time>2013-05-04T15:10:38Z</time>
      </trkpt>
      <trkpt lat="43.41908" lon="6.10909">
        <ele>196.80000305176</ele>
        <time>2013-05-04T15:10:46Z</time>
      </trkpt>
      <trkpt lat="43.41904" lon="6.10881">
        <ele>196.80000305176</ele>
        <time>2013-05-04T15:10:53Z</time>
      </trkpt>
      <trkpt lat="43.41904" lon="6.1085">
        <ele>196.80000305176</ele>
        <time>2013-05-04T15:10:59Z</time>
      </trkpt>
      <trkpt lat="43.41908" lon="6.1082">
        <ele>196.80000305176</ele>
        <time>2013-05-04T15:11:05Z</time>
      </trkpt>
      <trkpt lat="43.41913" lon="6.10776">
        <ele>196.80000305176</ele>
        <time>2013-05-04T15:11:14Z</time>
      </trkpt>
      <trkpt lat="43.41917" lon="6.10747">
        <ele>196.80000305176</ele>
        <time>2013-05-04T15:11:21Z</time>
      </trkpt>
      <trkpt lat="43.41931" lon="6.107">
        <ele>196.80000305176</ele>
        <time>2013-05-04T15:11:33Z</time>
      </trkpt>
      <trkpt lat="43.41938" lon="6.10678">
        <ele>196.80000305176</ele>
        <time>2013-05-04T15:11:40Z</time>
      </trkpt>
      <trkpt lat="43.41949" lon="6.1065">
        <ele>196.80000305176</ele>
        <time>2013-05-04T15:11:47Z</time>
      </trkpt>
      <trkpt lat="43.41956" lon="6.10629">
        <ele>197.19999694824</ele>
        <time>2013-05-04T15:11:51Z</time>
      </trkpt>
      <trkpt lat="43.41959" lon="6.10618">
        <ele>198</ele>
        <time>2013-05-04T15:11:53Z</time>
      </trkpt>
      <trkpt lat="43.41961" lon="6.10614">
        <ele>198.39999389648</ele>
        <time>2013-05-04T15:11:54Z</time>
      </trkpt>
      <trkpt lat="43.41962" lon="6.10609">
        <ele>198.80000305176</ele>
        <time>2013-05-04T15:11:55Z</time>
      </trkpt>
      <trkpt lat="43.41975" lon="6.10573">
        <ele>198.80000305176</ele>
        <time>2013-05-04T15:12:03Z</time>
      </trkpt>
      <trkpt lat="43.41982" lon="6.10552">
        <ele>198.80000305176</ele>
        <time>2013-05-04T15:12:09Z</time>
      </trkpt>
      <trkpt lat="43.41987" lon="6.10542">
        <ele>198.80000305176</ele>
        <time>2013-05-04T15:12:14Z</time>
      </trkpt>
      <trkpt lat="43.41991" lon="6.10538">
        <ele>198.80000305176</ele>
        <time>2013-05-04T15:12:20Z</time>
      </trkpt>
      <trkpt lat="43.4199" lon="6.10537">
        <ele>198.80000305176</ele>
        <time>2013-05-04T15:12:27Z</time>
      </trkpt>
      <trkpt lat="43.4199" lon="6.10537">
        <ele>198.80000305176</ele>
        <time>2013-05-04T15:12:46Z</time>
      </trkpt>
      <trkpt lat="43.4199" lon="6.10537">
        <ele>198.80000305176</ele>
        <time>2013-05-04T15:13:06Z</time>
      </trkpt>
      <trkpt lat="43.4199" lon="6.10537">
        <ele>198.80000305176</ele>
        <time>2013-05-04T15:13:33Z</time>
      </trkpt>
      <trkpt lat="43.4199" lon="6.10537">
        <ele>198.80000305176</ele>
        <time>2013-05-04T15:14:04Z</time>
      </trkpt>
      <trkpt lat="43.4199" lon="6.10537">
        <ele>198.80000305176</ele>
        <time>2013-05-04T15:14:31Z</time>
      </trkpt>
      <trkpt lat="43.4199" lon="6.10537">
        <ele>198.80000305176</ele>
        <time>2013-05-04T15:14:55Z</time>
      </trkpt>
      <trkpt lat="43.4199" lon="6.10537">
        <ele>198.80000305176</ele>
        <time>2013-05-04T15:16:10Z</time>
      </trkpt>
      <trkpt lat="43.4199" lon="6.10537">
        <ele>198.80000305176</ele>
        <time>2013-05-04T15:16:23Z</time>
      </trkpt>
      <trkpt lat="43.4199" lon="6.10538">
        <ele>198.80000305176</ele>
        <time>2013-05-04T15:16:32Z</time>
      </trkpt>
      <trkpt lat="43.4199" lon="6.10538">
        <ele>198.80000305176</ele>
        <time>2013-05-04T15:16:57Z</time>
      </trkpt>
      <trkpt lat="43.4199" lon="6.10538">
        <ele>198.80000305176</ele>
        <time>2013-05-04T15:17:48Z</time>
      </trkpt>
      <trkpt lat="43.4199" lon="6.10538">
        <ele>198.80000305176</ele>
        <time>2013-05-04T15:18:16Z</time>
      </trkpt>
      <trkpt lat="43.4199" lon="6.10538">
        <ele>198.80000305176</ele>
        <time>2013-05-04T15:18:23Z</time>
      </trkpt>
      <trkpt lat="43.4199" lon="6.10538">
        <ele>198.80000305176</ele>
        <time>2013-05-04T15:18:31Z</time>
      </trkpt>
      <trkpt lat="43.4199" lon="6.10538">
        <ele>198.80000305176</ele>
        <time>2013-05-04T15:18:46Z</time>
      </trkpt>
      <trkpt lat="43.4199" lon="6.10539">
        <ele>198.80000305176</ele>
        <time>2013-05-04T15:19:09Z</time>
      </trkpt>
      <trkpt lat="43.4199" lon="6.10539">
        <ele>198.80000305176</ele>
        <time>2013-05-04T15:19:28Z</time>
      </trkpt>
      <trkpt lat="43.4199" lon="6.10538">
        <ele>198.80000305176</ele>
        <time>2013-05-04T15:19:54Z</time>
      </trkpt>
      <trkpt lat="43.4199" lon="6.10538">
        <ele>198.80000305176</ele>
        <time>2013-05-04T15:20:10Z</time>
      </trkpt>
      <trkpt lat="43.4199" lon="6.10538">
        <ele>198.80000305176</ele>
        <time>2013-05-04T15:20:25Z</time>
      </trkpt>
      <trkpt lat="43.4199" lon="6.10538">
        <ele>198.80000305176</ele>
        <time>2013-05-04T15:20:38Z</time>
      </trkpt>
      <trkpt lat="43.41991" lon="6.10538">
        <ele>198.80000305176</ele>
        <time>2013-05-04T15:21:05Z</time>
      </trkpt>
      <trkpt lat="43.41991" lon="6.10538">
        <ele>198.80000305176</ele>
        <time>2013-05-04T15:21:21Z</time>
      </trkpt>
      <trkpt lat="43.41991" lon="6.10538">
        <ele>198.80000305176</ele>
        <time>2013-05-04T15:21:50Z</time>
      </trkpt>
      <trkpt lat="43.41991" lon="6.10538">
        <ele>198.80000305176</ele>
        <time>2013-05-04T15:22:04Z</time>
      </trkpt>
      <trkpt lat="43.41991" lon="6.10538">
        <ele>198.80000305176</ele>
        <time>2013-05-04T15:22:20Z</time>
      </trkpt>
      <trkpt lat="43.4199" lon="6.10539">
        <ele>198.80000305176</ele>
        <time>2013-05-04T15:22:33Z</time>
      </trkpt>
      <trkpt lat="43.4199" lon="6.10539">
        <ele>198.80000305176</ele>
        <time>2013-05-04T15:23:04Z</time>
      </trkpt>
      <trkpt lat="43.41991" lon="6.10539">
        <ele>198.80000305176</ele>
        <time>2013-05-04T15:23:53Z</time>
      </trkpt>
      <trkpt lat="43.41991" lon="6.10539">
        <ele>198.80000305176</ele>
        <time>2013-05-04T15:24:08Z</time>
      </trkpt>
      <trkpt lat="43.41991" lon="6.10539">
        <ele>198.80000305176</ele>
        <time>2013-05-04T15:24:35Z</time>
      </trkpt>
      <trkpt lat="43.41991" lon="6.10539">
        <ele>198.80000305176</ele>
        <time>2013-05-04T15:24:50Z</time>
      </trkpt>
      <trkpt lat="43.41991" lon="6.10539">
        <ele>198.80000305176</ele>
        <time>2013-05-04T15:24:58Z</time>
      </trkpt>
      <trkpt lat="43.41991" lon="6.1054">
        <ele>198.80000305176</ele>
        <time>2013-05-04T15:25:05Z</time>
      </trkpt>
      <trkpt lat="43.41991" lon="6.1054">
        <ele>198.80000305176</ele>
        <time>2013-05-04T15:25:19Z</time>
      </trkpt>
      <trkpt lat="43.41991" lon="6.1054">
        <ele>198.80000305176</ele>
        <time>2013-05-04T15:25:44Z</time>
      </trkpt>
      <trkpt lat="43.41991" lon="6.10539">
        <ele>198.80000305176</ele>
        <time>2013-05-04T15:25:47Z</time>
      </trkpt>
      <trkpt lat="43.41991" lon="6.10539">
        <ele>198.80000305176</ele>
        <time>2013-05-04T15:26:12Z</time>
      </trkpt>
      <trkpt lat="43.41991" lon="6.10539">
        <ele>198.80000305176</ele>
        <time>2013-05-04T15:26:22Z</time>
      </trkpt>
      <trkpt lat="43.41991" lon="6.10539">
        <ele>198.80000305176</ele>
        <time>2013-05-04T15:26:26Z</time>
      </trkpt>
      <trkpt lat="43.41991" lon="6.10539">
        <ele>198.80000305176</ele>
        <time>2013-05-04T15:26:43Z</time>
      </trkpt>
      <trkpt lat="43.41991" lon="6.10539">
        <ele>198.80000305176</ele>
        <time>2013-05-04T15:27:09Z</time>
      </trkpt>
      <trkpt lat="43.41991" lon="6.10539">
        <ele>198.80000305176</ele>
        <time>2013-05-04T15:27:25Z</time>
      </trkpt>
      <trkpt lat="43.41992" lon="6.10538">
        <ele>198.80000305176</ele>
        <time>2013-05-04T15:28:08Z</time>
      </trkpt>
      <trkpt lat="43.41991" lon="6.10538">
        <ele>198.80000305176</ele>
        <time>2013-05-04T15:28:20Z</time>
      </trkpt>
      <trkpt lat="43.41991" lon="6.10538">
        <ele>198.80000305176</ele>
        <time>2013-05-04T15:28:21Z</time>
      </trkpt>
      <trkpt lat="43.41991" lon="6.10538">
        <ele>198.80000305176</ele>
        <time>2013-05-04T15:28:29Z</time>
      </trkpt>
      <trkpt lat="43.41991" lon="6.10534">
        <ele>198.80000305176</ele>
        <time>2013-05-04T15:28:32Z</time>
      </trkpt>
      <trkpt lat="43.4199" lon="6.1053">
        <ele>198.80000305176</ele>
        <time>2013-05-04T15:28:34Z</time>
      </trkpt>
      <trkpt lat="43.41988" lon="6.10509">
        <ele>198.80000305176</ele>
        <time>2013-05-04T15:28:39Z</time>
      </trkpt>
      <trkpt lat="43.41988" lon="6.10471">
        <ele>198.80000305176</ele>
        <time>2013-05-04T15:28:47Z</time>
      </trkpt>
      <trkpt lat="43.4199" lon="6.10437">
        <ele>198.80000305176</ele>
        <time>2013-05-04T15:28:55Z</time>
      </trkpt>
      <trkpt lat="43.41993" lon="6.10414">
        <ele>198.80000305176</ele>
        <time>2013-05-04T15:29:03Z</time>
      </trkpt>
      <trkpt lat="43.41997" lon="6.10387">
        <ele>198.80000305176</ele>
        <time>2013-05-04T15:29:11Z</time>
      </trkpt>
      <trkpt lat="43.42" lon="6.10361">
        <ele>198.80000305176</ele>
        <time>2013-05-04T15:29:18Z</time>
      </trkpt>
      <trkpt lat="43.42009" lon="6.10303">
        <ele>198.80000305176</ele>
        <time>2013-05-04T15:29:32Z</time>
      </trkpt>
      <trkpt lat="43.42013" lon="6.10269">
        <ele>198.80000305176</ele>
        <time>2013-05-04T15:29:39Z</time>
      </trkpt>
      <trkpt lat="43.42015" lon="6.10253">
        <ele>200</ele>
        <time>2013-05-04T15:29:42Z</time>
      </trkpt>
      <trkpt lat="43.4202" lon="6.10226">
        <ele>200.80000305176</ele>
        <time>2013-05-04T15:29:47Z</time>
      </trkpt>
      <trkpt lat="43.42022" lon="6.1021">
        <ele>200.80000305176</ele>
        <time>2013-05-04T15:29:50Z</time>
      </trkpt>
      <trkpt lat="43.42022" lon="6.10198">
        <ele>200.80000305176</ele>
        <time>2013-05-04T15:29:52Z</time>
      </trkpt>
      <trkpt lat="43.42028" lon="6.10156">
        <ele>200.80000305176</ele>
        <time>2013-05-04T15:30:00Z</time>
      </trkpt>
      <trkpt lat="43.42033" lon="6.10115">
        <ele>201.60000610352</ele>
        <time>2013-05-04T15:30:07Z</time>
      </trkpt>
      <trkpt lat="43.42036" lon="6.10098">
        <ele>202.80000305176</ele>
        <time>2013-05-04T15:30:10Z</time>
      </trkpt>
      <trkpt lat="43.4204" lon="6.10071">
        <ele>202.80000305176</ele>
        <time>2013-05-04T15:30:15Z</time>
      </trkpt>
      <trkpt lat="43.42046" lon="6.1003">
        <ele>202.80000305176</ele>
        <time>2013-05-04T15:30:23Z</time>
      </trkpt>
      <trkpt lat="43.42055" lon="6.09986">
        <ele>202.80000305176</ele>
        <time>2013-05-04T15:30:31Z</time>
      </trkpt>
      <trkpt lat="43.42064" lon="6.09946">
        <ele>202.80000305176</ele>
        <time>2013-05-04T15:30:38Z</time>
      </trkpt>
      <trkpt lat="43.42066" lon="6.0994">
        <ele>202.80000305176</ele>
        <time>2013-05-04T15:30:39Z</time>
      </trkpt>
      <trkpt lat="43.42074" lon="6.09915">
        <ele>202.80000305176</ele>
        <time>2013-05-04T15:30:43Z</time>
      </trkpt>
      <trkpt lat="43.42079" lon="6.09903">
        <ele>202.80000305176</ele>
        <time>2013-05-04T15:30:45Z</time>
      </trkpt>
      <trkpt lat="43.42093" lon="6.09858">
        <ele>202.80000305176</ele>
        <time>2013-05-04T15:30:52Z</time>
      </trkpt>
      <trkpt lat="43.42094" lon="6.0983">
        <ele>202.80000305176</ele>
        <time>2013-05-04T15:30:56Z</time>
      </trkpt>
      <trkpt lat="43.42093" lon="6.09815">
        <ele>202.80000305176</ele>
        <time>2013-05-04T15:30:58Z</time>
      </trkpt>
      <trkpt lat="43.42091" lon="6.09792">
        <ele>202.80000305176</ele>
        <time>2013-05-04T15:31:01Z</time>
      </trkpt>
      <trkpt lat="43.42084" lon="6.09751">
        <ele>202.80000305176</ele>
        <time>2013-05-04T15:31:07Z</time>
      </trkpt>
      <trkpt lat="43.4207" lon="6.09716">
        <ele>202.80000305176</ele>
        <time>2013-05-04T15:31:13Z</time>
      </trkpt>
      <trkpt lat="43.42064" lon="6.09706">
        <ele>202.80000305176</ele>
        <time>2013-05-04T15:31:15Z</time>
      </trkpt>
      <trkpt lat="43.42048" lon="6.09689">
        <ele>202.80000305176</ele>
        <time>2013-05-04T15:31:19Z</time>
      </trkpt>
      <trkpt lat="43.42026" lon="6.09672">
        <ele>202.80000305176</ele>
        <time>2013-05-04T15:31:24Z</time>
      </trkpt>
      <trkpt lat="43.42021" lon="6.0967">
        <ele>202.80000305176</ele>
        <time>2013-05-04T15:31:25Z</time>
      </trkpt>
      <trkpt lat="43.41989" lon="6.0966">
        <ele>202.80000305176</ele>
        <time>2013-05-04T15:31:31Z</time>
      </trkpt>
      <trkpt lat="43.41943" lon="6.09653">
        <ele>202.80000305176</ele>
        <time>2013-05-04T15:31:39Z</time>
      </trkpt>
      <trkpt lat="43.41937" lon="6.09653">
        <ele>202.80000305176</ele>
        <time>2013-05-04T15:31:40Z</time>
      </trkpt>
      <trkpt lat="43.41899" lon="6.0965">
        <ele>202.80000305176</ele>
        <time>2013-05-04T15:31:48Z</time>
      </trkpt>
      <trkpt lat="43.41894" lon="6.0965">
        <ele>202.80000305176</ele>
        <time>2013-05-04T15:31:49Z</time>
      </trkpt>
      <trkpt lat="43.41862" lon="6.09646">
        <ele>202.80000305176</ele>
        <time>2013-05-04T15:31:56Z</time>
      </trkpt>
      <trkpt lat="43.41837" lon="6.0964">
        <ele>202.80000305176</ele>
        <time>2013-05-04T15:32:01Z</time>
      </trkpt>
      <trkpt lat="43.41828" lon="6.09635">
        <ele>202.80000305176</ele>
        <time>2013-05-04T15:32:03Z</time>
      </trkpt>
      <trkpt lat="43.41813" lon="6.09617">
        <ele>202.80000305176</ele>
        <time>2013-05-04T15:32:07Z</time>
      </trkpt>
      <trkpt lat="43.41793" lon="6.09578">
        <ele>202.80000305176</ele>
        <time>2013-05-04T15:32:14Z</time>
      </trkpt>
      <trkpt lat="43.41772" lon="6.0953">
        <ele>202.80000305176</ele>
        <time>2013-05-04T15:32:22Z</time>
      </trkpt>
      <trkpt lat="43.4177" lon="6.09524">
        <ele>202.80000305176</ele>
        <time>2013-05-04T15:32:23Z</time>
      </trkpt>
      <trkpt lat="43.41759" lon="6.09487">
        <ele>202.80000305176</ele>
        <time>2013-05-04T15:32:29Z</time>
      </trkpt>
      <trkpt lat="43.41747" lon="6.09436">
        <ele>202.80000305176</ele>
        <time>2013-05-04T15:32:37Z</time>
      </trkpt>
      <trkpt lat="43.41735" lon="6.09381">
        <ele>202.80000305176</ele>
        <time>2013-05-04T15:32:45Z</time>
      </trkpt>
      <trkpt lat="43.41726" lon="6.09334">
        <ele>202.80000305176</ele>
        <time>2013-05-04T15:32:52Z</time>
      </trkpt>
      <trkpt lat="43.41722" lon="6.09246">
        <ele>202.80000305176</ele>
        <time>2013-05-04T15:33:05Z</time>
      </trkpt>
      <trkpt lat="43.41721" lon="6.09187">
        <ele>202.80000305176</ele>
        <time>2013-05-04T15:33:14Z</time>
      </trkpt>
      <trkpt lat="43.41721" lon="6.09117">
        <ele>202.80000305176</ele>
        <time>2013-05-04T15:33:24Z</time>
      </trkpt>
      <trkpt lat="43.41722" lon="6.09061">
        <ele>202.80000305176</ele>
        <time>2013-05-04T15:33:32Z</time>
      </trkpt>
      <trkpt lat="43.41727" lon="6.09003">
        <ele>202.80000305176</ele>
        <time>2013-05-04T15:33:40Z</time>
      </trkpt>
      <trkpt lat="43.41734" lon="6.08951">
        <ele>202.80000305176</ele>
        <time>2013-05-04T15:33:48Z</time>
      </trkpt>
      <trkpt lat="43.41735" lon="6.08897">
        <ele>202.80000305176</ele>
        <time>2013-05-04T15:33:56Z</time>
      </trkpt>
      <trkpt lat="43.41729" lon="6.08871">
        <ele>202.80000305176</ele>
        <time>2013-05-04T15:34:00Z</time>
      </trkpt>
      <trkpt lat="43.41703" lon="6.08819">
        <ele>202.80000305176</ele>
        <time>2013-05-04T15:34:09Z</time>
      </trkpt>
      <trkpt lat="43.41681" lon="6.08779">
        <ele>202.80000305176</ele>
        <time>2013-05-04T15:34:16Z</time>
      </trkpt>
      <trkpt lat="43.41657" lon="6.08735">
        <ele>202.80000305176</ele>
        <time>2013-05-04T15:34:24Z</time>
      </trkpt>
      <trkpt lat="43.41637" lon="6.08697">
        <ele>202.80000305176</ele>
        <time>2013-05-04T15:34:31Z</time>
      </trkpt>
      <trkpt lat="43.41623" lon="6.08667">
        <ele>202.80000305176</ele>
        <time>2013-05-04T15:34:36Z</time>
      </trkpt>
      <trkpt lat="43.41615" lon="6.08648">
        <ele>202.80000305176</ele>
        <time>2013-05-04T15:34:39Z</time>
      </trkpt>
      <trkpt lat="43.41611" lon="6.08634">
        <ele>202.80000305176</ele>
        <time>2013-05-04T15:34:41Z</time>
      </trkpt>
      <trkpt lat="43.41605" lon="6.08608">
        <ele>202.80000305176</ele>
        <time>2013-05-04T15:34:45Z</time>
      </trkpt>
      <trkpt lat="43.41603" lon="6.08601">
        <ele>202.80000305176</ele>
        <time>2013-05-04T15:34:46Z</time>
      </trkpt>
      <trkpt lat="43.41599" lon="6.08567">
        <ele>202.80000305176</ele>
        <time>2013-05-04T15:34:51Z</time>
      </trkpt>
      <trkpt lat="43.41589" lon="6.08492">
        <ele>202.80000305176</ele>
        <time>2013-05-04T15:35:02Z</time>
      </trkpt>
      <trkpt lat="43.41582" lon="6.08444">
        <ele>202.80000305176</ele>
        <time>2013-05-04T15:35:09Z</time>
      </trkpt>
      <trkpt lat="43.41574" lon="6.08395">
        <ele>202.80000305176</ele>
        <time>2013-05-04T15:35:16Z</time>
      </trkpt>
      <trkpt lat="43.41561" lon="6.08333">
        <ele>202.80000305176</ele>
        <time>2013-05-04T15:35:25Z</time>
      </trkpt>
      <trkpt lat="43.41549" lon="6.08268">
        <ele>202.80000305176</ele>
        <time>2013-05-04T15:35:34Z</time>
      </trkpt>
      <trkpt lat="43.41534" lon="6.0823">
        <ele>202.80000305176</ele>
        <time>2013-05-04T15:35:40Z</time>
      </trkpt>
      <trkpt lat="43.41515" lon="6.08192">
        <ele>202.80000305176</ele>
        <time>2013-05-04T15:35:47Z</time>
      </trkpt>
      <trkpt lat="43.41504" lon="6.08166">
        <ele>202.80000305176</ele>
        <time>2013-05-04T15:35:52Z</time>
      </trkpt>
      <trkpt lat="43.41501" lon="6.08161">
        <ele>202.80000305176</ele>
        <time>2013-05-04T15:35:53Z</time>
      </trkpt>
      <trkpt lat="43.41485" lon="6.08134">
        <ele>202.80000305176</ele>
        <time>2013-05-04T15:35:58Z</time>
      </trkpt>
      <trkpt lat="43.41459" lon="6.08087">
        <ele>202.80000305176</ele>
        <time>2013-05-04T15:36:06Z</time>
      </trkpt>
      <trkpt lat="43.41434" lon="6.08048">
        <ele>202.80000305176</ele>
        <time>2013-05-04T15:36:13Z</time>
      </trkpt>
      <trkpt lat="43.41427" lon="6.08037">
        <ele>202.80000305176</ele>
        <time>2013-05-04T15:36:15Z</time>
      </trkpt>
      <trkpt lat="43.4142" lon="6.08026">
        <ele>202.80000305176</ele>
        <time>2013-05-04T15:36:17Z</time>
      </trkpt>
      <trkpt lat="43.41414" lon="6.08015">
        <ele>202.80000305176</ele>
        <time>2013-05-04T15:36:19Z</time>
      </trkpt>
      <trkpt lat="43.41392" lon="6.07977">
        <ele>202.80000305176</ele>
        <time>2013-05-04T15:36:26Z</time>
      </trkpt>
      <trkpt lat="43.41389" lon="6.07972">
        <ele>202.80000305176</ele>
        <time>2013-05-04T15:36:27Z</time>
      </trkpt>
      <trkpt lat="43.41378" lon="6.07956">
        <ele>202.80000305176</ele>
        <time>2013-05-04T15:36:31Z</time>
      </trkpt>
      <trkpt lat="43.41375" lon="6.07953">
        <ele>202.80000305176</ele>
        <time>2013-05-04T15:36:32Z</time>
      </trkpt>
      <trkpt lat="43.41354" lon="6.07933">
        <ele>202.80000305176</ele>
        <time>2013-05-04T15:36:39Z</time>
      </trkpt>
      <trkpt lat="43.41332" lon="6.07917">
        <ele>202.80000305176</ele>
        <time>2013-05-04T15:36:46Z</time>
      </trkpt>
      <trkpt lat="43.41314" lon="6.07905">
        <ele>204.39999389648</ele>
        <time>2013-05-04T15:36:51Z</time>
      </trkpt>
      <trkpt lat="43.41298" lon="6.07897">
        <ele>204.80000305176</ele>
        <time>2013-05-04T15:36:55Z</time>
      </trkpt>
      <trkpt lat="43.41263" lon="6.07874">
        <ele>204.80000305176</ele>
        <time>2013-05-04T15:37:04Z</time>
      </trkpt>
      <trkpt lat="43.41259" lon="6.0787">
        <ele>204.80000305176</ele>
        <time>2013-05-04T15:37:05Z</time>
      </trkpt>
      <trkpt lat="43.41239" lon="6.07845">
        <ele>204.80000305176</ele>
        <time>2013-05-04T15:37:10Z</time>
      </trkpt>
      <trkpt lat="43.41223" lon="6.0781">
        <ele>204.80000305176</ele>
        <time>2013-05-04T15:37:15Z</time>
      </trkpt>
      <trkpt lat="43.4122" lon="6.07802">
        <ele>204.80000305176</ele>
        <time>2013-05-04T15:37:16Z</time>
      </trkpt>
      <trkpt lat="43.41213" lon="6.07781">
        <ele>204.80000305176</ele>
        <time>2013-05-04T15:37:19Z</time>
      </trkpt>
      <trkpt lat="43.41209" lon="6.07768">
        <ele>204.80000305176</ele>
        <time>2013-05-04T15:37:21Z</time>
      </trkpt>
      <trkpt lat="43.41206" lon="6.07755">
        <ele>204.80000305176</ele>
        <time>2013-05-04T15:37:23Z</time>
      </trkpt>
      <trkpt lat="43.41202" lon="6.07721">
        <ele>204.80000305176</ele>
        <time>2013-05-04T15:37:29Z</time>
      </trkpt>
      <trkpt lat="43.41206" lon="6.07691">
        <ele>204.80000305176</ele>
        <time>2013-05-04T15:37:36Z</time>
      </trkpt>
      <trkpt lat="43.41209" lon="6.07677">
        <ele>204.80000305176</ele>
        <time>2013-05-04T15:37:39Z</time>
      </trkpt>
      <trkpt lat="43.41213" lon="6.07662">
        <ele>204.80000305176</ele>
        <time>2013-05-04T15:37:42Z</time>
      </trkpt>
      <trkpt lat="43.41217" lon="6.07653">
        <ele>204.80000305176</ele>
        <time>2013-05-04T15:37:44Z</time>
      </trkpt>
      <trkpt lat="43.41245" lon="6.07612">
        <ele>204.80000305176</ele>
        <time>2013-05-04T15:37:55Z</time>
      </trkpt>
      <trkpt lat="43.41249" lon="6.07606">
        <ele>204.80000305176</ele>
        <time>2013-05-04T15:37:57Z</time>
      </trkpt>
      <trkpt lat="43.41267" lon="6.0758">
        <ele>204.80000305176</ele>
        <time>2013-05-04T15:38:04Z</time>
      </trkpt>
      <trkpt lat="43.41283" lon="6.07546">
        <ele>204.80000305176</ele>
        <time>2013-05-04T15:38:11Z</time>
      </trkpt>
      <trkpt lat="43.41286" lon="6.0753">
        <ele>206</ele>
        <time>2013-05-04T15:38:14Z</time>
      </trkpt>
      <trkpt lat="43.41287" lon="6.07524">
        <ele>206.39999389648</ele>
        <time>2013-05-04T15:38:15Z</time>
      </trkpt>
      <trkpt lat="43.41289" lon="6.07507">
        <ele>206.80000305176</ele>
        <time>2013-05-04T15:38:18Z</time>
      </trkpt>
      <trkpt lat="43.41288" lon="6.07458">
        <ele>206.80000305176</ele>
        <time>2013-05-04T15:38:26Z</time>
      </trkpt>
      <trkpt lat="43.41281" lon="6.07396">
        <ele>206.80000305176</ele>
        <time>2013-05-04T15:38:36Z</time>
      </trkpt>
      <trkpt lat="43.41275" lon="6.07346">
        <ele>206.80000305176</ele>
        <time>2013-05-04T15:38:44Z</time>
      </trkpt>
      <trkpt lat="43.41272" lon="6.07325">
        <ele>206.80000305176</ele>
        <time>2013-05-04T15:38:48Z</time>
      </trkpt>
      <trkpt lat="43.41266" lon="6.07311">
        <ele>206.80000305176</ele>
        <time>2013-05-04T15:38:51Z</time>
      </trkpt>
      <trkpt lat="43.41249" lon="6.07283">
        <ele>206.80000305176</ele>
        <time>2013-05-04T15:38:58Z</time>
      </trkpt>
      <trkpt lat="43.41223" lon="6.07247">
        <ele>206.80000305176</ele>
        <time>2013-05-04T15:39:06Z</time>
      </trkpt>
      <trkpt lat="43.41202" lon="6.07204">
        <ele>206.80000305176</ele>
        <time>2013-05-04T15:39:14Z</time>
      </trkpt>
      <trkpt lat="43.41186" lon="6.07165">
        <ele>206.80000305176</ele>
        <time>2013-05-04T15:39:21Z</time>
      </trkpt>
      <trkpt lat="43.41133" lon="6.07071">
        <ele>206.80000305176</ele>
        <time>2013-05-04T15:39:38Z</time>
      </trkpt>
      <trkpt lat="43.41119" lon="6.07042">
        <ele>206.80000305176</ele>
        <time>2013-05-04T15:39:43Z</time>
      </trkpt>
      <trkpt lat="43.41116" lon="6.07035">
        <ele>206.80000305176</ele>
        <time>2013-05-04T15:39:44Z</time>
      </trkpt>
      <trkpt lat="43.41109" lon="6.06994">
        <ele>206.80000305176</ele>
        <time>2013-05-04T15:39:50Z</time>
      </trkpt>
      <trkpt lat="43.41103" lon="6.06949">
        <ele>206.80000305176</ele>
        <time>2013-05-04T15:39:57Z</time>
      </trkpt>
      <trkpt lat="43.41091" lon="6.06916">
        <ele>206.80000305176</ele>
        <time>2013-05-04T15:40:03Z</time>
      </trkpt>
      <trkpt lat="43.4109" lon="6.0691">
        <ele>206.80000305176</ele>
        <time>2013-05-04T15:40:04Z</time>
      </trkpt>
      <trkpt lat="43.4108" lon="6.06863">
        <ele>206.80000305176</ele>
        <time>2013-05-04T15:40:12Z</time>
      </trkpt>
      <trkpt lat="43.41077" lon="6.06844">
        <ele>206.80000305176</ele>
        <time>2013-05-04T15:40:17Z</time>
      </trkpt>
      <trkpt lat="43.41076" lon="6.06844">
        <ele>206.80000305176</ele>
        <time>2013-05-04T15:40:20Z</time>
      </trkpt>
      <trkpt lat="43.41076" lon="6.06846">
        <ele>206.80000305176</ele>
        <time>2013-05-04T15:40:26Z</time>
      </trkpt>
      <trkpt lat="43.41076" lon="6.06844">
        <ele>206.80000305176</ele>
        <time>2013-05-04T15:40:27Z</time>
      </trkpt>
      <trkpt lat="43.41074" lon="6.06843">
        <ele>206.80000305176</ele>
        <time>2013-05-04T15:40:30Z</time>
      </trkpt>
      <trkpt lat="43.41072" lon="6.06855">
        <ele>206.80000305176</ele>
        <time>2013-05-04T15:40:34Z</time>
      </trkpt>
      <trkpt lat="43.41069" lon="6.06861">
        <ele>206.80000305176</ele>
        <time>2013-05-04T15:40:37Z</time>
      </trkpt>
      <trkpt lat="43.41066" lon="6.06862">
        <ele>206.80000305176</ele>
        <time>2013-05-04T15:40:38Z</time>
      </trkpt>
      <trkpt lat="43.41051" lon="6.06869">
        <ele>206.80000305176</ele>
        <time>2013-05-04T15:40:43Z</time>
      </trkpt>
      <trkpt lat="43.41031" lon="6.06878">
        <ele>206.80000305176</ele>
        <time>2013-05-04T15:40:48Z</time>
      </trkpt>
      <trkpt lat="43.4102" lon="6.06881">
        <ele>206.80000305176</ele>
        <time>2013-05-04T15:40:52Z</time>
      </trkpt>
      <trkpt lat="43.41018" lon="6.0688">
        <ele>206.80000305176</ele>
        <time>2013-05-04T15:40:54Z</time>
      </trkpt>
      <trkpt lat="43.41018" lon="6.06878">
        <ele>206.80000305176</ele>
        <time>2013-05-04T15:40:56Z</time>
      </trkpt>
      <trkpt lat="43.41014" lon="6.06874">
        <ele>206.80000305176</ele>
        <time>2013-05-04T15:41:02Z</time>
      </trkpt>
      <trkpt lat="43.41014" lon="6.06876">
        <ele>206.80000305176</ele>
        <time>2013-05-04T15:41:04Z</time>
      </trkpt>
      <trkpt lat="43.41016" lon="6.06882">
        <ele>206.80000305176</ele>
        <time>2013-05-04T15:41:07Z</time>
      </trkpt>
      <trkpt lat="43.4102" lon="6.06887">
        <ele>206.80000305176</ele>
        <time>2013-05-04T15:41:10Z</time>
      </trkpt>
      <trkpt lat="43.41021" lon="6.06888">
        <ele>206.80000305176</ele>
        <time>2013-05-04T15:41:11Z</time>
      </trkpt>
      <trkpt lat="43.4102" lon="6.0689">
        <ele>206.80000305176</ele>
        <time>2013-05-04T15:41:13Z</time>
      </trkpt>
      <trkpt lat="43.41019" lon="6.06889">
        <ele>206.80000305176</ele>
        <time>2013-05-04T15:41:15Z</time>
      </trkpt>
      <trkpt lat="43.41019" lon="6.06888">
        <ele>206.80000305176</ele>
        <time>2013-05-04T15:41:17Z</time>
      </trkpt>
      <trkpt lat="43.41018" lon="6.06887">
        <ele>206.80000305176</ele>
        <time>2013-05-04T15:41:21Z</time>
      </trkpt>
      <trkpt lat="43.41018" lon="6.06887">
        <ele>206.80000305176</ele>
        <time>2013-05-04T15:41:24Z</time>
      </trkpt>
      <trkpt lat="43.41018" lon="6.06887">
        <ele>206.80000305176</ele>
        <time>2013-05-04T15:41:37Z</time>
      </trkpt>
      <trkpt lat="43.41016" lon="6.06882">
        <ele>206.80000305176</ele>
        <time>2013-05-04T15:41:40Z</time>
      </trkpt>
      <trkpt lat="43.41013" lon="6.06877">
        <ele>206.80000305176</ele>
        <time>2013-05-04T15:41:42Z</time>
      </trkpt>
      <trkpt lat="43.41006" lon="6.06859">
        <ele>206.80000305176</ele>
        <time>2013-05-04T15:41:47Z</time>
      </trkpt>
      <trkpt lat="43.40995" lon="6.06828">
        <ele>206.80000305176</ele>
        <time>2013-05-04T15:41:53Z</time>
      </trkpt>
      <trkpt lat="43.40982" lon="6.06797">
        <ele>206.80000305176</ele>
        <time>2013-05-04T15:41:59Z</time>
      </trkpt>
      <trkpt lat="43.40978" lon="6.06786">
        <ele>206.80000305176</ele>
        <time>2013-05-04T15:42:01Z</time>
      </trkpt>
      <trkpt lat="43.4095" lon="6.06714">
        <ele>206.80000305176</ele>
        <time>2013-05-04T15:42:15Z</time>
      </trkpt>
      <trkpt lat="43.40936" lon="6.06677">
        <ele>206.80000305176</ele>
        <time>2013-05-04T15:42:22Z</time>
      </trkpt>
      <trkpt lat="43.40917" lon="6.06626">
        <ele>206.80000305176</ele>
        <time>2013-05-04T15:42:31Z</time>
      </trkpt>
      <trkpt lat="43.40904" lon="6.0659">
        <ele>206.80000305176</ele>
        <time>2013-05-04T15:42:37Z</time>
      </trkpt>
      <trkpt lat="43.40889" lon="6.0655">
        <ele>206.80000305176</ele>
        <time>2013-05-04T15:42:44Z</time>
      </trkpt>
      <trkpt lat="43.4087" lon="6.06501">
        <ele>206.80000305176</ele>
        <time>2013-05-04T15:42:53Z</time>
      </trkpt>
      <trkpt lat="43.40865" lon="6.06487">
        <ele>206.80000305176</ele>
        <time>2013-05-04T15:42:56Z</time>
      </trkpt>
      <trkpt lat="43.40859" lon="6.06469">
        <ele>206.80000305176</ele>
        <time>2013-05-04T15:43:00Z</time>
      </trkpt>
      <trkpt lat="43.4085" lon="6.06445">
        <ele>206.80000305176</ele>
        <time>2013-05-04T15:43:06Z</time>
      </trkpt>
      <trkpt lat="43.40845" lon="6.06422">
        <ele>206.80000305176</ele>
        <time>2013-05-04T15:43:13Z</time>
      </trkpt>
      <trkpt lat="43.40844" lon="6.06421">
        <ele>206.80000305176</ele>
        <time>2013-05-04T15:43:17Z</time>
      </trkpt>
      <trkpt lat="43.40843" lon="6.06419">
        <ele>206.80000305176</ele>
        <time>2013-05-04T15:43:27Z</time>
      </trkpt>
      <trkpt lat="43.40841" lon="6.06417">
        <ele>206.80000305176</ele>
        <time>2013-05-04T15:43:28Z</time>
      </trkpt>
      <trkpt lat="43.40829" lon="6.06416">
        <ele>206.80000305176</ele>
        <time>2013-05-04T15:43:32Z</time>
      </trkpt>
      <trkpt lat="43.40813" lon="6.06411">
        <ele>206.80000305176</ele>
        <time>2013-05-04T15:43:37Z</time>
      </trkpt>
      <trkpt lat="43.40797" lon="6.06405">
        <ele>206.80000305176</ele>
        <time>2013-05-04T15:43:42Z</time>
      </trkpt>
      <trkpt lat="43.40779" lon="6.06407">
        <ele>206.80000305176</ele>
        <time>2013-05-04T15:43:48Z</time>
      </trkpt>
      <trkpt lat="43.40767" lon="6.06408">
        <ele>206.80000305176</ele>
        <time>2013-05-04T15:43:52Z</time>
      </trkpt>
      <trkpt lat="43.40752" lon="6.06411">
        <ele>206.80000305176</ele>
        <time>2013-05-04T15:43:57Z</time>
      </trkpt>
      <trkpt lat="43.40739" lon="6.06417">
        <ele>206.80000305176</ele>
        <time>2013-05-04T15:44:02Z</time>
      </trkpt>
      <trkpt lat="43.40716" lon="6.06421">
        <ele>209</ele>
        <time>2013-05-04T15:44:10Z</time>
      </trkpt>
      <trkpt lat="43.40705" lon="6.06424">
        <ele>209</ele>
        <time>2013-05-04T15:44:14Z</time>
      </trkpt>
      <trkpt lat="43.40694" lon="6.06428">
        <ele>209</ele>
        <time>2013-05-04T15:44:18Z</time>
      </trkpt>
      <trkpt lat="43.40689" lon="6.06431">
        <ele>209</ele>
        <time>2013-05-04T15:44:20Z</time>
      </trkpt>
      <trkpt lat="43.40667" lon="6.0645">
        <ele>211.19999694824</ele>
        <time>2013-05-04T15:44:30Z</time>
      </trkpt>
      <trkpt lat="43.40648" lon="6.0647">
        <ele>213.19999694824</ele>
        <time>2013-05-04T15:44:39Z</time>
      </trkpt>
      <trkpt lat="43.40645" lon="6.06475">
        <ele>213.19999694824</ele>
        <time>2013-05-04T15:44:41Z</time>
      </trkpt>
      <trkpt lat="43.4064" lon="6.06485">
        <ele>213.19999694824</ele>
        <time>2013-05-04T15:44:45Z</time>
      </trkpt>
      <trkpt lat="43.40638" lon="6.06487">
        <ele>213.60000610352</ele>
        <time>2013-05-04T15:44:46Z</time>
      </trkpt>
      <trkpt lat="43.40633" lon="6.06493">
        <ele>214.80000305176</ele>
        <time>2013-05-04T15:44:49Z</time>
      </trkpt>
      <trkpt lat="43.40627" lon="6.06501">
        <ele>215.19999694824</ele>
        <time>2013-05-04T15:44:53Z</time>
      </trkpt>
      <trkpt lat="43.40614" lon="6.06503">
        <ele>216</ele>
        <time>2013-05-04T15:44:59Z</time>
      </trkpt>
      <trkpt lat="43.40598" lon="6.06505">
        <ele>217.19999694824</ele>
        <time>2013-05-04T15:45:06Z</time>
      </trkpt>
      <trkpt lat="43.40586" lon="6.06505">
        <ele>217.80000305176</ele>
        <time>2013-05-04T15:45:12Z</time>
      </trkpt>
      <trkpt lat="43.40584" lon="6.06504">
        <ele>218.19999694824</ele>
        <time>2013-05-04T15:45:13Z</time>
      </trkpt>
      <trkpt lat="43.4058" lon="6.06504">
        <ele>219</ele>
        <time>2013-05-04T15:45:15Z</time>
      </trkpt>
      <trkpt lat="43.40577" lon="6.06502">
        <ele>219.39999389648</ele>
        <time>2013-05-04T15:45:16Z</time>
      </trkpt>
      <trkpt lat="43.40563" lon="6.06497">
        <ele>219.39999389648</ele>
        <time>2013-05-04T15:45:24Z</time>
      </trkpt>
      <trkpt lat="43.40552" lon="6.06494">
        <ele>219.39999389648</ele>
        <time>2013-05-04T15:45:30Z</time>
      </trkpt>
      <trkpt lat="43.4054" lon="6.06488">
        <ele>220.60000610352</ele>
        <time>2013-05-04T15:45:37Z</time>
      </trkpt>
      <trkpt lat="43.40535" lon="6.06485">
        <ele>221.39999389648</ele>
        <time>2013-05-04T15:45:39Z</time>
      </trkpt>
      <trkpt lat="43.40529" lon="6.06481">
        <ele>221.39999389648</ele>
        <time>2013-05-04T15:45:42Z</time>
      </trkpt>
      <trkpt lat="43.40516" lon="6.06474">
        <ele>221.39999389648</ele>
        <time>2013-05-04T15:45:48Z</time>
      </trkpt>
      <trkpt lat="43.40504" lon="6.06472">
        <ele>221.39999389648</ele>
        <time>2013-05-04T15:45:54Z</time>
      </trkpt>
      <trkpt lat="43.40494" lon="6.06467">
        <ele>221.80000305176</ele>
        <time>2013-05-04T15:46:00Z</time>
      </trkpt>
      <trkpt lat="43.40488" lon="6.06463">
        <ele>223.39999389648</ele>
        <time>2013-05-04T15:46:03Z</time>
      </trkpt>
      <trkpt lat="43.40481" lon="6.0646">
        <ele>223.39999389648</ele>
        <time>2013-05-04T15:46:06Z</time>
      </trkpt>
      <trkpt lat="43.40469" lon="6.06456">
        <ele>223.39999389648</ele>
        <time>2013-05-04T15:46:11Z</time>
      </trkpt>
      <trkpt lat="43.40456" lon="6.06453">
        <ele>223.39999389648</ele>
        <time>2013-05-04T15:46:16Z</time>
      </trkpt>
      <trkpt lat="43.40439" lon="6.0645">
        <ele>223.39999389648</ele>
        <time>2013-05-04T15:46:22Z</time>
      </trkpt>
      <trkpt lat="43.40433" lon="6.0645">
        <ele>224.19999694824</ele>
        <time>2013-05-04T15:46:24Z</time>
      </trkpt>
      <trkpt lat="43.40427" lon="6.06449">
        <ele>225.39999389648</ele>
        <time>2013-05-04T15:46:26Z</time>
      </trkpt>
      <trkpt lat="43.40422" lon="6.06449">
        <ele>225.39999389648</ele>
        <time>2013-05-04T15:46:28Z</time>
      </trkpt>
      <trkpt lat="43.40415" lon="6.06456">
        <ele>225.39999389648</ele>
        <time>2013-05-04T15:46:32Z</time>
      </trkpt>
      <trkpt lat="43.40411" lon="6.06465">
        <ele>225.39999389648</ele>
        <time>2013-05-04T15:46:36Z</time>
      </trkpt>
      <trkpt lat="43.40409" lon="6.0647">
        <ele>225.39999389648</ele>
        <time>2013-05-04T15:46:38Z</time>
      </trkpt>
      <trkpt lat="43.40403" lon="6.06496">
        <ele>225.39999389648</ele>
        <time>2013-05-04T15:46:46Z</time>
      </trkpt>
      <trkpt lat="43.40401" lon="6.06504">
        <ele>225.39999389648</ele>
        <time>2013-05-04T15:46:49Z</time>
      </trkpt>
      <trkpt lat="43.404" lon="6.06515">
        <ele>225.39999389648</ele>
        <time>2013-05-04T15:46:53Z</time>
      </trkpt>
      <trkpt lat="43.40397" lon="6.06523">
        <ele>225.39999389648</ele>
        <time>2013-05-04T15:46:56Z</time>
      </trkpt>
      <trkpt lat="43.40398" lon="6.0653">
        <ele>225.39999389648</ele>
        <time>2013-05-04T15:46:59Z</time>
      </trkpt>
      <trkpt lat="43.40403" lon="6.06537">
        <ele>225.39999389648</ele>
        <time>2013-05-04T15:47:04Z</time>
      </trkpt>
      <trkpt lat="43.40408" lon="6.06539">
        <ele>225.39999389648</ele>
        <time>2013-05-04T15:47:11Z</time>
      </trkpt>
      <trkpt lat="43.40408" lon="6.06539">
        <ele>225.39999389648</ele>
        <time>2013-05-04T15:47:13Z</time>
      </trkpt>
    </trkseg>
  </trk>
</gpx>